
Distance (Route):
Temperature : 2.7°C
Humidity : 22.8%
Pressure : 703.9hPa| Receiver | Frames | First received | Last received |
|---|---|---|---|
| AA1-15 | 1039 | 2026-08-30 22:48:11 | 2026-08-31 01:58:50 |
| DL1XH-15 | 359 | 2026-08-30 22:57:32 | 2026-08-31 01:44:19 |
| DL1XH-west | 106 | 2026-08-30 23:13:12 | 2026-08-31 01:23:11 |
| SP3WXH-11 | 72 | 2026-08-30 23:33:13 | 2026-08-31 02:09:24 |
| DO2SHX-10 | 60 | 2026-08-31 00:05:22 | 2026-08-31 00:57:19 |
| DL1XH1-15 | 60 | 2026-08-31 00:51:23 | 2026-08-31 01:17:25 |
| DB0DAN | 49 | 2026-08-30 22:50:10 | 2026-08-31 01:26:25 |
| MECKS9 | 48 | 2026-08-30 22:52:44 | 2026-08-31 00:58:17 |
| AM1SDL-15 | 42 | 2026-08-30 22:57:28 | 2026-08-31 01:32:16 |
| DG6HD-11 | 40 | 2026-08-30 22:52:50 | 2026-08-31 00:57:20 |
| KRY50SP-1 | 40 | 2026-08-31 01:21:50 | 2026-08-31 01:32:13 |
| S3001 | 34 | 2026-08-30 23:12:51 | 2026-08-31 00:57:23 |
| DJ2DS-15 | 28 | 2026-08-30 23:26:34 | 2026-08-31 00:56:30 |
| DM0DOS-11 | 27 | 2026-08-31 00:57:12 | 2026-08-31 01:17:26 |
| KRY50SP | 22 | 2026-08-31 01:25:12 | 2026-08-31 01:32:18 |
| SP3BTT-10 | 16 | 2026-08-30 23:03:39 | 2026-08-31 01:59:56 |
| SONDE2-11 | 13 | 2026-08-30 23:04:44 | 2026-08-31 01:34:50 |
| D01LWL | 10 | 2026-08-31 00:41:09 | 2026-08-31 00:57:11 |
| EDDB2-11 | 10 | 2026-08-31 00:57:35 | 2026-08-31 01:47:46 |
| DL4BBY-15 | 2 | 2026-08-31 00:05:24 | 2026-08-31 00:50:41 |
| Receiver | Date | Latitude | Longitude | Direction | Speed | Altitude | Climb | Temperature | Humidity | Pressure | Voltage | Killtimer | Uptime | BKT | XDATA |
|---|---|---|---|---|---|---|---|---|---|---|---|---|---|---|---|
| SP3WXH-11 | 2026-08-31 02:09:24 | 54.72247 | 15.59145 | 81° | 49km/h | 3030m | -1.9m/s | 2.7°C | 22.8% | 703.9hPa | 2.7V | 00:00:00 | 00:00:00 | 00:00:00 | |
| SP3WXH-11 | 2026-08-31 02:07:51 | 54.72054 | 15.57037 | 78° | 47km/h | 3234m | -2.2m/s | 1.6°C | 23.0% | 686.5hPa | 2.7V | 00:00:00 | 00:00:00 | 00:00:00 | |
| SP3WXH-11 | 2026-08-31 02:06:49 | 54.71969 | 15.55926 | 85° | 49km/h | 3356m | -2.3m/s | 1.4°C | 14.5% | 675.9hPa | 2.7V | 00:00:00 | 00:00:00 | 00:00:00 | |
| SP3WXH-11 | 2026-08-31 02:06:18 | 54.71955 | 15.54966 | 86° | 49km/h | 3466m | -2.6m/s | 0.9°C | 13.7% | 666.9hPa | 2.7V | 00:00:00 | 00:00:00 | 00:00:00 | |
| SP3WXH-11 | 2026-08-31 02:05:47 | 54.71953 | 15.54605 | 90° | 47km/h | 3508m | -2.6m/s | 0.7°C | 16.6% | 663.4hPa | 2.7V | 00:00:00 | 00:00:00 | 00:00:00 | |
| SP3WXH-11 | 2026-08-31 02:05:16 | 54.71947 | 15.53932 | 90° | 47km/h | 3585m | -2.3m/s | 0.1°C | 18.8% | 656.9hPa | 2.7V | 00:00:00 | 00:00:00 | 00:00:00 | |
| SP3WXH-11 | 2026-08-31 02:04:45 | 54.71938 | 15.53239 | 89° | 51km/h | 3661m | -2.5m/s | -0.6°C | 18.6% | 650.8hPa | 2.7V | 00:00:00 | 00:00:00 | 00:00:00 | |
| SP3WXH-11 | 2026-08-31 02:04:14 | 54.71924 | 15.52486 | 89° | 51km/h | 3741m | -2.4m/s | -1.2°C | 19.5% | 644.3hPa | 2.7V | 00:00:00 | 00:00:00 | 00:00:00 | |
| SP3WXH-11 | 2026-08-31 02:03:43 | 54.71903 | 15.51792 | 85° | 55km/h | 3813m | -2.4m/s | -1.7°C | 19.8% | 638.6hPa | 2.7V | 00:00:00 | 00:00:00 | 00:00:00 | |
| SP3WXH-11 | 2026-08-31 02:03:12 | 54.71871 | 15.51108 | 82° | 49km/h | 3883m | -2.3m/s | -2.1°C | 18.1% | 632.8hPa | 2.7V | 00:00:00 | 00:00:00 | 00:00:00 | |
| SP3WXH-11 | 2026-08-31 02:02:41 | 54.71818 | 15.50420 | 77° | 49km/h | 3960m | -2.3m/s | -2.3°C | 17.2% | 626.8hPa | 2.7V | 00:00:00 | 00:00:00 | 00:00:00 | |
| SP3WXH-11 | 2026-08-31 02:02:10 | 54.71754 | 15.49763 | 82° | 49km/h | 4031m | -2.4m/s | -2.4°C | 13.4% | 621.3hPa | 2.7V | 00:00:00 | 00:00:00 | 00:00:00 | |
| SP3WXH-11 | 2026-08-31 02:01:39 | 54.71704 | 15.49025 | 83° | 49km/h | 4107m | -2.3m/s | -3.0°C | 15.7% | 615.3hPa | 2.7V | 00:00:00 | 00:00:00 | 00:00:00 | |
| SP3WXH-11 | 2026-08-31 02:01:08 | 54.71657 | 15.48322 | 81° | 49km/h | 4183m | -2.4m/s | -3.3°C | 19.2% | 609.4hPa | 2.7V | 00:00:00 | 00:00:00 | 00:00:00 | |
| SP3WXH-11 | 2026-08-31 02:00:37 | 54.71599 | 15.47640 | 80° | 47km/h | 4259m | -2.4m/s | -3.9°C | 22.2% | 603.6hPa | 2.7V | 00:00:00 | 00:00:00 | 00:00:00 | |
| SP3WXH-11 | 2026-08-31 02:00:06 | 54.71528 | 15.46981 | 79° | 47km/h | 4335m | -2.4m/s | -4.5°C | 23.4% | 597.8hPa | 2.7V | 00:00:00 | 00:00:00 | 00:00:00 | |
| SP3BTT-10 | 2026-08-31 01:59:56 | 54.71504 | 15.46796 | 75° | 49km/h | 4357m | -2.4m/s | -4.6°C | 23.9% | 596.1hPa | 2.7V | 00:00:00 | 00:00:00 | 00:00:00 | |
| SP3WXH-11 | 2026-08-31 01:59:35 | 54.71433 | 15.46350 | 74° | 46km/h | 4411m | -2.4m/s | -4.9°C | 21.6% | 592.1hPa | 2.7V | 00:00:00 | 00:00:00 | 00:00:00 | |
| AA1-15 | 2026-08-31 01:58:50 | 54.71246 | 15.45447 | 69° | 51km/h | 4520m | -2.5m/s | -5.6°C | 24% | 583.8hPa | 2.7V | 07:12:12 | 03:39:01 | 00:00:00 | |
| AA1-15 | 2026-08-31 01:58:34 | 54.71165 | 15.45114 | 66° | 55km/h | 4562m | -2.6m/s | -6°C | 24.2% | 580.6hPa | 2.7V | 07:12:12 | 03:38:45 | 00:00:00 | |
| SP3WXH-11 | 2026-08-31 01:58:33 | 54.71154 | 15.45071 | 66° | 51km/h | 4567m | -2.5m/s | -6.0°C | 20.9% | 580.4hPa | 2.6V | 00:00:00 | 00:00:00 | 00:00:00 | |
| AA1-15 | 2026-08-31 01:58:12 | 54.71043 | 15.44658 | 63° | 49km/h | 4620m | -2.6m/s | -6.4°C | 23.6% | 576.4hPa | 2.6V | 07:13:03 | 03:38:23 | 00:00:00 | |
| AA1-15 | 2026-08-31 01:58:00 | 54.70975 | 15.44419 | 63° | 49km/h | 4652m | -2.7m/s | -6.6°C | 23.5% | 574hPa | 2.6V | 07:13:03 | 03:38:11 | 00:00:00 | |
| AA1-15 | 2026-08-31 01:57:48 | 54.70906 | 15.44177 | 65° | 49km/h | 4684m | -2.7m/s | -6.9°C | 22.1% | 571.8hPa | 2.7V | 07:13:03 | 03:37:59 | 00:00:00 | |
| AA1-15 | 2026-08-31 01:57:37 | 54.70845 | 15.43952 | 66° | 53km/h | 4712m | -2.6m/s | -7.1°C | 21.2% | 569.7hPa | 2.7V | 07:13:03 | 03:37:48 | 00:00:00 | |
| AA1-15 | 2026-08-31 01:57:26 | 54.70785 | 15.43727 | 65° | 53km/h | 4741m | -2.5m/s | -7.4°C | 21.9% | 567.6hPa | 2.7V | 07:13:03 | 03:37:37 | 00:00:00 | |
| AA1-15 | 2026-08-31 01:57:15 | 54.70726 | 15.43505 | 62° | 49km/h | 4770m | -2.7m/s | -7.6°C | 25.2% | 565.5hPa | 2.6V | 07:13:54 | 03:37:26 | 00:00:00 | |
| AA1-15 | 2026-08-31 01:57:04 | 54.70667 | 15.43287 | 65° | 47km/h | 4798m | -2.6m/s | -7.8°C | 24.8% | 563.4hPa | 2.7V | 07:13:54 | 03:37:15 | 00:00:00 | |
| AA1-15 | 2026-08-31 01:56:53 | 54.70605 | 15.43068 | 66° | 51km/h | 4826m | -2.5m/s | -7.8°C | 26.9% | 561.5hPa | 2.7V | 07:13:54 | 03:37:04 | 00:00:00 | |
| AA1-15 | 2026-08-31 01:56:42 | 54.70543 | 15.42842 | 67° | 55km/h | 4853m | -2.5m/s | -7.9°C | 25.5% | 559.5hPa | 2.6V | 07:13:54 | 03:36:53 | 00:00:00 | |
| AA1-15 | 2026-08-31 01:56:31 | 54.70485 | 15.42607 | 65° | 55km/h | 4880m | -2.4m/s | -8.1°C | 25.5% | 557.4hPa | 2.6V | 07:14:45 | 03:36:42 | 00:00:00 | |
| AA1-15 | 2026-08-31 01:56:20 | 54.70427 | 15.42361 | 68° | 55km/h | 4907m | -2.4m/s | -8.3°C | 19.5% | 555.6hPa | 2.7V | 07:14:45 | 03:36:31 | 00:00:00 | |
| AA1-15 | 2026-08-31 01:56:10 | 54.70376 | 15.42127 | 71° | 58km/h | 4931m | -2.3m/s | -8.5°C | 14.1% | 553.8hPa | 2.7V | 07:14:45 | 03:36:21 | 00:00:00 | |
| AA1-15 | 2026-08-31 01:55:59 | 54.70319 | 15.41866 | 70° | 60km/h | 4957m | -2.4m/s | -8.6°C | 8.4% | 552.1hPa | 2.6V | 07:14:45 | 03:36:10 | 00:00:00 | |
| AA1-15 | 2026-08-31 01:55:48 | 54.70265 | 15.41604 | 69° | 58km/h | 4984m | -2.6m/s | -8.7°C | 6.4% | 550.1hPa | 2.6V | 07:14:45 | 03:35:59 | 00:00:00 | |
| AA1-15 | 2026-08-31 01:55:37 | 54.70209 | 15.41343 | 67° | 57km/h | 5011m | -2.5m/s | -8.8°C | 5% | 548.1hPa | 2.7V | 07:15:36 | 03:35:48 | 00:00:00 | |
| AA1-15 | 2026-08-31 01:55:26 | 54.70151 | 15.41084 | 69° | 57km/h | 5037m | -2.5m/s | -9°C | 5.7% | 546.4hPa | 2.7V | 07:15:36 | 03:35:37 | 00:00:00 | |
| AA1-15 | 2026-08-31 01:55:15 | 54.70095 | 15.40827 | 71° | 57km/h | 5065m | -2.3m/s | -9.2°C | 7% | 544.4hPa | 2.7V | 07:15:36 | 03:35:26 | 00:00:00 | |
| AA1-15 | 2026-08-31 01:55:04 | 54.70034 | 15.40564 | 69° | 58km/h | 5092m | -2.5m/s | -9.4°C | 7.8% | 542.4hPa | 2.7V | 07:15:36 | 03:35:15 | 00:00:00 | |
| AA1-15 | 2026-08-31 01:54:53 | 54.69969 | 15.40306 | 67° | 58km/h | 5119m | -2.7m/s | -9.6°C | 8.7% | 540.6hPa | 2.6V | 07:15:36 | 03:35:04 | 00:00:00 | |
| AA1-15 | 2026-08-31 01:54:42 | 54.69904 | 15.40060 | 63° | 58km/h | 5147m | -2.4m/s | -9.7°C | 10.7% | 538.6hPa | 2.6V | 07:16:27 | 03:34:53 | 00:00:00 | |
| AA1-15 | 2026-08-31 01:54:31 | 54.69834 | 15.39824 | 61° | 55km/h | 5174m | -2.4m/s | -9.9°C | 10.8% | 536.9hPa | 2.7V | 07:16:27 | 03:34:42 | 00:00:00 | |
| AA1-15 | 2026-08-31 01:54:20 | 54.69767 | 15.39589 | 64° | 53km/h | 5201m | -2.7m/s | -10°C | 10.3% | 535hPa | 2.7V | 07:16:27 | 03:34:31 | 00:00:00 | |
| AA1-15 | 2026-08-31 01:54:08 | 54.69696 | 15.39332 | 64° | 53km/h | 5229m | -2.3m/s | -10°C | 9.5% | 533hPa | 2.7V | 07:16:27 | 03:34:19 | 00:00:00 | |
| AA1-15 | 2026-08-31 01:53:56 | 54.69625 | 15.39074 | 64° | 53km/h | 5258m | -2.2m/s | -10.1°C | 9.1% | 531hPa | 2.6V | 07:17:18 | 03:34:07 | 00:00:00 | |
| AA1-15 | 2026-08-31 01:53:45 | 54.69564 | 15.38835 | 68° | 55km/h | 5284m | -2.4m/s | -10.4°C | 8.9% | 529.2hPa | 2.6V | 07:17:18 | 03:33:56 | 00:00:00 | |
| AA1-15 | 2026-08-31 01:53:34 | 54.69504 | 15.38594 | 69° | 55km/h | 5309m | -2.3m/s | -10.6°C | 8.9% | 527.4hPa | 2.7V | 07:17:18 | 03:33:45 | 00:00:00 | |
| AA1-15 | 2026-08-31 01:53:23 | 54.69444 | 15.38346 | 67° | 58km/h | 5335m | -2.6m/s | -10.8°C | 8.9% | 525.6hPa | 2.6V | 07:17:18 | 03:33:34 | 00:00:00 | |
| AA1-15 | 2026-08-31 01:53:13 | 54.69384 | 15.38120 | 65° | 58km/h | 5359m | -2.4m/s | -11.1°C | 8.4% | 524.1hPa | 2.7V | 07:17:18 | 03:33:24 | 00:00:00 | |
| AA1-15 | 2026-08-31 01:53:02 | 54.69318 | 15.37866 | 63° | 58km/h | 5385m | -2.5m/s | -11.2°C | 7.9% | 522.2hPa | 2.7V | 07:21:33 | 03:33:13 | 00:00:00 | |
| AA1-15 | 2026-08-31 01:52:52 | 54.69252 | 15.37636 | 64° | 57km/h | 5409m | -2.6m/s | -11.4°C | 8.1% | 520.5hPa | 2.7V | 07:21:33 | 03:33:03 | 00:00:00 | |
| SP3WXH-11 | 2026-08-31 01:52:51 | 54.69246 | 15.37614 | 62° | 57km/h | 5412m | -2.6m/s | -11.4°C | 7.7% | 520.4hPa | 2.6V | 00:00:00 | 00:00:00 | 00:00:00 | |
| AA1-15 | 2026-08-31 01:52:41 | 54.69177 | 15.37384 | 64° | 58km/h | 5437m | -2.6m/s | -11.6°C | 8% | 518.6hPa | 2.6V | 07:21:33 | 03:32:52 | 00:00:00 | |
| AA1-15 | 2026-08-31 01:52:29 | 54.69095 | 15.37112 | 64° | 58km/h | 5468m | -2.4m/s | -11.8°C | 9.8% | 516.6hPa | 2.7V | 07:21:33 | 03:32:40 | 00:00:00 | |
| SP3BTT-10 | 2026-08-31 01:52:25 | 54.69068 | 15.37023 | 63° | 58km/h | 5478m | -2.6m/s | -11.9°C | 9.8% | 515.9hPa | 2.6V | 00:00:00 | 00:00:00 | 00:00:00 | |
| SP3WXH-11 | 2026-08-31 01:52:20 | 54.69034 | 15.36909 | 60° | 58km/h | 5491m | -2.6m/s | -12.0°C | 9.5% | 515.0hPa | 2.6V | 00:00:00 | 00:00:00 | 00:00:00 | |
| SP3WXH-11 | 2026-08-31 01:51:49 | 54.68820 | 15.36203 | 62° | 60km/h | 5568m | -2.5m/s | -12.8°C | 9.9% | 509.9hPa | 2.6V | 00:00:00 | 00:00:00 | 00:00:00 | |
| SP3WXH-11 | 2026-08-31 01:51:18 | 54.68601 | 15.35505 | 62° | 57km/h | 5639m | -2.4m/s | -13.4°C | 10.3% | 505.2hPa | 2.6V | 00:00:00 | 00:00:00 | 00:00:00 | |
| SP3BTT-10 | 2026-08-31 01:51:10 | 54.68544 | 15.35328 | 59° | 58km/h | 5657m | -2.1m/s | -13.5°C | 11.0% | 503.8hPa | 2.6V | 00:00:00 | 00:00:00 | 00:00:00 | |
| SP3WXH-11 | 2026-08-31 01:50:47 | 54.68379 | 15.34818 | 59° | 55km/h | 5710m | -2.5m/s | -14.0°C | 9.8% | 500.5hPa | 2.5V | 00:00:00 | 00:00:00 | 00:00:00 | |
| SP3BTT-10 | 2026-08-31 01:50:40 | 54.68328 | 15.34664 | 59° | 62km/h | 5725m | -2.2m/s | -14.0°C | 8.8% | 499.4hPa | 2.5V | 00:00:00 | 00:00:00 | 00:00:00 | |
| SP3WXH-11 | 2026-08-31 01:50:16 | 54.68153 | 15.34124 | 60° | 60km/h | 5782m | -2.6m/s | -14.6°C | 10.3% | 495.7hPa | 2.5V | 00:00:00 | 00:00:00 | 00:00:00 | |
| AA1-15 | 2026-08-31 01:49:49 | 54.67955 | 15.33474 | 60° | 60km/h | 5855m | -2.9m/s | -15.2°C | 17.2% | 491hPa | 2.5V | 07:21:33 | 03:30:00 | 00:00:00 | |
| SP3WXH-11 | 2026-08-31 01:49:45 | 54.67926 | 15.33378 | 64° | 60km/h | 5866m | -2.6m/s | -15.3°C | 14.5% | 490.3hPa | 2.6V | 00:00:00 | 00:00:00 | 00:00:00 | |
| AA1-15 | 2026-08-31 01:49:30 | 54.67828 | 15.33012 | 64° | 64km/h | 5903m | -2.9m/s | -15.7°C | 24.4% | 487.9hPa | 2.6V | 07:21:33 | 03:29:41 | 00:00:00 | |
| AA1-15 | 2026-08-31 01:49:20 | 54.67753 | 15.32739 | 65° | 64km/h | 5934m | -2.7m/s | -16°C | 19.2% | 485.9hPa | 2.5V | 07:21:33 | 03:29:30 | 00:00:00 | |
| AA1-15 | 2026-08-31 01:49:08 | 54.67679 | 15.32465 | 63° | 62km/h | 5962m | -2.7m/s | -16.3°C | 25.9% | 484hPa | 2.5V | 07:21:33 | 03:29:19 | 00:00:00 | |
| AA1-15 | 2026-08-31 01:48:57 | 54.67605 | 15.32192 | 64° | 62km/h | 5991m | -2.6m/s | -16.5°C | 32.7% | 482.2hPa | 2.6V | 07:21:33 | 03:29:08 | 00:00:00 | |
| AA1-15 | 2026-08-31 01:48:46 | 54.67531 | 15.31919 | 66° | 60km/h | 6019m | -2.5m/s | -16.8°C | 35.2% | 480.3hPa | 2.6V | 07:22:24 | 03:28:57 | 00:00:00 | |
| AA1-15 | 2026-08-31 01:48:34 | 54.67451 | 15.31626 | 64° | 60km/h | 6050m | -2.8m/s | -17.1°C | 35% | 478.3hPa | 2.6V | 07:22:24 | 03:28:45 | 00:00:00 | |
| AA1-15 | 2026-08-31 01:48:23 | 54.67378 | 15.31353 | 66° | 62km/h | 6080m | -2.9m/s | -17.4°C | 36.6% | 476.4hPa | 2.6V | 07:22:24 | 03:28:34 | 00:00:00 | |
| AA1-15 | 2026-08-31 01:48:12 | 54.67302 | 15.31078 | 65° | 62km/h | 6111m | -2.8m/s | -17.7°C | 38.4% | 474.6hPa | 2.6V | 07:22:24 | 03:28:23 | 00:00:00 | |
| AA1-15 | 2026-08-31 01:48:01 | 54.67223 | 15.30807 | 65° | 64km/h | 6141m | -2.7m/s | -18°C | 42.4% | 472.7hPa | 2.6V | 07:23:15 | 03:28:12 | 00:00:00 | |
| AA1-15 | 2026-08-31 01:47:50 | 54.67144 | 15.30535 | 64° | 66km/h | 6170m | -2.8m/s | -18.1°C | 38.8% | 470.8hPa | 2.5V | 07:23:15 | 03:28:01 | 00:00:00 | |
| EDDB2-11 | 2026-08-31 01:47:46 | 54.67114 | 15.30436 | 61° | 64km/h | 6181m | -2.7m/s | -18.2°C | 35.5% | 470.1hPa | 2.5V | 00:00:00 | 00:00:00 | 00:00:00 | |
| AA1-15 | 2026-08-31 01:47:39 | 54.67063 | 15.30261 | 63° | 66km/h | 6200m | -2.7m/s | -18.4°C | 38.1% | 469hPa | 2.5V | 07:23:15 | 03:27:50 | 00:00:00 | |
| AA1-15 | 2026-08-31 01:47:28 | 54.66982 | 15.29979 | 63° | 68km/h | 6231m | -2.9m/s | -18.5°C | 32.5% | 467hPa | 2.6V | 07:23:15 | 03:27:39 | 00:00:00 | |
| AA1-15 | 2026-08-31 01:47:17 | 54.66900 | 15.29694 | 62° | 68km/h | 6262m | -2.8m/s | -18.8°C | 33.3% | 465.1hPa | 2.5V | 07:23:15 | 03:27:28 | 00:00:00 | |
| AA1-15 | 2026-08-31 01:47:06 | 54.66817 | 15.29407 | 63° | 68km/h | 6291m | -2.7m/s | -19°C | 35.8% | 463.2hPa | 2.6V | 07:24:06 | 03:27:17 | 00:00:00 | |
| AA1-15 | 2026-08-31 01:46:56 | 54.66739 | 15.29144 | 63° | 68km/h | 6319m | -2.7m/s | -19.2°C | 37.1% | 461.6hPa | 2.5V | 07:24:06 | 03:27:07 | 00:00:00 | |
| AA1-15 | 2026-08-31 01:46:45 | 54.66653 | 15.28851 | 64° | 68km/h | 6347m | -2.4m/s | -19.5°C | 38.2% | 459.8hPa | 2.6V | 07:24:06 | 03:26:56 | 00:00:00 | |
| EDDB2-11 | 2026-08-31 01:46:44 | 54.66645 | 15.28825 | 62° | 66km/h | 6350m | -2.6m/s | -19.5°C | 35.1% | 459.6hPa | 2.5V | 00:00:00 | 00:00:00 | 00:00:00 | |
| AA1-15 | 2026-08-31 01:46:34 | 54.66564 | 15.28560 | 62° | 69km/h | 6375m | -2.3m/s | -19.8°C | 39.9% | 458.1hPa | 2.5V | 07:24:06 | 03:26:45 | 00:00:00 | |
| AA1-15 | 2026-08-31 01:46:23 | 54.66469 | 15.28264 | 62° | 69km/h | 6403m | -2.6m/s | -20°C | 42.3% | 456.5hPa | 2.6V | 07:24:06 | 03:26:34 | 00:00:00 | |
| AA1-15 | 2026-08-31 01:46:12 | 54.66378 | 15.27977 | 62° | 69km/h | 6430m | -2.5m/s | -20.3°C | 44.4% | 454.7hPa | 2.6V | 07:24:57 | 03:26:23 | 00:00:00 | |
| AA1-15 | 2026-08-31 01:46:01 | 54.66281 | 15.27689 | 61° | 69km/h | 6457m | -2.6m/s | -20.6°C | 45.4% | 453hPa | 2.6V | 07:24:57 | 03:26:12 | 00:00:00 | |
| AA1-15 | 2026-08-31 01:45:51 | 54.66195 | 15.27428 | 59° | 69km/h | 6484m | -2.5m/s | -20.8°C | 46.9% | 451.4hPa | 2.5V | 07:24:57 | 03:26:02 | 00:00:00 | |
| AA1-15 | 2026-08-31 01:45:41 | 54.66112 | 15.27170 | 60° | 68km/h | 6510m | -2.8m/s | -21°C | 49.3% | 449.8hPa | 2.6V | 07:24:57 | 03:25:52 | 00:00:00 | |
| AA1-15 | 2026-08-31 01:45:30 | 54.66018 | 15.26892 | 60° | 66km/h | 6541m | -2.8m/s | -21.3°C | 50.6% | 447.9hPa | 2.6V | 07:25:48 | 03:25:41 | 00:00:00 | |
| AA1-15 | 2026-08-31 01:45:19 | 54.65926 | 15.26612 | 60° | 64km/h | 6571m | -2.9m/s | -21.6°C | 51.9% | 446hPa | 2.6V | 07:25:48 | 03:25:30 | 00:00:00 | |
| AA1-15 | 2026-08-31 01:45:08 | 54.65833 | 15.26332 | 61° | 66km/h | 6602m | -2.9m/s | -21.9°C | 53.1% | 444.2hPa | 2.5V | 07:25:48 | 03:25:19 | 00:00:00 | |
| AA1-15 | 2026-08-31 01:44:57 | 54.65739 | 15.26052 | 61° | 66km/h | 6635m | -2.7m/s | -22.2°C | 53.9% | 442.3hPa | 2.5V | 07:25:48 | 03:25:08 | 00:00:00 | |
| AA1-15 | 2026-08-31 01:44:46 | 54.65646 | 15.25783 | 60° | 66km/h | 6667m | -3m/s | -22.5°C | 56% | 440.4hPa | 2.5V | 07:25:48 | 03:24:57 | 00:00:00 | |
| AA1-15 | 2026-08-31 01:44:35 | 54.65552 | 15.25518 | 60° | 66km/h | 6697m | -2.9m/s | -22.8°C | 56.2% | 438.5hPa | 2.5V | 07:26:39 | 03:24:46 | 00:00:00 | |
| AA1-15 | 2026-08-31 01:44:24 | 54.65456 | 15.25260 | 59° | 66km/h | 6728m | -3.2m/s | -23.1°C | 52.5% | 436.8hPa | 2.5V | 07:26:39 | 03:24:35 | 00:00:00 | |
| DL1XH-15 | 2026-08-31 01:44:19 | 54.65371 | 15.25025 | 55° | 64km/h | 6758m | -3.2m/s | -23.4°C | 53.5% | 434.9hPa | 2.6V | 07:26:14 | 03:24:25 | 00:00:00 | |
| AA1-15 | 2026-08-31 01:44:13 | 54.65362 | 15.25001 | 57° | 66km/h | 6762m | -3.3m/s | -23.4°C | 54.9% | 434.8hPa | 2.5V | 07:26:39 | 03:24:24 | 00:00:00 | |
| AA1-15 | 2026-08-31 01:44:02 | 54.65264 | 15.24744 | 57° | 66km/h | 6795m | -3.1m/s | -23.7°C | 55.3% | 432.8hPa | 2.5V | 07:26:39 | 03:24:13 | 00:00:00 | |
| DL1XH-15 | 2026-08-31 01:44:02 | 54.65265 | 15.24745 | 56° | 66km/h | 6795m | -3.1m/s | -23.7°C | 53.8% | 432.8hPa | 2.5V | 07:26:26 | 03:24:13 | 00:00:00 | |
| DL1XH-15 | 2026-08-31 01:43:52 | 54.65177 | 15.24512 | 56° | 62km/h | 6826m | -3.1m/s | -24°C | 49.2% | 430.8hPa | 2.5V | 07:26:36 | 03:24:03 | 00:00:00 | |
| AA1-15 | 2026-08-31 01:43:51 | 54.65168 | 15.24488 | 57° | 64km/h | 6829m | -3.1m/s | -24°C | 51.6% | 430.8hPa | 2.5V | 07:26:39 | 03:24:02 | 00:00:00 | |
| DL1XH-15 | 2026-08-31 01:43:42 | 54.65090 | 15.24275 | 56° | 64km/h | 6854m | -3.3m/s | -24.4°C | 50.7% | 429.1hPa | 2.6V | 07:26:46 | 03:23:53 | 00:00:00 | |
| AA1-15 | 2026-08-31 01:43:40 | 54.65072 | 15.24229 | 56° | 64km/h | 6861m | -3.2m/s | -24.5°C | 53.3% | 428.8hPa | 2.5V | 07:27:30 | 03:23:51 | 00:00:00 | |
| AA1-15 | 2026-08-31 01:43:30 | 54.64986 | 15.23997 | 56° | 62km/h | 6890m | -2.8m/s | -24.9°C | 54.4% | 427hPa | 2.5V | 07:27:30 | 03:23:41 | 00:00:00 | |
| AA1-15 | 2026-08-31 01:43:19 | 54.64890 | 15.23743 | 56° | 62km/h | 6924m | -3m/s | -25.2°C | 55.3% | 425.1hPa | 2.5V | 07:27:30 | 03:23:30 | 00:00:00 | |
| AA1-15 | 2026-08-31 01:43:08 | 54.64795 | 15.23494 | 56° | 60km/h | 6957m | -3.1m/s | -25.6°C | 56.3% | 423.3hPa | 2.5V | 07:27:30 | 03:23:19 | 00:00:00 | |
| AA1-15 | 2026-08-31 01:42:57 | 54.64695 | 15.23254 | 55° | 60km/h | 6990m | -2.9m/s | -25.9°C | 57.7% | 421.3hPa | 2.5V | 07:28:21 | 03:23:08 | 00:00:00 | |
| AA1-15 | 2026-08-31 01:42:46 | 54.64590 | 15.23013 | 55° | 62km/h | 7022m | -2.9m/s | -26°C | 68% | 419.5hPa | 2.6V | 07:28:21 | 03:22:57 | 00:00:00 | |
| AA1-15 | 2026-08-31 01:42:35 | 54.64483 | 15.22771 | 52° | 62km/h | 7053m | -3.2m/s | -26.1°C | 75.8% | 417.6hPa | 2.6V | 07:28:21 | 03:22:46 | 00:00:00 | |
| AA1-15 | 2026-08-31 01:42:25 | 54.64372 | 15.22536 | 52° | 64km/h | 7086m | -3.1m/s | -26.3°C | 77.6% | 415.8hPa | 2.6V | 07:28:21 | 03:22:35 | 00:00:00 | |
| AA1-15 | 2026-08-31 01:42:13 | 54.64263 | 15.22299 | 52° | 68km/h | 7119m | -3.2m/s | -26.6°C | 74.1% | 413.9hPa | 2.6V | 07:28:21 | 03:22:24 | 00:00:00 | |
| AA1-15 | 2026-08-31 01:42:02 | 54.64154 | 15.22060 | 52° | 64km/h | 7151m | -3.2m/s | -26.8°C | 72.2% | 411.9hPa | 2.5V | 07:29:12 | 03:22:13 | 00:00:00 | |
| AA1-15 | 2026-08-31 01:41:51 | 54.64043 | 15.21824 | 51° | 64km/h | 7184m | -3.3m/s | -26.9°C | 80.4% | 410.1hPa | 2.6V | 07:29:12 | 03:22:02 | 00:00:00 | |
| AA1-15 | 2026-08-31 01:41:40 | 54.63932 | 15.21582 | 51° | 68km/h | 7217m | -3.2m/s | -26.7°C | 89% | 408.2hPa | 2.5V | 07:29:12 | 03:21:51 | 00:00:00 | |
| AA1-15 | 2026-08-31 01:41:30 | 54.63824 | 15.21363 | 48° | 68km/h | 7249m | -3m/s | -26.9°C | 89.5% | 406.5hPa | 2.6V | 07:29:12 | 03:21:41 | 00:00:00 | |
| AA1-15 | 2026-08-31 01:41:19 | 54.63700 | 15.21107 | 49° | 69km/h | 7280m | -2.8m/s | -27.2°C | 89% | 404.8hPa | 2.6V | 07:29:12 | 03:21:30 | 00:00:00 | |
| AA1-15 | 2026-08-31 01:41:08 | 54.63575 | 15.20841 | 51° | 71km/h | 7312m | -3.2m/s | -27.2°C | 90% | 402.9hPa | 2.5V | 07:30:03 | 03:21:19 | 00:00:00 | |
| AA1-15 | 2026-08-31 01:40:57 | 54.63450 | 15.20566 | 51° | 71km/h | 7344m | -2.8m/s | -27.4°C | 91% | 401.1hPa | 2.5V | 07:30:03 | 03:21:08 | 00:00:00 | |
| AA1-15 | 2026-08-31 01:40:47 | 54.63336 | 15.20313 | 52° | 71km/h | 7373m | -3m/s | -27.6°C | 91.2% | 399.5hPa | 2.6V | 07:30:03 | 03:20:58 | 00:00:00 | |
| AA1-15 | 2026-08-31 01:40:36 | 54.63215 | 15.20033 | 55° | 73km/h | 7411m | -3.1m/s | -27.9°C | 92.1% | 397.7hPa | 2.6V | 07:30:03 | 03:20:47 | 00:00:00 | |
| AA1-15 | 2026-08-31 01:40:26 | 54.63107 | 15.19773 | 56° | 73km/h | 7442m | -2.2m/s | -28.2°C | 92.2% | 396.1hPa | 2.5V | 07:30:03 | 03:20:37 | 00:00:00 | |
| AA1-15 | 2026-08-31 01:40:15 | 54.62981 | 15.19491 | 52° | 77km/h | 7466m | -3.3m/s | -28.5°C | 90.6% | 394.3hPa | 2.5V | 07:30:54 | 03:20:26 | 00:00:00 | |
| AA1-15 | 2026-08-31 01:40:04 | 54.62854 | 15.19211 | 53° | 75km/h | 7499m | -3.1m/s | -28.4°C | 85.8% | 392.7hPa | 2.5V | 07:30:54 | 03:20:15 | 00:00:00 | |
| AA1-15 | 2026-08-31 01:39:53 | 54.62734 | 15.18929 | 55° | 75km/h | 7529m | -2.8m/s | -28.3°C | 85.1% | 390.9hPa | 2.5V | 07:30:54 | 03:20:04 | 00:00:00 | |
| AA1-15 | 2026-08-31 01:39:42 | 54.62616 | 15.18641 | 56° | 75km/h | 7561m | -2.6m/s | -28.4°C | 81.5% | 389.2hPa | 2.6V | 07:30:54 | 03:19:53 | 00:00:00 | |
| AA1-15 | 2026-08-31 01:39:31 | 54.62501 | 15.18351 | 58° | 73km/h | 7593m | -2.7m/s | -28.5°C | 81.4% | 387.4hPa | 2.6V | 07:31:45 | 03:19:42 | 00:00:00 | |
| AA1-15 | 2026-08-31 01:39:20 | 54.62391 | 15.18057 | 59° | 75km/h | 7623m | -3.2m/s | -28.8°C | 81.9% | 385.7hPa | 2.5V | 07:31:45 | 03:19:31 | 00:00:00 | |
| AA1-15 | 2026-08-31 01:39:09 | 54.62279 | 15.17744 | 60° | 78km/h | 7657m | -3m/s | -29°C | 82.9% | 384hPa | 2.5V | 07:31:45 | 03:19:20 | 00:00:00 | |
| AA1-15 | 2026-08-31 01:38:58 | 54.62172 | 15.17428 | 61° | 77km/h | 7691m | -3.1m/s | -29.2°C | 80.9% | 382.3hPa | 2.6V | 07:31:45 | 03:19:09 | 00:00:00 | |
| AA1-15 | 2026-08-31 01:38:47 | 54.62071 | 15.17111 | 62° | 75km/h | 7722m | -3.2m/s | -29.1°C | 76.5% | 380.5hPa | 2.5V | 07:31:45 | 03:18:58 | 00:00:00 | |
| AA1-15 | 2026-08-31 01:38:36 | 54.61973 | 15.16798 | 65° | 75km/h | 7754m | -2.9m/s | -29.3°C | 76.8% | 378.9hPa | 2.6V | 07:32:36 | 03:18:47 | 00:00:00 | |
| AA1-15 | 2026-08-31 01:38:25 | 54.61884 | 15.16480 | 64° | 75km/h | 7786m | -3.1m/s | -29.5°C | 75.7% | 377.1hPa | 2.6V | 07:32:36 | 03:18:36 | 00:00:00 | |
| AA1-15 | 2026-08-31 01:38:14 | 54.61784 | 15.16159 | 62° | 77km/h | 7819m | -3.2m/s | -29.8°C | 76.9% | 375.4hPa | 2.5V | 07:32:36 | 03:18:25 | 00:00:00 | |
| AA1-15 | 2026-08-31 01:38:03 | 54.61682 | 15.15841 | 62° | 77km/h | 7853m | -3m/s | -29.8°C | 74.8% | 373.7hPa | 2.5V | 07:32:36 | 03:18:14 | 00:00:00 | |
| AA1-15 | 2026-08-31 01:37:53 | 54.61589 | 15.15548 | 62° | 78km/h | 7884m | -3m/s | -29.8°C | 72.2% | 372.1hPa | 2.6V | 07:32:36 | 03:18:04 | 00:00:00 | |
| SP3WXH-11 | 2026-08-31 01:37:51 | 54.61571 | 15.15489 | 61° | 75km/h | 7890m | -2.8m/s | -29.9°C | 69.7% | 371.8hPa | 2.5V | 00:00:00 | 00:00:00 | 00:00:00 | |
| AA1-15 | 2026-08-31 01:37:42 | 54.61485 | 15.15227 | 61° | 78km/h | 7915m | -3.1m/s | -30.1°C | 69.6% | 370.5hPa | 2.5V | 07:33:27 | 03:17:53 | 00:00:00 | |
| AA1-15 | 2026-08-31 01:37:31 | 54.61377 | 15.14916 | 59° | 77km/h | 7948m | -2.8m/s | -30.3°C | 72.1% | 368.7hPa | 2.5V | 07:33:27 | 03:17:42 | 00:00:00 | |
| AA1-15 | 2026-08-31 01:37:20 | 54.61271 | 15.14616 | 58° | 73km/h | 7978m | -3m/s | -30.5°C | 76.3% | 367.2hPa | 2.5V | 07:33:27 | 03:17:31 | 00:00:00 | |
| AA1-15 | 2026-08-31 01:37:09 | 54.61162 | 15.14328 | 57° | 71km/h | 8010m | -2.8m/s | -30.7°C | 77.4% | 365.5hPa | 2.5V | 07:33:27 | 03:17:20 | 00:00:00 | |
| AA1-15 | 2026-08-31 01:36:59 | 54.61061 | 15.14071 | 56° | 73km/h | 8039m | -3m/s | -30.9°C | 77.9% | 364hPa | 2.5V | 07:34:18 | 03:17:10 | 00:00:00 | |
| AA1-15 | 2026-08-31 01:36:48 | 54.60948 | 15.13790 | 55° | 71km/h | 8072m | -3.1m/s | -31.1°C | 74.7% | 362.4hPa | 2.6V | 07:34:18 | 03:16:59 | 00:00:00 | |
| AA1-15 | 2026-08-31 01:36:37 | 54.60838 | 15.13517 | 56° | 69km/h | 8103m | -2.9m/s | -31.1°C | 71.3% | 360.7hPa | 2.6V | 07:34:18 | 03:16:48 | 00:00:00 | |
| AA1-15 | 2026-08-31 01:36:27 | 54.60737 | 15.13273 | 55° | 71km/h | 8134m | -3.3m/s | -31.4°C | 70.1% | 359.2hPa | 2.6V | 07:34:18 | 03:16:38 | 00:00:00 | |
| AA1-15 | 2026-08-31 01:36:16 | 54.60627 | 15.13002 | 54° | 69km/h | 8170m | -3.1m/s | -31.6°C | 69.7% | 357.6hPa | 2.5V | 07:34:18 | 03:16:27 | 00:00:00 | |
| AA1-15 | 2026-08-31 01:36:05 | 54.60516 | 15.12730 | 54° | 69km/h | 8201m | -3m/s | -31.9°C | 70.2% | 355.9hPa | 2.5V | 07:35:09 | 03:16:16 | 00:00:00 | |
| AA1-15 | 2026-08-31 01:35:55 | 54.60420 | 15.12492 | 55° | 66km/h | 8227m | -3.1m/s | -32.2°C | 70.8% | 354.4hPa | 2.6V | 07:35:09 | 03:16:06 | 00:00:00 | |
| AA1-15 | 2026-08-31 01:35:44 | 54.60316 | 15.12227 | 54° | 68km/h | 8259m | -2.9m/s | -32.5°C | 69.8% | 352.8hPa | 2.6V | 07:35:09 | 03:15:55 | 00:00:00 | |
| AA1-15 | 2026-08-31 01:35:33 | 54.60213 | 15.11966 | 56° | 68km/h | 8291m | -3.1m/s | -32.7°C | 69.1% | 351.2hPa | 2.6V | 07:35:09 | 03:15:44 | 00:00:00 | |
| AA1-15 | 2026-08-31 01:35:23 | 54.60117 | 15.11726 | 53° | 68km/h | 8320m | -3.1m/s | -33°C | 69.7% | 349.7hPa | 2.6V | 07:35:09 | 03:15:34 | 00:00:00 | |
| AA1-15 | 2026-08-31 01:35:12 | 54.60011 | 15.11467 | 53° | 68km/h | 8353m | -3.3m/s | -33.3°C | 68.7% | 348.1hPa | 2.6V | 07:36:00 | 03:15:23 | 00:00:00 | |
| AA1-15 | 2026-08-31 01:35:01 | 54.59901 | 15.11203 | 52° | 68km/h | 8387m | -3.2m/s | -33.6°C | 69.1% | 346.4hPa | 2.5V | 07:36:00 | 03:15:12 | 00:00:00 | |
| AA1-15 | 2026-08-31 01:34:50 | 54.59787 | 15.10943 | 52° | 69km/h | 8421m | -3.3m/s | -33.9°C | 70.2% | 344.7hPa | 2.5V | 07:36:00 | 03:15:01 | 00:00:00 | |
| SONDE2-11 | 2026-08-31 01:34:50 | 54.59776 | 15.10919 | 53° | 69km/h | 8424m | -3.0m/s | -33.9°C | 67.1% | 344.6hPa | 2.5V | 00:00:00 | 00:00:00 | 00:00:00 | |
| SP3WXH-11 | 2026-08-31 01:34:45 | 54.59736 | 15.10825 | 52° | 68km/h | 8437m | -3.2m/s | -34.0°C | 67.8% | 343.9hPa | 2.5V | 00:00:00 | 00:00:00 | 00:00:00 | |
| AA1-15 | 2026-08-31 01:34:39 | 54.59674 | 15.10681 | 52° | 71km/h | 8456m | -2.9m/s | -34.2°C | 72.3% | 343.1hPa | 2.5V | 07:36:00 | 03:14:50 | 00:00:00 | |
| AA1-15 | 2026-08-31 01:34:28 | 54.59562 | 15.10411 | 54° | 71km/h | 8488m | -3.1m/s | -34.5°C | 71.7% | 341.4hPa | 2.5V | 07:36:00 | 03:14:39 | 00:00:00 | |
| AA1-15 | 2026-08-31 01:34:17 | 54.59452 | 15.10142 | 55° | 71km/h | 8521m | -3.1m/s | -34.8°C | 71.1% | 339.8hPa | 2.6V | 07:36:51 | 03:14:28 | 00:00:00 | |
| AA1-15 | 2026-08-31 01:34:06 | 54.59343 | 15.09868 | 56° | 71km/h | 8555m | -3.1m/s | -35.1°C | 71.4% | 338.1hPa | 2.5V | 07:36:51 | 03:14:17 | 00:00:00 | |
| AA1-15 | 2026-08-31 01:33:56 | 54.59242 | 15.09611 | 55° | 73km/h | 8584m | -2.9m/s | -35.3°C | 72.3% | 336.6hPa | 2.5V | 07:36:51 | 03:14:07 | 00:00:00 | |
| AA1-15 | 2026-08-31 01:33:46 | 54.59138 | 15.09349 | 53° | 75km/h | 8615m | -3.3m/s | -35.6°C | 73.1% | 335.2hPa | 2.5V | 07:36:51 | 03:13:57 | 00:00:00 | |
| AA1-15 | 2026-08-31 01:33:35 | 54.59017 | 15.09052 | 56° | 77km/h | 8657m | -3.3m/s | -35.9°C | 71.3% | 333.5hPa | 2.5V | 07:37:42 | 03:13:46 | 00:00:00 | |
| AA1-15 | 2026-08-31 01:33:24 | 54.58898 | 15.08746 | 55° | 78km/h | 8691m | -3.2m/s | -36.1°C | 69.9% | 331.9hPa | 2.6V | 07:37:42 | 03:13:35 | 00:00:00 | |
| AA1-15 | 2026-08-31 01:33:13 | 54.58778 | 15.08441 | 56° | 80km/h | 8724m | -3.3m/s | -36.4°C | 70.3% | 330.3hPa | 2.5V | 07:37:42 | 03:13:24 | 00:00:00 | |
| AA1-15 | 2026-08-31 01:33:03 | 54.58666 | 15.08157 | 54° | 80km/h | 8753m | -3m/s | -36.7°C | 71.4% | 328.9hPa | 2.6V | 07:37:42 | 03:13:14 | 00:00:00 | |
| AA1-15 | 2026-08-31 01:32:52 | 54.58545 | 15.07848 | 55° | 78km/h | 8783m | -3.8m/s | -37°C | 72.8% | 327.3hPa | 2.5V | 07:37:42 | 03:13:03 | 00:00:00 | |
| EDDB2-11 | 2026-08-31 01:32:46 | 54.58480 | 15.07680 | 56° | 77km/h | 8803m | -3.6m/s | -37.1°C | 69.7% | 326.4hPa | 2.6V | 00:00:00 | 00:00:00 | 00:00:00 | |
| SONDE2-11 | 2026-08-31 01:32:45 | 54.58469 | 15.07651 | 57° | 77km/h | 8806m | -3.5m/s | -37.2°C | 69.8% | 326.2hPa | 2.6V | 00:00:00 | 00:00:00 | 00:00:00 | |
| AA1-15 | 2026-08-31 01:32:42 | 54.58438 | 15.07569 | 56° | 75km/h | 8816m | -3m/s | -37.3°C | 72.9% | 325.8hPa | 2.6V | 07:38:33 | 03:12:53 | 00:00:00 | |
| AA1-15 | 2026-08-31 01:32:31 | 54.58323 | 15.07266 | 57° | 77km/h | 8852m | -3.2m/s | -37.6°C | 72.2% | 324.2hPa | 2.5V | 07:38:33 | 03:12:42 | 00:00:00 | |
| AA1-15 | 2026-08-31 01:32:20 | 54.58208 | 15.06956 | 56° | 78km/h | 8884m | -3m/s | -37.9°C | 71.4% | 322.6hPa | 2.5V | 07:38:33 | 03:12:31 | 00:00:00 | |
| KRY50SP | 2026-08-31 01:32:18 | 54.58198 | 15.06927 | 59° | 78km/h | 8886m | -3.2m/s | -37.9°C | 68.3% | 322.5hPa | 2.5V | 07:38:00 | 00:00:00 | 00:00:00 | |
| AM1SDL-15 | 2026-08-31 01:32:16 | 54.58166 | 15.06842 | 57° | 78km/h | 8895m | -3.3m/s | -37.9°C | 72.0% | 322.0hPa | 2.5V | 00:00:00 | 03:12:27 | 00:00:00 | |
| EDDB2-11 | 2026-08-31 01:32:15 | 54.58155 | 15.06814 | 55° | 78km/h | 8898m | -3.6m/s | -38.0°C | 67.6% | 321.9hPa | 2.5V | 00:00:00 | 00:00:00 | 00:00:00 | |
| SONDE2-11 | 2026-08-31 01:32:14 | 54.58144 | 15.06785 | 57° | 80km/h | 8901m | -3.4m/s | -38.0°C | 67.7% | 321.8hPa | 2.5V | 00:00:00 | 00:00:00 | 00:00:00 | |
| KRY50SP-1 | 2026-08-31 01:32:13 | 54.58144 | 15.06784 | 59° | 80km/h | 8902m | -3.4m/s | -38.0°C | 67.7% | 321.8hPa | 2.5V | 07:38:00 | 00:00:00 | 00:00:00 | |
| DL1XH-15 | 2026-08-31 01:32:12 | 54.58102 | 15.06669 | 57° | 78km/h | 8915m | -3.1m/s | -38.1°C | 72.4% | 321.2hPa | 2.5V | 07:38:18 | 03:12:21 | 00:00:00 | |
| AA1-15 | 2026-08-31 01:32:09 | 54.58092 | 15.06640 | 58° | 80km/h | 8918m | -3m/s | -38.2°C | 71.2% | 321.1hPa | 2.5V | 07:38:33 | 03:12:20 | 00:00:00 | |
| KRY50SP-1 | 2026-08-31 01:32:08 | 54.58092 | 15.06640 | 59° | 80km/h | 8918m | -3.0m/s | -38.2°C | 68.1% | 321.1hPa | 2.5V | 07:38:00 | 00:00:00 | 00:00:00 | |
| KRY50SP | 2026-08-31 01:32:06 | 54.58071 | 15.06582 | 60° | 78km/h | 8924m | -3.1m/s | -38.2°C | 68.4% | 320.8hPa | 2.5V | 07:38:00 | 00:00:00 | 00:00:00 | |
| AM1SDL-15 | 2026-08-31 01:32:04 | 54.58039 | 15.06496 | 57° | 80km/h | 8934m | -3.2m/s | -38.2°C | 72.9% | 320.3hPa | 2.5V | 00:00:00 | 03:12:15 | 00:00:00 | |
| KRY50SP-1 | 2026-08-31 01:32:03 | 54.58039 | 15.06496 | 57° | 80km/h | 8934m | -3.3m/s | -38.3°C | 68.6% | 320.4hPa | 2.5V | 07:38:00 | 00:00:00 | 00:00:00 | |
| DL1XH-15 | 2026-08-31 01:32:02 | 54.57974 | 15.06320 | 58° | 82km/h | 8953m | -3.5m/s | -38.5°C | 73.6% | 319.5hPa | 2.5V | 07:38:30 | 03:12:09 | 00:00:00 | |
| AA1-15 | 2026-08-31 01:31:58 | 54.57974 | 15.06320 | 58° | 82km/h | 8953m | -3.5m/s | -38.5°C | 72.3% | 319.5hPa | 2.5V | 07:38:33 | 03:12:09 | 00:00:00 | |
| KRY50SP-1 | 2026-08-31 01:31:57 | 54.57974 | 15.06320 | 59° | 82km/h | 8953m | -3.5m/s | -38.5°C | 69.2% | 319.5hPa | 2.5V | 07:38:00 | 00:00:00 | 00:00:00 | |
| KRY50SP | 2026-08-31 01:31:54 | 54.57942 | 15.06229 | 59° | 78km/h | 8964m | -3.0m/s | -38.5°C | 69.4% | 319.1hPa | 2.5V | 07:38:00 | 00:00:00 | 00:00:00 | |
| DL1XH-15 | 2026-08-31 01:31:52 | 54.57868 | 15.06019 | 57° | 84km/h | 8987m | -2.7m/s | -38.7°C | 74.5% | 318.1hPa | 2.5V | 07:38:40 | 03:11:59 | 00:00:00 | |
| AA1-15 | 2026-08-31 01:31:47 | 54.57857 | 15.05988 | 59° | 84km/h | 8990m | -2.8m/s | -38.8°C | 73.2% | 317.9hPa | 2.5V | 07:39:24 | 03:11:58 | 00:00:00 | |
| EDDB2-11 | 2026-08-31 01:31:44 | 54.57825 | 15.05896 | 57° | 78km/h | 8999m | -2.6m/s | -38.8°C | 70.8% | 317.5hPa | 2.5V | 00:00:00 | 00:00:00 | 00:00:00 | |
| AA1-15 | 2026-08-31 01:31:36 | 54.57736 | 15.05652 | 58° | 84km/h | 9022m | -3m/s | -39°C | 74.5% | 316.4hPa | 2.5V | 07:39:24 | 03:11:47 | 00:00:00 | |
| DL1XH-15 | 2026-08-31 01:31:32 | 54.57635 | 15.05381 | 57° | 82km/h | 9049m | -2.8m/s | -39.2°C | 78.8% | 315.1hPa | 2.5V | 07:39:01 | 03:11:38 | 00:00:00 | |
| AA1-15 | 2026-08-31 01:31:25 | 54.57613 | 15.05320 | 59° | 82km/h | 9055m | -3.2m/s | -39.3°C | 76.8% | 314.8hPa | 2.5V | 07:39:24 | 03:11:36 | 00:00:00 | |
| AA1-15 | 2026-08-31 01:31:14 | 54.57489 | 15.04982 | 58° | 84km/h | 9087m | -3m/s | -39.5°C | 75.8% | 313.3hPa | 2.5V | 07:39:24 | 03:11:25 | 00:00:00 | |
| AA1-15 | 2026-08-31 01:31:03 | 54.57361 | 15.04650 | 58° | 84km/h | 9120m | -2.8m/s | -39.7°C | 75.6% | 311.8hPa | 2.5V | 07:40:15 | 03:11:14 | 00:00:00 | |
| AM1SDL-15 | 2026-08-31 01:31:03 | 54.57361 | 15.04649 | 59° | 84km/h | 9120m | -2.7m/s | -39.7°C | 78.4% | 311.7hPa | 2.5V | 00:00:00 | 03:11:14 | 00:00:00 | |
| DL1XH-15 | 2026-08-31 01:31:02 | 54.57327 | 15.04559 | 56° | 84km/h | 9129m | -2.8m/s | -39.8°C | 78.5% | 311.4hPa | 2.5V | 07:39:28 | 03:11:11 | 00:00:00 | |
| AA1-15 | 2026-08-31 01:30:52 | 54.57233 | 15.04315 | 57° | 84km/h | 9152m | -2.9m/s | -40°C | 75.9% | 310.3hPa | 2.5V | 07:40:15 | 03:11:03 | 00:00:00 | |
| AA1-15 | 2026-08-31 01:30:41 | 54.57103 | 15.03975 | 56° | 84km/h | 9182m | -2.9m/s | -40.3°C | 75.8% | 308.8hPa | 2.5V | 07:40:15 | 03:10:52 | 00:00:00 | |
| AA1-15 | 2026-08-31 01:30:30 | 54.56969 | 15.03637 | 55° | 86km/h | 9215m | -2.9m/s | -40.6°C | 76.5% | 307.3hPa | 2.5V | 07:40:15 | 03:10:41 | 00:00:00 | |
| KRY50SP-1 | 2026-08-31 01:30:29 | 54.56969 | 15.03637 | 56° | 86km/h | 9215m | -2.9m/s | -40.6°C | 74.1% | 307.3hPa | 2.5V | 07:40:00 | 00:00:00 | 00:00:00 | |
| AM1SDL-15 | 2026-08-31 01:30:27 | 54.56932 | 15.03542 | 58° | 88km/h | 9224m | -3.1m/s | -40.6°C | 79.2% | 306.9hPa | 2.5V | 00:00:00 | 03:10:38 | 00:00:00 | |
| SP3BTT-10 | 2026-08-31 01:30:26 | 54.56920 | 15.03510 | 58° | 89km/h | 9227m | -2.8m/s | -40.7°C | 79.1% | 306.8hPa | 2.5V | 00:00:00 | 00:00:00 | 00:00:00 | |
| KRY50SP-1 | 2026-08-31 01:30:24 | 54.56908 | 15.03479 | 57° | 86km/h | 9230m | -2.9m/s | -40.7°C | 74.2% | 306.7hPa | 2.5V | 07:40:00 | 00:00:00 | 00:00:00 | |
| DL1XH-15 | 2026-08-31 01:30:22 | 54.56847 | 15.03323 | 56° | 84km/h | 9245m | -2.8m/s | -40.9°C | 78.9% | 306hPa | 2.5V | 07:40:08 | 03:10:31 | 00:00:00 | |
| AA1-15 | 2026-08-31 01:30:20 | 54.56847 | 15.03323 | 57° | 84km/h | 9245m | -2.8m/s | -40.9°C | 76.7% | 306hPa | 2.5V | 07:40:15 | 03:10:31 | 00:00:00 | |
| KRY50SP-1 | 2026-08-31 01:30:18 | 54.56835 | 15.03292 | 57° | 86km/h | 9249m | -2.9m/s | -40.9°C | 74.1% | 305.9hPa | 2.5V | 07:40:00 | 00:00:00 | 00:00:00 | |
| AM1SDL-15 | 2026-08-31 01:30:15 | 54.56787 | 15.03165 | 59° | 86km/h | 9262m | -2.7m/s | -41.0°C | 79.3% | 305.2hPa | 2.5V | 07:40:00 | 03:10:26 | 00:00:00 | |
| KRY50SP | 2026-08-31 01:30:14 | 54.56787 | 15.03166 | 59° | 84km/h | 9262m | -2.8m/s | -41.0°C | 74.4% | 305.3hPa | 2.5V | 07:40:00 | 00:00:00 | 00:00:00 | |
| KRY50SP-1 | 2026-08-31 01:30:13 | 54.56776 | 15.03134 | 58° | 84km/h | 9264m | -3.4m/s | -41.0°C | 74.3% | 305.2hPa | 2.5V | 07:40:00 | 00:00:00 | 00:00:00 | |
| DL1XH-15 | 2026-08-31 01:30:12 | 54.56707 | 15.02948 | 56° | 86km/h | 9285m | -2.5m/s | -41.2°C | 79.4% | 304.4hPa | 2.5V | 07:40:20 | 03:10:19 | 00:00:00 | |
| AA1-15 | 2026-08-31 01:30:09 | 54.56718 | 15.02979 | 56° | 84km/h | 9282m | -2.8m/s | -41.2°C | 76.9% | 304.5hPa | 2.5V | 07:41:06 | 03:10:20 | 00:00:00 | |
| KRY50SP-1 | 2026-08-31 01:30:08 | 54.56718 | 15.02979 | 57° | 84km/h | 9282m | -2.8m/s | -41.2°C | 74.5% | 304.5hPa | 2.5V | 00:00:00 | 00:00:00 | 00:00:00 | |
| SP3WXH-11 | 2026-08-31 01:30:06 | 54.56683 | 15.02884 | 58° | 86km/h | 9291m | -1.8m/s | -41.3°C | 74.5% | 304.1hPa | 2.5V | 00:00:00 | 00:00:00 | 00:00:00 | |
| KRY50SP | 2026-08-31 01:30:03 | 54.56660 | 15.02820 | 58° | 86km/h | 9295m | -2.7m/s | -41.3°C | 74.8% | 303.8hPa | 2.5V | 00:00:00 | 00:00:00 | 00:00:00 | |
| DL1XH-15 | 2026-08-31 01:30:02 | 54.56591 | 15.02627 | 57° | 88km/h | 9313m | -2.9m/s | -41.5°C | 79.7% | 303hPa | 2.5V | 07:40:30 | 03:10:09 | 00:00:00 | |
| AA1-15 | 2026-08-31 01:29:59 | 54.56435 | 15.02195 | 60° | 89km/h | 9354m | -3.1m/s | -41.8°C | 77.7% | 301.2hPa | 2.5V | 07:41:06 | 03:09:56 | 00:00:00 | |
| KRY50SP | 2026-08-31 01:29:58 | 54.56603 | 15.02659 | 59° | 86km/h | 9310m | -3.0m/s | -41.5°C | 74.9% | 303.1hPa | 2.5V | 00:00:00 | 00:00:00 | 00:00:00 | |
| AM1SDL-15 | 2026-08-31 01:29:57 | 54.56579 | 15.02594 | 58° | 89km/h | 9316m | -2.8m/s | -41.4°C | 79.5% | 302.8hPa | 2.5V | 00:00:00 | 03:10:08 | 00:00:00 | |
| KRY50SP-1 | 2026-08-31 01:29:55 | 54.56567 | 15.02561 | 60° | 89km/h | 9320m | -2.9m/s | -41.5°C | 74.6% | 302.7hPa | 2.5V | 00:00:00 | 00:00:00 | 00:00:00 | |
| DL1XH-15 | 2026-08-31 01:29:54 | 54.56471 | 15.02298 | 57° | 89km/h | 9343m | -3m/s | -41.7°C | 78.6% | 301.7hPa | 2.5V | 07:40:40 | 03:09:59 | 00:00:00 | |
| AA1-15 | 2026-08-31 01:29:52 | 54.56424 | 15.02162 | 60° | 88km/h | 9357m | -3.1m/s | -41.8°C | 77.7% | 301.1hPa | 2.4V | 07:41:06 | 03:09:55 | 00:00:00 | |
| KRY50SP-1 | 2026-08-31 01:29:50 | 54.56507 | 15.02397 | 59° | 91km/h | 9335m | -3.0m/s | -41.7°C | 74.3% | 302.1hPa | 2.5V | 00:00:00 | 00:00:00 | 00:00:00 | |
| AA1-15 | 2026-08-31 01:29:33 | 54.56292 | 15.01792 | 59° | 88km/h | 9392m | -2.8m/s | -42.1°C | 78.9% | 299.6hPa | 2.5V | 07:41:06 | 03:09:44 | 00:00:00 | |
| DL1XH-15 | 2026-08-31 01:29:32 | 54.56245 | 15.01658 | 60° | 89km/h | 9403m | -3m/s | -42.2°C | 82.1% | 299.1hPa | 2.5V | 07:40:59 | 03:09:40 | 00:00:00 | |
| AA1-15 | 2026-08-31 01:29:22 | 54.56165 | 15.01418 | 59° | 89km/h | 9424m | -3.4m/s | -42.4°C | 80% | 298.1hPa | 2.5V | 07:41:06 | 03:09:33 | 00:00:00 | |
| DL1XH-15 | 2026-08-31 01:29:22 | 54.56130 | 15.01316 | 60° | 91km/h | 9434m | -3.3m/s | -42.5°C | 79.8% | 297.6hPa | 2.5V | 07:41:09 | 03:09:30 | 00:00:00 | |
| AM1SDL-15 | 2026-08-31 01:29:21 | 54.56153 | 15.01384 | 59° | 91km/h | 9427m | -3.4m/s | -42.4°C | 80.5% | 297.9hPa | 2.4V | 00:00:00 | 03:09:32 | 00:00:00 | |
| KRY50SP | 2026-08-31 01:29:19 | 54.56142 | 15.01350 | 61° | 91km/h | 9431m | -3.4m/s | -42.5°C | 74.9% | 297.8hPa | 2.5V | 07:41:00 | 00:00:00 | 00:00:00 | |
| SP3BTT-10 | 2026-08-31 01:29:17 | 54.56107 | 15.01248 | 59° | 91km/h | 9441m | -3.4m/s | -42.5°C | 79.8% | 297.3hPa | 2.5V | 00:00:00 | 00:00:00 | 00:00:00 | |
| KRY50SP-1 | 2026-08-31 01:29:14 | 54.56083 | 15.01178 | 61° | 93km/h | 9447m | -3.5m/s | -42.6°C | 74.8% | 297.0hPa | 2.5V | 07:41:00 | 00:00:00 | 00:00:00 | |
| KRY50SP | 2026-08-31 01:29:13 | 54.56072 | 15.01143 | 62° | 91km/h | 9451m | -3.4m/s | -42.7°C | 75.0% | 296.8hPa | 2.5V | 07:41:00 | 00:00:00 | 00:00:00 | |
| DL1XH-15 | 2026-08-31 01:29:12 | 54.56013 | 15.00968 | 61° | 93km/h | 9469m | -3.4m/s | -42.8°C | 80.6% | 296.1hPa | 2.5V | 07:41:19 | 03:09:20 | 00:00:00 | |
| AA1-15 | 2026-08-31 01:29:11 | 54.56037 | 15.01039 | 60° | 95km/h | 9461m | -3.6m/s | -42.8°C | 79.7% | 296.4hPa | 2.5V | 07:41:57 | 03:09:22 | 00:00:00 | |
| EDDB2-11 | 2026-08-31 01:29:09 | 54.56014 | 15.00968 | 61° | 91km/h | 9469m | -3.4m/s | -42.8°C | 75.4% | 296.1hPa | 2.5V | 00:00:00 | 00:00:00 | 00:00:00 | |
| KRY50SP | 2026-08-31 01:29:07 | 54.56002 | 15.00933 | 62° | 89km/h | 9472m | -3.3m/s | -42.9°C | 75.6% | 296.0hPa | 2.5V | 07:41:00 | 00:00:00 | 00:00:00 | |
| KRY50SP-1 | 2026-08-31 01:29:06 | 54.55991 | 15.00899 | 61° | 91km/h | 9476m | -3.1m/s | -42.9°C | 75.7% | 295.8hPa | 2.5V | 07:41:00 | 00:00:00 | 00:00:00 | |
| SP3WXH-11 | 2026-08-31 01:29:04 | 54.55956 | 15.00795 | 60° | 91km/h | 9485m | -3.3m/s | -43.0°C | 76.0% | 295.4hPa | 2.5V | 00:00:00 | 00:00:00 | 00:00:00 | |
| DL1XH-15 | 2026-08-31 01:29:02 | 54.55900 | 15.00621 | 62° | 93km/h | 9501m | -3.5m/s | -43.1°C | 81.6% | 294.6hPa | 2.5V | 07:41:29 | 03:09:10 | 00:00:00 | |
| AA1-15 | 2026-08-31 01:29:01 | 54.55923 | 15.00692 | 60° | 91km/h | 9494m | -3.4m/s | -43.1°C | 80% | 295hPa | 2.4V | 07:41:57 | 03:09:12 | 00:00:00 | |
| KRY50SP-1 | 2026-08-31 01:29:00 | 54.55923 | 15.00692 | 61° | 91km/h | 9495m | -3.4m/s | -43.1°C | 75.9% | 295.0hPa | 2.4V | 07:41:00 | 00:00:00 | 00:00:00 | |
| AM1SDL-15 | 2026-08-31 01:28:57 | 54.55879 | 15.00551 | 62° | 91km/h | 9508m | -3.4m/s | -43.1°C | 82.0% | 294.3hPa | 2.4V | 00:00:00 | 03:09:08 | 00:00:00 | |
| KRY50SP-1 | 2026-08-31 01:28:56 | 54.55868 | 15.00516 | 62° | 91km/h | 9511m | -3.4m/s | -43.2°C | 76.8% | 294.2hPa | 2.4V | 07:41:00 | 00:00:00 | 00:00:00 | |
| KRY50SP | 2026-08-31 01:28:55 | 54.55868 | 15.00516 | 62° | 91km/h | 9511m | -3.4m/s | -43.2°C | 76.8% | 294.2hPa | 2.4V | 07:41:00 | 00:00:00 | 00:00:00 | |
| DL1XH-15 | 2026-08-31 01:28:53 | 54.55789 | 15.00269 | 61° | 93km/h | 9536m | -3.3m/s | -43.4°C | 83.9% | 293.3hPa | 2.4V | 07:41:39 | 03:09:00 | 00:00:00 | |
| AA1-15 | 2026-08-31 01:28:50 | 54.55801 | 15.00305 | 61° | 93km/h | 9532m | -3.3m/s | -43.4°C | 82.5% | 293.4hPa | 2.4V | 07:41:57 | 03:09:01 | 00:00:00 | |
| AA1-15 | 2026-08-31 01:28:40 | 54.55690 | 14.99956 | 62° | 91km/h | 9567m | -3.4m/s | -43.7°C | 83.8% | 291.8hPa | 2.5V | 07:41:57 | 03:08:51 | 00:00:00 | |
| AA1-15 | 2026-08-31 01:28:29 | 54.55570 | 14.99575 | 61° | 93km/h | 9606m | -3.5m/s | -44.1°C | 85.2% | 290.2hPa | 2.4V | 07:42:48 | 03:08:40 | 00:00:00 | |
| DL1XH-15 | 2026-08-31 01:28:29 | 54.55515 | 14.99402 | 60° | 93km/h | 9622m | -3.4m/s | -44.2°C | 88.7% | 289.5hPa | 2.5V | 07:42:04 | 03:08:35 | 00:00:00 | |
| AA1-15 | 2026-08-31 01:28:18 | 54.55448 | 14.99196 | 61° | 91km/h | 9642m | -3.2m/s | -44.4°C | 88.3% | 288.7hPa | 2.5V | 07:42:48 | 03:08:29 | 00:00:00 | |
| AA1-15 | 2026-08-31 01:28:07 | 54.55328 | 14.98819 | 62° | 91km/h | 9678m | -3.4m/s | -44.8°C | 89% | 287.1hPa | 2.4V | 07:42:48 | 03:08:18 | 00:00:00 | |
| EDDB2-11 | 2026-08-31 01:28:07 | 54.55318 | 14.98785 | 61° | 88km/h | 9682m | -3.7m/s | -44.8°C | 84.4% | 287.0hPa | 2.4V | 00:00:00 | 00:00:00 | 00:00:00 | |
| SONDE2-11 | 2026-08-31 01:28:06 | 54.55307 | 14.98752 | 60° | 86km/h | 9686m | -3.3m/s | -44.8°C | 84.1% | 286.9hPa | 2.4V | 00:00:00 | 00:00:00 | 00:00:00 | |
| SP3BTT-10 | 2026-08-31 01:28:05 | 54.55307 | 14.98752 | 61° | 89km/h | 9686m | -3.3m/s | -44.8°C | 90.1% | 286.9hPa | 2.4V | 07:42:00 | 00:00:00 | 00:00:00 | |
| DL1XH-15 | 2026-08-31 01:28:02 | 54.55251 | 14.98584 | 60° | 88km/h | 9704m | -3.3m/s | -45°C | 89.1% | 286.1hPa | 2.5V | 07:42:28 | 03:08:11 | 00:00:00 | |
| AA1-15 | 2026-08-31 01:27:56 | 54.55207 | 14.98449 | 62° | 88km/h | 9718m | -3.5m/s | -45.1°C | 87% | 285.6hPa | 2.4V | 07:42:48 | 03:08:07 | 00:00:00 | |
| AA1-15 | 2026-08-31 01:27:46 | 54.55085 | 14.98077 | 60° | 89km/h | 9754m | -3.2m/s | -45.5°C | 85.4% | 283.9hPa | 2.5V | 07:42:48 | 03:07:56 | 00:00:00 | |
| AM1SDL-15 | 2026-08-31 01:27:45 | 54.55085 | 14.98077 | 60° | 89km/h | 9754m | -3.2m/s | -45.4°C | 86.9% | 283.9hPa | 2.5V | 00:00:00 | 03:07:56 | 00:00:00 | |
| KRY50SP | 2026-08-31 01:27:43 | 54.55073 | 14.98043 | 60° | 91km/h | 9758m | -3.2m/s | -45.5°C | 80.5% | 283.9hPa | 2.5V | 07:42:00 | 00:00:00 | 00:00:00 | |
| DL1XH-15 | 2026-08-31 01:27:42 | 54.55017 | 14.97873 | 59° | 89km/h | 9775m | -3.1m/s | -45.6°C | 85.4% | 283.2hPa | 2.5V | 07:42:49 | 03:07:50 | 00:00:00 | |
| AA1-15 | 2026-08-31 01:27:34 | 54.54959 | 14.97703 | 58° | 91km/h | 9791m | -3.6m/s | -45.8°C | 83.3% | 282.5hPa | 2.4V | 07:43:39 | 03:07:45 | 00:00:00 | |
| AA1-15 | 2026-08-31 01:27:24 | 54.54847 | 14.97365 | 61° | 88km/h | 9828m | -3.5m/s | -46.1°C | 83.5% | 281hPa | 2.4V | 07:43:39 | 03:07:35 | 00:00:00 | |
| DL1XH-15 | 2026-08-31 01:27:22 | 54.54792 | 14.97193 | 59° | 91km/h | 9844m | -3.1m/s | -46.3°C | 80.9% | 280.2hPa | 2.4V | 07:43:09 | 03:07:30 | 00:00:00 | |
| AA1-15 | 2026-08-31 01:27:13 | 54.54720 | 14.96980 | 60° | 91km/h | 9865m | -3.6m/s | -46.5°C | 78.1% | 279.3hPa | 2.4V | 07:43:39 | 03:07:24 | 00:00:00 | |
| DL1XH-15 | 2026-08-31 01:27:12 | 54.54674 | 14.96839 | 60° | 91km/h | 9880m | -3.6m/s | -46.6°C | 75.3% | 278.7hPa | 2.4V | 07:43:19 | 03:07:20 | 00:00:00 | |
| KRY50SP-1 | 2026-08-31 01:27:11 | 54.54708 | 14.96945 | 60° | 95km/h | 9869m | -3.5m/s | -46.5°C | 71.9% | 279.2hPa | 2.5V | 00:00:00 | 00:00:00 | 00:00:00 | |
| KRY50SP | 2026-08-31 01:27:10 | 54.54697 | 14.96909 | 61° | 93km/h | 9872m | -3.8m/s | -46.5°C | 71.1% | 279.0hPa | 2.5V | 07:43:00 | 00:00:00 | 00:00:00 | |
| AM1SDL-15 | 2026-08-31 01:27:09 | 54.54674 | 14.96839 | 61° | 93km/h | 9880m | -3.6m/s | -46.6°C | 75.3% | 278.6hPa | 2.5V | 00:00:00 | 03:07:20 | 00:00:00 | |
| KRY50SP-1 | 2026-08-31 01:27:06 | 54.54650 | 14.96770 | 60° | 95km/h | 9887m | -4.2m/s | -46.7°C | 67.9% | 278.3hPa | 2.5V | 00:00:00 | 00:00:00 | 00:00:00 | |
| SP3BTT-10 | 2026-08-31 01:27:05 | 54.54626 | 14.96699 | 61° | 95km/h | 9895m | -3.5m/s | -46.7°C | 72.1% | 278.1hPa | 2.5V | 00:00:00 | 00:00:00 | 00:00:00 | |
| SONDE2-11 | 2026-08-31 01:27:04 | 54.54603 | 14.96628 | 59° | 93km/h | 9902m | -3.5m/s | -46.8°C | 64.2% | 277.8hPa | 2.5V | 00:00:00 | 00:00:00 | 00:00:00 | |
| DL1XH-15 | 2026-08-31 01:27:02 | 54.54554 | 14.96487 | 59° | 93km/h | 9917m | -3.6m/s | -47°C | 67.8% | 277.1hPa | 2.5V | 07:43:29 | 03:07:10 | 00:00:00 | |
| AA1-15 | 2026-08-31 01:27:02 | 54.54591 | 14.96593 | 59° | 95km/h | 9906m | -3.5m/s | -46.9°C | 70.7% | 277.5hPa | 2.5V | 07:43:39 | 03:07:13 | 00:00:00 | |
| SP3WXH-11 | 2026-08-31 01:27:00 | 54.54566 | 14.96522 | 60° | 93km/h | 9913m | -3.6m/s | -46.9°C | 62.8% | 277.3hPa | 2.4V | 00:00:00 | 00:00:00 | 00:00:00 | |
| KRY50SP | 2026-08-31 01:26:59 | 54.54567 | 14.96522 | 61° | 95km/h | 9913m | -3.6m/s | -46.9°C | 62.8% | 277.3hPa | 2.4V | 07:43:00 | 00:00:00 | 00:00:00 | |
| KRY50SP-1 | 2026-08-31 01:26:58 | 54.54554 | 14.96486 | 60° | 93km/h | 9918m | -3.6m/s | -47.0°C | 62.4% | 277.1hPa | 2.4V | 00:00:00 | 00:00:00 | 00:00:00 | |
| AM1SDL-15 | 2026-08-31 01:26:57 | 54.54530 | 14.96417 | 59° | 95km/h | 9925m | -3.4m/s | -47.0°C | 68.0% | 276.8hPa | 2.4V | 07:43:00 | 03:07:08 | 00:00:00 | |
| KRY50SP | 2026-08-31 01:26:54 | 54.54505 | 14.96344 | 61° | 97km/h | 9932m | -3.8m/s | -47.1°C | 62.2% | 276.5hPa | 2.5V | 07:43:00 | 00:00:00 | 00:00:00 | |
| DL1XH-15 | 2026-08-31 01:26:52 | 54.54431 | 14.96130 | 60° | 93km/h | 9954m | -3.5m/s | -47.3°C | 69% | 275.6hPa | 2.5V | 07:43:39 | 03:07:00 | 00:00:00 | |
| AA1-15 | 2026-08-31 01:26:51 | 54.54455 | 14.96201 | 59° | 97km/h | 9947m | -3.4m/s | -47.2°C | 69.3% | 275.9hPa | 2.4V | 07:43:39 | 03:07:02 | 00:00:00 | |
| KRY50SP | 2026-08-31 01:26:48 | 54.54431 | 14.96130 | 61° | 93km/h | 9954m | -3.5m/s | -47.3°C | 63.4% | 275.6hPa | 2.5V | 07:43:00 | 00:00:00 | 00:00:00 | |
| AM1SDL-15 | 2026-08-31 01:26:45 | 54.54383 | 14.95992 | 61° | 97km/h | 9969m | -3.0m/s | -47.3°C | 69.6% | 275.0hPa | 2.5V | 00:00:00 | 03:06:56 | 00:00:00 | |
| KRY50SP | 2026-08-31 01:26:43 | 54.54371 | 14.95956 | 62° | 93km/h | 9973m | -3.6m/s | -47.4°C | 64.0% | 274.9hPa | 2.5V | 07:44:00 | 00:00:00 | 00:00:00 | |
| DL1XH-15 | 2026-08-31 01:26:42 | 54.54287 | 14.95699 | 59° | 97km/h | 9997m | -3.5m/s | -47.7°C | 69.4% | 273.9hPa | 2.5V | 07:43:51 | 03:06:48 | 00:00:00 | |
| AA1-15 | 2026-08-31 01:26:40 | 54.54323 | 14.95811 | 62° | 99km/h | 9987m | -3.4m/s | -47.6°C | 70.3% | 274.2hPa | 2.5V | 07:44:30 | 03:06:51 | 00:00:00 | |
| KRY50SP-1 | 2026-08-31 01:26:38 | 54.54311 | 14.95773 | 63° | 99km/h | 9991m | -3.7m/s | -47.6°C | 64.0% | 274.1hPa | 2.5V | 00:00:00 | 00:00:00 | 00:00:00 | |
| KRY50SP | 2026-08-31 01:26:37 | 54.54299 | 14.95736 | 62° | 97km/h | 9994m | -3.3m/s | -47.6°C | 64.1% | 274.0hPa | 2.5V | 07:44:00 | 00:00:00 | 00:00:00 | |
| SP3BTT-10 | 2026-08-31 01:26:35 | 54.54262 | 14.95625 | 61° | 99km/h | 10005m | -3.6m/s | -47.7°C | 68.9% | 273.6hPa | 2.5V | 00:00:00 | 00:00:00 | 00:00:00 | |
| EDDB2-11 | 2026-08-31 01:26:34 | 54.54238 | 14.95552 | 60° | 95km/h | 10010m | -3.5m/s | -47.8°C | 63.6% | 273.2hPa | 2.5V | 00:00:00 | 00:00:00 | 00:00:00 | |
| SONDE2-11 | 2026-08-31 01:26:33 | 54.54226 | 14.95516 | 59° | 95km/h | 10014m | -3.6m/s | -47.8°C | 63.5% | 273.1hPa | 2.5V | 00:00:00 | 00:00:00 | 00:00:00 | |
| DL1XH-15 | 2026-08-31 01:26:31 | 54.54151 | 14.95298 | 57° | 97km/h | 10035m | -3.3m/s | -48.1°C | 69.5% | 272.2hPa | 2.5V | 07:44:02 | 03:06:37 | 00:00:00 | |
| AA1-15 | 2026-08-31 01:26:30 | 54.54201 | 14.95443 | 60° | 99km/h | 10022m | -3.4m/s | -47.9°C | 69.4% | 272.8hPa | 2.4V | 07:44:30 | 03:06:41 | 00:00:00 | |
| SP3WXH-11 | 2026-08-31 01:26:29 | 54.54189 | 14.95406 | 60° | 97km/h | 10025m | -3.6m/s | -48.0°C | 63.6% | -1.0hPa | 2.4V | 00:00:00 | 00:00:00 | 00:00:00 | |
| KRY50SP-1 | 2026-08-31 01:26:26 | 54.54164 | 14.95334 | 60° | 95km/h | 10032m | -3.0m/s | -48.0°C | 63.9% | 272.4hPa | 2.4V | 00:00:00 | 00:00:00 | 00:00:00 | |
| DB0DAN | 2026-08-31 01:26:25 | 54.54138 | 14.95262 | 59° | 93km/h | 10038m | -3.5m/s | -48.1°C | 63.6% | 272.08hPa | 2.4V | 00:00:00 | 00:00:00 | 00:00:00 | |
| DL1XH-15 | 2026-08-31 01:26:21 | 54.54025 | 14.94934 | 59° | 97km/h | 10068m | -3.5m/s | -48.4°C | 68.8% | 270.7hPa | 2.5V | 07:44:12 | 03:06:27 | 00:00:00 | |
| AA1-15 | 2026-08-31 01:26:20 | 54.54075 | 14.95081 | 59° | 99km/h | 10054m | -3.4m/s | -48.3°C | 69.1% | 271.4hPa | 2.4V | 07:44:30 | 03:06:31 | 00:00:00 | |
| KRY50SP-1 | 2026-08-31 01:26:18 | 54.54062 | 14.95044 | 61° | 99km/h | 10057m | -3.6m/s | -48.3°C | 63.2% | 271.3hPa | 2.5V | 00:00:00 | 00:00:00 | 00:00:00 | |
| KRY50SP | 2026-08-31 01:26:15 | 54.54025 | 14.94934 | 60° | 97km/h | 10068m | -3.5m/s | -48.4°C | 63.0% | 270.7hPa | 2.5V | 07:44:00 | 00:00:00 | 00:00:00 | |
| KRY50SP-1 | 2026-08-31 01:26:12 | 54.53988 | 14.94823 | 62° | 95km/h | 10079m | -3.6m/s | -48.5°C | 62.6% | 270.3hPa | 2.5V | 00:00:00 | 00:00:00 | 00:00:00 | |
| DL1XH-15 | 2026-08-31 01:26:11 | 54.53903 | 14.94571 | 58° | 97km/h | 10107m | -3.1m/s | -48.7°C | 68.9% | 269.4hPa | 2.5V | 07:44:22 | 03:06:17 | 00:00:00 | |
| AA1-15 | 2026-08-31 01:26:09 | 54.53940 | 14.94680 | 60° | 97km/h | 10095m | -3.8m/s | -48.6°C | 68.7% | 269.7hPa | 2.4V | 07:44:30 | 03:06:20 | 00:00:00 | |
| KRY50SP-1 | 2026-08-31 01:26:06 | 54.53915 | 14.94607 | 61° | 95km/h | 10104m | -3.2m/s | -48.7°C | 62.9% | 269.5hPa | 2.5V | 00:00:00 | 00:00:00 | 00:00:00 | |
| KRY50SP | 2026-08-31 01:26:04 | 54.53890 | 14.94535 | 60° | 100km/h | 10110m | -3.3m/s | -48.8°C | 63.3% | 269.2hPa | 2.5V | 07:44:00 | 00:00:00 | 00:00:00 | |
| EDDB2-11 | 2026-08-31 01:26:03 | 54.53852 | 14.94422 | 60° | 97km/h | 10121m | -3.5m/s | -48.9°C | 63.5% | 268.7hPa | 2.5V | 00:00:00 | 00:00:00 | 00:00:00 | |
| SONDE2-11 | 2026-08-31 01:26:02 | 54.53840 | 14.94384 | 59° | 97km/h | 10125m | -3.7m/s | -48.9°C | 63.5% | 268.5hPa | 2.5V | 00:00:00 | 00:00:00 | 00:00:00 | |
| DL1XH-15 | 2026-08-31 01:26:01 | 54.53778 | 14.94202 | 58° | 97km/h | 10143m | -3.6m/s | -49.1°C | 70.7% | 267.9hPa | 2.5V | 07:44:32 | 03:06:07 | 00:00:00 | |
| AA1-15 | 2026-08-31 01:25:58 | 54.53802 | 14.94274 | 60° | 97km/h | 10136m | -3.5m/s | -49°C | 70.6% | 268.1hPa | 2.4V | 07:44:30 | 03:06:09 | 00:00:00 | |
| KRY50SP | 2026-08-31 01:25:54 | 54.53765 | 14.94166 | 60° | 97km/h | 10146m | -3.4m/s | -49.1°C | 64.7% | 267.7hPa | 2.5V | 07:45:00 | 00:00:00 | 00:00:00 | |
| DL1XH-15 | 2026-08-31 01:25:51 | 54.53656 | 14.93837 | 59° | 97km/h | 10177m | -3.5m/s | -49.4°C | 70.5% | 266.4hPa | 2.5V | 07:44:42 | 03:05:57 | 00:00:00 | |
| AA1-15 | 2026-08-31 01:25:47 | 54.53668 | 14.93873 | 61° | 97km/h | 10174m | -3.6m/s | -49.4°C | 70.6% | 266.5hPa | 2.4V | 07:45:21 | 03:05:58 | 00:00:00 | |
| KRY50SP-1 | 2026-08-31 01:25:46 | 54.53669 | 14.93873 | 62° | 97km/h | 10174m | -3.6m/s | -49.4°C | 64.4% | 266.5hPa | 2.4V | 07:45:00 | 00:00:00 | 00:00:00 | |
| AM1SDL-15 | 2026-08-31 01:25:45 | 54.53644 | 14.93800 | 60° | 97km/h | 10181m | -3.4m/s | -49.4°C | 70.6% | 266.2hPa | 2.4V | 00:00:00 | 03:05:56 | 00:00:00 | |
| DL1XH-15 | 2026-08-31 01:25:41 | 54.53534 | 14.93471 | 59° | 97km/h | 10211m | -3.4m/s | -49.8°C | 73.5% | 265hPa | 2.4V | 07:44:52 | 03:05:47 | 00:00:00 | |
| AA1-15 | 2026-08-31 01:25:36 | 54.53534 | 14.93471 | 60° | 97km/h | 10211m | -3.4m/s | -49.8°C | 73.4% | 265hPa | 2.4V | 07:45:21 | 03:05:47 | 00:00:00 | |
| AM1SDL-15 | 2026-08-31 01:25:33 | 54.53496 | 14.93359 | 62° | 99km/h | 10223m | -3.5m/s | -49.8°C | 73.7% | 264.6hPa | 2.5V | 00:00:00 | 03:05:44 | 00:00:00 | |
| DL1XH-15 | 2026-08-31 01:25:31 | 54.53411 | 14.93100 | 59° | 97km/h | 10249m | -3.5m/s | -50.1°C | 74.9% | 263.5hPa | 2.5V | 07:45:02 | 03:05:37 | 00:00:00 | |
| AA1-15 | 2026-08-31 01:25:25 | 54.53399 | 14.93064 | 59° | 99km/h | 10253m | -3.3m/s | -50.2°C | 75.1% | 263.4hPa | 2.5V | 07:45:21 | 03:05:36 | 00:00:00 | |
| KRY50SP | 2026-08-31 01:25:24 | 54.53399 | 14.93064 | 60° | 99km/h | 10253m | -3.3m/s | -50.2°C | 68.9% | 263.4hPa | 2.5V | 07:45:00 | 00:00:00 | 00:00:00 | |
| DL1XH-15 | 2026-08-31 01:25:21 | 54.53285 | 14.92727 | 59° | 99km/h | 10285m | -3.3m/s | -50.5°C | 75.4% | 262.1hPa | 2.5V | 07:45:12 | 03:05:27 | 00:00:00 | |
| AA1-15 | 2026-08-31 01:25:14 | 54.53259 | 14.92653 | 59° | 100km/h | 10293m | -3.7m/s | -50.5°C | 75.1% | 261.8hPa | 2.4V | 07:45:21 | 03:05:25 | 00:00:00 | |
| KRY50SP | 2026-08-31 01:25:12 | 54.53247 | 14.92616 | 61° | 99km/h | 10296m | -3.3m/s | -50.6°C | 68.8% | 261.7hPa | 2.5V | 07:45:00 | 00:00:00 | 00:00:00 | |
| DL1XH-15 | 2026-08-31 01:25:11 | 54.53159 | 14.92359 | 59° | 97km/h | 10321m | -3.3m/s | -50.8°C | 75.5% | 260.7hPa | 2.5V | 07:45:22 | 03:05:17 | 00:00:00 | |
| AA1-15 | 2026-08-31 01:25:03 | 54.53120 | 14.92246 | 61° | 100km/h | 10332m | -3.3m/s | -50.9°C | 76.2% | 260.3hPa | 2.4V | 07:46:12 | 03:05:14 | 00:00:00 | |
| AA1-15 | 2026-08-31 01:24:52 | 54.52983 | 14.91838 | 61° | 99km/h | 10374m | -3.4m/s | -51.3°C | 78% | 258.7hPa | 2.4V | 07:46:12 | 03:05:03 | 00:00:00 | |
| KRY50SP-1 | 2026-08-31 01:24:50 | 54.52971 | 14.91801 | 61° | 97km/h | 10378m | -3.7m/s | -51.3°C | 71.5% | 258.6hPa | 2.4V | 07:46:00 | 00:00:00 | 00:00:00 | |
| KRY50SP-1 | 2026-08-31 01:24:44 | 55.66645 | -7.82437 | 0° | 0km/h | 14543m | 0.0m/s | -51.5°C | 71.8% | 257.8hPa | 2.4V | 07:46:00 | 00:00:00 | 00:00:00 | |
| AA1-15 | 2026-08-31 01:24:42 | 55.71886 | -7.64173 | 0° | 0km/h | 14561m | 0m/s | -51.6°C | 78.9% | 257.4hPa | 2.4V | 07:46:12 | 03:04:53 | 00:00:00 | |
| KRY50SP-1 | 2026-08-31 01:24:38 | 56.15701 | -7.04699 | 0° | 0km/h | 14714m | 0.0m/s | -51.7°C | 71.3% | 256.9hPa | 2.5V | 07:46:00 | 00:00:00 | 00:00:00 | |
| AA1-15 | 2026-08-31 01:24:31 | 62.33328 | -3.34365 | 0° | 0km/h | 16744m | 0m/s | -52°C | 79% | 255.8hPa | 2.5V | 07:46:12 | 03:04:42 | 00:00:00 | |
| KRY50SP-1 | 2026-08-31 01:24:26 | 62.71993 | 0.11192 | 0° | 0km/h | 16862m | 0.0m/s | -52.1°C | 0% | 255.2hPa | 2.5V | 07:46:00 | 00:00:00 | 00:00:00 | |
| AA1-15 | 2026-08-31 01:24:20 | 63.11818 | 5.21610 | 0° | 0km/h | 16983m | 0m/s | -52.3°C | 79.5% | 254.2hPa | 2.5V | 07:46:12 | 03:04:31 | 00:00:00 | |
| KRY50SP-1 | 2026-08-31 01:23:48 | 60.06371 | -12.18018 | 0° | 0km/h | 16025m | 0.0m/s | 0°C | 0% | 249.7hPa | 2.5V | 07:47:00 | 00:00:00 | 00:00:00 | |
| KRY50SP-1 | 2026-08-31 01:23:42 | 60.06371 | -12.18018 | 0° | 0km/h | 16025m | 0.0m/s | 0°C | 0% | 248.9hPa | 2.5V | 07:47:00 | 00:00:00 | 00:00:00 | |
| KRY50SP-1 | 2026-08-31 01:23:35 | 60.44118 | -14.63462 | 0° | 0km/h | 16147m | 0.0m/s | 0°C | 0% | 248.0hPa | 2.5V | 07:47:00 | 00:00:00 | 00:00:00 | |
| AA1-15 | 2026-08-31 01:23:26 | 54.57164 | 12.60271 | 0° | 0km/h | 45220m | 0m/s | -54°C | 68.6% | 246.6hPa | 2.5V | 07:47:03 | 03:03:38 | 00:00:00 | |
| AA1-15 | 2026-08-31 01:23:15 | 54.57164 | 12.60271 | 0° | 0km/h | 45220m | 0m/s | -54°C | 58.4% | 245.1hPa | 2.5V | 07:47:54 | 03:03:27 | 00:00:00 | |
| DL1XH-west | 2026-08-31 01:23:11 | 54.57164 | 12.60271 | 0° | 0km/h | 45220m | 0m/s | 0°C | 0% | 0hPa | 2.5V | 18:12:15 | 03:03:23 | 00:00:00 | |
| AA1-15 | 2026-08-31 01:23:05 | 54.57164 | 12.60271 | 0° | 0km/h | 45220m | 0m/s | -54.1°C | 55.4% | 243.7hPa | 2.5V | 07:47:54 | 03:03:17 | 00:00:00 | |
| KRY50SP-1 | 2026-08-31 01:23:00 | 49.55511 | 16.14170 | 0° | 0km/h | 12342m | 0.0m/s | 0°C | 0% | 0hPa | 2.5V | 07:47:00 | 00:00:00 | 00:00:00 | |
| KRY50SP-1 | 2026-08-31 01:22:55 | 37.01433 | -7.85198 | 0° | 0km/h | 7709m | 0.0m/s | 0°C | 0% | 0hPa | 2.5V | 07:47:00 | 00:00:00 | 00:00:00 | |
| AA1-15 | 2026-08-31 01:22:54 | 43.25956 | -12.84253 | 0° | 0km/h | 9998m | 0m/s | -54.3°C | 53.9% | 242.2hPa | 2.5V | 07:47:54 | 03:03:06 | 00:00:00 | |
| KRY50SP-1 | 2026-08-31 01:22:49 | 43.91178 | -15.11624 | 0° | 0km/h | 10242m | 0.0m/s | 0°C | 0% | 0hPa | 2.5V | 07:47:00 | 00:00:00 | 00:00:00 | |
| AA1-15 | 2026-08-31 01:22:43 | 36.80080 | -5.71645 | 0° | 0km/h | 7632m | 0m/s | -54.4°C | 49.9% | 240.8hPa | 2.5V | 07:47:54 | 03:02:55 | 00:00:00 | |
| DL1XH-west | 2026-08-31 01:22:39 | 48.19808 | 9.53973 | 0° | 0km/h | 11839m | 0m/s | 0°C | 0% | 0hPa | 2.5V | 18:12:15 | 03:02:51 | 00:00:00 | |
| KRY50SP-1 | 2026-08-31 01:22:38 | 48.19808 | 9.53973 | 0° | 0km/h | 11839m | 0.0m/s | 0°C | 0% | 0hPa | 2.5V | 07:47:00 | 00:00:00 | 00:00:00 | |
| AA1-15 | 2026-08-31 01:22:32 | 53.47584 | 6.09574 | 0° | 0km/h | 13769m | 0m/s | -54°C | 45.9% | 239.3hPa | 2.5V | 07:48:45 | 03:02:44 | 00:00:00 | |
| KRY50SP-1 | 2026-08-31 01:22:30 | 52.39773 | 0.36598 | 0° | 0km/h | 13381m | 0.0m/s | 0°C | 0% | 0hPa | 2.5V | 00:00:00 | 00:00:00 | 00:00:00 | |
| KRY50SP-1 | 2026-08-31 01:22:22 | 49.60245 | 9.39063 | 0° | 0km/h | 12359m | 0.0m/s | 0°C | 0% | 0hPa | 2.5V | 00:00:00 | 00:00:00 | 00:00:00 | |
| AA1-15 | 2026-08-31 01:22:21 | 49.91739 | 9.85508 | 0° | 0km/h | 12475m | 0m/s | -54.2°C | 45% | 237.9hPa | 2.5V | 07:48:45 | 03:02:33 | 00:00:00 | |
| KRY50SP-1 | 2026-08-31 01:22:11 | 30.71608 | 7.39740 | 0° | 0km/h | 5545m | 0.0m/s | 0°C | 0% | 0hPa | 2.5V | 00:00:00 | 00:00:00 | 00:00:00 | |
| AA1-15 | 2026-08-31 01:22:10 | 30.28838 | 7.82839 | 0° | 0km/h | 5406m | 0m/s | -54.2°C | 42.6% | 236.4hPa | 2.5V | 07:48:45 | 03:02:22 | 00:00:00 | |
| KRY50SP-1 | 2026-08-31 01:22:07 | 41.54780 | -13.58859 | 0° | 0km/h | 9363m | 0.0m/s | 0°C | 0% | 0hPa | 2.5V | 00:00:00 | 00:00:00 | 00:00:00 | |
| AA1-15 | 2026-08-31 01:22:00 | 34.34391 | -4.88235 | 0° | 0km/h | 6767m | 0m/s | -54.3°C | 41% | 235.1hPa | 2.5V | 07:48:45 | 03:02:12 | 00:00:00 | |
| KRY50SP-1 | 2026-08-31 01:21:50 | 35.31785 | -9.63227 | 0° | 0km/h | 7107m | 0.0m/s | 0°C | 0% | 0hPa | 2.5V | 00:00:00 | 00:00:00 | 00:00:00 | |
| AA1-15 | 2026-08-31 01:21:49 | 39.85311 | -10.49958 | 0° | 0km/h | 8738m | 0m/s | -54.4°C | 39.2% | 233.6hPa | 2.5V | 07:48:45 | 03:02:01 | 00:00:00 | |
| AA1-15 | 2026-08-31 01:21:06 | 43.73270 | -15.40415 | 0° | 0km/h | 10175m | 0m/s | -55.1°C | 38.3% | 228.1hPa | 2.5V | 07:49:36 | 03:01:18 | 00:00:00 | |
| AA1-15 | 2026-08-31 01:19:34 | 46.30897 | 11.61792 | 0° | 0km/h | 11136m | 0m/s | -56.6°C | 39.7% | 216.2hPa | 2.5V | 07:51:18 | 02:59:46 | 00:00:00 | |
| AA1-15 | 2026-08-31 01:19:23 | 46.25381 | 10.38745 | 0° | 0km/h | 11115m | 0m/s | -56.9°C | 39% | 214.8hPa | 2.5V | 07:51:18 | 02:59:35 | 00:00:00 | |
| DL1XH-west | 2026-08-31 01:18:45 | 38.20588 | 15.70664 | 0° | 0km/h | 8138m | 0m/s | -57.4°C | 30.4% | 210hPa | 2.5V | 07:52:09 | 02:58:57 | 00:00:00 | |
| DL1XH-west | 2026-08-31 01:18:21 | 55.08236 | 19.73007 | 0° | 0km/h | 2490m | 0m/s | -56.7°C | 20.7% | 207hPa | 2.5V | 07:52:09 | 02:58:33 | 00:00:00 | |
| DM0DOS-11 | 2026-08-31 01:17:26 | 55.08236 | 19.73020 | 268° | 13km/h | 2474m | 8.1m/s | -54.5°C | 9.2% | 199.8hPa | 2.5V | 07:53:06 | 02:57:33 | 00:00:00 | |
| AA1-15 | 2026-08-31 01:17:25 | 55.08236 | 19.72994 | 270° | 16km/h | 2505m | 8.1m/s | -54.7°C | 8.1% | 200.3hPa | 2.6V | 07:53:51 | 02:57:37 | 00:00:00 | |
| DL1XH1-15 | 2026-08-31 01:17:25 | 55.08236 | 19.73007 | 269° | 16km/h | 2490m | 8.1m/s | -54.6°C | 9.5% | 200hPa | 2.5V | 07:53:04 | 02:57:35 | 00:00:00 | |
| DL1XH-west | 2026-08-31 01:17:24 | 55.08236 | 19.73000 | 270° | 16km/h | 2498m | 8.1m/s | -54.7°C | 8% | 200.2hPa | 2.5V | 07:53:51 | 02:57:36 | 00:00:00 | |
| DL1XH1-15 | 2026-08-31 01:17:20 | 55.08236 | 19.73036 | 272° | 13km/h | 2456m | 8m/s | -54.5°C | 8.9% | 199.4hPa | 2.6V | 07:53:09 | 02:57:30 | 00:00:00 | |
| AA1-15 | 2026-08-31 01:17:15 | 32.32681 | 23.14537 | 0° | 0km/h | 6078m | 0m/s | -54.3°C | 6.9% | 199.1hPa | 2.5V | 07:53:51 | 02:57:27 | 00:00:00 | |
| DL1XH-west | 2026-08-31 01:17:13 | 50.84226 | 22.41633 | 0° | 0km/h | 12815m | 0m/s | -54.1°C | 6.7% | 198.9hPa | 2.6V | 07:53:51 | 02:57:25 | 00:00:00 | |
| DL1XH-west | 2026-08-31 01:16:42 | 52.30994 | -0.30312 | 0° | 0km/h | 13349m | 0m/s | -53.6°C | 4.7% | 195.2hPa | 2.5V | 07:53:51 | 02:56:54 | 00:00:00 | |
| AA1-15 | 2026-08-31 01:16:27 | 50.86049 | 10.31955 | 0° | 0km/h | 12821m | 0m/s | -52.8°C | 3.6% | 193.3hPa | 2.5V | 07:54:42 | 02:56:39 | 00:00:00 | |
| AA1-15 | 2026-08-31 01:16:17 | 56.50354 | 20.43773 | 0° | 0km/h | 14833m | 0m/s | -52°C | 2.9% | 192.2hPa | 2.5V | 07:54:42 | 02:56:29 | 00:00:00 | |
| DL1XH-west | 2026-08-31 01:16:15 | 57.01296 | 20.69690 | 0° | 0km/h | 15008m | 0m/s | -51.9°C | 2.8% | 191.9hPa | 2.5V | 07:54:42 | 02:56:27 | 00:00:00 | |
| DL1XH-west | 2026-08-31 01:15:54 | 37.49744 | 20.99756 | 0° | 0km/h | 7882m | 0m/s | -51.9°C | 2.2% | 189.3hPa | 2.5V | 07:54:42 | 02:56:07 | 00:00:00 | |
| AA1-15 | 2026-08-31 01:15:24 | 36.05143 | -4.44002 | 0° | 0km/h | 7366m | 0m/s | -52°C | 2% | 185.7hPa | 2.5V | 07:55:33 | 02:55:37 | 00:00:00 | |
| DL1XH-west | 2026-08-31 01:15:23 | 35.36438 | -3.91387 | 0° | 0km/h | 7123m | 0m/s | -52°C | 2% | 185.6hPa | 2.5V | 07:55:33 | 02:55:36 | 00:00:00 | |
| AA1-15 | 2026-08-31 01:15:14 | 35.32283 | -3.87459 | 0° | 0km/h | 7109m | 0m/s | -51.7°C | 1.8% | 184.4hPa | 2.5V | 07:55:33 | 02:55:27 | 00:00:00 | |
| DL1XH-west | 2026-08-31 01:15:13 | 36.83089 | -5.04166 | 0° | 0km/h | 7643m | 0m/s | -51.6°C | 1.8% | 184.3hPa | 2.5V | 07:55:33 | 02:55:26 | 00:00:00 | |
| DL1XH-west | 2026-08-31 01:15:02 | 35.39073 | -3.91560 | 0° | 0km/h | 7133m | 0m/s | -51.5°C | 1.7% | 182.9hPa | 2.6V | 07:55:33 | 02:55:15 | 00:00:00 | |
| DL1XH-west | 2026-08-31 01:14:06 | 45.26405 | -2.25672 | 0° | 0km/h | 10746m | 0m/s | -50.7°C | 1.3% | 176hPa | 2.5V | 07:56:24 | 02:54:20 | 00:00:00 | |
| DL1XH-west | 2026-08-31 01:13:14 | -5.97799 | 73.18336 | 0° | 0km/h | 230m | 0m/s | -51.1°C | 1.4% | 169.9hPa | 2.5V | 07:57:15 | 02:53:29 | 00:00:00 | |
| DL1XH-west | 2026-08-31 01:11:27 | 47.29712 | 39.38341 | 0° | 0km/h | 6568m | 0m/s | -51.6°C | 0.9% | 158.1hPa | 2.5V | 07:58:57 | 02:51:43 | 00:00:00 | |
| AA1-15 | 2026-08-31 01:11:25 | 47.29712 | 39.38341 | 0° | 0km/h | 6568m | 0m/s | -51.7°C | 0.8% | 157.9hPa | 2.5V | 07:59:48 | 02:51:41 | 00:00:00 | |
| DL1XH-west | 2026-08-31 01:11:16 | 47.29712 | 39.38341 | 0° | 0km/h | 6568m | 0m/s | -51.4°C | 0.7% | 156.9hPa | 2.5V | 07:59:48 | 02:51:32 | 00:00:00 | |
| AA1-15 | 2026-08-31 01:11:14 | 47.29712 | 39.38341 | 0° | 0km/h | 6568m | 0m/s | -51.3°C | 0.8% | 156.7hPa | 2.6V | 07:59:48 | 02:51:30 | 00:00:00 | |
| DL1XH-west | 2026-08-31 01:11:05 | 47.29712 | 39.38341 | 0° | 0km/h | 6568m | 0m/s | -51.3°C | 0.7% | 155.7hPa | 2.6V | 07:59:48 | 02:51:21 | 00:00:00 | |
| AA1-15 | 2026-08-31 01:11:04 | 47.29712 | 39.38341 | 0° | 0km/h | 6568m | 0m/s | -51.3°C | 0.7% | 155.6hPa | 2.5V | 07:59:48 | 02:51:20 | 00:00:00 | |
| DL1XH-west | 2026-08-31 01:10:54 | 47.29712 | 39.38341 | 0° | 0km/h | 6568m | 0m/s | -51.6°C | 0.8% | 154.5hPa | 2.5V | 07:59:48 | 02:51:11 | 00:00:00 | |
| AA1-15 | 2026-08-31 01:10:43 | 47.29712 | 39.38341 | 0° | 0km/h | 6568m | 0m/s | -51.1°C | 0.6% | 153.3hPa | 2.6V | 07:59:48 | 02:51:00 | 00:00:00 | |
| DL1XH-west | 2026-08-31 01:10:34 | 47.29712 | 39.38341 | 0° | 0km/h | 6568m | 0m/s | -51.3°C | 0.6% | 152.2hPa | 2.5V | 08:00:39 | 02:50:50 | 00:00:00 | |
| AA1-15 | 2026-08-31 01:10:32 | 47.29712 | 39.38341 | 0° | 0km/h | 6568m | 0m/s | -51.3°C | 0.6% | 152.1hPa | 2.6V | 08:00:39 | 02:50:49 | 00:00:00 | |
| DL1XH-west | 2026-08-31 01:10:23 | 47.29712 | 39.38341 | 0° | 0km/h | 6568m | 0m/s | -51.3°C | 0.7% | 151.1hPa | 2.5V | 08:00:39 | 02:50:40 | 00:00:00 | |
| AA1-15 | 2026-08-31 01:08:48 | 47.29712 | 39.38341 | 0° | 0km/h | 6568m | 0m/s | -51.2°C | 0.5% | 140.7hPa | 2.5V | 08:02:21 | 02:49:06 | 00:00:00 | |
| DL1XH-west | 2026-08-31 01:07:24 | 47.29712 | 39.38341 | 0° | 0km/h | 6568m | 0m/s | -51.5°C | 0.8% | 131.2hPa | 2.5V | 08:03:12 | 02:47:45 | 00:00:00 | |
| DL1XH-west | 2026-08-31 01:07:13 | 47.29712 | 39.38341 | 0° | 0km/h | 6568m | 0m/s | -51.2°C | 0.9% | 130.1hPa | 2.5V | 08:03:12 | 02:47:35 | 00:00:00 | |
| DL1XH-west | 2026-08-31 01:06:52 | 47.29712 | 39.38341 | 0° | 0km/h | 6568m | 0m/s | -51°C | 0.7% | 127.7hPa | 2.5V | 08:04:03 | 02:47:15 | 00:00:00 | |
| AA1-15 | 2026-08-31 01:06:42 | 47.29712 | 39.38341 | 0° | 0km/h | 6568m | 0m/s | -50.7°C | 0.6% | 126.7hPa | 2.6V | 08:04:03 | 02:47:05 | 00:00:00 | |
| DL1XH-west | 2026-08-31 01:06:31 | 47.29712 | 39.38341 | 0° | 0km/h | 6568m | 0m/s | -50.2°C | 0.5% | 125.4hPa | 2.6V | 08:04:03 | 02:46:54 | 00:00:00 | |
| DL1XH-west | 2026-08-31 01:02:52 | 54.92930 | 19.47883 | 321° | 82km/h | 2515m | 3.2m/s | -51.9°C | 0.2% | 102.4hPa | 2.5V | 08:07:27 | 02:43:20 | 00:00:00 | |
| DM0DOS-11 | 2026-08-31 01:02:50 | 54.92832 | 19.48027 | 280° | 13km/h | 2492m | 7.7m/s | -51.9°C | 3.5% | 101.6hPa | 2.5V | 08:07:26 | 02:43:13 | 00:00:00 | |
| AA1-15 | 2026-08-31 01:02:50 | 54.92898 | 19.47928 | 321° | 82km/h | 2508m | 3.2m/s | -51.9°C | 0.2% | 102.2hPa | 2.6V | 08:07:27 | 02:43:18 | 00:00:00 | |
| DL1XH1-15 | 2026-08-31 01:02:47 | 54.92850 | 19.47997 | 320° | 82km/h | 2498m | 3.2m/s | -51.9°C | 3.5% | 101.8hPa | 2.5V | 08:07:24 | 02:43:15 | 00:00:00 | |
| DM0DOS-11 | 2026-08-31 01:02:45 | 54.92832 | 19.48057 | 271° | 16km/h | 2438m | 8.2m/s | -51.6°C | 3.4% | 101.1hPa | 2.5V | 08:07:31 | 02:43:08 | 00:00:00 | |
| DL1XH-15 | 2026-08-31 01:02:44 | 54.92831 | 19.48046 | 269° | 16km/h | 2470m | 7.9m/s | -51.7°C | 3.5% | 101.3hPa | 2.5V | 08:07:29 | 02:43:10 | 00:00:00 | |
| DL1XH-west | 2026-08-31 01:02:41 | 54.92830 | 19.48052 | 272° | 13km/h | 2458m | 8.1m/s | -51.6°C | 0.2% | 101.2hPa | 2.5V | 08:08:18 | 02:43:09 | 00:00:00 | |
| DM0DOS-11 | 2026-08-31 01:02:40 | 54.92825 | 19.48098 | 267° | 13km/h | 2393m | 8.1m/s | -51.5°C | 3.4% | 100.6hPa | 2.5V | 08:07:36 | 02:43:03 | 00:00:00 | |
| AA1-15 | 2026-08-31 01:02:40 | 54.92831 | 19.48070 | 266° | 13km/h | 2430m | 8.9m/s | -51.5°C | 0.2% | 101hPa | 2.5V | 08:08:18 | 02:43:07 | 00:00:00 | |
| DL1XH-15 | 2026-08-31 01:02:39 | 54.92827 | 19.48089 | 268° | 13km/h | 2410m | 9.8m/s | -51.4°C | 3.4% | 100.8hPa | 2.6V | 08:07:34 | 02:43:05 | 00:00:00 | |
| DM0DOS-11 | 2026-08-31 01:02:35 | 54.92822 | 19.48125 | 262° | 13km/h | 2373m | 4.6m/s | -51.4°C | 3.4% | 100.1hPa | 2.6V | 08:07:41 | 02:42:58 | 00:00:00 | |
| DL1XH-15 | 2026-08-31 01:02:34 | 54.92821 | 19.48109 | 269° | 13km/h | 2375m | 8.2m/s | -51.4°C | 3.4% | 100.3hPa | 2.5V | 08:07:39 | 02:43:00 | 00:00:00 | |
| DL1XH-west | 2026-08-31 01:02:31 | 54.92820 | 19.48115 | 270° | 16km/h | 2372m | 8.4m/s | -51.4°C | 0.1% | 100.3hPa | 2.6V | 08:08:18 | 02:42:59 | 00:00:00 | |
| DM0DOS-11 | 2026-08-31 01:02:30 | 54.92828 | 19.48163 | 269° | 15km/h | 2352m | 8m/s | -51.6°C | 3.3% | 99.7hPa | 2.6V | 08:07:46 | 02:42:53 | 00:00:00 | |
| AA1-15 | 2026-08-31 01:02:29 | 54.92825 | 19.48133 | 245° | 16km/h | 2373m | 6m/s | -51.4°C | 0.1% | 100.1hPa | 2.5V | 08:08:18 | 02:42:57 | 00:00:00 | |
| DL1XH-15 | 2026-08-31 01:02:28 | 54.92828 | 19.48148 | 268° | 16km/h | 2366m | 8.2m/s | -51.5°C | 3.3% | 99.8hPa | 2.5V | 08:07:44 | 02:42:55 | 00:00:00 | |
| DM0DOS-11 | 2026-08-31 01:02:24 | 54.92836 | 19.48200 | 270° | 16km/h | 2317m | 8.3m/s | -51.6°C | 3.4% | 99.1hPa | 2.6V | 08:07:51 | 02:42:48 | 00:00:00 | |
| DL1XH-15 | 2026-08-31 01:02:23 | 54.92830 | 19.48183 | 271° | 13km/h | 2331m | 8m/s | -51.6°C | 3.4% | 99.3hPa | 2.5V | 08:07:49 | 02:42:50 | 00:00:00 | |
| DL1XH-west | 2026-08-31 01:02:20 | 54.92837 | 19.48200 | 270° | 16km/h | 2317m | 8.3m/s | -51.6°C | 0.1% | 99.1hPa | 2.6V | 08:08:18 | 02:42:48 | 00:00:00 | |
| AA1-15 | 2026-08-31 01:02:18 | 54.92837 | 19.48212 | 279° | 16km/h | 2299m | 8.9m/s | -51.5°C | 0.2% | 98.9hPa | 2.5V | 08:08:18 | 02:42:46 | 00:00:00 | |
| DL1XH1-15 | 2026-08-31 01:02:13 | 54.92844 | 19.48256 | 277° | 13km/h | 2259m | 8.9m/s | -51.4°C | 3.5% | 98.3hPa | 2.5V | 08:07:59 | 02:42:40 | 00:00:00 | |
| DL1XH1-15 | 2026-08-31 01:02:13 | 54.92847 | 19.48287 | 270° | 13km/h | 2237m | 8.1m/s | -51.2°C | 3.4% | 97.8hPa | 2.5V | 08:08:04 | 02:42:35 | 00:00:00 | |
| DL1XH-west | 2026-08-31 01:02:09 | 54.92847 | 19.48277 | 269° | 13km/h | 2251m | 8m/s | -51.3°C | 0.2% | 98hPa | 2.6V | 08:08:18 | 02:42:37 | 00:00:00 | |
| AA1-15 | 2026-08-31 01:02:08 | 54.92847 | 19.48287 | 270° | 13km/h | 2237m | 8.1m/s | -51.2°C | 0.1% | 97.8hPa | 2.5V | 08:08:18 | 02:42:35 | 00:00:00 | |
| DL1XH1-15 | 2026-08-31 01:02:07 | 54.92846 | 19.48311 | 269° | 13km/h | 2181m | 8.4m/s | -51°C | 3.3% | 97.3hPa | 2.5V | 08:08:09 | 02:42:30 | 00:00:00 | |
| DL1XH-15 | 2026-08-31 01:02:01 | 54.92836 | 19.48316 | 276° | 13km/h | 2112m | 9.6m/s | -50.7°C | 3.2% | 96.8hPa | 2.5V | 08:08:14 | 02:42:25 | 00:00:00 | |
| DL1XH-west | 2026-08-31 01:01:58 | 54.92838 | 19.48323 | 271° | 13km/h | 2131m | 8.3m/s | -50.8°C | 0% | 97hPa | 2.5V | 08:08:18 | 02:42:26 | 00:00:00 | |
| AA1-15 | 2026-08-31 01:01:57 | 54.92836 | 19.48316 | 277° | 13km/h | 2112m | 9.6m/s | -50.7°C | 0% | 96.8hPa | 2.5V | 08:08:18 | 02:42:25 | 00:00:00 | |
| DL1XH-15 | 2026-08-31 01:01:54 | 54.92834 | 19.48339 | 269° | 16km/h | 2073m | 7.9m/s | -50.6°C | 3.2% | 96.3hPa | 2.5V | 08:08:19 | 02:42:20 | 00:00:00 | |
| DM0DOS-11 | 2026-08-31 01:01:48 | 54.92837 | 19.48351 | 276° | 11km/h | 1990m | 10m/s | -50.8°C | 3.3% | 95.9hPa | 2.6V | 08:08:24 | 02:42:15 | 00:00:00 | |
| DL1XH1-15 | 2026-08-31 01:01:47 | 54.92838 | 19.48360 | 270° | 13km/h | 1960m | 8.1m/s | -50.8°C | 3.3% | 95.7hPa | 2.5V | 08:08:26 | 02:42:13 | 00:00:00 | |
| DL1XH1-15 | 2026-08-31 01:01:47 | 54.92838 | 19.48374 | 269° | 13km/h | 1939m | 8.2m/s | -50.9°C | 3.3% | 95.5hPa | 2.5V | 08:08:28 | 02:42:11 | 00:00:00 | |
| DL1XH-west | 2026-08-31 01:01:47 | 54.92837 | 19.48352 | 276° | 11km/h | 1990m | 10m/s | -50.8°C | 0% | 95.9hPa | 2.6V | 08:09:09 | 02:42:15 | 00:00:00 | |
| DL1XH-west | 2026-08-31 01:01:46 | 54.92838 | 19.48356 | 273° | 11km/h | 1977m | 9.5m/s | -50.8°C | 0% | 95.8hPa | 2.6V | 08:09:09 | 02:42:14 | 00:00:00 | |
| AA1-15 | 2026-08-31 01:01:46 | 54.92838 | 19.48360 | 270° | 13km/h | 1960m | 8.1m/s | -50.8°C | 0% | 95.7hPa | 2.5V | 08:09:09 | 02:42:13 | 00:00:00 | |
| DL1XH-west | 2026-08-31 01:01:44 | 54.92838 | 19.48367 | 270° | 15km/h | 1950m | 8.3m/s | -50.9°C | 0.1% | 95.6hPa | 2.5V | 08:09:09 | 02:42:12 | 00:00:00 | |
| DL1XH1-15 | 2026-08-31 01:01:42 | 54.92840 | 19.48388 | 272° | 13km/h | 1919m | 8.7m/s | -50.9°C | 3.3% | 95.3hPa | 2.6V | 08:08:30 | 02:42:09 | 00:00:00 | |
| DL1XH1-15 | 2026-08-31 01:01:42 | 54.92844 | 19.48407 | 272° | 18km/h | 1909m | 7.2m/s | -50.9°C | 3.3% | 95.1hPa | 2.5V | 08:08:32 | 02:42:07 | 00:00:00 | |
| DL1XH-west | 2026-08-31 01:01:42 | 54.92839 | 19.48381 | 270° | 15km/h | 1928m | 8m/s | -50.9°C | 0.1% | 95.4hPa | 2.5V | 08:09:09 | 02:42:10 | 00:00:00 | |
| AA1-15 | 2026-08-31 01:01:41 | 54.92840 | 19.48388 | 273° | 13km/h | 1919m | 8.7m/s | -50.9°C | 0.1% | 95.3hPa | 2.6V | 08:09:09 | 02:42:09 | 00:00:00 | |
| AA1-15 | 2026-08-31 01:01:40 | 54.92842 | 19.48396 | 247° | 16km/h | 1911m | 7.8m/s | -50.9°C | 0% | 95.2hPa | 2.6V | 08:09:09 | 02:42:08 | 00:00:00 | |
| AA1-15 | 2026-08-31 01:01:39 | 54.92844 | 19.48407 | 273° | 18km/h | 1909m | 7.3m/s | -50.9°C | 0.1% | 95.1hPa | 2.5V | 08:09:09 | 02:42:07 | 00:00:00 | |
| DL1XH-west | 2026-08-31 01:01:38 | 54.92844 | 19.48413 | 270° | 13km/h | 1901m | 7.9m/s | -50.8°C | 0% | 95hPa | 2.5V | 08:09:09 | 02:42:06 | 00:00:00 | |
| DM0DOS-11 | 2026-08-31 01:01:38 | 54.92844 | 19.48420 | 269° | 16km/h | 1893m | 7.8m/s | -50.8°C | 3.2% | 94.9hPa | 2.5V | 08:08:34 | 02:42:05 | 00:00:00 | |
| AA1-15 | 2026-08-31 01:01:37 | 54.92844 | 19.48420 | 269° | 16km/h | 1893m | 7.9m/s | -50.8°C | 0% | 94.9hPa | 2.5V | 08:09:09 | 02:42:05 | 00:00:00 | |
| DL1XH1-15 | 2026-08-31 01:01:37 | 54.92845 | 19.48433 | 269° | 16km/h | 1873m | 8.2m/s | -50.9°C | 3.3% | 94.7hPa | 2.6V | 08:08:36 | 02:42:03 | 00:00:00 | |
| DL1XH1-15 | 2026-08-31 01:01:37 | 54.92847 | 19.48445 | 271° | 15km/h | 1850m | 8m/s | -50.9°C | 3.3% | 94.5hPa | 2.5V | 08:08:38 | 02:42:01 | 00:00:00 | |
| DL1XH-west | 2026-08-31 01:01:35 | 54.92845 | 19.48433 | 269° | 16km/h | 1873m | 8.2m/s | -50.9°C | 0.1% | 94.7hPa | 2.6V | 08:09:09 | 02:42:03 | 00:00:00 | |
| AA1-15 | 2026-08-31 01:01:34 | 54.92846 | 19.48439 | 271° | 13km/h | 1861m | 8m/s | -50.9°C | 0.1% | 94.6hPa | 2.5V | 08:09:09 | 02:42:02 | 00:00:00 | |
| DL1XH-west | 2026-08-31 01:01:33 | 54.92847 | 19.48445 | 271° | 15km/h | 1850m | 8m/s | -50.9°C | 0.1% | 94.5hPa | 2.5V | 08:09:09 | 02:42:01 | 00:00:00 | |
| DL1XH1-15 | 2026-08-31 01:01:32 | 54.92848 | 19.48456 | 266° | 15km/h | 1827m | 9.3m/s | -51°C | 3.3% | 94.3hPa | 2.5V | 08:08:40 | 02:41:59 | 00:00:00 | |
| DL1XH1-15 | 2026-08-31 01:01:32 | 54.92844 | 19.48466 | 268° | 9km/h | 1805m | 12.4m/s | -51.1°C | 3.3% | 94.1hPa | 2.6V | 08:08:42 | 02:41:57 | 00:00:00 | |
| DL1XH1-15 | 2026-08-31 01:01:32 | 54.92834 | 19.48470 | 270° | 13km/h | 1766m | 8.1m/s | -51°C | 3.3% | 93.9hPa | 2.5V | 08:08:44 | 02:41:55 | 00:00:00 | |
| DL1XH-west | 2026-08-31 01:01:32 | 54.92848 | 19.48450 | 269° | 13km/h | 1836m | 8.1m/s | -51°C | 0% | 94.4hPa | 2.5V | 08:09:09 | 02:42:00 | 00:00:00 | |
| AA1-15 | 2026-08-31 01:01:31 | 54.92848 | 19.48456 | 266° | 15km/h | 1827m | 9.3m/s | -51°C | 0.1% | 94.3hPa | 2.5V | 08:09:09 | 02:41:59 | 00:00:00 | |
| AA1-15 | 2026-08-31 01:01:30 | 54.92847 | 19.48463 | 264° | 11km/h | 1818m | 11.2m/s | -51°C | 0.1% | 94.3hPa | 2.6V | 08:09:09 | 02:41:58 | 00:00:00 | |
| DL1XH-west | 2026-08-31 01:01:29 | 54.92844 | 19.48466 | 269° | 9km/h | 1805m | 12.4m/s | -51.1°C | 0.1% | 94.1hPa | 2.6V | 08:09:09 | 02:41:57 | 00:00:00 | |
| AA1-15 | 2026-08-31 01:01:28 | 54.92837 | 19.48469 | 272° | 11km/h | 1787m | 10m/s | -51.1°C | 0.1% | 94hPa | 2.6V | 08:09:09 | 02:41:56 | 00:00:00 | |
| DL1XH-west | 2026-08-31 01:01:27 | 54.92834 | 19.48470 | 270° | 13km/h | 1766m | 8.1m/s | -51.1°C | 0.1% | 93.9hPa | 2.5V | 08:09:09 | 02:41:55 | 00:00:00 | |
| AA1-15 | 2026-08-31 01:01:26 | 54.92832 | 19.48477 | 270° | 16km/h | 1753m | 8.2m/s | -51°C | 0.1% | 93.8hPa | 2.5V | 08:09:09 | 02:41:54 | 00:00:00 | |
| DM0DOS-11 | 2026-08-31 01:01:26 | 54.92836 | 19.48495 | 270° | 16km/h | 1732m | 8.2m/s | -50.8°C | 3.3% | 93.7hPa | 2.5V | 08:08:47 | 02:41:52 | 00:00:00 | |
| DL1XH1-15 | 2026-08-31 01:01:26 | 54.92835 | 19.48485 | 274° | 13km/h | 1742m | 8.4m/s | -50.9°C | 3.3% | 93.8hPa | 2.5V | 08:08:46 | 02:41:53 | 00:00:00 | |
| DL1XH1-15 | 2026-08-31 01:01:26 | 54.92837 | 19.48505 | 272° | 13km/h | 1725m | 9m/s | -50.7°C | 3.2% | 93.5hPa | 2.6V | 08:08:48 | 02:41:51 | 00:00:00 | |
| DL1XH1-15 | 2026-08-31 01:01:26 | 54.92834 | 19.48514 | 270° | 13km/h | 1697m | 7.9m/s | -50.6°C | 3.1% | 93.4hPa | 2.5V | 08:08:50 | 02:41:49 | 00:00:00 | |
| DL1XH-west | 2026-08-31 01:01:25 | 54.92835 | 19.48485 | 275° | 13km/h | 1742m | 8.4m/s | -50.9°C | 0.1% | 93.8hPa | 2.5V | 08:09:09 | 02:41:53 | 00:00:00 | |
| DL1XH-west | 2026-08-31 01:01:24 | 54.92836 | 19.48494 | 271° | 16km/h | 1732m | 8.2m/s | -50.8°C | 0% | 93.7hPa | 2.5V | 08:09:09 | 02:41:52 | 00:00:00 | |
| AA1-15 | 2026-08-31 01:01:23 | 54.92837 | 19.48505 | 272° | 13km/h | 1725m | 9m/s | -50.7°C | 0.1% | 93.5hPa | 2.6V | 08:09:09 | 02:41:51 | 00:00:00 | |
| DL1XH-west | 2026-08-31 01:01:22 | 54.92836 | 19.48513 | 288° | 18km/h | 1715m | 7.3m/s | -50.6°C | 0% | 93.5hPa | 2.6V | 08:09:09 | 02:41:50 | 00:00:00 | |
| DM0DOS-11 | 2026-08-31 01:01:21 | 54.92831 | 19.48510 | 269° | 15km/h | 1668m | 7.7m/s | -50.6°C | 3.2% | 93.3hPa | 2.5V | 08:08:51 | 02:41:48 | 00:00:00 | |
| DL1XH-west | 2026-08-31 01:01:21 | 54.92834 | 19.48514 | 270° | 13km/h | 1697m | 7.9m/s | -50.6°C | 0% | 93.4hPa | 2.5V | 08:09:09 | 02:41:49 | 00:00:00 | |
| DL1XH1-15 | 2026-08-31 01:01:20 | 54.92823 | 19.48479 | 271° | 16km/h | 1588m | 5.4m/s | -50.5°C | 3.2% | 93.2hPa | 2.5V | 08:08:52 | 02:41:47 | 00:00:00 | |
| DL1XH1-15 | 2026-08-31 01:01:20 | 54.92820 | 19.48484 | 270° | 13km/h | 1559m | 8.4m/s | -50.5°C | 3.1% | 93hPa | 2.6V | 08:08:54 | 02:41:45 | 00:00:00 | |
| AA1-15 | 2026-08-31 01:01:20 | 54.92831 | 19.48510 | 270° | 15km/h | 1668m | 7.7m/s | -50.6°C | 0% | 93.3hPa | 2.5V | 08:09:09 | 02:41:48 | 00:00:00 | |
| DL1XH-west | 2026-08-31 01:01:19 | 54.92823 | 19.48479 | 271° | 16km/h | 1588m | 5.4m/s | -50.5°C | 0% | 93.2hPa | 2.5V | 08:09:09 | 02:41:47 | 00:00:00 | |
| DL1XH-west | 2026-08-31 01:01:18 | 54.92821 | 19.48482 | 270° | 16km/h | 1573m | 6.6m/s | -50.5°C | 0% | 93.1hPa | 2.5V | 08:09:09 | 02:41:46 | 00:00:00 | |
| AA1-15 | 2026-08-31 01:01:16 | 54.92819 | 19.48484 | 273° | 11km/h | 1539m | 9.9m/s | -50.5°C | 0% | 92.9hPa | 2.6V | 08:09:09 | 02:41:44 | 00:00:00 | |
| DL1XH-15 | 2026-08-31 01:01:16 | 54.92819 | 19.48493 | 303° | 5km/h | 1538m | 14.2m/s | -50.5°C | 3.1% | 92.8hPa | 2.6V | 08:08:56 | 02:41:43 | 00:00:00 | |
| DL1XH1-15 | 2026-08-31 01:01:15 | 54.92818 | 19.48519 | 275° | 18km/h | 1506m | 6.9m/s | -50.6°C | 3.2% | 92.4hPa | 2.5V | 08:09:00 | 02:41:39 | 00:00:00 | |
| DL1XH-west | 2026-08-31 01:01:14 | 54.92818 | 19.48495 | 308° | 7km/h | 1524m | 14.7m/s | -50.5°C | 0% | 92.7hPa | 2.5V | 08:09:09 | 02:41:42 | 00:00:00 | |
| DL1XH-west | 2026-08-31 01:01:13 | 54.92818 | 19.48500 | 283° | 11km/h | 1513m | 12.8m/s | -50.6°C | 0% | 92.6hPa | 2.5V | 08:09:09 | 02:41:41 | 00:00:00 | |
| AA1-15 | 2026-08-31 01:01:12 | 54.92818 | 19.48508 | 277° | 11km/h | 1506m | 10.3m/s | -50.6°C | 0% | 92.5hPa | 2.5V | 08:09:09 | 02:41:40 | 00:00:00 | |
| AA1-15 | 2026-08-31 01:01:11 | 54.92818 | 19.48519 | 275° | 18km/h | 1506m | 6.9m/s | -50.6°C | 0% | 92.4hPa | 2.5V | 08:09:09 | 02:41:39 | 00:00:00 | |
| DL1XH1-15 | 2026-08-31 01:01:10 | 54.92817 | 19.48539 | 270° | 29km/h | 1511m | -2.1m/s | -50.6°C | 3.2% | 92.2hPa | 2.6V | 08:09:02 | 02:41:37 | 00:00:00 | |
| DL1XH1-15 | 2026-08-31 01:01:10 | 54.92816 | 19.48569 | 271° | 35km/h | 1541m | -8.9m/s | -50.7°C | 3.2% | 92hPa | 2.5V | 08:09:04 | 02:41:35 | 00:00:00 | |
| AA1-15 | 2026-08-31 01:01:10 | 54.92817 | 19.48528 | 273° | 18km/h | 1505m | 2.8m/s | -50.6°C | 0% | 92.3hPa | 2.6V | 08:09:09 | 02:41:38 | 00:00:00 | |
| AA1-15 | 2026-08-31 01:01:08 | 54.92817 | 19.48550 | 272° | 29km/h | 1523m | -7m/s | -50.7°C | 0% | 92.2hPa | 2.5V | 08:09:09 | 02:41:36 | 00:00:00 | |
| DL1XH1-15 | 2026-08-31 01:01:05 | 54.92815 | 19.48624 | 271° | 29km/h | 1591m | -6.9m/s | -50.8°C | 3.2% | 91.7hPa | 2.6V | 08:09:07 | 02:41:32 | 00:00:00 | |
| DL1XH1-15 | 2026-08-31 01:01:05 | 54.92827 | 19.48656 | 273° | 22km/h | 1619m | -0.5m/s | -50.9°C | 3.2% | 91.6hPa | 2.6V | 08:09:09 | 02:41:30 | 00:00:00 | |
| DL1XH-west | 2026-08-31 01:01:05 | 54.92810 | 19.48607 | 271° | 33km/h | 1570m | -9.4m/s | -50.8°C | 0% | 91.8hPa | 2.5V | 08:09:09 | 02:41:33 | 00:00:00 | |
| DL1XH-west | 2026-08-31 01:01:03 | 54.92821 | 19.48640 | 271° | 27km/h | 1606m | -4m/s | -50.8°C | 0% | 91.6hPa | 2.6V | 08:09:09 | 02:41:31 | 00:00:00 | |
| DL1XH-west | 2026-08-31 01:01:02 | 54.92827 | 19.48657 | 273° | 22km/h | 1619m | -0.5m/s | -50.9°C | 0% | 91.6hPa | 2.6V | 08:09:09 | 02:41:30 | 00:00:00 | |
| DL1XH-15 | 2026-08-31 01:01:01 | 54.92833 | 19.48694 | 312° | 82km/h | 1664m | -17.3m/s | -50.9°C | 3.2% | 91.4hPa | 2.5V | 08:09:11 | 02:41:28 | 00:00:00 | |
| DM0DOS-11 | 2026-08-31 01:00:59 | 54.92828 | 19.48767 | 260° | 91km/h | 1655m | 10m/s | -51°C | 3.2% | 91.1hPa | 2.5V | 08:09:13 | 02:41:26 | 00:00:00 | |
| DM0DOS-11 | 2026-08-31 01:00:59 | 54.92841 | 19.48849 | 247° | 91km/h | 1640m | 11m/s | -51.1°C | 3.2% | 90.9hPa | 2.6V | 08:09:15 | 02:41:24 | 00:00:00 | |
| AA1-15 | 2026-08-31 01:00:59 | 54.92825 | 19.48724 | 269° | 93km/h | 1661m | 9.3m/s | -50.9°C | 0% | 91.3hPa | 2.5V | 08:10:00 | 02:41:27 | 00:00:00 | |
| DL1XH-west | 2026-08-31 01:00:58 | 54.92828 | 19.48767 | 261° | 91km/h | 1655m | 10m/s | -51°C | 0.1% | 91.1hPa | 2.5V | 08:10:00 | 02:41:26 | 00:00:00 | |
| DL1XH-west | 2026-08-31 01:00:57 | 54.92833 | 19.48808 | 253° | 95km/h | 1647m | 10.2m/s | -51°C | 0% | 91.1hPa | 2.6V | 08:10:00 | 02:41:25 | 00:00:00 | |
| AA1-15 | 2026-08-31 01:00:56 | 54.92841 | 19.48849 | 248° | 91km/h | 1640m | 11m/s | -51.1°C | 0% | 90.9hPa | 2.6V | 08:10:00 | 02:41:24 | 00:00:00 | |
| DL1XH1-15 | 2026-08-31 01:00:55 | 54.92863 | 19.48928 | 235° | 88km/h | 1630m | 14.2m/s | -51.1°C | 3.3% | 90.7hPa | 2.5V | 08:09:17 | 02:41:22 | 00:00:00 | |
| DL1XH1-15 | 2026-08-31 01:00:55 | 54.92893 | 19.49005 | 224° | 91km/h | 1629m | 11.5m/s | -51.1°C | 3.2% | 90.5hPa | 2.6V | 08:09:19 | 02:41:20 | 00:00:00 | |
| AA1-15 | 2026-08-31 01:00:55 | 54.92851 | 19.48889 | 239° | 91km/h | 1633m | 13.1m/s | -51.1°C | 0.1% | 90.8hPa | 2.5V | 08:10:00 | 02:41:23 | 00:00:00 | |
| DM0DOS-11 | 2026-08-31 01:00:54 | 54.92877 | 19.48964 | 231° | 89km/h | 1625m | 12.7m/s | -51.1°C | 3.3% | 90.6hPa | 2.5V | 08:09:18 | 02:41:21 | 00:00:00 | |
| DM0DOS-11 | 2026-08-31 01:00:54 | 54.92911 | 19.49039 | 218° | 93km/h | 1629m | 9.3m/s | -51.1°C | 3.3% | 90.4hPa | 2.6V | 08:09:20 | 02:41:19 | 00:00:00 | |
| DM0DOS-11 | 2026-08-31 01:00:54 | 54.92952 | 19.49092 | 211° | 95km/h | 1624m | 3.3m/s | -51.1°C | 3.3% | 90.2hPa | 2.5V | 08:09:22 | 02:41:17 | 00:00:00 | |
| DL1XH-west | 2026-08-31 01:00:53 | 54.92877 | 19.48964 | 232° | 89km/h | 1625m | 12.7m/s | -51.2°C | 0.1% | 90.7hPa | 2.5V | 08:10:00 | 02:41:21 | 00:00:00 | |
| DL1XH-west | 2026-08-31 01:00:52 | 54.92893 | 19.49005 | 225° | 93km/h | 1629m | 11.5m/s | -51.1°C | 0% | 90.5hPa | 2.6V | 08:10:00 | 02:41:20 | 00:00:00 | |
| DL1XH-15 | 2026-08-31 01:00:51 | 54.92931 | 19.49069 | 211° | 100km/h | 1629m | 6.2m/s | -51.1°C | 3.3% | 90.3hPa | 2.5V | 08:09:21 | 02:41:18 | 00:00:00 | |
| AA1-15 | 2026-08-31 01:00:51 | 54.92911 | 19.49039 | 218° | 93km/h | 1629m | 9.3m/s | -51.1°C | 0% | 90.4hPa | 2.6V | 08:10:00 | 02:41:19 | 00:00:00 | |
| DL1XH1-15 | 2026-08-31 01:00:50 | 54.92973 | 19.49107 | 203° | 100km/h | 1616m | 3.6m/s | -51.1°C | 3.3% | 90.2hPa | 2.5V | 08:09:23 | 02:41:16 | 00:00:00 | |
| DL1XH1-15 | 2026-08-31 01:00:50 | 54.93017 | 19.49123 | 188° | 95km/h | 1594m | 6.2m/s | -51.1°C | 3.3% | 90hPa | 2.6V | 08:09:25 | 02:41:14 | 00:00:00 | |
| DL1XH-west | 2026-08-31 01:00:50 | 54.92931 | 19.49069 | 212° | 100km/h | 1630m | 6.2m/s | -51.1°C | 0.1% | 90.3hPa | 2.5V | 08:10:00 | 02:41:18 | 00:00:00 | |
| DM0DOS-11 | 2026-08-31 01:00:49 | 54.92994 | 19.49115 | 196° | 99km/h | 1601m | 3.1m/s | -51.1°C | 3.3% | 90.1hPa | 2.6V | 08:09:24 | 02:41:15 | 00:00:00 | |
| DM0DOS-11 | 2026-08-31 01:00:49 | 54.93040 | 19.49123 | 182° | 100km/h | 1580m | 9.2m/s | -51°C | 3.3% | 89.9hPa | 2.5V | 08:09:26 | 02:41:13 | 00:00:00 | |
| AA1-15 | 2026-08-31 01:00:48 | 54.92973 | 19.49107 | 203° | 100km/h | 1616m | 3.6m/s | -51.1°C | 0% | 90.2hPa | 2.5V | 08:10:00 | 02:41:16 | 00:00:00 | |
| AA1-15 | 2026-08-31 01:00:47 | 54.92994 | 19.49115 | 197° | 99km/h | 1601m | 3.1m/s | -51.1°C | 0.1% | 90.1hPa | 2.6V | 08:10:00 | 02:41:15 | 00:00:00 | |
| DL1XH-west | 2026-08-31 01:00:46 | 54.93017 | 19.49123 | 188° | 95km/h | 1594m | 6.2m/s | -51.1°C | 0% | 90hPa | 2.6V | 08:10:00 | 02:41:14 | 00:00:00 | |
| DL1XH1-15 | 2026-08-31 01:00:45 | 54.93064 | 19.49118 | 172° | 95km/h | 1561m | 13.4m/s | -51°C | 3.3% | 89.8hPa | 2.5V | 08:09:27 | 02:41:12 | 00:00:00 | |
| DL1XH1-15 | 2026-08-31 01:00:45 | 54.93110 | 19.49102 | 153° | 106km/h | 1538m | 24.4m/s | -51°C | 3.3% | 89.6hPa | 2.6V | 08:09:29 | 02:41:10 | 00:00:00 | |
| DL1XH-west | 2026-08-31 01:00:45 | 54.93040 | 19.49123 | 183° | 100km/h | 1580m | 9.3m/s | -51°C | 0.1% | 89.9hPa | 2.5V | 08:10:00 | 02:41:13 | 00:00:00 | |
| DM0DOS-11 | 2026-08-31 01:00:44 | 54.93087 | 19.49113 | 162° | 99km/h | 1551m | 19.2m/s | -51°C | 3.3% | 89.7hPa | 2.5V | 08:09:28 | 02:41:11 | 00:00:00 | |
| DL1XH-west | 2026-08-31 01:00:44 | 54.93064 | 19.49118 | 173° | 95km/h | 1561m | 13.5m/s | -51°C | 0.1% | 89.8hPa | 2.5V | 08:10:00 | 02:41:12 | 00:00:00 | |
| AA1-15 | 2026-08-31 01:00:43 | 54.93087 | 19.49113 | 162° | 99km/h | 1551m | 19.3m/s | -51°C | 0% | 89.7hPa | 2.5V | 08:10:00 | 02:41:11 | 00:00:00 | |
| DL1XH-west | 2026-08-31 01:00:42 | 54.93110 | 19.49102 | 154° | 106km/h | 1538m | 24.4m/s | -51.1°C | 0% | 89.6hPa | 2.6V | 08:10:00 | 02:41:10 | 00:00:00 | |
| DL1XH1-15 | 2026-08-31 01:00:40 | 54.93152 | 19.49054 | 134° | 104km/h | 1493m | 27.3m/s | -51.1°C | 3.3% | 89.4hPa | 2.5V | 08:09:31 | 02:41:08 | 00:00:00 | |
| DL1XH-west | 2026-08-31 01:00:40 | 54.93152 | 19.49054 | 134° | 104km/h | 1493m | 27.3m/s | -51.1°C | 0.1% | 89.4hPa | 2.5V | 08:10:00 | 02:41:08 | 00:00:00 | |
| DM0DOS-11 | 2026-08-31 01:00:39 | 54.93195 | 19.48964 | 136° | 106km/h | 1395m | 19.9m/s | -51.2°C | 3.3% | 89.2hPa | 2.5V | 08:09:33 | 02:41:06 | 00:00:00 | |
| AA1-15 | 2026-08-31 01:00:39 | 54.93173 | 19.49011 | 134° | 106km/h | 1446m | 24.6m/s | -51.1°C | 0.1% | 89.3hPa | 2.5V | 08:10:00 | 02:41:07 | 00:00:00 | |
| AA1-15 | 2026-08-31 01:00:38 | 54.93195 | 19.48964 | 136° | 106km/h | 1396m | 19.9m/s | -51.2°C | 0.1% | 89.2hPa | 2.5V | 08:10:00 | 02:41:06 | 00:00:00 | |
| DL1XH-west | 2026-08-31 01:00:37 | 54.93213 | 19.48919 | 128° | 99km/h | 1356m | 14.4m/s | -51.2°C | 0.1% | 89.1hPa | 2.5V | 08:10:00 | 02:41:05 | 00:00:00 | |
| DL1XH-15 | 2026-08-31 01:00:36 | 54.93230 | 19.48874 | 126° | 91km/h | 1323m | 8.7m/s | -51.3°C | 3.3% | 89hPa | 2.6V | 08:09:35 | 02:41:04 | 00:00:00 | |
| AA1-15 | 2026-08-31 01:00:36 | 54.93231 | 19.48873 | 126° | 91km/h | 1323m | 8.7m/s | -51.3°C | 0.1% | 89hPa | 2.6V | 08:10:00 | 02:41:04 | 00:00:00 | |
| DL1XH1-15 | 2026-08-31 01:00:35 | 54.93264 | 19.48786 | 114° | 97km/h | 1283m | 7.5m/s | -51.3°C | 3.3% | 88.8hPa | 2.5V | 08:09:37 | 02:41:02 | 00:00:00 | |
| AA1-15 | 2026-08-31 01:00:35 | 54.93247 | 19.48828 | 119° | 97km/h | 1298m | 8.9m/s | -51.3°C | 0.1% | 88.9hPa | 2.6V | 08:10:00 | 02:41:03 | 00:00:00 | |
| DL1XH-west | 2026-08-31 01:00:34 | 54.93264 | 19.48786 | 114° | 97km/h | 1283m | 7.5m/s | -51.3°C | 0.1% | 88.8hPa | 2.5V | 08:10:00 | 02:41:02 | 00:00:00 | |
| DM0DOS-11 | 2026-08-31 01:00:34 | 54.93275 | 19.48696 | 96° | 97km/h | 1277m | 6.1m/s | -51.3°C | 3.3% | 88.6hPa | 2.5V | 08:09:39 | 02:41:00 | 00:00:00 | |
| DL1XH-west | 2026-08-31 01:00:31 | 54.93279 | 19.48655 | 98° | 97km/h | 1271m | 7.7m/s | -51.4°C | 0.1% | 88.6hPa | 2.6V | 08:10:00 | 02:40:59 | 00:00:00 | |
| DL1XH1-15 | 2026-08-31 01:00:30 | 54.93280 | 19.48620 | 93° | 100km/h | 1274m | 11.2m/s | -51.4°C | 3.3% | 88.5hPa | 2.6V | 08:09:41 | 02:40:58 | 00:00:00 | |
| DL1XH-west | 2026-08-31 01:00:30 | 54.93280 | 19.48620 | 94° | 100km/h | 1274m | 11.2m/s | -51.4°C | 0.1% | 88.5hPa | 2.6V | 08:10:00 | 02:40:58 | 00:00:00 | |
| DM0DOS-11 | 2026-08-31 01:00:28 | 54.93277 | 19.48527 | 78° | 110km/h | 1245m | 16.9m/s | -51.4°C | 3.3% | 88.3hPa | 2.5V | 08:09:43 | 02:40:56 | 00:00:00 | |
| AA1-15 | 2026-08-31 01:00:22 | 54.92502 | 19.48463 | 0° | 0km/h | 886m | 0m/s | -51.1°C | 0.1% | 87.7hPa | 2.5V | 08:10:00 | 02:40:50 | 00:00:00 | |
| DL1XH-west | 2026-08-31 01:00:21 | 54.92502 | 19.48463 | 0° | 0km/h | 886m | 0m/s | -51.1°C | 0% | 87.6hPa | 2.6V | 08:10:00 | 02:40:49 | 00:00:00 | |
| DL1XH-west | 2026-08-31 00:59:29 | 54.92527 | 19.48473 | 194° | 100km/h | 881m | 5.7m/s | -51.6°C | 0.2% | 82.8hPa | 2.5V | 08:10:51 | 02:39:57 | 00:00:00 | |
| DL1XH-west | 2026-08-31 00:59:27 | 54.92576 | 19.48495 | 194° | 100km/h | 869m | 5.7m/s | -51.5°C | 0.1% | 82.6hPa | 2.6V | 08:10:51 | 02:39:55 | 00:00:00 | |
| DL1XH-west | 2026-08-31 00:59:25 | 54.92600 | 19.48506 | 194° | 100km/h | 863m | 5.7m/s | -51.5°C | 0.2% | 82.5hPa | 2.5V | 08:10:51 | 02:39:54 | 00:00:00 | |
| DL1XH1-15 | 2026-08-31 00:59:19 | 54.92781 | 19.48586 | 194° | 100km/h | 821m | 5.7m/s | -51.7°C | 3.5% | 81.8hPa | 2.5V | 08:10:52 | 02:39:47 | 00:00:00 | |
| DL1XH1-15 | 2026-08-31 00:59:19 | 54.92865 | 19.48631 | 177° | 95km/h | 900m | -0m/s | -51.6°C | 3.5% | 81.6hPa | 2.6V | 08:10:54 | 02:39:45 | 00:00:00 | |
| DL1XH1-15 | 2026-08-31 00:59:19 | 54.93083 | 19.48826 | 162° | 102km/h | 1354m | -8.5m/s | -51.3°C | 3.4% | 81.5hPa | 2.5V | 08:10:56 | 02:39:43 | 00:00:00 | |
| DL1XH-15 | 2026-08-31 00:59:09 | 55.05869 | 19.94538 | 27° | 13km/h | 2681m | 4.6m/s | -50.6°C | 3.2% | 80.7hPa | 2.5V | 08:11:04 | 02:39:35 | 00:00:00 | |
| DM0DOS-11 | 2026-08-31 00:59:03 | 55.05869 | 19.94560 | 272° | 13km/h | 2666m | 8.2m/s | 0°C | 0% | 0hPa | 2.5V | 08:11:09 | 02:39:30 | 00:00:00 | |
| DM0DOS-11 | 2026-08-31 00:58:58 | 55.05887 | 19.94592 | 269° | 16km/h | 2632m | 8.5m/s | 0°C | 0% | 0hPa | 2.5V | 08:11:14 | 02:39:25 | 00:00:00 | |
| DL1XH-west | 2026-08-31 00:58:55 | 55.05942 | 19.94573 | 268° | 13km/h | 2632m | 8.1m/s | -50.6°C | 0% | 79.6hPa | 2.5V | 08:11:42 | 02:39:23 | 00:00:00 | |
| DL1XH-15 | 2026-08-31 00:58:51 | 55.05946 | 19.94605 | 272° | 15km/h | 2591m | 8.2m/s | -50.8°C | 3.2% | 79.2hPa | 2.5V | 08:11:21 | 02:39:18 | 00:00:00 | |
| DL1XH-west | 2026-08-31 00:58:44 | 34.88704 | 40.89940 | 0° | 0km/h | 6956m | 0m/s | -51.1°C | 0.1% | 78.7hPa | 2.5V | 08:11:42 | 02:39:13 | 00:00:00 | |
| MECKS9 | 2026-08-31 00:58:17 | 54.60807 | 21.72969 | 6° | 62km/h | 4324m | 5.4m/s | -51.1°C | 0.9% | 76.3hPa | 2.6V | 08:12:00 | 00:00:00 | 00:00:00 | |
| MECKS9 | 2026-08-31 00:58:06 | 54.60807 | 21.72969 | 6° | 62km/h | 4324m | 5.4m/s | -51.2°C | 0.9% | 75.3hPa | 2.6V | 08:12:00 | 00:00:00 | 00:00:00 | |
| MECKS9 | 2026-08-31 00:57:41 | 54.60807 | 21.72969 | 6° | 62km/h | 4324m | 5.4m/s | -51.8°C | 0.9% | 73.1hPa | 2.6V | 08:12:00 | 00:00:00 | 00:00:00 | |
| EDDB2-11 | 2026-08-31 00:57:35 | 54.60824 | 21.72973 | 4° | 60km/h | 4333m | 5.4m/s | -52.0°C | 0.9% | 71.6hPa | 2.6V | 00:00:00 | 00:00:00 | 00:00:00 | |
| SONDE2-11 | 2026-08-31 00:57:34 | 54.60824 | 21.72973 | 4° | 60km/h | 4333m | 5.4m/s | -52.0°C | 0.9% | 71.6hPa | 2.6V | 00:00:00 | 00:00:00 | 00:00:00 | |
| SP3WXH-11 | 2026-08-31 00:57:31 | 54.60824 | 21.72973 | 4° | 60km/h | 4333m | 5.4m/s | -52.0°C | 0.9% | 71.6hPa | 2.6V | 00:00:00 | 00:00:00 | 00:00:00 | |
| DL1XH1-15 | 2026-08-31 00:57:30 | 54.60824 | 21.72972 | 4° | 60km/h | 4333m | 5.3m/s | -52°C | 3.4% | 71.6hPa | 2.6V | 08:12:44 | 02:37:55 | 00:00:00 | |
| DM0DOS-11 | 2026-08-31 00:57:27 | 54.60807 | 21.72969 | 4° | 62km/h | 4324m | 5.4m/s | 0°C | 0% | 0hPa | 2.6V | 00:00:00 | 02:37:54 | 00:00:00 | |
| DL1XH-west | 2026-08-31 00:57:26 | 54.60839 | 21.72975 | 5° | 60km/h | 4338m | 5.4m/s | -52°C | 0.2% | 71.7hPa | 2.5V | 08:13:24 | 02:37:56 | 00:00:00 | |
| AA1-15 | 2026-08-31 00:57:25 | 54.60807 | 21.72969 | 5° | 62km/h | 4324m | 5.4m/s | -51.9°C | 0.1% | 71.5hPa | 2.6V | 08:13:24 | 02:37:54 | 00:00:00 | |
| DL1XH1-15 | 2026-08-31 00:57:24 | 54.60737 | 21.72953 | 5° | 68km/h | 4278m | 9.1m/s | -51.9°C | 3.4% | 71.2hPa | 2.5V | 08:12:49 | 02:37:50 | 00:00:00 | |
| S3001 | 2026-08-31 00:57:23 | 54.60772 | 21.72962 | 6° | 64km/h | 4304m | 7.4m/s | -51.9°C | 0.9% | 71.3hPa | 2.6V | 00:00:00 | 00:00:00 | 00:00:00 | |
| DM0DOS-11 | 2026-08-31 00:57:22 | 54.60718 | 21.72952 | 2° | 69km/h | 4268m | 11.4m/s | 0°C | 0% | 0hPa | 2.6V | 00:00:00 | 02:37:49 | 00:00:00 | |
| DG6HD-11 | 2026-08-31 00:57:20 | 54.60737 | 21.72953 | 6° | 62km/h | 4278m | 9.1m/s | -51.9°C | 3.4% | 71.1hPa | 2.5V | 08:12:00 | 00:00:00 | 00:00:00 | |
| DO2SHX-10 | 2026-08-31 00:57:19 | 54.60718 | 21.72952 | 3° | 82km/h | 4268m | 11.3m/s | -51.9°C | 3.3% | 71.0hPa | 2.5V | 00:00:00 | 02:37:49 | 00:00:00 | |
| DL1XH1-15 | 2026-08-31 00:57:18 | 54.60737 | 21.72963 | 3° | 142km/h | 4224m | 1.2m/s | -52.1°C | 3.4% | 70.7hPa | 2.5V | 08:12:54 | 02:37:45 | 00:00:00 | |
| DL1XH-west | 2026-08-31 00:57:16 | 54.60670 | 21.72943 | 4° | 82km/h | 4248m | 13.4m/s | -52.1°C | 0.2% | 70.8hPa | 2.5V | 08:13:24 | 02:37:46 | 00:00:00 | |
| MECKS9 | 2026-08-31 00:57:16 | 54.60670 | 21.72943 | 5° | 82km/h | 4248m | 13.4m/s | -52.1°C | 0.9% | 70.8hPa | 2.6V | 00:00:00 | 00:00:00 | 00:00:00 | |
| DM0DOS-11 | 2026-08-31 00:57:12 | 54.60536 | 21.72943 | 13° | 42km/h | 4217m | 0.6m/s | 0°C | 0% | 0hPa | 2.6V | 00:00:00 | 02:37:38 | 00:00:00 | |
| D01LWL | 2026-08-31 00:57:11 | 54.60536 | 21.72944 | 13° | 42km/h | 4217m | 0.6m/s | 0°C | -1.0% | -1.0hPa | 2.5V | 00:00:00 | 00:00:00 | 00:00:00 | |
| DL1XH1-15 | 2026-08-31 00:57:08 | 54.60490 | 21.72936 | 6° | 69km/h | 4199m | 9.4m/s | -52.3°C | 3.4% | 69.8hPa | 2.5V | 08:13:04 | 02:37:35 | 00:00:00 | |
| DL1XH-west | 2026-08-31 00:57:05 | 54.60489 | 21.72936 | 7° | 69km/h | 4199m | 9.4m/s | -52.3°C | 0.2% | 69.8hPa | 2.5V | 08:13:24 | 02:37:35 | 00:00:00 | |
| AA1-15 | 2026-08-31 00:56:53 | 53.86435 | 20.68405 | 313° | 80km/h | 9593m | 38.4m/s | -52.7°C | 0.3% | 68.7hPa | 2.6V | 08:13:24 | 02:37:22 | 00:00:00 | |
| DL1XH-15 | 2026-08-31 00:56:50 | 53.86367 | 20.68496 | 323° | 55km/h | 9391m | 44.8m/s | -52.7°C | 3.5% | 68.3hPa | 2.6V | 08:13:21 | 02:37:18 | 00:00:00 | |
| MECKS9 | 2026-08-31 00:56:43 | 53.86227 | 20.68344 | 47° | 122km/h | 8862m | 40.8m/s | -52.8°C | 0.9% | 67.8hPa | 2.6V | 00:00:00 | 00:00:00 | 00:00:00 | |
| DL1XH-west | 2026-08-31 00:56:32 | 53.86091 | 20.68148 | 34° | 168km/h | 8645m | 44.6m/s | -52.9°C | 0.4% | 66.8hPa | 2.6V | 08:14:15 | 02:37:00 | 00:00:00 | |
| DL1XH-15 | 2026-08-31 00:56:31 | 53.86073 | 20.68128 | 34° | 168km/h | 8623m | 44.6m/s | -52.9°C | 3.7% | 66.7hPa | 2.6V | 08:13:40 | 02:36:59 | 00:00:00 | |
| DJ2DS-15 | 2026-08-31 00:56:30 | 53.86073 | 20.68128 | 35° | 168km/h | 8623m | 44.6m/s | -52.9°C | 3.7% | 66.6hPa | 2.5V | 00:00:00 | 02:36:59 | 00:00:00 | |
| DL1XH-west | 2026-08-31 00:56:21 | 54.39603 | 14.46995 | 0° | 0km/h | 19558m | 0m/s | -52.7°C | 0.2% | 66hPa | 2.5V | 08:14:15 | 02:36:51 | 00:00:00 | |
| AA1-15 | 2026-08-31 00:55:48 | 54.39674 | 14.47108 | 43° | 55km/h | 19484m | -10.6m/s | -52.5°C | 0.3% | 63.2hPa | 2.6V | 08:15:06 | 02:36:18 | 00:00:00 | |
| DJ2DS-15 | 2026-08-31 00:55:41 | 54.39603 | 14.46995 | 44° | 51km/h | 19558m | -10.5m/s | -52.7°C | 3.6% | 62.5hPa | 2.6V | 00:00:00 | 02:36:11 | 00:00:00 | |
| DL1XH-15 | 2026-08-31 00:55:40 | 54.39576 | 14.46876 | 96° | 53km/h | 19599m | -8m/s | -52.9°C | 3.6% | 62.2hPa | 2.6V | 08:14:33 | 02:36:06 | 00:00:00 | |
| DO2SHX-10 | 2026-08-31 00:55:39 | 54.39584 | 14.46952 | 64° | 58km/h | 19574m | -8.6m/s | -52.8°C | 3.5% | 62.4hPa | 2.5V | 00:00:00 | 02:36:09 | 00:00:00 | |
| DO2SHX-10 | 2026-08-31 00:55:35 | 54.39580 | 14.46859 | 111° | 46km/h | 19608m | -8.6m/s | -52.8°C | 3.6% | 62.0hPa | 2.5V | 00:00:00 | 02:36:05 | 00:00:00 | |
| DL1XH1-15 | 2026-08-31 00:55:33 | 54.39589 | 14.46844 | 145° | 18km/h | 19629m | -9.1m/s | -52.8°C | 3.7% | 61.9hPa | 2.5V | 08:14:36 | 02:36:03 | 00:00:00 | |
| DL1XH-15 | 2026-08-31 00:55:30 | 54.39561 | 14.46838 | 17° | 47km/h | 19686m | -8.3m/s | -52.7°C | 3.7% | 61.4hPa | 2.6V | 08:14:43 | 02:35:56 | 00:00:00 | |
| DJ2DS-15 | 2026-08-31 00:55:21 | 54.39521 | 14.46748 | 89° | 44km/h | 19728m | -8.6m/s | -52.8°C | 3.7% | 60.9hPa | 2.5V | 08:14:00 | 02:35:51 | 00:00:00 | |
| DL1XH-15 | 2026-08-31 00:55:20 | 54.39540 | 14.46689 | 188° | 22km/h | 19775m | -8.8m/s | -52.7°C | 3.6% | 60.6hPa | 2.5V | 08:14:53 | 02:35:46 | 00:00:00 | |
| DO2SHX-10 | 2026-08-31 00:55:20 | 54.39521 | 14.46728 | 102° | 40km/h | 19736m | -8.4m/s | -52.8°C | 3.7% | 60.9hPa | 2.6V | 08:14:00 | 02:35:50 | 00:00:00 | |
| DO2SHX-10 | 2026-08-31 00:55:17 | 54.39535 | 14.46691 | 161° | 22km/h | 19764m | -9.9m/s | -52.7°C | 3.7% | 60.6hPa | 2.5V | 00:00:00 | 02:35:47 | 00:00:00 | |
| DO2SHX-10 | 2026-08-31 00:55:14 | 54.39546 | 14.46699 | 276° | 31km/h | 19793m | -8.7m/s | -52.5°C | 3.5% | 60.4hPa | 2.5V | 00:00:00 | 02:35:44 | 00:00:00 | |
| DO2SHX-10 | 2026-08-31 00:55:11 | 54.39540 | 14.46719 | 3° | 58km/h | 19811m | -8.3m/s | -52.3°C | 3.5% | 60.2hPa | 2.5V | 00:00:00 | 02:35:41 | 00:00:00 | |
| DL1XH-15 | 2026-08-31 00:55:10 | 54.39492 | 14.46657 | 74° | 55km/h | 19851m | -8.4m/s | -52.5°C | 3.6% | 59.8hPa | 2.6V | 08:15:03 | 02:35:36 | 00:00:00 | |
| DL1XH1-15 | 2026-08-31 00:55:10 | 54.39526 | 14.46716 | 9° | 78km/h | 19819m | -10.2m/s | -52.3°C | 3.5% | 60.1hPa | 2.5V | 08:14:59 | 02:35:40 | 00:00:00 | |
| AA1-15 | 2026-08-31 00:55:06 | 54.39490 | 14.46633 | 88° | 55km/h | 19859m | -8.4m/s | -52.5°C | 0.3% | 59.7hPa | 2.6V | 08:15:06 | 02:35:35 | 00:00:00 | |
| DO2SHX-10 | 2026-08-31 00:55:05 | 54.39490 | 14.46633 | 88° | 51km/h | 19860m | -8.4m/s | -52.4°C | 3.5% | 59.7hPa | 2.6V | 00:00:00 | 02:35:35 | 00:00:00 | |
| DL1XH1-15 | 2026-08-31 00:55:03 | 54.39518 | 14.46563 | 180° | 27km/h | 19903m | -9.5m/s | -52.4°C | 3.5% | 59.3hPa | 2.6V | 08:15:09 | 02:35:30 | 00:00:00 | |
| DO2SHX-10 | 2026-08-31 00:55:02 | 54.39502 | 14.46576 | 135° | 35km/h | 19886m | -8.5m/s | -52.4°C | 3.5% | 59.5hPa | 2.5V | 00:00:00 | 02:35:32 | 00:00:00 | |
| DJ2DS-15 | 2026-08-31 00:55:01 | 54.39510 | 14.46566 | 154° | 37km/h | 19895m | -8.6m/s | -52.4°C | 3.5% | 59.4hPa | 2.5V | 00:00:00 | 02:35:31 | 00:00:00 | |
| DL1XH-15 | 2026-08-31 00:55:00 | 54.39526 | 14.46592 | 316° | 26km/h | 19941m | -8.6m/s | -52.4°C | 3.5% | 59hPa | 2.5V | 08:15:13 | 02:35:26 | 00:00:00 | |
| DL1XH-west | 2026-08-31 00:54:58 | 54.39529 | 14.46573 | 241° | 20km/h | 19921m | -8.7m/s | -52.3°C | 0.3% | 59.2hPa | 2.5V | 08:15:57 | 02:35:28 | 00:00:00 | |
| SP3WXH-11 | 2026-08-31 00:54:56 | 54.39526 | 14.46592 | 316° | 26km/h | 19941m | -8.6m/s | -52.4°C | 0.9% | 59.0hPa | 2.5V | 00:00:00 | 00:00:00 | 00:00:00 | |
| MECKS9 | 2026-08-31 00:54:51 | 54.39490 | 14.46592 | 30° | 49km/h | 19975m | -8.5m/s | -52.5°C | 1.0% | 58.7hPa | 2.5V | 00:00:00 | 00:00:00 | 00:00:00 | |
| DL1XH-15 | 2026-08-31 00:54:50 | 54.39478 | 14.46482 | 129° | 42km/h | 20026m | -8.7m/s | -52.7°C | 3.6% | 58.2hPa | 2.5V | 08:15:23 | 02:35:16 | 00:00:00 | |
| DL1XH1-15 | 2026-08-31 00:54:50 | 54.39474 | 14.46562 | 63° | 49km/h | 19992m | -8.3m/s | -52.5°C | 3.5% | 58.5hPa | 2.6V | 08:15:19 | 02:35:20 | 00:00:00 | |
| DO2SHX-10 | 2026-08-31 00:54:50 | 54.39474 | 14.46562 | 64° | 49km/h | 19993m | -8.3m/s | -52.5°C | 3.5% | 58.5hPa | 2.6V | 00:00:00 | 02:35:20 | 00:00:00 | |
| DO2SHX-10 | 2026-08-31 00:54:47 | 54.39471 | 14.46500 | 112° | 33km/h | 20018m | -8.4m/s | -52.6°C | 3.6% | 58.3hPa | 2.6V | 00:00:00 | 02:35:17 | 00:00:00 | |
| DL1XH-15 | 2026-08-31 00:54:40 | 54.39487 | 14.46506 | 23° | 46km/h | 20110m | -8.1m/s | -52.9°C | 3.6% | 57.4hPa | 2.6V | 08:15:33 | 02:35:06 | 00:00:00 | |
| DL1XH1-15 | 2026-08-31 00:54:40 | 54.39518 | 14.46491 | 279° | 26km/h | 20075m | -8.6m/s | -52.7°C | 3.6% | 57.7hPa | 2.5V | 08:15:29 | 02:35:10 | 00:00:00 | |
| DJ2DS-15 | 2026-08-31 00:54:39 | 54.39515 | 14.46502 | 321° | 40km/h | 20085m | -9.0m/s | -52.7°C | 3.6% | 57.6hPa | 2.5V | 00:00:00 | 02:35:09 | 00:00:00 | |
| D01LWL | 2026-08-31 00:54:36 | 54.39478 | 14.46495 | 42° | 44km/h | 20120m | -9.5m/s | -52.9°C | 1.0% | 57.4hPa | 2.5V | 00:00:00 | 00:00:00 | 00:00:00 | |
| DL1XH1-15 | 2026-08-31 00:54:35 | 54.39470 | 14.46405 | 120° | 44km/h | 20162m | -8m/s | -53°C | 3.7% | 56.9hPa | 2.5V | 08:15:39 | 02:35:00 | 00:00:00 | |
| DL1XH-15 | 2026-08-31 00:54:30 | 54.39501 | 14.46391 | 222° | 27km/h | 20196m | -8.7m/s | -53°C | 3.6% | 56.7hPa | 2.6V | 08:15:43 | 02:34:56 | 00:00:00 | |
| DL1XH-west | 2026-08-31 00:54:26 | 54.39501 | 14.46391 | 223° | 27km/h | 20196m | -8.7m/s | -53°C | 0.3% | 56.7hPa | 2.6V | 08:15:57 | 02:34:56 | 00:00:00 | |
| SP3WXH-11 | 2026-08-31 00:54:25 | 54.39503 | 14.46399 | 255° | 26km/h | 20206m | -9.4m/s | -53.1°C | 1.0% | 56.6hPa | 2.5V | 00:00:00 | 00:00:00 | 00:00:00 | |
| DL1XH1-15 | 2026-08-31 00:54:23 | 54.39470 | 14.46439 | 8° | 42km/h | 20255m | -8.9m/s | -53.1°C | 3.8% | 56.2hPa | 2.5V | 08:15:49 | 02:34:50 | 00:00:00 | |
| DO2SHX-10 | 2026-08-31 00:54:22 | 54.39492 | 14.46432 | 336° | 42km/h | 20235m | -10.2m/s | -53.1°C | 3.7% | 56.3hPa | 2.5V | 00:00:00 | 02:34:52 | 00:00:00 | |
| DL1XH-15 | 2026-08-31 00:54:20 | 54.39441 | 14.46386 | 81° | 42km/h | 20290m | -7.9m/s | -53.2°C | 3.7% | 55.9hPa | 2.5V | 08:15:53 | 02:34:46 | 00:00:00 | |
| DO2SHX-10 | 2026-08-31 00:54:19 | 54.39460 | 14.46432 | 29° | 44km/h | 20264m | -8.4m/s | -53.1°C | 3.7% | 56.1hPa | 2.6V | 00:00:00 | 02:34:49 | 00:00:00 | |
| DL1XH-west | 2026-08-31 00:54:15 | 54.39441 | 14.46367 | 105° | 42km/h | 20298m | -9.3m/s | -53.2°C | 0.5% | 55.8hPa | 2.5V | 08:15:57 | 02:34:45 | 00:00:00 | |
| DO2SHX-10 | 2026-08-31 00:54:14 | 54.39445 | 14.46352 | 125° | 37km/h | 20308m | -9.4m/s | -53.2°C | 3.8% | 55.7hPa | 2.5V | 00:00:00 | 02:34:44 | 00:00:00 | |
| DO2SHX-10 | 2026-08-31 00:54:11 | 54.39468 | 14.46334 | 192° | 31km/h | 20336m | -9.5m/s | -53.3°C | 3.8% | 55.4hPa | 2.5V | 00:00:00 | 02:34:41 | 00:00:00 | |
| DL1XH-15 | 2026-08-31 00:54:10 | 54.39474 | 14.46387 | 327° | 33km/h | 20378m | -8.6m/s | -53.2°C | 3.8% | 55.1hPa | 2.5V | 08:16:03 | 02:34:36 | 00:00:00 | |
| DO2SHX-10 | 2026-08-31 00:54:09 | 54.39483 | 14.46365 | 275° | 35km/h | 20362m | -9.1m/s | -53.2°C | 3.9% | 55.2hPa | 2.6V | 00:00:00 | 02:34:38 | 00:00:00 | |
| DO2SHX-10 | 2026-08-31 00:54:02 | 54.39440 | 14.46374 | 50° | 44km/h | 20415m | -8.7m/s | -53.0°C | 3.8% | 54.7hPa | 2.6V | 00:00:00 | 02:34:32 | 00:00:00 | |
| DL1XH-15 | 2026-08-31 00:53:57 | 54.39455 | 14.46288 | 166° | 40km/h | 20472m | -8.6m/s | -52.8°C | 3.6% | 54.3hPa | 2.6V | 08:16:13 | 02:34:26 | 00:00:00 | |
| DL1XH-west | 2026-08-31 00:53:54 | 54.39475 | 14.46291 | 211° | 37km/h | 20490m | -9.6m/s | -52.8°C | 0.4% | 54.2hPa | 2.5V | 08:16:48 | 02:34:24 | 00:00:00 | |
| DJ2DS-15 | 2026-08-31 00:53:54 | 54.39475 | 14.46291 | 212° | 42km/h | 20490m | -9.6m/s | -52.7°C | 3.6% | 54.1hPa | 2.6V | 00:00:00 | 02:34:24 | 00:00:00 | |
| MECKS9 | 2026-08-31 00:53:52 | 54.39482 | 14.46303 | 233° | 37km/h | 20499m | -9.1m/s | -52.7°C | 1.0% | 54.1hPa | 2.6V | 08:16:00 | 00:00:00 | 00:00:00 | |
| DL1XH-15 | 2026-08-31 00:53:50 | 54.39446 | 14.46365 | 21° | 44km/h | 20563m | -9.2m/s | -52.8°C | 3.7% | 53.5hPa | 2.6V | 08:16:23 | 02:34:16 | 00:00:00 | |
| DO2SHX-10 | 2026-08-31 00:53:47 | 54.39457 | 14.46369 | 5° | 44km/h | 20554m | -9.5m/s | -52.7°C | 3.6% | 53.6hPa | 2.6V | 00:00:00 | 02:34:17 | 00:00:00 | |
| DL1XH1-15 | 2026-08-31 00:53:45 | 54.39433 | 14.46284 | 151° | 29km/h | 20622m | -8.9m/s | -52.7°C | 3.6% | 53.1hPa | 2.6V | 08:16:29 | 02:34:10 | 00:00:00 | |
| DL1XH-west | 2026-08-31 00:53:44 | 54.39430 | 14.46341 | 60° | 42km/h | 20582m | -9.5m/s | -52.7°C | 0.4% | 53.4hPa | 2.5V | 08:16:48 | 02:34:14 | 00:00:00 | |
| AA1-15 | 2026-08-31 00:53:38 | 54.39447 | 14.46285 | 210° | 29km/h | 20638m | -8.3m/s | -52.8°C | 0.3% | 53hPa | 2.6V | 08:16:48 | 02:34:08 | 00:00:00 | |
| DO2SHX-10 | 2026-08-31 00:53:38 | 54.39447 | 14.46285 | 210° | 33km/h | 20638m | -8.3m/s | -52.7°C | 3.6% | 52.9hPa | 2.5V | 00:00:00 | 02:34:08 | 00:00:00 | |
| DL1XH-15 | 2026-08-31 00:53:37 | 54.39456 | 14.46309 | 266° | 37km/h | 20654m | -9.7m/s | -52.9°C | 3.5% | 52.8hPa | 2.5V | 08:16:33 | 02:34:06 | 00:00:00 | |
| DL1XH-west | 2026-08-31 00:53:34 | 54.39451 | 14.46343 | 305° | 47km/h | 20674m | -9.8m/s | -52.9°C | 0.4% | 52.6hPa | 2.5V | 08:16:48 | 02:34:04 | 00:00:00 | |
| MECKS9 | 2026-08-31 00:53:32 | 54.39429 | 14.46370 | 342° | 66km/h | 20694m | -10.0m/s | -52.9°C | 1.0% | 52.5hPa | 2.5V | 08:16:00 | 00:00:00 | 00:00:00 | |
| DL1XH-15 | 2026-08-31 00:53:31 | 54.39357 | 14.46330 | 67° | 38km/h | 20750m | -10m/s | -53°C | 3.7% | 52hPa | 2.5V | 08:16:43 | 02:33:56 | 00:00:00 | |
| DL1XH1-15 | 2026-08-31 00:53:31 | 54.39398 | 14.46377 | 7° | 62km/h | 20712m | -9.3m/s | -52.9°C | 3.7% | 52.3hPa | 2.5V | 08:16:39 | 02:34:00 | 00:00:00 | |
| AA1-15 | 2026-08-31 00:53:27 | 54.39363 | 14.46345 | 53° | 46km/h | 20740m | -9.8m/s | -53°C | 0.4% | 52.1hPa | 2.6V | 08:16:48 | 02:33:57 | 00:00:00 | |
| DO2SHX-10 | 2026-08-31 00:53:26 | 54.39357 | 14.46330 | 68° | 29km/h | 20750m | -9.9m/s | -53.0°C | 3.7% | 52.0hPa | 2.5V | 00:00:00 | 02:33:56 | 00:00:00 | |
| DL1XH1-15 | 2026-08-31 00:53:25 | 54.39375 | 14.46326 | 276° | 33km/h | 20803m | -9.4m/s | 0°C | 0% | 0hPa | 2.5V | 08:16:49 | 02:33:50 | 00:00:00 | |
| DL1XH-west | 2026-08-31 00:53:23 | 54.39362 | 14.46302 | 164° | 16km/h | 20779m | -9.8m/s | -53°C | 0.4% | 51.8hPa | 2.6V | 08:16:48 | 02:33:53 | 00:00:00 | |
| DO2SHX-10 | 2026-08-31 00:53:23 | 54.39362 | 14.46302 | 165° | 18km/h | 20779m | -9.8m/s | -53.0°C | 3.7% | 51.8hPa | 2.6V | 08:16:00 | 02:33:53 | 00:00:00 | |
| MECKS9 | 2026-08-31 00:53:21 | 54.39365 | 14.46303 | 210° | 15km/h | 20789m | -9.1m/s | -53.0°C | 1.0% | 51.7hPa | 2.5V | 08:16:00 | 00:00:00 | 00:00:00 | |
| DO2SHX-10 | 2026-08-31 00:53:20 | 54.39375 | 14.46326 | 277° | 42km/h | 20803m | -9.3m/s | -53.0°C | 3.7% | 51.5hPa | 2.5V | 00:00:00 | 02:33:50 | 00:00:00 | |
| DL1XH-15 | 2026-08-31 00:53:17 | 54.39340 | 14.46380 | 343° | 64km/h | 20840m | -10m/s | -53°C | 3.6% | 51.3hPa | 2.5V | 08:16:53 | 02:33:46 | 00:00:00 | |
| AA1-15 | 2026-08-31 00:53:16 | 54.39340 | 14.46380 | 343° | 64km/h | 20840m | -10m/s | -53°C | 0.3% | 51.3hPa | 2.5V | 08:17:39 | 02:33:46 | 00:00:00 | |
| DL1XH-west | 2026-08-31 00:53:13 | 54.39296 | 14.46372 | 30° | 58km/h | 20868m | -9.2m/s | -53°C | 0.4% | 51.1hPa | 2.5V | 08:17:39 | 02:33:43 | 00:00:00 | |
| DO2SHX-10 | 2026-08-31 00:53:11 | 54.39276 | 14.46337 | 60° | 51km/h | 20887m | -9.6m/s | -52.8°C | 3.6% | 50.9hPa | 2.5V | 00:00:00 | 02:33:41 | 00:00:00 | |
| DL1XH-15 | 2026-08-31 00:53:10 | 54.39283 | 14.46252 | 154° | 29km/h | 20935m | -9.6m/s | -52.9°C | 3.7% | 50.5hPa | 2.5V | 08:17:03 | 02:33:36 | 00:00:00 | |
| DL1XH1-15 | 2026-08-31 00:53:10 | 54.39271 | 14.46316 | 76° | 51km/h | 20896m | -9.8m/s | 0°C | 0% | 0hPa | 2.6V | 08:16:59 | 02:33:40 | 00:00:00 | |
| AA1-15 | 2026-08-31 00:53:05 | 54.39289 | 14.46250 | 184° | 24km/h | 20944m | -9.1m/s | -52.9°C | 0.5% | 50.4hPa | 2.6V | 08:17:39 | 02:33:35 | 00:00:00 | |
| DO2SHX-10 | 2026-08-31 00:53:02 | 54.39296 | 14.46275 | 298° | 40km/h | 20972m | -10.2m/s | -52.9°C | 3.7% | 50.2hPa | 2.5V | 00:00:00 | 02:33:32 | 00:00:00 | |
| DL1XH-15 | 2026-08-31 00:52:57 | 54.39240 | 14.46259 | 59° | 55km/h | 21031m | -9.7m/s | -53°C | 3.7% | 49.8hPa | 2.5V | 08:17:13 | 02:33:26 | 00:00:00 | |
| DO2SHX-10 | 2026-08-31 00:52:57 | 54.39249 | 14.46277 | 44° | 55km/h | 21022m | -9.4m/s | -53.0°C | 3.7% | 49.8hPa | 2.6V | 00:00:00 | 02:33:27 | 00:00:00 | |
| DL1XH1-15 | 2026-08-31 00:52:55 | 54.39260 | 14.46141 | 157° | 47km/h | 21092m | -9.8m/s | 0°C | 0% | 0hPa | 2.6V | 08:17:19 | 02:33:20 | 00:00:00 | |
| AA1-15 | 2026-08-31 00:52:54 | 54.39234 | 14.46211 | 91° | 57km/h | 21051m | -9.3m/s | -52.9°C | 0.4% | 49.6hPa | 2.6V | 08:17:39 | 02:33:24 | 00:00:00 | |
| DL1XH-west | 2026-08-31 00:52:52 | 54.39241 | 14.46167 | 125° | 53km/h | 21074m | -10.3m/s | -52.9°C | 0.4% | 49.5hPa | 2.5V | 08:17:39 | 02:33:22 | 00:00:00 | |
| DL1XH-15 | 2026-08-31 00:52:50 | 54.39295 | 14.46159 | 248° | 33km/h | 21130m | -10.1m/s | -52.8°C | 3.6% | 49hPa | 2.5V | 08:17:23 | 02:33:16 | 00:00:00 | |
| DJ2DS-15 | 2026-08-31 00:52:49 | 54.39271 | 14.46137 | 178° | 40km/h | 21102m | -10.3m/s | -52.9°C | 3.7% | 49.2hPa | 2.6V | 00:00:00 | 02:33:19 | 00:00:00 | |
| AA1-15 | 2026-08-31 00:52:44 | 54.39292 | 14.46184 | 302° | 33km/h | 21148m | -9.5m/s | -52.8°C | 0.4% | 48.9hPa | 2.6V | 08:17:39 | 02:33:14 | 00:00:00 | |
| DO2SHX-10 | 2026-08-31 00:52:44 | 54.39292 | 14.46184 | 302° | 35km/h | 21149m | -9.5m/s | -52.8°C | 3.6% | 48.8hPa | 2.6V | 00:00:00 | 02:33:14 | 00:00:00 | |
| DL1XH1-15 | 2026-08-31 00:52:43 | 54.39261 | 14.46182 | 41° | 44km/h | 21188m | -9.8m/s | 0°C | 0% | 0hPa | 2.6V | 08:17:29 | 02:33:10 | 00:00:00 | |
| DL1XH-west | 2026-08-31 00:52:42 | 54.39279 | 14.46195 | 3° | 38km/h | 21167m | -10.3m/s | -52.8°C | 0.4% | 48.7hPa | 2.5V | 08:17:39 | 02:33:12 | 00:00:00 | |
| DO2SHX-10 | 2026-08-31 00:52:41 | 54.39270 | 14.46191 | 23° | 42km/h | 21178m | -10.4m/s | -52.8°C | 3.6% | 48.6hPa | 2.5V | 00:00:00 | 02:33:11 | 00:00:00 | |
| DO2SHX-10 | 2026-08-31 00:52:38 | 54.39250 | 14.46149 | 79° | 49km/h | 21209m | -10.3m/s | -52.8°C | 3.6% | 48.4hPa | 2.5V | 00:00:00 | 02:33:08 | 00:00:00 | |
| DL1XH-15 | 2026-08-31 00:52:37 | 54.39252 | 14.46107 | 114° | 49km/h | 21228m | -8.9m/s | -52.9°C | 3.6% | 48.3hPa | 2.5V | 08:17:33 | 02:33:06 | 00:00:00 | |
| AA1-15 | 2026-08-31 00:52:33 | 54.39280 | 14.46077 | 177° | 42km/h | 21257m | -9.6m/s | -52.9°C | 0.4% | 48.1hPa | 2.5V | 08:17:39 | 02:33:03 | 00:00:00 | |
| DL1XH-west | 2026-08-31 00:52:32 | 54.39290 | 14.46079 | 200° | 40km/h | 21267m | -9.9m/s | 0°C | 0% | 48hPa | 2.5V | 08:17:39 | 02:33:02 | 00:00:00 | |
| DO2SHX-10 | 2026-08-31 00:52:31 | 54.39299 | 14.46087 | 223° | 40km/h | 21277m | -10.3m/s | -52.9°C | 3.7% | 47.9hPa | 2.5V | 00:00:00 | 02:33:01 | 00:00:00 | |
| DL1XH-15 | 2026-08-31 00:52:30 | 54.39285 | 14.46163 | 342° | 33km/h | 21322m | -9.7m/s | -52.9°C | 3.8% | 47.6hPa | 2.5V | 08:17:43 | 02:32:56 | 00:00:00 | |
| DL1XH1-15 | 2026-08-31 00:52:30 | 54.39304 | 14.46099 | 246° | 40km/h | 21287m | -9.4m/s | 0°C | 0% | 0hPa | 2.5V | 08:17:39 | 02:33:00 | 00:00:00 | |
| DO2SHX-10 | 2026-08-31 00:52:28 | 54.39302 | 14.46135 | 301° | 37km/h | 21306m | -9.8m/s | -52.9°C | 3.7% | 47.7hPa | 2.6V | 00:00:00 | 02:32:58 | 00:00:00 | |
| DJ2DS-15 | 2026-08-31 00:52:26 | 54.39284 | 14.46162 | 343° | 42km/h | 21323m | -9.7m/s | -52.9°C | 3.8% | 47.5hPa | 2.5V | 00:00:00 | 02:32:56 | 00:00:00 | |
| DO2SHX-10 | 2026-08-31 00:52:25 | 54.39277 | 14.46164 | 23° | 33km/h | 21333m | -10.7m/s | -52.9°C | 3.7% | 47.4hPa | 2.5V | 00:00:00 | 02:32:55 | 00:00:00 | |
| DL1XH1-15 | 2026-08-31 00:52:23 | 54.39264 | 14.46095 | 121° | 40km/h | 21384m | -9.9m/s | 0°C | 0% | 0hPa | 2.5V | 00:00:00 | 02:32:50 | 00:00:00 | |
| AA1-15 | 2026-08-31 00:52:23 | 54.39265 | 14.46143 | 61° | 40km/h | 21352m | -9.8m/s | -53°C | 0.4% | 47.4hPa | 2.5V | 08:18:30 | 02:32:53 | 00:00:00 | |
| DL1XH-west | 2026-08-31 00:52:22 | 54.39261 | 14.46128 | 79° | 40km/h | 21363m | -10.2m/s | 0°C | 0% | 47.3hPa | 2.6V | 08:19:21 | 02:32:52 | 00:00:00 | |
| DO2SHX-10 | 2026-08-31 00:52:22 | 54.39261 | 14.46127 | 79° | 40km/h | 21363m | -10.2m/s | -52.9°C | 3.7% | 47.2hPa | 2.5V | 00:00:00 | 02:32:52 | 00:00:00 | |
| SP3WXH-11 | 2026-08-31 00:52:21 | 54.39261 | 14.46111 | 101° | 38km/h | 21373m | -11.2m/s | -53.0°C | 1.0% | 47.2hPa | 2.5V | 00:00:00 | 00:00:00 | 00:00:00 | |
| DO2SHX-10 | 2026-08-31 00:52:19 | 54.39271 | 14.46082 | 145° | 42km/h | 21394m | -9.8m/s | -53.0°C | 3.7% | 47.0hPa | 2.5V | 08:17:00 | 02:32:49 | 00:00:00 | |
| DL1XH-15 | 2026-08-31 00:52:17 | 54.39301 | 14.46082 | 209° | 46km/h | 21422m | -9.2m/s | -52.9°C | 3.6% | 46.8hPa | 2.6V | 08:17:53 | 02:32:46 | 00:00:00 | |
| AA1-15 | 2026-08-31 00:52:13 | 54.39313 | 14.46134 | 271° | 47km/h | 21452m | -10.3m/s | -52.7°C | 0.4% | 46.6hPa | 2.5V | 08:18:30 | 02:32:43 | 00:00:00 | |
| DL1XH-west | 2026-08-31 00:52:12 | 54.39312 | 14.46153 | 288° | 47km/h | 21462m | -9.8m/s | 0°C | 0% | 0hPa | 2.6V | 08:19:21 | 02:32:42 | 00:00:00 | |
| DL1XH-15 | 2026-08-31 00:52:10 | 54.39256 | 14.46166 | 46° | 46km/h | 21523m | -9.9m/s | -53°C | 3.7% | 46.1hPa | 2.6V | 08:18:03 | 02:32:36 | 00:00:00 | |
| DL1XH1-15 | 2026-08-31 00:52:10 | 54.39299 | 14.46182 | 333° | 49km/h | 21482m | -9.8m/s | 0°C | 0% | 0hPa | 2.5V | 00:00:00 | 02:32:40 | 00:00:00 | |
| DO2SHX-10 | 2026-08-31 00:52:10 | 54.39299 | 14.46182 | 334° | 49km/h | 21482m | -9.8m/s | -52.8°C | 3.6% | 46.3hPa | 2.5V | 00:00:00 | 02:32:40 | 00:00:00 | |
| DO2SHX-10 | 2026-08-31 00:52:07 | 54.39265 | 14.46179 | 30° | 46km/h | 21514m | -10.4m/s | -52.9°C | 3.7% | 46.1hPa | 2.6V | 00:00:00 | 02:32:37 | 00:00:00 | |
| DJ2DS-15 | 2026-08-31 00:52:06 | 54.39256 | 14.46166 | 47° | 49km/h | 21524m | -9.9m/s | -52.9°C | 3.7% | 46.1hPa | 2.6V | 08:18:00 | 02:32:36 | 00:00:00 | |
| DO2SHX-10 | 2026-08-31 00:52:04 | 54.39247 | 14.46132 | 90° | 37km/h | 21542m | -10.5m/s | -53.0°C | 3.7% | 45.9hPa | 2.5V | 00:00:00 | 02:32:34 | 00:00:00 | |
| DL1XH1-15 | 2026-08-31 00:52:03 | 54.39275 | 14.46103 | 227° | 29km/h | 21591m | -9.9m/s | 0°C | 0% | 0hPa | 2.5V | 00:00:00 | 02:32:29 | 00:00:00 | |
| AA1-15 | 2026-08-31 00:52:02 | 54.39254 | 14.46103 | 135° | 33km/h | 21561m | -9.4m/s | -53.1°C | 0.5% | 45.9hPa | 2.6V | 08:18:30 | 02:32:32 | 00:00:00 | |
| DL1XH-west | 2026-08-31 00:52:01 | 54.39261 | 14.46098 | 167° | 27km/h | 21570m | -10.5m/s | 0°C | 0% | 0hPa | 2.6V | 08:19:21 | 02:32:31 | 00:00:00 | |
| AA1-15 | 2026-08-31 00:51:52 | 54.39223 | 14.46183 | 2° | 69km/h | 21663m | -9.8m/s | -53.5°C | 0.5% | 45.1hPa | 2.6V | 08:18:30 | 02:32:22 | 00:00:00 | |
| DL1XH-west | 2026-08-31 00:51:51 | 54.39206 | 14.46179 | 18° | 66km/h | 21674m | -10.6m/s | 0°C | 0% | 0hPa | 2.6V | 08:19:21 | 02:32:21 | 00:00:00 | |
| DL1XH-15 | 2026-08-31 00:51:50 | 54.39168 | 14.46087 | 96° | 44km/h | 21725m | -10.4m/s | -53.3°C | 3.7% | 44.6hPa | 2.6V | 08:18:23 | 02:32:16 | 00:00:00 | |
| DL1XH1-15 | 2026-08-31 00:51:50 | 54.39179 | 14.46151 | 45° | 62km/h | 21696m | -9.9m/s | 0°C | 0% | 0hPa | 2.5V | 00:00:00 | 02:32:19 | 00:00:00 | |
| SP3WXH-11 | 2026-08-31 00:51:50 | 54.39191 | 14.46167 | 33° | 62km/h | 21685m | -10.4m/s | -53.4°C | 1.0% | 44.9hPa | 2.5V | 00:00:00 | 00:00:00 | 00:00:00 | |
| DL1XH-west | 2026-08-31 00:51:40 | 54.39203 | 14.46071 | 289° | 31km/h | 21785m | -11.3m/s | 0°C | 0% | 0hPa | 2.5V | 08:19:21 | 02:32:10 | 00:00:00 | |
| DO2SHX-10 | 2026-08-31 00:51:40 | 54.39203 | 14.46071 | 289° | 42km/h | 21785m | -11.3m/s | -53.2°C | 3.7% | 44.2hPa | 2.6V | 00:00:00 | 02:32:10 | 00:00:00 | |
| DL1XH-15 | 2026-08-31 00:51:37 | 54.39154 | 14.46121 | 8° | 58km/h | 21831m | -10.3m/s | -53.3°C | 3.8% | 44hPa | 2.6V | 08:18:33 | 02:32:06 | 00:00:00 | |
| DO2SHX-10 | 2026-08-31 00:51:37 | 54.39170 | 14.46116 | 347° | 60km/h | 21819m | -11.1m/s | -53.2°C | 3.7% | 44.0hPa | 2.5V | 00:00:00 | 02:32:07 | 00:00:00 | |
| DO2SHX-10 | 2026-08-31 00:51:34 | 54.39123 | 14.46106 | 34° | 60km/h | 21852m | -10.6m/s | -53.1°C | 3.7% | 43.8hPa | 2.5V | 00:00:00 | 02:32:04 | 00:00:00 | |
| DO2SHX-10 | 2026-08-31 00:51:31 | 54.39098 | 14.46045 | 75° | 46km/h | 21882m | -10.6m/s | -53.1°C | 3.7% | 43.6hPa | 2.6V | 00:00:00 | 02:32:01 | 00:00:00 | |
| DL1XH-15 | 2026-08-31 00:51:30 | 54.39112 | 14.45990 | 210° | 20km/h | 21937m | -10.4m/s | -53.3°C | 3.7% | 43.3hPa | 2.6V | 08:18:43 | 02:31:56 | 00:00:00 | |
| DL1XH-west | 2026-08-31 00:51:29 | 54.39099 | 14.46007 | 113° | 37km/h | 21904m | -10.4m/s | 0°C | 0% | 0hPa | 2.5V | 08:19:21 | 02:31:59 | 00:00:00 | |
| DO2SHX-10 | 2026-08-31 00:51:28 | 54.39103 | 14.45995 | 136° | 29km/h | 21916m | -10.2m/s | -53.2°C | 3.8% | 43.4hPa | 2.5V | 00:00:00 | 02:31:58 | 00:00:00 | |
| DJ2DS-15 | 2026-08-31 00:51:26 | 54.39112 | 14.45990 | 211° | 46km/h | 21937m | -10.4m/s | -53.2°C | 3.7% | 43.2hPa | 2.5V | 00:00:00 | 02:31:56 | 00:00:00 | |
| DL1XH1-15 | 2026-08-31 00:51:23 | 54.39048 | 14.46035 | 32° | 64km/h | 22023m | -11m/s | 0°C | 0% | 0hPa | 2.5V | 00:00:00 | 02:31:48 | 00:00:00 | |
| DL1XH-west | 2026-08-31 00:51:19 | 54.39062 | 14.46046 | 16° | 58km/h | 22012m | -11.1m/s | 0°C | 0% | 0hPa | 2.5V | 08:19:21 | 02:31:49 | 00:00:00 | |
| DL1XH-15 | 2026-08-31 00:51:17 | 54.39028 | 14.45995 | 61° | 62km/h | 22046m | -10.7m/s | -53.2°C | 3.6% | 42.5hPa | 2.6V | 08:18:53 | 02:31:46 | 00:00:00 | |
| MECKS9 | 2026-08-31 00:51:17 | 54.39036 | 14.46017 | 53° | 64km/h | 22034m | -11.6m/s | -53.2°C | 0.9% | 42.6hPa | 2.6V | 08:19:00 | 00:00:00 | 00:00:00 | |
| DL1XH-15 | 2026-08-31 00:51:10 | 54.39066 | 14.45926 | 295° | 29km/h | 22150m | -10.6m/s | -53.6°C | 3.8% | 41.8hPa | 2.6V | 08:19:03 | 02:31:36 | 00:00:00 | |
| DL1XH-west | 2026-08-31 00:51:08 | 54.39064 | 14.45901 | 226° | 31km/h | 22129m | -10.4m/s | 0°C | 0% | 0hPa | 2.5V | 08:19:21 | 02:31:38 | 00:00:00 | |
| DO2SHX-10 | 2026-08-31 00:51:06 | 54.39066 | 14.45926 | 296° | 35km/h | 22150m | -10.5m/s | -53.5°C | 3.8% | 41.8hPa | 2.6V | 00:00:00 | 02:31:36 | 00:00:00 | |
| DO2SHX-10 | 2026-08-31 00:51:03 | 54.39042 | 14.45943 | 16° | 47km/h | 22182m | -11.1m/s | -53.7°C | 3.8% | 41.6hPa | 2.6V | 00:00:00 | 02:31:33 | 00:00:00 | |
| D01LWL | 2026-08-31 00:50:59 | 54.39010 | 14.45852 | 97° | 58km/h | 22235m | -10.8m/s | -53.8°C | 1.0% | 41.3hPa | 2.6V | 00:00:00 | 00:00:00 | 00:00:00 | |
| DL1XH-15 | 2026-08-31 00:50:57 | 54.39023 | 14.45808 | 132° | 57km/h | 22257m | -11.2m/s | -53.8°C | 3.9% | 41.1hPa | 2.6V | 08:19:13 | 02:31:26 | 00:00:00 | |
| AA1-15 | 2026-08-31 00:50:57 | 54.39015 | 14.45828 | 117° | 60km/h | 22246m | -11.5m/s | -53.8°C | 0.5% | 41.2hPa | 2.6V | 08:19:21 | 02:31:27 | 00:00:00 | |
| DL1XH-west | 2026-08-31 00:50:56 | 54.39023 | 14.45808 | 132° | 57km/h | 22257m | -11.2m/s | 0°C | 0% | 0hPa | 2.6V | 08:19:21 | 02:31:26 | 00:00:00 | |
| AA1-15 | 2026-08-31 00:50:46 | 54.39056 | 14.45853 | 10° | 40km/h | 22364m | -11.2m/s | -53.7°C | 0.5% | 40.5hPa | 2.6V | 08:20:12 | 02:31:16 | 00:00:00 | |
| DJ2DS-15 | 2026-08-31 00:50:45 | 54.39037 | 14.45832 | 51° | 47km/h | 22386m | -10.7m/s | -53.7°C | 1.0% | 40.3hPa | 2.6V | 00:00:00 | 00:00:00 | 00:00:00 | |
| DL1XH-west | 2026-08-31 00:50:42 | 54.39029 | 14.45789 | 88° | 55km/h | 22410m | -10.8m/s | 0°C | 0% | 0hPa | 2.6V | 18:12:15 | 02:31:12 | 00:00:00 | |
| DL4BBY-15 | 2026-08-31 00:50:41 | 54.39031 | 14.45767 | 107° | 47km/h | 22421m | -10.7m/s | -53.6°C | 0% | 0hPa | 2.6V | 00:00:00 | 00:00:00 | 00:00:00 | |
| DL1XH-15 | 2026-08-31 00:50:37 | 54.39080 | 14.45724 | 209° | 38km/h | 22476m | -10.9m/s | -53.9°C | 3.8% | 39.8hPa | 2.6V | 08:19:33 | 02:31:06 | 00:00:00 | |
| AA1-15 | 2026-08-31 00:50:36 | 54.39088 | 14.45735 | 235° | 35km/h | 22489m | -10.5m/s | -53.9°C | 0.5% | 39.7hPa | 2.5V | 08:20:12 | 02:31:05 | 00:00:00 | |
| DO2SHX-10 | 2026-08-31 00:50:35 | 54.39088 | 14.45735 | 236° | 37km/h | 22489m | -10.5m/s | -53.8°C | 3.9% | 39.7hPa | 2.6V | 00:00:00 | 02:31:05 | 00:00:00 | |
| MECKS9 | 2026-08-31 00:50:34 | 54.39088 | 14.45735 | 236° | 35km/h | 22489m | -10.5m/s | -53.9°C | 1.0% | 39.7hPa | 2.6V | 00:00:00 | 00:00:00 | 00:00:00 | |
| DO2SHX-10 | 2026-08-31 00:50:32 | 54.39083 | 14.45775 | 329° | 49km/h | 22524m | -10.9m/s | -53.8°C | 3.9% | 39.5hPa | 2.6V | 00:00:00 | 02:31:02 | 00:00:00 | |
| DL1XH-15 | 2026-08-31 00:50:30 | 54.39021 | 14.45729 | 78° | 53km/h | 22583m | -11.7m/s | -53.7°C | 3.9% | 39.1hPa | 2.6V | 08:19:43 | 02:30:56 | 00:00:00 | |
| DL1XH-west | 2026-08-31 00:50:30 | 54.39060 | 14.45785 | 2° | 53km/h | 22544m | -10.8m/s | 0°C | 0% | 0hPa | 2.5V | 18:12:15 | 02:31:00 | 00:00:00 | |
| AA1-15 | 2026-08-31 00:50:24 | 54.39024 | 14.45687 | 117° | 47km/h | 22603m | -11m/s | -53.8°C | 0.5% | 39hPa | 2.5V | 08:20:12 | 02:30:54 | 00:00:00 | |
| DO2SHX-10 | 2026-08-31 00:50:21 | 54.39052 | 14.45664 | 187° | 40km/h | 22639m | -10.9m/s | -53.8°C | 3.9% | 38.7hPa | 2.6V | 00:00:00 | 02:30:51 | 00:00:00 | |
| DL1XH-15 | 2026-08-31 00:50:20 | 54.39063 | 14.45736 | 313° | 53km/h | 22697m | -11.3m/s | -53.9°C | 3.9% | 38.4hPa | 2.6V | 08:19:53 | 02:30:46 | 00:00:00 | |
| DL1XH-west | 2026-08-31 00:50:13 | 54.39021 | 14.45759 | 4° | 58km/h | 22731m | -11m/s | 0°C | 0% | 0hPa | 2.5V | 18:12:15 | 02:30:43 | 00:00:00 | |
| DL1XH-15 | 2026-08-31 00:50:11 | 54.38994 | 14.45663 | 159° | 38km/h | 22812m | -11.1m/s | -53.5°C | 3.8% | 37.7hPa | 2.6V | 08:20:03 | 02:30:36 | 00:00:00 | |
| AA1-15 | 2026-08-31 00:50:03 | 54.39026 | 14.45698 | 254° | 44km/h | 22858m | -11.1m/s | -53.3°C | 0.5% | 37.5hPa | 2.6V | 08:20:12 | 02:30:32 | 00:00:00 | |
| DO2SHX-10 | 2026-08-31 00:50:01 | 54.39026 | 14.45719 | 278° | 49km/h | 22868m | -11.5m/s | -53.3°C | 3.8% | 37.4hPa | 2.6V | 08:20:00 | 02:30:31 | 00:00:00 | |
| DL1XH-15 | 2026-08-31 00:50:00 | 54.38981 | 14.45759 | 20° | 51km/h | 22925m | -11.2m/s | -53.2°C | 3.7% | 37.1hPa | 2.6V | 08:20:13 | 02:30:26 | 00:00:00 | |
| AA1-15 | 2026-08-31 00:49:52 | 54.38960 | 14.45687 | 104° | 51km/h | 22969m | -10.9m/s | -53.1°C | 0.4% | 36.8hPa | 2.6V | 08:21:03 | 02:30:22 | 00:00:00 | |
| SP3WXH-11 | 2026-08-31 00:49:46 | 54.39018 | 14.45707 | 281° | 40km/h | 23042m | -12.8m/s | -53.4°C | 1.0% | 36.4hPa | 2.6V | 00:00:00 | 00:00:00 | 00:00:00 | |
| AA1-15 | 2026-08-31 00:49:41 | 54.38971 | 14.45736 | 9° | 49km/h | 23098m | -11m/s | -53.6°C | 0.5% | 36.1hPa | 2.6V | 08:21:03 | 02:30:11 | 00:00:00 | |
| DL1XH-15 | 2026-08-31 00:49:41 | 54.38944 | 14.45647 | 105° | 55km/h | 23146m | -12.2m/s | -53.7°C | 3.9% | 35.8hPa | 2.6V | 08:20:33 | 02:30:06 | 00:00:00 | |
| AA1-15 | 2026-08-31 00:49:31 | 54.38990 | 14.45630 | 249° | 42km/h | 23219m | -12.1m/s | -53.3°C | 0.5% | 35.4hPa | 2.5V | 08:21:03 | 02:30:00 | 00:00:00 | |
| DO2SHX-10 | 2026-08-31 00:49:30 | 54.38990 | 14.45630 | 249° | 44km/h | 23219m | -12.1m/s | -53.2°C | 3.8% | 35.4hPa | 2.5V | 00:00:00 | 02:30:00 | 00:00:00 | |
| DL1XH-15 | 2026-08-31 00:49:28 | 54.38971 | 14.45690 | 341° | 47km/h | 23268m | -12.8m/s | -53.1°C | 3.7% | 35.1hPa | 2.6V | 08:20:43 | 02:29:56 | 00:00:00 | |
| DO2SHX-10 | 2026-08-31 00:49:28 | 54.38981 | 14.45680 | 318° | 47km/h | 23256m | -11.4m/s | -53.1°C | 3.7% | 35.1hPa | 2.6V | 00:00:00 | 02:29:57 | 00:00:00 | |
| D01LWL | 2026-08-31 00:49:26 | 54.38960 | 14.45693 | 356° | 49km/h | 23280m | -11.6m/s | -53.2°C | 0.9% | 35.1hPa | 2.6V | 00:00:00 | 00:00:00 | 00:00:00 | |
| DO2SHX-10 | 2026-08-31 00:49:24 | 54.38948 | 14.45690 | 21° | 47km/h | 23292m | -11.9m/s | -53.2°C | 3.8% | 35.0hPa | 2.6V | 00:00:00 | 02:29:54 | 00:00:00 | |
| DL1XH-15 | 2026-08-31 00:49:21 | 54.38962 | 14.45590 | 187° | 42km/h | 23385m | -12.5m/s | -53.3°C | 3.9% | 34.5hPa | 2.6V | 08:20:53 | 02:29:46 | 00:00:00 | |
| AA1-15 | 2026-08-31 00:49:20 | 54.38932 | 14.45610 | 122° | 46km/h | 23349m | -11.4m/s | -53.4°C | 0.5% | 34.7hPa | 2.5V | 08:21:03 | 02:29:49 | 00:00:00 | |
| SP3WXH-11 | 2026-08-31 00:49:15 | 54.38978 | 14.45607 | 239° | 35km/h | 23408m | -11.6m/s | -53.2°C | 1.0% | 34.4hPa | 2.5V | 00:00:00 | 00:00:00 | 00:00:00 | |
| DO2SHX-10 | 2026-08-31 00:49:13 | 54.38981 | 14.45623 | 266° | 40km/h | 23419m | -10.3m/s | -53.1°C | 3.8% | 34.3hPa | 2.5V | 08:20:00 | 02:29:43 | 00:00:00 | |
| DL1XH-15 | 2026-08-31 00:49:10 | 54.38912 | 14.45650 | 39° | 55km/h | 23496m | -12m/s | -52.9°C | 3.7% | 33.9hPa | 2.6V | 08:21:03 | 02:29:36 | 00:00:00 | |
| AA1-15 | 2026-08-31 00:49:08 | 54.38934 | 14.45665 | 5° | 51km/h | 23469m | -13.2m/s | -52.9°C | 0.4% | 34hPa | 2.5V | 08:21:03 | 02:29:38 | 00:00:00 | |
| DO2SHX-10 | 2026-08-31 00:49:07 | 54.38922 | 14.45661 | 17° | 49km/h | 23483m | -14.1m/s | -52.9°C | 3.7% | 33.9hPa | 2.6V | 00:00:00 | 02:29:37 | 00:00:00 | |
| DJ2DS-15 | 2026-08-31 00:49:06 | 54.38912 | 14.45650 | 40° | 49km/h | 23497m | -12.0m/s | -52.9°C | 3.7% | 33.9hPa | 2.6V | 08:21:00 | 02:29:36 | 00:00:00 | |
| DL1XH-15 | 2026-08-31 00:48:57 | 54.38961 | 14.45539 | 234° | 47km/h | 23624m | -12.2m/s | -52.7°C | 3.6% | 33.3hPa | 2.6V | 08:21:13 | 02:29:26 | 00:00:00 | |
| AA1-15 | 2026-08-31 00:48:57 | 54.38954 | 14.45526 | 214° | 49km/h | 23611m | -12.5m/s | -52.7°C | 0.3% | 33.3hPa | 2.6V | 08:21:54 | 02:29:27 | 00:00:00 | |
| DJ2DS-15 | 2026-08-31 00:48:56 | 54.38967 | 14.45559 | 255° | 46km/h | 23637m | -11.5m/s | -52.7°C | 0.9% | 33.2hPa | 2.5V | 00:00:00 | 00:00:00 | 00:00:00 | |
| D01LWL | 2026-08-31 00:48:54 | 54.38967 | 14.45577 | 279° | 46km/h | 23649m | -11.4m/s | -52.8°C | 0.9% | 33.1hPa | 2.5V | 00:00:00 | 00:00:00 | 00:00:00 | |
| DO2SHX-10 | 2026-08-31 00:48:53 | 54.38964 | 14.45595 | 300° | 44km/h | 23661m | -12.1m/s | -52.8°C | 3.7% | 33.0hPa | 2.5V | 00:00:00 | 02:29:23 | 00:00:00 | |
| DL1XH-15 | 2026-08-31 00:48:50 | 54.38924 | 14.45540 | 114° | 53km/h | 23744m | -13.2m/s | -53°C | 3.8% | 32.6hPa | 2.6V | 08:21:23 | 02:29:16 | 00:00:00 | |
| AA1-15 | 2026-08-31 00:48:46 | 54.38924 | 14.45540 | 115° | 53km/h | 23744m | -13.2m/s | -53°C | 0.5% | 32.6hPa | 2.6V | 08:21:54 | 02:29:16 | 00:00:00 | |
| DJ2DS-15 | 2026-08-31 00:48:46 | 54.38924 | 14.45540 | 115° | 49km/h | 23744m | -13.2m/s | -53.0°C | 3.8% | 32.6hPa | 2.5V | 00:00:00 | 02:29:16 | 00:00:00 | |
| SP3WXH-11 | 2026-08-31 00:48:44 | 54.38954 | 14.45503 | 172° | 58km/h | 23784m | -12.8m/s | -53.1°C | 1.0% | 32.4hPa | 2.5V | 00:00:00 | 00:00:00 | 00:00:00 | |
| DL1XH-15 | 2026-08-31 00:48:40 | 54.38991 | 14.45622 | 317° | 55km/h | 23868m | -12.6m/s | -53°C | 3.8% | 32hPa | 2.5V | 08:21:33 | 02:29:06 | 00:00:00 | |
| AA1-15 | 2026-08-31 00:48:36 | 54.38991 | 14.45622 | 318° | 55km/h | 23868m | -12.6m/s | -53°C | 0.5% | 32hPa | 2.5V | 08:21:54 | 02:29:06 | 00:00:00 | |
| DO2SHX-10 | 2026-08-31 00:48:36 | 54.38991 | 14.45622 | 318° | 53km/h | 23869m | -12.6m/s | -53.0°C | 3.8% | 32.0hPa | 2.5V | 00:00:00 | 02:29:06 | 00:00:00 | |
| S3001 | 2026-08-31 00:48:35 | 54.38980 | 14.45633 | 344° | 49km/h | 23880m | -12.4m/s | -53.0°C | 1.0% | 31.9hPa | 2.5V | 00:00:00 | 00:00:00 | 00:00:00 | |
| DO2SHX-10 | 2026-08-31 00:48:33 | 54.38956 | 14.45632 | 22° | 44km/h | 23905m | -12.3m/s | -52.8°C | 3.8% | 31.8hPa | 2.5V | 00:00:00 | 02:29:03 | 00:00:00 | |
| DL1XH-15 | 2026-08-31 00:48:30 | 54.38972 | 14.45576 | 207° | 47km/h | 23989m | -11.5m/s | -52.2°C | 3.5% | 31.4hPa | 2.5V | 08:21:43 | 02:28:56 | 00:00:00 | |
| AA1-15 | 2026-08-31 00:48:26 | 54.38982 | 14.45589 | 230° | 53km/h | 24000m | -12.2m/s | -52.3°C | 0.4% | 31.4hPa | 2.5V | 08:21:54 | 02:28:55 | 00:00:00 | |
| AA1-15 | 2026-08-31 00:48:15 | 54.38900 | 14.45635 | 83° | 53km/h | 24136m | -12.3m/s | -52.3°C | 0.3% | 30.7hPa | 2.5V | 08:22:45 | 02:28:44 | 00:00:00 | |
| AA1-15 | 2026-08-31 00:48:03 | 54.38930 | 14.45699 | 347° | 57km/h | 24276m | -12.9m/s | -52.4°C | 0.4% | 30hPa | 2.5V | 08:22:45 | 02:28:33 | 00:00:00 | |
| DO2SHX-10 | 2026-08-31 00:48:02 | 54.38915 | 14.45699 | 12° | 55km/h | 24290m | -13.1m/s | -52.3°C | 3.6% | 29.9hPa | 2.6V | 00:00:00 | 02:28:32 | 00:00:00 | |
| DL1XH-15 | 2026-08-31 00:47:58 | 54.38886 | 14.45603 | 112° | 55km/h | 24354m | -13.1m/s | -52.5°C | 3.7% | 29.7hPa | 2.5V | 08:22:12 | 02:28:27 | 00:00:00 | |
| AA1-15 | 2026-08-31 00:47:53 | 54.38930 | 14.45575 | 200° | 51km/h | 24408m | -12.6m/s | -52.5°C | 0.4% | 29.4hPa | 2.5V | 08:22:45 | 02:28:23 | 00:00:00 | |
| D01LWL | 2026-08-31 00:47:52 | 54.38941 | 14.45586 | 224° | 51km/h | 24420m | -12.9m/s | -52.4°C | 0.9% | 29.4hPa | 2.5V | 00:00:00 | 00:00:00 | 00:00:00 | |
| AA1-15 | 2026-08-31 00:47:43 | 54.38881 | 14.45617 | 91° | 51km/h | 24554m | -12.2m/s | -52.2°C | 0.3% | 28.8hPa | 2.5V | 08:22:45 | 02:28:12 | 00:00:00 | |
| AA1-15 | 2026-08-31 00:47:32 | 54.38939 | 14.45669 | 331° | 57km/h | 24686m | -12.3m/s | -52.2°C | 0.4% | 28.2hPa | 2.6V | 08:22:45 | 02:28:01 | 00:00:00 | |
| AA1-15 | 2026-08-31 00:47:20 | 54.38924 | 14.45607 | 198° | 55km/h | 24834m | -12.2m/s | -52.4°C | 0.4% | 27.5hPa | 2.6V | 08:23:36 | 02:27:50 | 00:00:00 | |
| AA1-15 | 2026-08-31 00:47:10 | 54.38910 | 14.45773 | 38° | 44km/h | 24982m | -13m/s | -52.3°C | 0.3% | 27hPa | 2.6V | 08:23:36 | 02:27:39 | 00:00:00 | |
| AA1-15 | 2026-08-31 00:46:58 | 54.38933 | 14.45834 | 294° | 77km/h | 25123m | -13.9m/s | -52.3°C | 0.4% | 26.4hPa | 2.5V | 08:23:36 | 02:27:28 | 00:00:00 | |
| AA1-15 | 2026-08-31 00:46:48 | 54.38842 | 14.45769 | 119° | 51km/h | 25262m | -13.5m/s | -52.3°C | 0.4% | 25.8hPa | 2.5V | 08:23:36 | 02:27:18 | 00:00:00 | |
| AA1-15 | 2026-08-31 00:46:38 | 54.38832 | 14.45817 | 25° | 73km/h | 25405m | -14m/s | -51.8°C | 0.3% | 25.2hPa | 2.6V | 08:23:36 | 02:27:08 | 00:00:00 | |
| DL1XH-west | 2026-08-31 00:46:33 | 54.38802 | 14.45683 | 112° | 73km/h | 25474m | -14.2m/s | 0°C | 0% | 0hPa | 2.5V | 08:23:36 | 02:27:03 | 00:00:00 | |
| AA1-15 | 2026-08-31 00:46:27 | 54.38875 | 14.45659 | 244° | 47km/h | 25566m | -15.2m/s | -51.8°C | 0.3% | 24.6hPa | 2.5V | 08:24:27 | 02:26:57 | 00:00:00 | |
| DL1XH-west | 2026-08-31 00:46:17 | 54.38825 | 14.45603 | 126° | 57km/h | 25708m | -16.1m/s | 0°C | 0% | 0hPa | 2.5V | 18:12:15 | 02:26:47 | 00:00:00 | |
| AA1-15 | 2026-08-31 00:46:16 | 54.38835 | 14.45587 | 147° | 57km/h | 25723m | -15.4m/s | -51.8°C | 0.4% | 24hPa | 2.5V | 08:24:27 | 02:26:46 | 00:00:00 | |
| DL1XH-west | 2026-08-31 00:46:06 | 54.38833 | 14.45702 | 16° | 58km/h | 25872m | -15.7m/s | 0°C | 0% | 0hPa | 2.5V | 18:12:15 | 02:26:36 | 00:00:00 | |
| AA1-15 | 2026-08-31 00:45:56 | 54.38870 | 14.45597 | 241° | 51km/h | 26025m | -14m/s | -50.8°C | 0.2% | 22.9hPa | 2.6V | 08:24:27 | 02:26:26 | 00:00:00 | |
| DL1XH-west | 2026-08-31 00:45:48 | 54.38804 | 14.45648 | 54° | 51km/h | 26138m | -16.8m/s | 0°C | 0% | 0hPa | 2.6V | 18:12:15 | 02:26:18 | 00:00:00 | |
| AA1-15 | 2026-08-31 00:45:46 | 54.38805 | 14.45592 | 127° | 44km/h | 26181m | -13m/s | -50.8°C | 0.2% | 22.4hPa | 2.5V | 08:24:27 | 02:26:15 | 00:00:00 | |
| AA1-15 | 2026-08-31 00:45:35 | 54.38852 | 14.45713 | 333° | 71km/h | 26346m | -16.4m/s | -50.7°C | 0.2% | 21.8hPa | 2.6V | 08:25:18 | 02:26:05 | 00:00:00 | |
| AA1-15 | 2026-08-31 00:45:24 | 54.38824 | 14.45585 | 212° | 51km/h | 26514m | -17.7m/s | -50.4°C | 0.2% | 21.2hPa | 2.6V | 08:25:18 | 02:25:54 | 00:00:00 | |
| AA1-15 | 2026-08-31 00:45:13 | 54.38746 | 14.45616 | 99° | 58km/h | 26691m | -17.2m/s | -50.6°C | 0.3% | 20.7hPa | 2.5V | 08:25:18 | 02:25:43 | 00:00:00 | |
| SP3WXH-11 | 2026-08-31 00:45:07 | 54.38810 | 14.45608 | 251° | 53km/h | 26796m | -16.8m/s | -50.5°C | 0.8% | 20.3hPa | 2.5V | 00:00:00 | 00:00:00 | 00:00:00 | |
| DJ2DS-15 | 2026-08-31 00:45:06 | 54.38810 | 14.45608 | 252° | 57km/h | 26796m | -16.8m/s | -50.5°C | 3.4% | 20.3hPa | 2.5V | 00:00:00 | 02:25:36 | 00:00:00 | |
| DL1XH-15 | 2026-08-31 00:45:05 | 54.38784 | 14.45702 | 351° | 58km/h | 26872m | -15.1m/s | -50.3°C | 3.4% | 20.1hPa | 2.5V | 08:25:08 | 02:25:31 | 00:00:00 | |
| AA1-15 | 2026-08-31 00:45:02 | 54.38797 | 14.45694 | 325° | 51km/h | 26857m | -15.5m/s | -50.5°C | 0.2% | 20.2hPa | 2.5V | 08:25:18 | 02:25:32 | 00:00:00 | |
| AA1-15 | 2026-08-31 00:44:51 | 54.38785 | 14.45576 | 190° | 60km/h | 27034m | -16.5m/s | -49.8°C | 0.1% | 19.6hPa | 2.6V | 08:25:18 | 02:25:21 | 00:00:00 | |
| DO2SHX-10 | 2026-08-31 00:44:48 | 54.38818 | 14.45629 | 255° | 69km/h | 27077m | -18.3m/s | 0°C | 0% | 0hPa | 2.5V | 00:00:00 | 02:25:18 | 00:00:00 | |
| DL1XH-15 | 2026-08-31 00:44:46 | 54.38743 | 14.45725 | 34° | 66km/h | 27192m | -17m/s | -50.2°C | 3.4% | 19.1hPa | 2.5V | 08:25:28 | 02:25:11 | 00:00:00 | |
| D01LWL | 2026-08-31 00:44:46 | 54.38813 | 14.45687 | 293° | 69km/h | 27115m | -18.7m/s | 0°C | -1.0% | 19.4hPa | 2.5V | 00:00:00 | 00:00:00 | 00:00:00 | |
| AA1-15 | 2026-08-31 00:44:40 | 54.38732 | 14.45704 | 52° | 64km/h | 27205m | -17.8m/s | -50.2°C | 0.3% | 19.1hPa | 2.5V | 08:26:09 | 02:25:10 | 00:00:00 | |
| AA1-15 | 2026-08-31 00:44:30 | 54.38771 | 14.45676 | 311° | 71km/h | 27375m | -19.2m/s | -49.4°C | 0% | 18.6hPa | 2.6V | 08:26:09 | 02:25:00 | 00:00:00 | |
| DL1XH-15 | 2026-08-31 00:44:28 | 54.38719 | 14.45707 | 358° | 91km/h | 27426m | -21.2m/s | -49.4°C | 3.1% | 18.4hPa | 2.5V | 08:25:42 | 02:24:57 | 00:00:00 | |
| DJ2DS-15 | 2026-08-31 00:44:26 | 54.38697 | 14.45702 | 12° | 69km/h | 27446m | -20.9m/s | -49.3°C | 3.1% | 18.3hPa | 2.5V | 00:00:00 | 02:24:56 | 00:00:00 | |
| DL1XH-15 | 2026-08-31 00:44:20 | 54.38710 | 14.45589 | 233° | 44km/h | 27618m | -17.6m/s | -49.6°C | 3.2% | 17.9hPa | 2.5V | 08:25:52 | 02:24:47 | 00:00:00 | |
| AA1-15 | 2026-08-31 00:44:19 | 54.38687 | 14.45573 | 178° | 53km/h | 27582m | -18.5m/s | -49.6°C | 0.1% | 18.1hPa | 2.5V | 08:26:09 | 02:24:49 | 00:00:00 | |
| D01LWL | 2026-08-31 00:44:15 | 54.38718 | 14.45627 | 295° | 46km/h | 27652m | -18.7m/s | 0°C | -1.0% | -1.0hPa | 2.6V | 00:00:00 | 00:00:00 | 00:00:00 | |
| DL1XH-15 | 2026-08-31 00:44:08 | 54.38628 | 14.45577 | 85° | 68km/h | 27786m | -16.7m/s | -49.9°C | 3.4% | 17.5hPa | 2.6V | 08:26:02 | 02:24:37 | 00:00:00 | |
| AA1-15 | 2026-08-31 00:44:08 | 54.38631 | 14.45605 | 70° | 69km/h | 27769m | -16.7m/s | -50°C | 0.2% | 17.5hPa | 2.6V | 08:26:09 | 02:24:38 | 00:00:00 | |
| DJ2DS-15 | 2026-08-31 00:44:07 | 54.38629 | 14.45549 | 102° | 66km/h | 27803m | -16.7m/s | -49.8°C | 0.8% | 17.5hPa | 2.5V | 00:00:00 | 00:00:00 | 00:00:00 | |
| SP3WXH-11 | 2026-08-31 00:44:04 | 54.38644 | 14.45498 | 134° | 69km/h | 27838m | -16.9m/s | -49.6°C | 0.8% | 17.4hPa | 2.5V | 00:00:00 | 00:00:00 | 00:00:00 | |
| DL1XH-15 | 2026-08-31 00:44:00 | 54.38720 | 14.45526 | 305° | 57km/h | 27960m | -19.4m/s | -49.4°C | 3.3% | 17hPa | 2.5V | 08:26:12 | 02:24:27 | 00:00:00 | |
| AA1-15 | 2026-08-31 00:43:57 | 54.38720 | 14.45526 | 306° | 57km/h | 27960m | -19.4m/s | -49.4°C | 0.2% | 17hPa | 2.5V | 08:27:00 | 02:24:27 | 00:00:00 | |
| S3001 | 2026-08-31 00:43:55 | 54.38697 | 14.45555 | 346° | 71km/h | 27997m | -18.1m/s | -49.3°C | 0.7% | 16.9hPa | 2.6V | 00:00:00 | 00:00:00 | 00:00:00 | |
| DL1XH-15 | 2026-08-31 00:43:49 | 54.38643 | 14.45392 | 146° | 64km/h | 28144m | -19.4m/s | -48.4°C | 3% | 16.5hPa | 2.6V | 08:26:22 | 02:24:17 | 00:00:00 | |
| AA1-15 | 2026-08-31 00:43:46 | 54.38656 | 14.45382 | 169° | 64km/h | 28163m | -18.4m/s | -48.3°C | 0% | 16.5hPa | 2.6V | 08:27:00 | 02:24:16 | 00:00:00 | |
| D01LWL | 2026-08-31 00:43:44 | 54.38684 | 14.45391 | 215° | 53km/h | 28201m | -18.1m/s | 0°C | -1.0% | -1.0hPa | 2.5V | 00:00:00 | 00:00:00 | 00:00:00 | |
| DL1XH-15 | 2026-08-31 00:43:41 | 54.38631 | 14.45456 | 41° | 80km/h | 28321m | -20.7m/s | -48.6°C | 2.9% | 16.1hPa | 2.5V | 08:26:32 | 02:24:07 | 00:00:00 | |
| AA1-15 | 2026-08-31 00:43:35 | 54.38609 | 14.45394 | 76° | 89km/h | 28360m | -20.9m/s | -48.8°C | 0% | 16hPa | 2.5V | 08:27:00 | 02:24:05 | 00:00:00 | |
| SP3WXH-11 | 2026-08-31 00:43:33 | 54.38612 | 14.45318 | 110° | 86km/h | 28398m | -19.6m/s | -49.0°C | 0.7% | 15.9hPa | 2.6V | 00:00:00 | 00:00:00 | 00:00:00 | |
| DL1XH-15 | 2026-08-31 00:43:28 | 54.38697 | 14.45273 | 229° | 53km/h | 28504m | -19m/s | -49.3°C | 3.1% | 15.6hPa | 2.6V | 08:26:42 | 02:23:57 | 00:00:00 | |
| AA1-15 | 2026-08-31 00:43:24 | 54.38699 | 14.45327 | 309° | 42km/h | 28560m | -18.9m/s | -49.5°C | 0.1% | 15.5hPa | 2.5V | 08:27:00 | 02:23:54 | 00:00:00 | |
| DL1XH-15 | 2026-08-31 00:43:20 | 54.38649 | 14.45235 | 101° | 73km/h | 28680m | -19.4m/s | -49.9°C | 3.4% | 15.2hPa | 2.5V | 08:26:52 | 02:23:47 | 00:00:00 | |
| AA1-15 | 2026-08-31 00:43:13 | 54.38692 | 14.45138 | 154° | 77km/h | 28760m | -20.1m/s | -50.1°C | 0.3% | 15.1hPa | 2.6V | 08:27:00 | 02:23:43 | 00:00:00 | |
| AA1-15 | 2026-08-31 00:43:02 | 54.38698 | 14.45201 | 47° | 80km/h | 28979m | -19.3m/s | -49°C | 0.3% | 14.6hPa | 2.5V | 08:27:51 | 02:23:32 | 00:00:00 | |
| DL1XH-15 | 2026-08-31 00:43:00 | 54.38698 | 14.45052 | 139° | 68km/h | 29078m | -18m/s | -48.3°C | 3.3% | 14.3hPa | 2.6V | 08:27:12 | 02:23:27 | 00:00:00 | |
| AA1-15 | 2026-08-31 00:42:51 | 54.38758 | 14.45091 | 277° | 46km/h | 29187m | -19.8m/s | -47.7°C | 0.2% | 14.1hPa | 2.6V | 08:27:51 | 02:23:21 | 00:00:00 | |
| DL1XH-15 | 2026-08-31 00:42:49 | 54.38719 | 14.45125 | 22° | 53km/h | 29267m | -21.4m/s | -46.9°C | 3% | 13.9hPa | 2.5V | 08:27:22 | 02:23:17 | 00:00:00 | |
| AA1-15 | 2026-08-31 00:42:40 | 54.38740 | 14.44971 | 159° | 82km/h | 29398m | -22.3m/s | -45.4°C | 0% | 13.7hPa | 2.5V | 08:27:51 | 02:23:10 | 00:00:00 | |
| DL1XH-15 | 2026-08-31 00:42:38 | 54.38797 | 14.44973 | 202° | 82km/h | 29464m | -20.1m/s | -45.1°C | 2.6% | 13.5hPa | 2.6V | 08:27:32 | 02:23:07 | 00:00:00 | |
| AA1-15 | 2026-08-31 00:42:29 | 54.38788 | 14.45076 | 65° | 60km/h | 29638m | -18.9m/s | -44.9°C | 0% | 13.2hPa | 2.5V | 08:27:51 | 02:22:58 | 00:00:00 | |
| DL1XH-15 | 2026-08-31 00:42:28 | 54.38782 | 14.45048 | 78° | 71km/h | 29658m | -20.8m/s | -44.9°C | 2.6% | 13.1hPa | 2.5V | 08:27:42 | 02:22:57 | 00:00:00 | |
| MECKS9 | 2026-08-31 00:42:24 | 54.38783 | 14.44982 | 108° | 80km/h | 29705m | -24.8m/s | -44.9°C | 0.5% | 13.0hPa | 2.6V | 00:00:00 | 00:00:00 | 00:00:00 | |
| S3001 | 2026-08-31 00:42:22 | 54.38878 | 14.44917 | 208° | 75km/h | 29832m | -20.2m/s | -44.7°C | 0.5% | 12.8hPa | 2.6V | 00:00:00 | 00:00:00 | 00:00:00 | |
| DL1XH-15 | 2026-08-31 00:42:18 | 54.38908 | 14.44970 | 241° | 71km/h | 29864m | -21m/s | -44.6°C | 2.5% | 12.8hPa | 2.6V | 08:27:52 | 02:22:47 | 00:00:00 | |
| AA1-15 | 2026-08-31 00:42:17 | 54.38908 | 14.44970 | 242° | 71km/h | 29864m | -21m/s | -44.6°C | 0% | 12.8hPa | 2.6V | 08:29:33 | 02:22:47 | 00:00:00 | |
| AA1-15 | 2026-08-31 00:42:07 | 54.38831 | 14.45018 | 105° | 57km/h | 30084m | -22.6m/s | -44.7°C | 0% | 12.3hPa | 2.5V | 08:29:33 | 02:22:37 | 00:00:00 | |
| SP3WXH-11 | 2026-08-31 00:42:00 | 54.38909 | 14.45086 | 272° | 82km/h | 30233m | -24.6m/s | -44.2°C | 0.5% | 12.0hPa | 2.5V | 00:00:00 | 00:00:00 | 00:00:00 | |
| DL1XH-15 | 2026-08-31 00:41:58 | 54.38877 | 14.45167 | 339° | 97km/h | 30299m | -19.9m/s | -44.5°C | 2.5% | 11.9hPa | 2.5V | 08:28:12 | 02:22:27 | 00:00:00 | |
| AA1-15 | 2026-08-31 00:41:51 | 54.38777 | 14.45087 | 70° | 75km/h | 30415m | -26.3m/s | -44.8°C | 0% | 11.7hPa | 2.5V | 08:29:33 | 02:22:21 | 00:00:00 | |
| DL1XH-15 | 2026-08-31 00:41:48 | 54.38785 | 14.45007 | 149° | 33km/h | 30515m | -21.3m/s | -45°C | 2.7% | 11.5hPa | 2.6V | 08:28:22 | 02:22:17 | 00:00:00 | |
| AA1-15 | 2026-08-31 00:41:40 | 54.38755 | 14.45114 | 352° | 82km/h | 30666m | -27m/s | -44.6°C | 0% | 11.3hPa | 2.6V | 08:29:33 | 02:22:10 | 00:00:00 | |
| DL1XH-15 | 2026-08-31 00:41:38 | 54.38696 | 14.45085 | 41° | 91km/h | 30745m | -24.7m/s | -44.6°C | 2.6% | 11.2hPa | 2.5V | 08:28:32 | 02:22:07 | 00:00:00 | |
| SP3WXH-11 | 2026-08-31 00:41:29 | 54.38735 | 14.44911 | 205° | 60km/h | 30929m | -23.3m/s | -44.2°C | 0.5% | 10.8hPa | 2.6V | 00:00:00 | 00:00:00 | 00:00:00 | |
| DL1XH-15 | 2026-08-31 00:41:28 | 54.38750 | 14.44953 | 265° | 64km/h | 30973m | -25.2m/s | -44°C | 2.6% | 10.8hPa | 2.6V | 08:28:42 | 02:21:57 | 00:00:00 | |
| AA1-15 | 2026-08-31 00:41:24 | 54.38727 | 14.45022 | 335° | 78km/h | 31038m | -21m/s | -43.7°C | 0% | 10.7hPa | 2.5V | 08:29:33 | 02:21:54 | 00:00:00 | |
| DG6HD-11 | 2026-08-31 00:41:21 | 54.38667 | 14.45012 | 30° | 77km/h | 31103m | -23.1m/s | -43.3°C | 2.5% | 10.5hPa | 2.5V | 00:00:00 | 00:00:00 | 00:00:00 | |
| DL1XH-15 | 2026-08-31 00:41:18 | 54.38626 | 14.44890 | 89° | 78km/h | 31189m | -23.1m/s | -43.4°C | 2.5% | 10.4hPa | 2.5V | 08:30:00 | 02:21:47 | 00:00:00 | |
| D01LWL | 2026-08-31 00:41:09 | 54.38678 | 14.44894 | 326° | 66km/h | 31397m | -23.7m/s | 0°C | -1.0% | -1.0hPa | 2.5V | 00:00:00 | 00:00:00 | 00:00:00 | |
| DL1XH-15 | 2026-08-31 00:41:08 | 54.38601 | 14.44864 | 57° | 82km/h | 31497m | -26.9m/s | -42.6°C | 2.5% | 9.9hPa | 2.5V | 08:30:00 | 02:21:34 | 00:00:00 | |
| SP3WXH-11 | 2026-08-31 00:40:58 | 54.38657 | 14.44711 | 187° | 84km/h | 31639m | -27.8m/s | -41.8°C | 0.5% | 9.7hPa | 2.5V | 00:00:00 | 00:00:00 | 00:00:00 | |
| DO2SHX-10 | 2026-08-31 00:40:54 | 54.38704 | 14.44799 | 272° | 68km/h | 31744m | -25.1m/s | 0°C | 0% | 0hPa | 2.5V | 08:29:00 | 02:21:24 | 00:00:00 | |
| DO2SHX-10 | 2026-08-31 00:40:51 | 54.38675 | 14.44861 | 350° | 62km/h | 31818m | -26.3m/s | 0°C | 0% | 0hPa | 2.5V | 00:00:00 | 02:21:21 | 00:00:00 | |
| DG6HD-11 | 2026-08-31 00:40:50 | 54.38658 | 14.44860 | 11° | 77km/h | 31845m | -26.5m/s | -40.9°C | 2.2% | 9.4hPa | 2.5V | 00:00:00 | 00:00:00 | 00:00:00 | |
| DL1XH-15 | 2026-08-31 00:40:48 | 54.38630 | 14.44802 | 87° | 66km/h | 31923m | -26.1m/s | -40.8°C | 2.1% | 9.3hPa | 2.5V | 08:30:00 | 02:21:17 | 00:00:00 | |
| DL1XH-15 | 2026-08-31 00:40:38 | 54.38691 | 14.44887 | 329° | 69km/h | 32161m | -24m/s | -41.2°C | 2.3% | 9hPa | 2.6V | 08:30:00 | 02:21:07 | 00:00:00 | |
| AA1-15 | 2026-08-31 00:40:29 | 54.38588 | 14.44751 | 125° | 73km/h | 32367m | -26.9m/s | -40.7°C | 0% | 8.7hPa | 2.5V | 18:12:15 | 02:20:59 | 00:00:00 | |
| AA1-15 | 2026-08-31 00:40:18 | 54.38552 | 14.44801 | 49° | 97km/h | 32658m | -26m/s | -40.2°C | 0% | 8.3hPa | 2.6V | 18:12:15 | 02:20:48 | 00:00:00 | |
| AA1-15 | 2026-08-31 00:40:07 | 54.38600 | 14.44635 | 261° | 53km/h | 32941m | -27.5m/s | -38.9°C | 0% | 8hPa | 2.5V | 18:12:15 | 02:20:37 | 00:00:00 | |
| AA1-15 | 2026-08-31 00:39:56 | 54.38498 | 14.44569 | 74° | 77km/h | 33214m | -25.2m/s | -38.3°C | 0% | 7.7hPa | 2.5V | 18:12:15 | 02:20:26 | 00:00:00 | |
| AA1-15 | 2026-08-31 00:39:45 | 54.38452 | 14.44383 | 48° | 47km/h | 33582m | -61.2m/s | -36.7°C | 0% | 7.5hPa | 2.6V | 18:12:15 | 02:20:15 | 00:00:00 | |
| AA1-15 | 2026-08-31 00:39:35 | 54.38403 | 14.44238 | 78° | 40km/h | 33895m | 10.3m/s | -36.4°C | 0% | 6.9hPa | 2.5V | 18:12:15 | 02:20:05 | 00:00:00 | |
| AA1-15 | 2026-08-31 00:39:24 | 54.38386 | 14.44111 | 70° | 49km/h | 33833m | 5.8m/s | -36.6°C | 0% | 7hPa | 2.6V | 18:12:15 | 02:19:54 | 00:00:00 | |
| AA1-15 | 2026-08-31 00:39:13 | 54.38365 | 14.43955 | 70° | 40km/h | 33777m | 5.3m/s | -37.2°C | 0% | 7.1hPa | 2.5V | 18:12:15 | 02:19:43 | 00:00:00 | |
| AA1-15 | 2026-08-31 00:39:02 | 54.38336 | 14.43797 | 73° | 38km/h | 33720m | 5.5m/s | -37.7°C | 0% | 7.1hPa | 2.5V | 18:12:15 | 02:19:32 | 00:00:00 | |
| AA1-15 | 2026-08-31 00:38:51 | 54.38304 | 14.43650 | 76° | 49km/h | 33664m | 5m/s | -37.7°C | 0% | 7.2hPa | 2.6V | 18:12:15 | 02:19:21 | 00:00:00 | |
| S3001 | 2026-08-31 00:38:45 | 54.38309 | 14.43567 | 79° | 11km/h | 33634m | 5.1m/s | -37.9°C | 0.4% | 7.2hPa | 2.5V | 00:00:00 | 00:00:00 | 00:00:00 | |
| AA1-15 | 2026-08-31 00:38:41 | 54.38291 | 14.43526 | 58° | 47km/h | 33612m | 5.9m/s | -38°C | 0% | 7.3hPa | 2.5V | 18:12:15 | 02:19:11 | 00:00:00 | |
| AA1-15 | 2026-08-31 00:38:30 | 54.38278 | 14.43372 | 61° | 26km/h | 33557m | 4.9m/s | -38.4°C | 0% | 7.3hPa | 2.5V | 18:12:15 | 02:19:00 | 00:00:00 | |
| AA1-15 | 2026-08-31 00:38:19 | 54.38252 | 14.43186 | 69° | 20km/h | 33498m | 5.1m/s | -38.4°C | 0% | 7.4hPa | 2.5V | 18:12:15 | 02:18:49 | 00:00:00 | |
| AA1-15 | 2026-08-31 00:38:09 | 54.38229 | 14.43056 | 59° | 24km/h | 33443m | 4.9m/s | -38.3°C | 0% | 7.4hPa | 2.6V | 18:12:15 | 02:18:39 | 00:00:00 | |
| AA1-15 | 2026-08-31 00:37:58 | 54.38215 | 14.42943 | 57° | 26km/h | 33384m | 5.3m/s | -38.4°C | 0% | 7.5hPa | 2.6V | 18:12:15 | 02:18:28 | 00:00:00 | |
| AA1-15 | 2026-08-31 00:37:47 | 54.38205 | 14.42856 | 71° | 20km/h | 33324m | 6.2m/s | -38.3°C | 0% | 7.6hPa | 2.5V | 18:12:15 | 02:18:17 | 00:00:00 | |
| AA1-15 | 2026-08-31 00:37:37 | 54.38188 | 14.42776 | 129° | 15km/h | 33270m | 5.8m/s | -38.4°C | 0% | 7.6hPa | 2.5V | 18:12:15 | 02:18:07 | 00:00:00 | |
| AA1-15 | 2026-08-31 00:37:26 | 54.38187 | 14.42700 | 66° | 20km/h | 33213m | 5.1m/s | -38.5°C | 0% | 7.7hPa | 2.5V | 18:12:15 | 02:17:56 | 00:00:00 | |
| AA1-15 | 2026-08-31 00:37:16 | 54.38199 | 14.42604 | 81° | 15km/h | 33163m | 5.4m/s | -38.7°C | 0% | 7.8hPa | 2.6V | 18:12:15 | 02:17:46 | 00:00:00 | |
| AA1-15 | 2026-08-31 00:37:06 | 54.38190 | 14.42493 | 103° | 18km/h | 33104m | 5.7m/s | -38.8°C | 0% | 7.8hPa | 2.5V | 18:12:15 | 02:17:35 | 00:00:00 | |
| AA1-15 | 2026-08-31 00:36:55 | 54.38176 | 14.42422 | 76° | 20km/h | 33052m | 5.5m/s | -39.2°C | 0% | 7.9hPa | 2.5V | 18:12:15 | 02:17:25 | 00:00:00 | |
| AA1-15 | 2026-08-31 00:36:45 | 54.38153 | 14.42365 | 34° | 26km/h | 32997m | 5.8m/s | -39.5°C | 0% | 7.9hPa | 2.6V | 18:12:15 | 02:17:14 | 00:00:00 | |
| AA1-15 | 2026-08-31 00:36:33 | 54.38126 | 14.42266 | 44° | 24km/h | 32940m | 5.3m/s | -39.7°C | 0% | 8hPa | 2.5V | 18:12:15 | 02:17:03 | 00:00:00 | |
| AA1-15 | 2026-08-31 00:36:22 | 54.38101 | 14.42139 | 77° | 40km/h | 32882m | 4.9m/s | -40°C | 0% | 8.1hPa | 2.6V | 18:12:15 | 02:16:52 | 00:00:00 | |
| AA1-15 | 2026-08-31 00:36:11 | 54.38066 | 14.42042 | 77° | 38km/h | 32824m | 5m/s | -40.5°C | 0% | 8.1hPa | 2.6V | 18:12:15 | 02:16:41 | 00:00:00 | |
| AA1-15 | 2026-08-31 00:36:00 | 54.38026 | 14.41922 | 35° | 26km/h | 32770m | 4.5m/s | -40.7°C | 0% | 8.2hPa | 2.6V | 18:12:15 | 02:16:30 | 00:00:00 | |
| AA1-15 | 2026-08-31 00:35:49 | 54.37978 | 14.41855 | 23° | 26km/h | 32709m | 5.4m/s | -40.9°C | 0% | 8.3hPa | 2.6V | 18:12:15 | 02:16:19 | 00:00:00 | |
| SP3WXH-11 | 2026-08-31 00:35:48 | 54.37968 | 14.41849 | 21° | 15km/h | 32699m | 4.5m/s | -41.0°C | 0.5% | 8.3hPa | 2.6V | 00:00:00 | 00:00:00 | 00:00:00 | |
| AA1-15 | 2026-08-31 00:35:38 | 54.37930 | 14.41792 | 18° | 22km/h | 32654m | 5.8m/s | -41°C | 0% | 8.4hPa | 2.6V | 18:12:15 | 02:16:08 | 00:00:00 | |
| AA1-15 | 2026-08-31 00:35:28 | 54.37885 | 14.41747 | 15° | 24km/h | 32602m | 5.6m/s | -41°C | 0% | 8.4hPa | 2.5V | 18:12:15 | 02:15:58 | 00:00:00 | |
| AA1-15 | 2026-08-31 00:35:17 | 54.37843 | 14.41721 | 4° | 16km/h | 32547m | 5.2m/s | -41.1°C | 0% | 8.5hPa | 2.5V | 18:12:15 | 02:15:47 | 00:00:00 | |
| SP3WXH-11 | 2026-08-31 00:35:17 | 54.37834 | 14.41716 | 40° | 11km/h | 32533m | 5.5m/s | -41.1°C | 0.4% | 8.6hPa | 2.5V | 00:00:00 | 00:00:00 | 00:00:00 | |
| DJ2DS-15 | 2026-08-31 00:35:12 | 54.37827 | 14.41707 | 48° | 11km/h | 32523m | 5.2m/s | 0°C | 0% | 0hPa | 2.5V | 00:00:00 | 02:15:42 | 08:30:00 | |
| MECKS9 | 2026-08-31 00:35:11 | 54.37827 | 14.41707 | 48° | 20km/h | 32523m | 5.3m/s | -41.1°C | 0.4% | 8.5hPa | 2.5V | 00:00:00 | 00:00:00 | 00:00:00 | |
| AA1-15 | 2026-08-31 00:34:55 | 54.37761 | 14.41650 | 1° | 9km/h | 32432m | 5.7m/s | -41.3°C | 0% | 8.6hPa | 2.5V | 18:12:15 | 02:15:25 | 00:00:00 | |
| SP3WXH-11 | 2026-08-31 00:34:46 | 54.37730 | 14.41620 | 12° | 15km/h | 32374m | 5.5m/s | -41.5°C | 0.5% | 8.7hPa | 2.5V | 00:00:00 | 00:00:00 | 00:00:00 | |
| AA1-15 | 2026-08-31 00:34:44 | 54.37727 | 14.41618 | 23° | 13km/h | 32368m | 5.2m/s | -41.6°C | 0% | 8.7hPa | 2.5V | 18:12:15 | 02:15:14 | 00:00:00 | |
| AA1-15 | 2026-08-31 00:34:33 | 54.37687 | 14.41594 | 324° | 2km/h | 32312m | 5.1m/s | -41.7°C | 0% | 8.8hPa | 2.5V | 18:12:15 | 02:15:03 | 00:00:00 | |
| AA1-15 | 2026-08-31 00:34:22 | 54.37643 | 14.41582 | 320° | 4km/h | 32252m | 5.8m/s | -41.8°C | 0% | 8.9hPa | 2.5V | 18:12:15 | 02:14:52 | 00:00:00 | |
| AA1-15 | 2026-08-31 00:34:11 | 54.37602 | 14.41590 | 350° | 15km/h | 32190m | 6.1m/s | -41.6°C | 0% | 9hPa | 2.5V | 18:12:15 | 02:14:41 | 00:00:00 | |
| AA1-15 | 2026-08-31 00:34:01 | 54.37575 | 14.41605 | 318° | 15km/h | 32133m | 6.4m/s | -41.3°C | 0% | 9hPa | 2.5V | 18:12:15 | 02:14:31 | 00:00:00 | |
| AA1-15 | 2026-08-31 00:33:50 | 54.37557 | 14.41629 | 282° | 0km/h | 32069m | 4.6m/s | -41.2°C | 0% | 9.1hPa | 2.5V | 18:12:15 | 02:14:20 | 00:00:00 | |
| AA1-15 | 2026-08-31 00:33:40 | 54.37553 | 14.41662 | 308° | 2km/h | 32011m | 5.4m/s | -41.2°C | 0% | 9.2hPa | 2.5V | 18:12:15 | 02:14:10 | 00:00:00 | |
| AA1-15 | 2026-08-31 00:33:29 | 54.37565 | 14.41703 | 252° | 16km/h | 31945m | 5.8m/s | -41.2°C | 0% | 9.3hPa | 2.5V | 18:12:15 | 02:13:59 | 00:00:00 | |
| AA1-15 | 2026-08-31 00:33:18 | 54.37588 | 14.41723 | 224° | 16km/h | 31881m | 5.4m/s | -41.3°C | 0% | 9.4hPa | 2.5V | 18:12:15 | 02:13:48 | 00:00:00 | |
| AA1-15 | 2026-08-31 00:33:07 | 54.37638 | 14.41746 | 164° | 26km/h | 31816m | 6.2m/s | -41.3°C | 0% | 9.5hPa | 2.6V | 18:12:15 | 02:13:37 | 00:00:00 | |
| AA1-15 | 2026-08-31 00:32:56 | 54.37687 | 14.41741 | 156° | 20km/h | 31753m | 6.1m/s | -41.5°C | 0% | 9.6hPa | 2.6V | 18:12:15 | 02:13:26 | 00:00:00 | |
| AA1-15 | 2026-08-31 00:32:45 | 54.37740 | 14.41703 | 180° | 11km/h | 31690m | 5.2m/s | -41.9°C | 0% | 9.7hPa | 2.5V | 18:12:15 | 02:13:15 | 00:00:00 | |
| AA1-15 | 2026-08-31 00:32:35 | 54.37756 | 14.41646 | 118° | 18km/h | 31627m | 5.9m/s | -42.3°C | 0% | 9.8hPa | 2.5V | 18:12:15 | 02:13:04 | 00:00:00 | |
| AA1-15 | 2026-08-31 00:32:17 | 54.37766 | 14.41534 | 67° | 18km/h | 31534m | 6m/s | -43.1°C | 0% | 9.9hPa | 2.6V | 18:12:15 | 02:12:47 | 00:00:00 | |
| AA1-15 | 2026-08-31 00:32:03 | 54.37756 | 14.41431 | 96° | 22km/h | 31459m | 5.6m/s | -43.7°C | 0% | 10hPa | 2.5V | 18:12:15 | 02:12:33 | 00:00:00 | |
| MECKS9 | 2026-08-31 00:31:53 | 54.37733 | 14.41374 | 42° | 20km/h | 31411m | 6.6m/s | -44.1°C | 0.5% | 10.1hPa | 2.6V | 00:00:00 | 00:00:00 | 00:00:00 | |
| DL1XH-15 | 2026-08-31 00:31:46 | 54.37706 | 14.41311 | 48° | 29km/h | 31369m | 5.6m/s | -44.3°C | 2.6% | 10.1hPa | 2.6V | 08:30:00 | 02:12:16 | 00:00:00 | |
| DL1XH-15 | 2026-08-31 00:31:41 | 54.37643 | 14.41244 | 43° | 33km/h | 31313m | 5.6m/s | -44°C | 2.5% | 10.2hPa | 2.6V | 08:30:00 | 02:12:06 | 00:00:00 | |
| AA1-15 | 2026-08-31 00:31:23 | 54.37572 | 14.41190 | 45° | 20km/h | 31241m | 5.1m/s | -43.9°C | 0% | 10.3hPa | 2.5V | 18:12:15 | 02:11:53 | 00:00:00 | |
| AA1-15 | 2026-08-31 00:31:13 | 54.37528 | 14.41123 | 346° | 15km/h | 31187m | 5m/s | -44°C | 0% | 10.4hPa | 2.5V | 18:12:15 | 02:11:43 | 00:00:00 | |
| AA1-15 | 2026-08-31 00:31:02 | 54.37488 | 14.41090 | 55° | 15km/h | 31124m | 5.6m/s | -44.2°C | 0% | 10.5hPa | 2.6V | 18:12:15 | 02:11:32 | 00:00:00 | |
| S3001 | 2026-08-31 00:30:59 | 54.37474 | 14.41089 | 329° | 15km/h | 31103m | 6.0m/s | -44.3°C | 0.5% | 10.6hPa | 2.5V | 00:00:00 | 00:00:00 | 00:00:00 | |
| DL1XH-15 | 2026-08-31 00:30:58 | 54.37455 | 14.41090 | 29° | 26km/h | 31078m | 6.5m/s | -44.4°C | 2.5% | 10.6hPa | 2.5V | 08:30:00 | 02:11:23 | 00:00:00 | |
| AA1-15 | 2026-08-31 00:30:52 | 54.37449 | 14.41083 | 38° | 27km/h | 31071m | 5.3m/s | -44.5°C | 0% | 10.6hPa | 2.6V | 18:12:15 | 02:11:22 | 00:00:00 | |
| AA1-15 | 2026-08-31 00:30:42 | 54.37420 | 14.41077 | 355° | 20km/h | 31020m | 4.1m/s | -44.7°C | 0% | 10.7hPa | 2.6V | 18:12:15 | 02:11:12 | 00:00:00 | |
| DL1XH-15 | 2026-08-31 00:30:41 | 54.37415 | 14.41076 | 12° | 16km/h | 31016m | 4.7m/s | -44.7°C | 2.5% | 10.7hPa | 2.6V | 08:30:00 | 02:11:11 | 00:00:00 | |
| AA1-15 | 2026-08-31 00:30:31 | 54.37402 | 14.41033 | 352° | 13km/h | 30958m | 6.2m/s | -45.2°C | 0% | 10.8hPa | 2.6V | 18:12:15 | 02:11:01 | 00:00:00 | |
| DL1XH-15 | 2026-08-31 00:30:30 | 54.37395 | 14.41026 | 70° | 13km/h | 30930m | 6.3m/s | -45.3°C | 2.7% | 10.8hPa | 2.6V | 08:30:00 | 02:10:56 | 00:00:00 | |
| AA1-15 | 2026-08-31 00:30:21 | 54.37392 | 14.40995 | 116° | 11km/h | 30903m | 6m/s | -45.3°C | 0% | 10.9hPa | 2.6V | 18:12:15 | 02:10:51 | 00:00:00 | |
| AA1-15 | 2026-08-31 00:30:10 | 54.37371 | 14.40932 | 31° | 15km/h | 30843m | 4.9m/s | -45.4°C | 0% | 11hPa | 2.5V | 18:12:15 | 02:10:40 | 00:00:00 | |
| AA1-15 | 2026-08-31 00:29:59 | 54.37350 | 14.40868 | 42° | 33km/h | 30787m | 7.2m/s | -45.1°C | 0% | 11.1hPa | 2.5V | 18:12:15 | 02:10:29 | 00:00:00 | |
| AA1-15 | 2026-08-31 00:29:48 | 54.37294 | 14.40807 | 51° | 24km/h | 30727m | 4.9m/s | -45.3°C | 0% | 11.2hPa | 2.5V | 18:12:15 | 02:10:18 | 00:00:00 | |
| AA1-15 | 2026-08-31 00:29:37 | 54.37210 | 14.40743 | 18° | 22km/h | 30667m | 6.6m/s | -45.6°C | 0% | 11.3hPa | 2.6V | 18:12:15 | 02:10:07 | 00:00:00 | |
| AA1-15 | 2026-08-31 00:29:26 | 54.37113 | 14.40704 | 4° | 44km/h | 30606m | 5.6m/s | -45.9°C | 0% | 11.4hPa | 2.6V | 18:12:15 | 02:09:56 | 00:00:00 | |
| AA1-15 | 2026-08-31 00:29:15 | 54.37016 | 14.40676 | 21° | 38km/h | 30546m | 3.8m/s | -45.9°C | 0% | 11.5hPa | 2.5V | 18:12:15 | 02:09:45 | 00:00:00 | |
| AA1-15 | 2026-08-31 00:29:05 | 54.36949 | 14.40679 | 11° | 24km/h | 30485m | 6m/s | -45.5°C | 0% | 11.6hPa | 2.5V | 18:12:15 | 02:09:34 | 00:00:00 | |
| AA1-15 | 2026-08-31 00:28:53 | 54.36897 | 14.40703 | 327° | 31km/h | 30422m | 5m/s | -45.3°C | 0% | 11.7hPa | 2.5V | 18:12:15 | 02:09:23 | 00:00:00 | |
| DL1XH-15 | 2026-08-31 00:28:50 | 54.36867 | 14.40724 | 344° | 15km/h | 30389m | 6.4m/s | -45.2°C | 2.7% | 11.8hPa | 2.6V | 08:30:00 | 02:09:17 | 00:00:00 | |
| AA1-15 | 2026-08-31 00:28:42 | 54.36849 | 14.40745 | 310° | 18km/h | 30360m | 5.9m/s | -45.1°C | 0% | 11.8hPa | 2.6V | 18:12:15 | 02:09:12 | 00:00:00 | |
| AA1-15 | 2026-08-31 00:28:31 | 54.36809 | 14.40835 | 307° | 15km/h | 30299m | 6m/s | -44.9°C | 0% | 11.9hPa | 2.6V | 18:12:15 | 02:09:01 | 00:00:00 | |
| DL1XH-15 | 2026-08-31 00:28:29 | 54.36802 | 14.40864 | 283° | 18km/h | 30270m | 4.8m/s | -44.8°C | 2.7% | 12hPa | 2.6V | 08:30:00 | 02:08:56 | 00:00:00 | |
| AA1-15 | 2026-08-31 00:28:22 | 54.36789 | 14.40922 | 294° | 31km/h | 30242m | 5.1m/s | -44.8°C | 0% | 12hPa | 2.6V | 18:12:15 | 02:08:51 | 00:00:00 | |
| DL1XH-15 | 2026-08-31 00:28:20 | 54.36783 | 14.40955 | 283° | 7km/h | 30216m | 6.2m/s | -45°C | 2.6% | 12.1hPa | 2.6V | 08:30:00 | 02:08:46 | 00:00:00 | |
| MECKS9 | 2026-08-31 00:28:12 | 54.36779 | 14.40968 | 282° | 15km/h | 30198m | 5.1m/s | -45.1°C | 0.6% | 12.1hPa | 2.5V | 00:00:00 | 00:00:00 | 00:00:00 | |
| AA1-15 | 2026-08-31 00:28:11 | 54.36832 | 14.41181 | 199° | 13km/h | 30032m | 6.1m/s | -44.9°C | 0% | 12.4hPa | 2.5V | 18:12:15 | 02:08:13 | 00:00:00 | |
| DL1XH-15 | 2026-08-31 00:28:11 | 54.36787 | 14.41024 | 268° | 22km/h | 30156m | 5.5m/s | -45.1°C | 2.7% | 12.2hPa | 2.6V | 08:30:00 | 02:08:36 | 00:00:00 | |
| DG6HD-11 | 2026-08-31 00:28:07 | 54.36787 | 14.41042 | 269° | 20km/h | 30147m | 5.0m/s | -45.0°C | 2.6% | 12.2hPa | 2.5V | 00:00:00 | 00:00:00 | 00:00:00 | |
| DL1XH-15 | 2026-08-31 00:28:00 | 54.36832 | 14.41181 | 198° | 13km/h | 30032m | 6.1m/s | -44.9°C | 2.6% | 12.4hPa | 2.5V | 08:30:00 | 02:08:13 | 00:00:00 | |
| AA1-15 | 2026-08-31 00:27:41 | 54.36837 | 14.41188 | 236° | 15km/h | 30019m | 5.3m/s | -44.9°C | 0% | 12.4hPa | 2.6V | 18:12:15 | 02:08:11 | 00:00:00 | |
| AA1-15 | 2026-08-31 00:27:30 | 54.36890 | 14.41237 | 179° | 16km/h | 29958m | 6.6m/s | -44.8°C | 0% | 12.6hPa | 2.5V | 18:12:15 | 02:08:00 | 00:00:00 | |
| MECKS9 | 2026-08-31 00:27:27 | 54.36899 | 14.41235 | 171° | 20km/h | 29947m | 5.1m/s | -44.9°C | 0.6% | 12.6hPa | 2.5V | 00:00:00 | 00:00:00 | 00:00:00 | |
| DL1XH-15 | 2026-08-31 00:27:26 | 54.36924 | 14.41240 | 203° | 24km/h | 29919m | 5.2m/s | -44.9°C | 2.6% | 12.6hPa | 2.5V | 08:30:00 | 02:07:53 | 00:00:00 | |
| AA1-15 | 2026-08-31 00:27:18 | 54.36956 | 14.41250 | 175° | 22km/h | 29892m | 6.2m/s | -44.9°C | 0% | 12.7hPa | 2.5V | 18:12:15 | 02:07:48 | 00:00:00 | |
| MECKS9 | 2026-08-31 00:27:15 | 54.36965 | 14.41246 | 156° | 16km/h | 29880m | 5.5m/s | -44.9°C | 0.6% | 12.7hPa | 2.5V | 00:00:00 | 00:00:00 | 00:00:00 | |
| DL1XH-15 | 2026-08-31 00:27:13 | 54.36978 | 14.41234 | 150° | 24km/h | 29862m | 5.7m/s | -45°C | 2.6% | 12.7hPa | 2.5V | 08:30:00 | 02:07:43 | 00:00:00 | |
| AA1-15 | 2026-08-31 00:27:07 | 54.37008 | 14.41219 | 179° | 18km/h | 29829m | 5.6m/s | -45.1°C | 0% | 12.8hPa | 2.6V | 18:12:15 | 02:07:37 | 00:00:00 | |
| AA1-15 | 2026-08-31 00:26:57 | 54.37048 | 14.41170 | 141° | 22km/h | 29769m | 5.2m/s | -45.4°C | 0% | 12.9hPa | 2.5V | 18:12:15 | 02:07:26 | 00:00:00 | |
| DL1XH-15 | 2026-08-31 00:26:52 | 54.37079 | 14.41129 | 119° | 13km/h | 29717m | 6.1m/s | -45.4°C | 2.6% | 13hPa | 2.5V | 08:30:00 | 02:07:17 | 00:00:00 | |
| AA1-15 | 2026-08-31 00:26:45 | 54.37081 | 14.41120 | 111° | 13km/h | 29706m | 4.5m/s | -45.4°C | 0% | 13hPa | 2.5V | 18:12:15 | 02:07:15 | 00:00:00 | |
| DL1XH-15 | 2026-08-31 00:26:41 | 54.37103 | 14.41068 | 102° | 16km/h | 29662m | 5.1m/s | -45.4°C | 2.7% | 13.1hPa | 2.5V | 08:30:00 | 02:07:07 | 00:00:00 | |
| AA1-15 | 2026-08-31 00:26:34 | 54.37108 | 14.41049 | 135° | 16km/h | 29645m | 5.4m/s | -45.4°C | 0% | 13.2hPa | 2.6V | 18:12:15 | 02:07:04 | 00:00:00 | |
| DG6HD-11 | 2026-08-31 00:26:34 | 54.37108 | 14.41049 | 135° | 16km/h | 29645m | 5.4m/s | -45.3°C | 2.6% | 13.1hPa | 2.5V | 00:00:00 | 00:00:00 | 00:00:00 | |
| DL1XH-15 | 2026-08-31 00:26:29 | 54.37132 | 14.41026 | 167° | 20km/h | 29604m | 6.3m/s | -45.5°C | 2.7% | 13.2hPa | 2.5V | 08:30:00 | 02:06:57 | 00:00:00 | |
| AA1-15 | 2026-08-31 00:26:24 | 54.37145 | 14.41022 | 165° | 13km/h | 29588m | 6.2m/s | -45.6°C | 0% | 13.3hPa | 2.6V | 18:12:15 | 02:06:54 | 00:00:00 | |
| AA1-15 | 2026-08-31 00:26:13 | 54.37169 | 14.40987 | 157° | 13km/h | 29528m | 4.8m/s | -45.8°C | 0% | 13.4hPa | 2.5V | 18:12:15 | 02:06:43 | 00:00:00 | |
| AA1-15 | 2026-08-31 00:26:02 | 54.37211 | 14.40962 | 143° | 7km/h | 29470m | 5.4m/s | -46.1°C | 0% | 13.5hPa | 2.5V | 18:12:15 | 02:06:32 | 00:00:00 | |
| SP3WXH-11 | 2026-08-31 00:25:58 | 54.37227 | 14.40954 | 159° | 26km/h | 29448m | 5.9m/s | -46.3°C | 0.6% | 13.6hPa | 2.6V | 00:00:00 | 00:00:00 | 00:00:00 | |
| DL1XH-15 | 2026-08-31 00:25:55 | 54.37267 | 14.40915 | 150° | 18km/h | 29404m | 6.2m/s | -46.8°C | 2.7% | 13.6hPa | 2.6V | 08:30:00 | 02:06:20 | 00:00:00 | |
| AA1-15 | 2026-08-31 00:25:52 | 54.37259 | 14.40922 | 158° | 18km/h | 29414m | 5.3m/s | -46.6°C | 0% | 13.6hPa | 2.5V | 18:12:15 | 02:06:22 | 00:00:00 | |
| S3001 | 2026-08-31 00:25:49 | 54.37274 | 14.40904 | 130° | 20km/h | 29391m | 5.4m/s | -47.0°C | 0.7% | 13.7hPa | 2.6V | 00:00:00 | 00:00:00 | 00:00:00 | |
| DL1XH-15 | 2026-08-31 00:25:45 | 54.37298 | 14.40847 | 124° | 26km/h | 29344m | 5m/s | -47.2°C | 2.8% | 13.8hPa | 2.6V | 08:30:00 | 02:06:10 | 00:00:00 | |
| AA1-15 | 2026-08-31 00:25:41 | 54.37294 | 14.40857 | 124° | 26km/h | 29350m | 6.4m/s | -47.2°C | 0% | 13.8hPa | 2.6V | 18:12:15 | 02:06:11 | 00:00:00 | |
| DL1XH-15 | 2026-08-31 00:25:35 | 54.37320 | 14.40779 | 100° | 18km/h | 29286m | 6.3m/s | -47.7°C | 2.9% | 13.9hPa | 2.5V | 08:30:00 | 02:06:00 | 00:00:00 | |
| AA1-15 | 2026-08-31 00:25:30 | 54.37320 | 14.40779 | 100° | 18km/h | 29286m | 6.3m/s | -47.7°C | 0% | 13.9hPa | 2.5V | 18:12:15 | 02:06:00 | 00:00:00 | |
| SP3WXH-11 | 2026-08-31 00:25:27 | 54.37322 | 14.40754 | 97° | 22km/h | 29269m | 6.6m/s | -47.9°C | 0.7% | 13.9hPa | 2.5V | 00:00:00 | 00:00:00 | 00:00:00 | |
| DL1XH-15 | 2026-08-31 00:25:25 | 54.37329 | 14.40693 | 78° | 15km/h | 29227m | 5.2m/s | -48°C | 3% | 14hPa | 2.5V | 08:30:00 | 02:05:50 | 00:00:00 | |
| AA1-15 | 2026-08-31 00:25:19 | 54.37329 | 14.40686 | 82° | 18km/h | 29221m | 6.4m/s | -48.1°C | 0% | 14hPa | 2.5V | 18:12:15 | 02:05:49 | 00:00:00 | |
| S3001 | 2026-08-31 00:25:17 | 54.37327 | 14.40665 | 88° | 27km/h | 29209m | 4.5m/s | -48.1°C | 0.7% | 14.1hPa | 2.5V | 00:00:00 | 00:00:00 | 00:00:00 | |
| DL1XH-15 | 2026-08-31 00:25:15 | 54.37330 | 14.40589 | 101° | 27km/h | 29171m | 6.4m/s | -48.1°C | 3% | 14.2hPa | 2.5V | 08:30:00 | 02:05:40 | 00:00:00 | |
| AA1-15 | 2026-08-31 00:25:08 | 54.37333 | 14.40565 | 102° | 29km/h | 29161m | 4.2m/s | -48.2°C | 0% | 14.1hPa | 2.6V | 18:12:15 | 02:05:38 | 00:00:00 | |
| AA1-15 | 2026-08-31 00:24:57 | 54.37315 | 14.40465 | 67° | 26km/h | 29097m | 5.3m/s | -48.4°C | 0% | 14.3hPa | 2.6V | 18:12:15 | 02:05:27 | 00:00:00 | |
| DL1XH-15 | 2026-08-31 00:24:57 | 54.37315 | 14.40409 | 108° | 24km/h | 29070m | 5.5m/s | -48.6°C | 3.1% | 14.4hPa | 2.5V | 08:30:00 | 02:05:22 | 00:00:00 | |
| SP3WXH-11 | 2026-08-31 00:24:56 | 54.37313 | 14.40454 | 75° | 26km/h | 29093m | 5.5m/s | -48.4°C | 0.7% | 14.3hPa | 2.5V | 00:00:00 | 00:00:00 | 00:00:00 | |
| MECKS9 | 2026-08-31 00:24:47 | 54.37317 | 14.40386 | 57° | 13km/h | 29046m | 6.4m/s | -48.7°C | 0.7% | 14.5hPa | 2.5V | 00:00:00 | 00:00:00 | 00:00:00 | |
| DL1XH-15 | 2026-08-31 00:24:46 | 54.37307 | 14.40340 | 57° | 20km/h | 29011m | 6.1m/s | -48.9°C | 3.1% | 14.5hPa | 2.5V | 08:30:00 | 02:05:12 | 00:00:00 | |
| AA1-15 | 2026-08-31 00:24:46 | 54.37315 | 14.40374 | 80° | 18km/h | 29032m | 5.2m/s | -48.7°C | 0.1% | 14.4hPa | 2.5V | 18:12:15 | 02:05:16 | 00:00:00 | |
| DL1XH-15 | 2026-08-31 00:24:36 | 54.37295 | 14.40277 | 42° | 18km/h | 28958m | 4.6m/s | -49°C | 3.1% | 14.6hPa | 2.5V | 08:30:00 | 02:05:02 | 00:00:00 | |
| AA1-15 | 2026-08-31 00:24:35 | 54.37301 | 14.40292 | 78° | 13km/h | 28973m | 6.1m/s | -49°C | 0.1% | 14.6hPa | 2.6V | 18:12:15 | 02:05:05 | 00:00:00 | |
| DG6HD-11 | 2026-08-31 00:24:34 | 54.37300 | 14.40286 | 62° | 16km/h | 28967m | 5.7m/s | -49.0°C | 3.1% | 14.6hPa | 2.5V | 00:00:00 | 00:00:00 | 00:00:00 | |
| DL1XH-15 | 2026-08-31 00:24:26 | 54.37286 | 14.40207 | 133° | 16km/h | 28900m | 6.3m/s | -49.2°C | 3.1% | 14.7hPa | 2.5V | 08:30:00 | 02:04:52 | 00:00:00 | |
| AA1-15 | 2026-08-31 00:24:25 | 54.37280 | 14.40220 | 103° | 11km/h | 28917m | 5.3m/s | -49.1°C | 0.1% | 14.7hPa | 2.6V | 18:12:15 | 02:04:55 | 00:00:00 | |
| SP3WXH-11 | 2026-08-31 00:24:25 | 54.37280 | 14.40220 | 102° | 9km/h | 28917m | 5.3m/s | -49.1°C | 0.7% | 14.7hPa | 2.6V | 00:00:00 | 00:00:00 | 00:00:00 | |
| DL1XH-15 | 2026-08-31 00:24:16 | 54.37292 | 14.40145 | 118° | 18km/h | 28841m | 6m/s | -49.6°C | 3.2% | 14.9hPa | 2.6V | 08:30:00 | 02:04:41 | 00:00:00 | |
| AA1-15 | 2026-08-31 00:24:15 | 54.37288 | 14.40171 | 72° | 11km/h | 28863m | 5.8m/s | -49.5°C | 0.1% | 14.8hPa | 2.5V | 18:12:15 | 02:04:45 | 00:00:00 | |
| AA1-15 | 2026-08-31 00:24:04 | 54.37308 | 14.40107 | 117° | 22km/h | 28801m | 5.2m/s | -49.7°C | 0.2% | 15hPa | 2.5V | 18:12:15 | 02:04:34 | 00:00:00 | |
| AA1-15 | 2026-08-31 00:23:53 | 54.37323 | 14.40036 | 129° | 15km/h | 28736m | 4.9m/s | -49.8°C | 0.2% | 15.1hPa | 2.5V | 18:12:15 | 02:04:23 | 00:00:00 | |
| DL1XH-15 | 2026-08-31 00:23:48 | 54.37348 | 14.39991 | 122° | 16km/h | 28692m | 6.2m/s | -49.7°C | 3.3% | 15.2hPa | 2.5V | 08:30:00 | 02:04:15 | 00:00:00 | |
| AA1-15 | 2026-08-31 00:23:42 | 54.37355 | 14.39968 | 116° | 22km/h | 28674m | 5.1m/s | -49.6°C | 0.3% | 15.3hPa | 2.6V | 18:12:15 | 02:04:12 | 00:00:00 | |
| AA1-15 | 2026-08-31 00:23:31 | 54.37384 | 14.39896 | 118° | 18km/h | 28613m | 6.3m/s | -49.2°C | 0.2% | 15.4hPa | 2.5V | 18:12:15 | 02:04:01 | 00:00:00 | |
| DL1XH-15 | 2026-08-31 00:23:27 | 54.37408 | 14.39823 | 128° | 26km/h | 28567m | 6.5m/s | -49°C | 3.2% | 15.5hPa | 2.6V | 08:30:00 | 02:03:53 | 00:00:00 | |
| AA1-15 | 2026-08-31 00:23:21 | 54.37420 | 14.39795 | 129° | 26km/h | 28552m | 6.1m/s | -49°C | 0.1% | 15.6hPa | 2.5V | 18:12:15 | 02:03:50 | 00:00:00 | |
| DL1XH-15 | 2026-08-31 00:23:17 | 54.37448 | 14.39726 | 126° | 35km/h | 28513m | 5.5m/s | -49.1°C | 3.2% | 15.7hPa | 2.6V | 08:30:00 | 02:03:43 | 00:00:00 | |
| AA1-15 | 2026-08-31 00:23:10 | 54.37463 | 14.39696 | 134° | 26km/h | 28495m | 5m/s | -49.1°C | 0.2% | 15.7hPa | 2.5V | 18:12:15 | 02:03:40 | 00:00:00 | |
| AA1-15 | 2026-08-31 00:23:00 | 54.37491 | 14.39582 | 114° | 38km/h | 28435m | 4.8m/s | -49.1°C | 0.2% | 15.8hPa | 2.5V | 18:12:15 | 02:03:29 | 00:00:00 | |
| DL1XH-15 | 2026-08-31 00:22:52 | 54.37506 | 14.39511 | 83° | 24km/h | 28398m | 5.8m/s | -48.9°C | 3.2% | 15.9hPa | 2.5V | 08:30:00 | 02:03:22 | 00:00:00 | |
| AA1-15 | 2026-08-31 00:22:50 | 54.37505 | 14.39488 | 83° | 27km/h | 28388m | 4.5m/s | -48.9°C | 0.2% | 15.9hPa | 2.6V | 18:12:15 | 02:03:20 | 00:00:00 | |
| AA1-15 | 2026-08-31 00:22:39 | 54.37520 | 14.39372 | 65° | 22km/h | 28324m | 5.4m/s | -48.6°C | 0.1% | 16.1hPa | 2.5V | 18:12:15 | 02:03:09 | 00:00:00 | |
| DL1XH-15 | 2026-08-31 00:22:32 | 54.37511 | 14.39310 | 112° | 18km/h | 28289m | 6.7m/s | -48.6°C | 3.1% | 16.2hPa | 2.5V | 08:30:00 | 02:03:02 | 00:00:00 | |
| AA1-15 | 2026-08-31 00:22:29 | 54.37522 | 14.39280 | 103° | 22km/h | 28262m | 6.3m/s | -48.6°C | 0.1% | 16.2hPa | 2.6V | 18:12:15 | 02:02:57 | 00:00:00 | |
| DL1XH-15 | 2026-08-31 00:22:27 | 54.37519 | 14.39231 | 62° | 15km/h | 28233m | 5.8m/s | -48.5°C | 3% | 16.3hPa | 2.6V | 08:30:00 | 02:02:52 | 00:00:00 | |
| AA1-15 | 2026-08-31 00:22:17 | 54.37513 | 14.39207 | 109° | 5km/h | 28200m | 6.3m/s | -48.5°C | 0% | 16.4hPa | 2.5V | 18:12:15 | 02:02:46 | 00:00:00 | |
| DL1XH-15 | 2026-08-31 00:22:12 | 54.37519 | 14.39192 | 119° | 20km/h | 28178m | 5.6m/s | -48.6°C | 3% | 16.5hPa | 2.6V | 08:30:00 | 02:02:42 | 00:00:00 | |
| AA1-15 | 2026-08-31 00:22:06 | 54.37521 | 14.39154 | 48° | 11km/h | 28140m | 5.7m/s | -48.6°C | 0% | 16.6hPa | 2.6V | 18:12:15 | 02:02:35 | 00:00:00 | |
| DG6HD-11 | 2026-08-31 00:22:04 | 54.37519 | 14.39151 | 48° | 15km/h | 28136m | 4.4m/s | -48.6°C | 3.0% | 16.5hPa | 2.5V | 00:00:00 | 00:00:00 | 00:00:00 | |
| DL1XH-15 | 2026-08-31 00:21:57 | 54.37508 | 14.39094 | 36° | 18km/h | 28064m | 5m/s | -49.2°C | 3.1% | 16.8hPa | 2.5V | 08:30:00 | 02:02:21 | 00:00:00 | |
| AA1-15 | 2026-08-31 00:21:55 | 54.37516 | 14.39116 | 93° | 18km/h | 28087m | 5.3m/s | -49°C | 0.1% | 16.7hPa | 2.6V | 18:12:15 | 02:02:25 | 00:00:00 | |
| AA1-15 | 2026-08-31 00:21:45 | 54.37511 | 14.39073 | 169° | 13km/h | 28034m | 4.5m/s | -49.5°C | 0.1% | 16.8hPa | 2.5V | 18:12:15 | 02:02:15 | 00:00:00 | |
| DL1XH-15 | 2026-08-31 00:21:41 | 54.37508 | 14.39019 | 62° | 29km/h | 27998m | 5.2m/s | -49.6°C | 3.2% | 16.9hPa | 2.5V | 08:30:00 | 02:02:08 | 00:00:00 | |
| AA1-15 | 2026-08-31 00:21:34 | 54.37498 | 14.38993 | 112° | 7km/h | 27970m | 6.2m/s | -49.8°C | 0.1% | 17hPa | 2.5V | 18:12:15 | 02:02:03 | 00:00:00 | |
| DL1XH-15 | 2026-08-31 00:21:26 | 54.37495 | 14.38948 | 72° | 29km/h | 27925m | 5.4m/s | -49.9°C | 3.3% | 17.1hPa | 2.5V | 08:30:00 | 02:01:55 | 00:00:00 | |
| AA1-15 | 2026-08-31 00:21:23 | 54.37486 | 14.38918 | 61° | 16km/h | 27908m | 5.3m/s | -50°C | 0.3% | 17.2hPa | 2.6V | 18:12:15 | 02:01:52 | 00:00:00 | |
| SP3WXH-11 | 2026-08-31 00:21:19 | 54.37486 | 14.38905 | 137° | 7km/h | 27892m | 6.1m/s | -50.0°C | 0.8% | 17.2hPa | 2.6V | 00:00:00 | 00:00:00 | 00:00:00 | |
| DL1XH-15 | 2026-08-31 00:21:16 | 54.37494 | 14.38897 | 73° | 9km/h | 27866m | 4.9m/s | -50°C | 3.2% | 17.3hPa | 2.6V | 08:30:00 | 02:01:44 | 00:00:00 | |
| AA1-15 | 2026-08-31 00:21:11 | 54.37494 | 14.38875 | 93° | 24km/h | 27849m | 4.9m/s | -50.1°C | 0.2% | 17.3hPa | 2.5V | 18:12:15 | 02:01:41 | 00:00:00 | |
| AA1-15 | 2026-08-31 00:21:00 | 54.37472 | 14.38840 | 7° | 9km/h | 27789m | 5.1m/s | -50.3°C | 0.3% | 17.5hPa | 2.5V | 18:12:15 | 02:01:30 | 00:00:00 | |
| AA1-15 | 2026-08-31 00:20:49 | 54.37447 | 14.38797 | 49° | 5km/h | 27731m | 6.1m/s | -50.1°C | 0.3% | 17.6hPa | 2.5V | 18:12:15 | 02:01:19 | 00:00:00 | |
| SP3WXH-11 | 2026-08-31 00:20:48 | 54.37445 | 14.38792 | 56° | 9km/h | 27720m | 5.2m/s | -50.1°C | 0.8% | 17.7hPa | 2.5V | 00:00:00 | 00:00:00 | 00:00:00 | |
| AA1-15 | 2026-08-31 00:20:38 | 54.37421 | 14.38746 | 30° | 16km/h | 27666m | 6.3m/s | -50°C | 0.3% | 17.8hPa | 2.5V | 18:12:15 | 02:01:08 | 00:00:00 | |
| AA1-15 | 2026-08-31 00:20:28 | 54.37396 | 14.38689 | 70° | 22km/h | 27612m | 6.3m/s | -49.9°C | 0.3% | 18hPa | 2.5V | 18:12:15 | 02:00:58 | 00:00:00 | |
| AA1-15 | 2026-08-31 00:20:17 | 54.37367 | 14.38661 | 20° | 11km/h | 27551m | 6.2m/s | -49.8°C | 0.2% | 18.1hPa | 2.5V | 18:12:15 | 02:00:47 | 00:00:00 | |
| AA1-15 | 2026-08-31 00:20:07 | 54.37334 | 14.38632 | 348° | 20km/h | 27497m | 4.8m/s | -50.1°C | 0.2% | 18.3hPa | 2.6V | 18:12:15 | 02:00:37 | 00:00:00 | |
| AA1-15 | 2026-08-31 00:19:56 | 54.37300 | 14.38594 | 45° | 13km/h | 27435m | 5.4m/s | -50°C | 0.2% | 18.4hPa | 2.5V | 18:12:15 | 02:00:26 | 00:00:00 | |
| AA1-15 | 2026-08-31 00:19:46 | 54.37261 | 14.38595 | 43° | 13km/h | 27373m | 6.5m/s | -50.1°C | 0.2% | 18.7hPa | 2.6V | 18:12:15 | 02:00:15 | 00:00:00 | |
| AA1-15 | 2026-08-31 00:19:35 | 54.37221 | 14.38623 | 322° | 26km/h | 27314m | 6.2m/s | -50.6°C | 0.2% | 18.8hPa | 2.6V | 18:12:15 | 02:00:05 | 00:00:00 | |
| AA1-15 | 2026-08-31 00:19:24 | 54.37177 | 14.38666 | 296° | 24km/h | 27253m | 6.5m/s | -50.8°C | 0.3% | 19hPa | 2.6V | 18:12:15 | 01:59:54 | 00:00:00 | |
| AA1-15 | 2026-08-31 00:19:14 | 54.37160 | 14.38731 | 277° | 9km/h | 27199m | 5m/s | -50.7°C | 0.3% | 19.1hPa | 2.5V | 18:12:15 | 01:59:44 | 00:00:00 | |
| AA1-15 | 2026-08-31 00:19:03 | 54.37149 | 14.38789 | 287° | 13km/h | 27137m | 5.7m/s | -50.6°C | 0.3% | 19.3hPa | 2.5V | 18:12:15 | 01:59:33 | 00:00:00 | |
| AA1-15 | 2026-08-31 00:18:53 | 54.37146 | 14.38833 | 255° | 9km/h | 27078m | 4.9m/s | -50.7°C | 0.3% | 19.5hPa | 2.6V | 18:12:15 | 01:59:23 | 00:00:00 | |
| DJ2DS-15 | 2026-08-31 00:18:52 | 54.37149 | 14.38851 | 248° | 7km/h | 27052m | 4.3m/s | -50.8°C | 0.8% | 19.6hPa | 2.6V | 00:00:00 | 00:00:00 | 00:00:00 | |
| AA1-15 | 2026-08-31 00:18:43 | 54.37158 | 14.38869 | 233° | 9km/h | 27023m | 6.6m/s | -50.9°C | 0.3% | 19.7hPa | 2.6V | 18:12:15 | 01:59:13 | 00:00:00 | |
| AA1-15 | 2026-08-31 00:18:33 | 54.37158 | 14.38898 | 279° | 5km/h | 26964m | 5.8m/s | -50.9°C | 0.3% | 19.9hPa | 2.5V | 18:12:15 | 01:59:02 | 00:00:00 | |
| AA1-15 | 2026-08-31 00:18:22 | 54.37161 | 14.38900 | 305° | 13km/h | 26900m | 6.5m/s | -51°C | 0.4% | 20.1hPa | 2.6V | 18:12:15 | 01:58:51 | 00:00:00 | |
| AA1-15 | 2026-08-31 00:18:10 | 54.37161 | 14.38926 | 323° | 2km/h | 26839m | 6.2m/s | -51°C | 0.4% | 20.2hPa | 2.5V | 18:12:15 | 01:58:40 | 00:00:00 | |
| AA1-15 | 2026-08-31 00:17:59 | 54.37171 | 14.38935 | 144° | 15km/h | 26775m | 5.2m/s | -50.9°C | 0.3% | 20.4hPa | 2.5V | 18:12:15 | 01:58:29 | 00:00:00 | |
| AA1-15 | 2026-08-31 00:17:49 | 54.37154 | 14.38940 | 289° | 2km/h | 26719m | 6m/s | -51°C | 0.3% | 20.6hPa | 2.5V | 18:12:15 | 01:58:19 | 00:00:00 | |
| AA1-15 | 2026-08-31 00:17:38 | 54.37153 | 14.38944 | 327° | 9km/h | 26656m | 6m/s | -50.8°C | 0.3% | 20.8hPa | 2.5V | 18:12:15 | 01:58:08 | 00:00:00 | |
| AA1-15 | 2026-08-31 00:17:27 | 54.37158 | 14.38947 | 6° | 5km/h | 26594m | 5.5m/s | -50.8°C | 0.4% | 21hPa | 2.5V | 18:12:15 | 01:57:57 | 00:00:00 | |
| AA1-15 | 2026-08-31 00:17:17 | 54.37137 | 14.38972 | 16° | 4km/h | 26540m | 5.2m/s | -50.9°C | 0.3% | 21.2hPa | 2.6V | 18:12:15 | 01:57:47 | 00:00:00 | |
| AA1-15 | 2026-08-31 00:17:07 | 54.37107 | 14.38968 | 329° | 18km/h | 26480m | 5.8m/s | -51.1°C | 0.3% | 21.4hPa | 2.6V | 18:12:15 | 01:57:36 | 00:00:00 | |
| AA1-15 | 2026-08-31 00:16:56 | 54.37083 | 14.38977 | 18° | 5km/h | 26422m | 6.3m/s | -51.1°C | 0.3% | 21.6hPa | 2.5V | 18:12:15 | 01:57:26 | 00:00:00 | |
| AA1-15 | 2026-08-31 00:16:45 | 54.37058 | 14.38972 | 4° | 15km/h | 26365m | 5.9m/s | -51.4°C | 0.4% | 21.8hPa | 2.5V | 18:12:15 | 01:57:15 | 00:00:00 | |
| AA1-15 | 2026-08-31 00:16:34 | 54.37039 | 14.39002 | 211° | 9km/h | 26303m | 6.2m/s | -51.5°C | 0.3% | 22hPa | 2.5V | 18:12:15 | 01:57:04 | 00:00:00 | |
| AA1-15 | 2026-08-31 00:16:23 | 54.37030 | 14.39012 | 238° | 11km/h | 26241m | 5.8m/s | -51.5°C | 0.4% | 22.2hPa | 2.5V | 18:12:15 | 01:56:53 | 00:00:00 | |
| AA1-15 | 2026-08-31 00:16:12 | 54.37050 | 14.39013 | 92° | 7km/h | 26181m | 5.2m/s | -51.4°C | 0.3% | 22.4hPa | 2.5V | 18:12:15 | 01:56:42 | 00:00:00 | |
| AA1-15 | 2026-08-31 00:16:01 | 54.37068 | 14.39000 | 134° | 11km/h | 26121m | 4.7m/s | -51.5°C | 0.3% | 22.6hPa | 2.5V | 18:12:15 | 01:56:31 | 00:00:00 | |
| AA1-15 | 2026-08-31 00:15:50 | 54.37064 | 14.38988 | 144° | 7km/h | 26063m | 4.9m/s | -51.7°C | 0.4% | 22.8hPa | 2.5V | 18:12:15 | 01:56:20 | 00:00:00 | |
| AA1-15 | 2026-08-31 00:15:39 | 54.37079 | 14.38989 | 287° | 9km/h | 26002m | 6.2m/s | -51.6°C | 0.4% | 23hPa | 2.5V | 18:12:15 | 01:56:09 | 00:00:00 | |
| AA1-15 | 2026-08-31 00:15:28 | 54.37098 | 14.38973 | 79° | 2km/h | 25944m | 6.7m/s | -51.7°C | 0.4% | 23.3hPa | 2.5V | 18:12:15 | 01:55:58 | 00:00:00 | |
| AA1-15 | 2026-08-31 00:15:18 | 54.37098 | 14.38988 | 159° | 9km/h | 25887m | 6.6m/s | -51.7°C | 0.3% | 23.4hPa | 2.5V | 18:12:15 | 01:55:48 | 00:00:00 | |
| AA1-15 | 2026-08-31 00:15:07 | 54.37100 | 14.38978 | 295° | 5km/h | 25829m | 6.1m/s | -51.8°C | 0.4% | 23.6hPa | 2.6V | 18:12:15 | 01:55:37 | 00:00:00 | |
| AA1-15 | 2026-08-31 00:14:57 | 54.37104 | 14.38977 | 40° | 2km/h | 25774m | 6.2m/s | -52°C | 0.4% | 23.9hPa | 2.5V | 18:12:15 | 01:55:27 | 00:00:00 | |
| AA1-15 | 2026-08-31 00:14:46 | 54.37119 | 14.38971 | 152° | 5km/h | 25714m | 4.5m/s | -51.9°C | 0.4% | 24.1hPa | 2.5V | 18:12:15 | 01:55:16 | 00:00:00 | |
| AA1-15 | 2026-08-31 00:14:35 | 54.37126 | 14.38953 | 116° | 15km/h | 25657m | 4.5m/s | -52.1°C | 0.4% | 24.3hPa | 2.5V | 18:12:15 | 01:55:05 | 00:00:00 | |
| AA1-15 | 2026-08-31 00:14:25 | 54.37143 | 14.38906 | 96° | 20km/h | 25596m | 5.6m/s | -52.1°C | 0.4% | 24.5hPa | 2.5V | 18:12:15 | 01:54:54 | 00:00:00 | |
| AA1-15 | 2026-08-31 00:14:13 | 54.37153 | 14.38827 | 89° | 9km/h | 25538m | 4.5m/s | -52.2°C | 0.4% | 24.8hPa | 2.6V | 18:12:15 | 01:54:43 | 00:00:00 | |
| AA1-15 | 2026-08-31 00:14:02 | 54.37141 | 14.38739 | 69° | 18km/h | 25479m | 6.2m/s | -52.4°C | 0.4% | 25hPa | 2.6V | 18:12:15 | 01:54:32 | 00:00:00 | |
| AA1-15 | 2026-08-31 00:13:51 | 54.37119 | 14.38660 | 63° | 26km/h | 25420m | 4.5m/s | -52.5°C | 0.4% | 25.2hPa | 2.6V | 18:12:15 | 01:54:21 | 00:00:00 | |
| AA1-15 | 2026-08-31 00:13:40 | 54.37084 | 14.38604 | 34° | 16km/h | 25362m | 5.5m/s | -52.5°C | 0.5% | 25.4hPa | 2.6V | 18:12:15 | 01:54:10 | 00:00:00 | |
| AA1-15 | 2026-08-31 00:13:30 | 54.37032 | 14.38576 | 9° | 15km/h | 25302m | 6.3m/s | -52.8°C | 0.5% | 25.6hPa | 2.6V | 18:12:15 | 01:53:59 | 00:00:00 | |
| AA1-15 | 2026-08-31 00:13:19 | 54.36981 | 14.38586 | 340° | 27km/h | 25247m | 5m/s | -52.7°C | 0.5% | 25.9hPa | 2.5V | 18:12:15 | 01:53:49 | 00:00:00 | |
| AA1-15 | 2026-08-31 00:13:08 | 54.36941 | 14.38620 | 311° | 16km/h | 25190m | 5.2m/s | -52.7°C | 0.5% | 26.1hPa | 2.5V | 18:12:15 | 01:53:38 | 00:00:00 | |
| AA1-15 | 2026-08-31 00:12:58 | 54.36906 | 14.38695 | 294° | 16km/h | 25133m | 4.1m/s | -52.8°C | 0.6% | 26.4hPa | 2.5V | 18:12:15 | 01:53:27 | 00:00:00 | |
| AA1-15 | 2026-08-31 00:12:46 | 54.36885 | 14.38766 | 274° | 22km/h | 25078m | 5.1m/s | -52.7°C | 0.5% | 26.6hPa | 2.5V | 18:12:15 | 01:53:16 | 00:00:00 | |
| AA1-15 | 2026-08-31 00:12:35 | 54.36882 | 14.38824 | 289° | 11km/h | 25019m | 4.6m/s | -52.5°C | 0.4% | 26.8hPa | 2.5V | 18:12:15 | 01:53:05 | 00:00:00 | |
| AA1-15 | 2026-08-31 00:12:24 | 54.36888 | 14.38875 | 205° | 9km/h | 24961m | 4.7m/s | -52.6°C | 0.5% | 27.1hPa | 2.5V | 18:12:15 | 01:52:54 | 00:00:00 | |
| AA1-15 | 2026-08-31 00:12:13 | 54.36902 | 14.38909 | 197° | 16km/h | 24901m | 5.2m/s | -52.6°C | 0.5% | 27.3hPa | 2.5V | 18:12:15 | 01:52:43 | 00:00:00 | |
| AA1-15 | 2026-08-31 00:12:02 | 54.36921 | 14.38935 | 264° | 7km/h | 24843m | 4.8m/s | -52.5°C | 0.5% | 27.6hPa | 2.5V | 18:12:15 | 01:52:32 | 00:00:00 | |
| AA1-15 | 2026-08-31 00:11:52 | 54.36942 | 14.38955 | 215° | 7km/h | 24791m | 5m/s | -52.3°C | 0.4% | 27.8hPa | 2.6V | 18:12:15 | 01:52:22 | 00:00:00 | |
| AA1-15 | 2026-08-31 00:11:42 | 54.36956 | 14.38979 | 181° | 13km/h | 24731m | 5m/s | -52.4°C | 0.5% | 28.1hPa | 2.5V | 18:12:15 | 01:52:11 | 00:00:00 | |
| AA1-15 | 2026-08-31 00:11:30 | 54.36960 | 14.38988 | 209° | 7km/h | 24674m | 5.5m/s | -52.4°C | 0.5% | 28.3hPa | 2.6V | 18:12:15 | 01:52:00 | 00:00:00 | |
| AA1-15 | 2026-08-31 00:11:20 | 54.36961 | 14.38981 | 213° | 5km/h | 24616m | 4.5m/s | -52.5°C | 0.5% | 28.6hPa | 2.6V | 18:12:15 | 01:51:49 | 00:00:00 | |
| AA1-15 | 2026-08-31 00:11:08 | 54.36971 | 14.38966 | 59° | 9km/h | 24556m | 6m/s | -52.4°C | 0.5% | 28.8hPa | 2.5V | 18:12:15 | 01:51:38 | 00:00:00 | |
| AA1-15 | 2026-08-31 00:10:57 | 54.36975 | 14.38950 | 21° | 5km/h | 24497m | 5.4m/s | -52.7°C | 0.5% | 29.1hPa | 2.6V | 18:12:15 | 01:51:27 | 00:00:00 | |
| AA1-15 | 2026-08-31 00:10:46 | 54.36963 | 14.38921 | 191° | 7km/h | 24436m | 5.1m/s | -52.8°C | 0.5% | 29.4hPa | 2.6V | 18:12:15 | 01:51:16 | 00:00:00 | |
| AA1-15 | 2026-08-31 00:10:35 | 54.36948 | 14.38890 | 104° | 7km/h | 24377m | 5.5m/s | -52.8°C | 0.5% | 29.6hPa | 2.6V | 18:12:15 | 01:51:05 | 00:00:00 | |
| AA1-15 | 2026-08-31 00:10:25 | 54.36938 | 14.38883 | 53° | 16km/h | 24318m | 5.6m/s | -52.7°C | 0.5% | 29.9hPa | 2.6V | 18:12:15 | 01:50:54 | 00:00:00 | |
| AA1-15 | 2026-08-31 00:10:15 | 54.36926 | 14.38855 | 198° | 4km/h | 24264m | 5.5m/s | -52.7°C | 0.6% | 30.1hPa | 2.6V | 18:12:15 | 01:50:44 | 00:00:00 | |
| AA1-15 | 2026-08-31 00:10:04 | 54.36909 | 14.38840 | 14° | 13km/h | 24211m | 4.7m/s | -52.7°C | 0.5% | 30.4hPa | 2.6V | 18:12:15 | 01:50:34 | 00:00:00 | |
| AA1-15 | 2026-08-31 00:09:53 | 54.36893 | 14.38826 | 25° | 16km/h | 24152m | 6.1m/s | -52.7°C | 0.5% | 30.7hPa | 2.5V | 18:12:15 | 01:50:23 | 00:00:00 | |
| DJ2DS-15 | 2026-08-31 00:09:51 | 54.36880 | 14.38817 | 15° | 15km/h | 24137m | 5.2m/s | -52.7°C | 1.0% | 30.8hPa | 2.5V | 00:00:00 | 00:00:00 | 00:00:00 | |
| AA1-15 | 2026-08-31 00:09:42 | 54.36868 | 14.38821 | 352° | 4km/h | 24094m | 6.4m/s | -52.8°C | 0.5% | 30.9hPa | 2.5V | 18:12:15 | 01:50:12 | 00:00:00 | |
| AA1-15 | 2026-08-31 00:09:31 | 54.36836 | 14.38852 | 301° | 7km/h | 24035m | 4.8m/s | -52.7°C | 0.5% | 31.3hPa | 2.6V | 18:12:15 | 01:50:01 | 00:00:00 | |
| AA1-15 | 2026-08-31 00:09:20 | 54.36827 | 14.38886 | 295° | 16km/h | 23976m | 5m/s | -53.4°C | 0.5% | 31.5hPa | 2.6V | 18:12:15 | 01:49:50 | 00:00:00 | |
| AA1-15 | 2026-08-31 00:09:09 | 54.36832 | 14.38926 | 229° | 7km/h | 23918m | 5.9m/s | -53.6°C | 0.6% | 31.9hPa | 2.6V | 18:12:15 | 01:49:39 | 00:00:00 | |
| AA1-15 | 2026-08-31 00:08:58 | 54.36847 | 14.38941 | 166° | 11km/h | 23859m | 5m/s | -53.5°C | 0.6% | 32.1hPa | 2.6V | 18:12:15 | 01:49:28 | 00:00:00 | |
| AA1-15 | 2026-08-31 00:08:48 | 54.36880 | 14.38940 | 153° | 9km/h | 23801m | 5.2m/s | -53.6°C | 0.6% | 32.4hPa | 2.6V | 18:12:15 | 01:49:17 | 00:00:00 | |
| AA1-15 | 2026-08-31 00:08:37 | 54.36914 | 14.38910 | 173° | 15km/h | 23744m | 6m/s | -53.4°C | 0.6% | 32.7hPa | 2.6V | 18:12:15 | 01:49:06 | 00:00:00 | |
| AA1-15 | 2026-08-31 00:08:25 | 54.36931 | 14.38881 | 124° | 9km/h | 23686m | 5m/s | -53.1°C | 0.5% | 33hPa | 2.6V | 18:12:15 | 01:48:55 | 00:00:00 | |
| AA1-15 | 2026-08-31 00:08:14 | 54.36947 | 14.38846 | 86° | 11km/h | 23626m | 6.5m/s | -53.4°C | 0.5% | 33.3hPa | 2.6V | 18:12:15 | 01:48:44 | 00:00:00 | |
| AA1-15 | 2026-08-31 00:08:04 | 54.36952 | 14.38784 | 99° | 15km/h | 23567m | 5.8m/s | -53.5°C | 0.6% | 33.6hPa | 2.6V | 18:12:15 | 01:48:33 | 00:00:00 | |
| AA1-15 | 2026-08-31 00:07:52 | 54.36942 | 14.38729 | 99° | 11km/h | 23510m | 4.9m/s | -53.7°C | 0.5% | 33.9hPa | 2.6V | 18:12:15 | 01:48:22 | 00:00:00 | |
| SP3WXH-11 | 2026-08-31 00:07:52 | 54.36942 | 14.38729 | 99° | 11km/h | 23510m | 4.9m/s | -53.7°C | 1.0% | 33.9hPa | 2.6V | 00:00:00 | 00:00:00 | 00:00:00 | |
| AA1-15 | 2026-08-31 00:07:42 | 54.36929 | 14.38702 | 16° | 11km/h | 23456m | 5.1m/s | -54.2°C | 0.6% | 34.2hPa | 2.6V | 18:12:15 | 01:48:12 | 00:00:00 | |
| AA1-15 | 2026-08-31 00:07:31 | 54.36916 | 14.38697 | 74° | 2km/h | 23399m | 6.1m/s | -54.2°C | 0.7% | 34.5hPa | 2.6V | 18:12:15 | 01:48:01 | 00:00:00 | |
| AA1-15 | 2026-08-31 00:07:20 | 54.36904 | 14.38672 | 75° | 7km/h | 23339m | 4.8m/s | -54.2°C | 0.7% | 34.9hPa | 2.6V | 18:12:15 | 01:47:50 | 00:00:00 | |
| AA1-15 | 2026-08-31 00:07:10 | 54.36899 | 14.38642 | 67° | 5km/h | 23286m | 5m/s | -54.7°C | 0.8% | 35.1hPa | 2.6V | 18:12:15 | 01:47:40 | 00:00:00 | |
| AA1-15 | 2026-08-31 00:06:59 | 54.36887 | 14.38600 | 62° | 11km/h | 23225m | 5.4m/s | -54.6°C | 0.8% | 35.4hPa | 2.6V | 18:12:15 | 01:47:29 | 00:00:00 | |
| AA1-15 | 2026-08-31 00:06:48 | 54.36886 | 14.38550 | 80° | 11km/h | 23167m | 4.4m/s | -54.3°C | 0.7% | 35.8hPa | 2.6V | 18:12:15 | 01:47:18 | 00:00:00 | |
| AA1-15 | 2026-08-31 00:06:38 | 54.36873 | 14.38514 | 91° | 7km/h | 23115m | 5m/s | -54°C | 0.7% | 36.1hPa | 2.6V | 18:12:15 | 01:47:08 | 00:00:00 | |
| AA1-15 | 2026-08-31 00:06:28 | 54.36855 | 14.38482 | 17° | 11km/h | 23060m | 6m/s | -53.8°C | 0.6% | 36.4hPa | 2.6V | 18:12:15 | 01:46:58 | 00:00:00 | |
| AA1-15 | 2026-08-31 00:06:18 | 54.36846 | 14.38466 | 65° | 11km/h | 22999m | 5.3m/s | -53.6°C | 0.6% | 36.7hPa | 2.5V | 18:12:15 | 01:46:47 | 00:00:00 | |
| AA1-15 | 2026-08-31 00:06:06 | 54.36849 | 14.38432 | 156° | 0km/h | 22937m | 4.6m/s | -54°C | 0.6% | 37.1hPa | 2.5V | 18:12:15 | 01:46:36 | 00:00:00 | |
| AA1-15 | 2026-08-31 00:05:55 | 54.36826 | 14.38415 | 90° | 4km/h | 22880m | 5.6m/s | -54.2°C | 0.7% | 37.4hPa | 2.6V | 18:12:15 | 01:46:25 | 00:00:00 | |
| SP3WXH-11 | 2026-08-31 00:05:48 | 54.36819 | 14.38422 | 344° | 5km/h | 22848m | 5.5m/s | -54.3°C | 1.1% | 37.6hPa | 2.6V | 00:00:00 | 00:00:00 | 00:00:00 | |
| AA1-15 | 2026-08-31 00:05:44 | 54.36812 | 14.38421 | 16° | 9km/h | 22826m | 5.4m/s | -54.3°C | 0.7% | 37.7hPa | 2.6V | 18:12:15 | 01:46:14 | 00:00:00 | |
| AA1-15 | 2026-08-31 00:05:34 | 54.36775 | 14.38422 | 321° | 16km/h | 22771m | 5.8m/s | -54.5°C | 0.7% | 38hPa | 2.6V | 18:12:15 | 01:46:04 | 00:00:00 | |
| AA1-15 | 2026-08-31 00:05:24 | 54.36741 | 14.38419 | 16° | 13km/h | 22712m | 5.1m/s | -54.5°C | 0.7% | 38.4hPa | 2.6V | 18:12:15 | 01:45:53 | 00:00:00 | |
| DL4BBY-15 | 2026-08-31 00:05:24 | 54.36744 | 14.38421 | 20° | 11km/h | 22719m | 6.3m/s | -54.3°C | 0% | 0hPa | 2.6V | 00:00:00 | 00:00:00 | 00:00:00 | |
| DO2SHX-10 | 2026-08-31 00:05:22 | 54.36738 | 14.38418 | 2° | 13km/h | 22707m | 4.7m/s | 0°C | 0% | 0hPa | 2.6V | 00:00:00 | 01:45:52 | 08:30:00 | |
| AA1-15 | 2026-08-31 00:05:13 | 54.36702 | 14.38374 | 55° | 11km/h | 22599m | 4.9m/s | -54.6°C | 0.7% | 39.1hPa | 2.6V | 18:12:15 | 01:45:31 | 00:00:00 | |
| AA1-15 | 2026-08-31 00:05:07 | 54.36701 | 14.38369 | 62° | 16km/h | 22594m | 5.9m/s | -54.6°C | 0.8% | 39.1hPa | 2.6V | 18:12:15 | 01:45:30 | 00:00:00 | |
| AA1-15 | 2026-08-31 00:04:50 | 54.36682 | 14.38304 | 64° | 13km/h | 22541m | 5.4m/s | -54.4°C | 0.7% | 39.5hPa | 2.6V | 18:12:15 | 01:45:20 | 00:00:00 | |
| SP3WXH-11 | 2026-08-31 00:04:47 | 54.36680 | 14.38282 | 94° | 13km/h | 22519m | 5.3m/s | -54.3°C | 1.1% | 39.6hPa | 2.6V | 00:00:00 | 00:00:00 | 00:00:00 | |
| AA1-15 | 2026-08-31 00:04:39 | 54.36679 | 14.38238 | 63° | 13km/h | 22476m | 4.3m/s | -54.3°C | 0.7% | 39.9hPa | 2.6V | 18:12:15 | 01:45:08 | 00:00:00 | |
| AA1-15 | 2026-08-31 00:04:29 | 54.36681 | 14.38198 | 127° | 13km/h | 22431m | 4.2m/s | -54.3°C | 0.7% | 40.1hPa | 2.6V | 18:12:15 | 01:44:59 | 00:00:00 | |
| AA1-15 | 2026-08-31 00:04:19 | 54.36694 | 14.38150 | 96° | 9km/h | 22377m | 5.4m/s | -54°C | 0.7% | 40.5hPa | 2.6V | 18:12:15 | 01:44:48 | 00:00:00 | |
| AA1-15 | 2026-08-31 00:04:08 | 54.36711 | 14.38081 | 118° | 16km/h | 22325m | 4.4m/s | -54.1°C | 0.6% | 40.8hPa | 2.6V | 18:12:15 | 01:44:38 | 00:00:00 | |
| AA1-15 | 2026-08-31 00:03:57 | 54.36724 | 14.38016 | 113° | 24km/h | 22269m | 5.6m/s | -54.1°C | 0.7% | 41.1hPa | 2.5V | 18:12:15 | 01:44:27 | 00:00:00 | |
| AA1-15 | 2026-08-31 00:03:47 | 54.36729 | 14.37938 | 87° | 13km/h | 22222m | 5.9m/s | -54°C | 0.6% | 41.5hPa | 2.5V | 18:12:15 | 01:44:17 | 00:00:00 | |
| AA1-15 | 2026-08-31 00:03:36 | 54.36725 | 14.37859 | 73° | 13km/h | 22165m | 4.9m/s | -53.8°C | 0.7% | 41.8hPa | 2.6V | 18:12:15 | 01:44:06 | 00:00:00 | |
| AA1-15 | 2026-08-31 00:03:25 | 54.36718 | 14.37786 | 64° | 18km/h | 22116m | 5.5m/s | -53.6°C | 0.6% | 42.2hPa | 2.6V | 18:12:15 | 01:43:55 | 00:00:00 | |
| AA1-15 | 2026-08-31 00:03:14 | 54.36684 | 14.37730 | 39° | 18km/h | 22058m | 5.7m/s | -53.5°C | 0.7% | 42.5hPa | 2.6V | 18:12:15 | 01:43:44 | 00:00:00 | |
| AA1-15 | 2026-08-31 00:03:04 | 54.36650 | 14.37683 | 31° | 18km/h | 22008m | 5.7m/s | -53.6°C | 0.7% | 42.9hPa | 2.6V | 18:12:15 | 01:43:34 | 00:00:00 | |
| AA1-15 | 2026-08-31 00:02:53 | 54.36586 | 14.37666 | 18° | 22km/h | 21946m | 5.2m/s | -53.5°C | 0.6% | 43.3hPa | 2.5V | 18:12:15 | 01:43:22 | 00:00:00 | |
| SP3WXH-11 | 2026-08-31 00:02:47 | 54.36429 | 14.37559 | 4° | 22km/h | 21733m | 4.6m/s | -53.9°C | 1.1% | 44.7hPa | 2.6V | 00:00:00 | 00:00:00 | 00:00:00 | |
| AA1-15 | 2026-08-31 00:02:44 | 54.36548 | 14.37655 | 13° | 13km/h | 21889m | 6m/s | -53.4°C | 0.6% | 43.6hPa | 2.6V | 18:12:15 | 01:43:11 | 00:00:00 | |
| AA1-15 | 2026-08-31 00:02:33 | 54.36501 | 14.37610 | 48° | 15km/h | 21823m | 5.6m/s | -53.5°C | 0.5% | 44.1hPa | 2.6V | 18:12:15 | 01:42:58 | 00:00:00 | |
| S3001 | 2026-08-31 00:02:32 | 54.36303 | 14.37583 | 358° | 5km/h | 21570m | 5.4m/s | -53.4°C | 1.0% | 45.9hPa | 2.6V | 00:00:00 | 00:00:00 | 00:00:00 | |
| AA1-15 | 2026-08-31 00:02:21 | 54.36481 | 14.37583 | 17° | 18km/h | 21788m | 5.1m/s | -53.5°C | 0.6% | 44.3hPa | 2.6V | 18:12:15 | 01:42:51 | 00:00:00 | |
| MECKS9 | 2026-08-31 00:02:14 | 54.36331 | 14.37570 | 344° | 13km/h | 21627m | 4.4m/s | -53.5°C | 1.1% | 45.5hPa | 2.6V | 00:00:00 | 00:00:00 | 00:00:00 | |
| AA1-15 | 2026-08-31 00:02:11 | 54.36429 | 14.37559 | 5° | 22km/h | 21733m | 4.6m/s | -53.9°C | 0.7% | 44.7hPa | 2.6V | 18:12:15 | 01:42:40 | 00:00:00 | |
| SP3WXH-11 | 2026-08-31 00:02:03 | 54.36305 | 14.37582 | 329° | 4km/h | 21576m | 5.6m/s | -53.4°C | 1.1% | 45.8hPa | 2.6V | 00:00:00 | 00:00:00 | 00:00:00 | |
| AA1-15 | 2026-08-31 00:02:00 | 54.36370 | 14.37571 | 356° | 15km/h | 21684m | 5.7m/s | -53.8°C | 0.7% | 45.1hPa | 2.6V | 18:12:15 | 01:42:30 | 00:00:00 | |
| MECKS9 | 2026-08-31 00:01:59 | 54.36303 | 14.37583 | 359° | 5km/h | 21571m | 5.4m/s | -53.4°C | 1.0% | 45.9hPa | 2.6V | 00:00:00 | 00:00:00 | 00:00:00 | |
| AA1-15 | 2026-08-31 00:01:50 | 54.36328 | 14.37572 | 335° | 15km/h | 21621m | 6m/s | -53.5°C | 0.6% | 45.5hPa | 2.6V | 18:12:15 | 01:42:18 | 00:00:00 | |
| S3001 | 2026-08-31 00:01:45 | 54.36325 | 14.37616 | 180° | 5km/h | 21390m | 4.9m/s | -53.2°C | 1.1% | 47.2hPa | 2.6V | 00:00:00 | 00:00:00 | 00:00:00 | |
| MECKS9 | 2026-08-31 00:01:41 | 54.36284 | 14.37597 | 288° | 5km/h | 21520m | 5.8m/s | -53.3°C | 1.1% | 46.3hPa | 2.6V | 00:00:00 | 00:00:00 | 00:00:00 | |
| DJ2DS-15 | 2026-08-31 00:01:38 | 54.36316 | 14.37616 | 196° | 11km/h | 21416m | 4.7m/s | -53.3°C | 1.1% | 47.0hPa | 2.6V | 00:00:00 | 00:00:00 | 00:00:00 | |
| AA1-15 | 2026-08-31 00:01:37 | 54.36302 | 14.37583 | 354° | 7km/h | 21566m | 4m/s | -53.4°C | 0.6% | 46hPa | 2.6V | 18:12:15 | 01:42:07 | 00:00:00 | |
| AA1-15 | 2026-08-31 00:01:26 | 54.36285 | 14.37601 | 233° | 5km/h | 21509m | 4.9m/s | -53.3°C | 0.6% | 46.3hPa | 2.6V | 18:12:15 | 01:41:56 | 00:00:00 | |
| SP3WXH-11 | 2026-08-31 00:01:17 | 54.36316 | 14.37616 | 196° | 11km/h | 21416m | 4.7m/s | -53.3°C | 1.1% | 47.0hPa | 2.6V | 00:00:00 | 00:00:00 | 00:00:00 | |
| AA1-15 | 2026-08-31 00:01:16 | 54.36292 | 14.37609 | 227° | 7km/h | 21455m | 5.4m/s | -53.5°C | 0.6% | 46.7hPa | 2.6V | 18:12:15 | 01:41:46 | 00:00:00 | |
| AA1-15 | 2026-08-31 00:01:06 | 54.36323 | 14.37617 | 167° | 5km/h | 21402m | 5m/s | -53.3°C | 0.7% | 47.1hPa | 2.6V | 18:12:15 | 01:41:35 | 00:00:00 | |
| S3001 | 2026-08-31 00:01:05 | 54.36371 | 14.37556 | 136° | 18km/h | 21279m | 5.6m/s | -52.9°C | 1.0% | 48.0hPa | 2.6V | 00:00:00 | 00:00:00 | 00:00:00 | |
| AA1-15 | 2026-08-31 00:00:55 | 54.36351 | 14.37594 | 160° | 13km/h | 21349m | 4.8m/s | -53°C | 0.7% | 47.5hPa | 2.6V | 18:12:15 | 01:41:25 | 00:00:00 | |
| AA1-15 | 2026-08-31 00:00:44 | 54.36364 | 14.37565 | 145° | 15km/h | 21290m | 4.7m/s | -52.9°C | 0.6% | 48hPa | 2.6V | 18:12:15 | 01:41:14 | 00:00:00 | |
| SP3WXH-11 | 2026-08-31 00:00:42 | 54.36380 | 14.37540 | 24° | 2km/h | 21256m | 4.3m/s | -52.9°C | 1.1% | 48.2hPa | 2.6V | 00:00:00 | 00:00:00 | 00:00:00 | |
| AA1-15 | 2026-08-31 00:00:33 | 54.36374 | 14.37530 | 60° | 9km/h | 21235m | 5.7m/s | -52.8°C | 0.6% | 48.3hPa | 2.6V | 18:12:15 | 01:41:03 | 00:00:00 | |
| S3001 | 2026-08-31 00:00:32 | 54.36380 | 14.37479 | 84° | 11km/h | 21189m | 4.9m/s | -52.9°C | 1.1% | 48.7hPa | 2.6V | 00:00:00 | 00:00:00 | 00:00:00 | |
| AA1-15 | 2026-08-31 00:00:23 | 54.36379 | 14.37474 | 80° | 11km/h | 21184m | 4.8m/s | -52.9°C | 0.5% | 48.7hPa | 2.6V | 18:12:15 | 01:40:53 | 00:00:00 | |
| AA1-15 | 2026-08-31 00:00:13 | 54.36395 | 14.37404 | 100° | 16km/h | 21124m | 4.7m/s | -52.8°C | 0.6% | 49.2hPa | 2.6V | 18:12:15 | 01:40:41 | 00:00:00 | |
| SP3WXH-11 | 2026-08-31 00:00:09 | 54.36397 | 14.37373 | 85° | 15km/h | 21098m | 4.7m/s | -52.8°C | 1.0% | 49.4hPa | 2.6V | 00:00:00 | 00:00:00 | 00:00:00 | |
| AA1-15 | 2026-08-31 00:00:02 | 54.36399 | 14.37341 | 103° | 22km/h | 21079m | 4.7m/s | -52.8°C | 0.5% | 49.5hPa | 2.6V | 18:12:15 | 01:40:32 | 00:00:00 | |
| S3001 | 2026-08-30 23:59:56 | 54.36405 | 14.37278 | 92° | 26km/h | 21048m | 5.7m/s | -52.6°C | 1.0% | 49.8hPa | 2.6V | 00:00:00 | 00:00:00 | 00:00:00 | |
| AA1-15 | 2026-08-30 23:59:51 | 54.36402 | 14.37228 | 85° | 18km/h | 21023m | 4.4m/s | -52.6°C | 0.5% | 50hPa | 2.6V | 18:12:15 | 01:40:21 | 00:00:00 | |
| AA1-15 | 2026-08-30 23:59:40 | 54.36384 | 14.37131 | 70° | 22km/h | 20965m | 4.8m/s | -52.6°C | 0.5% | 50.4hPa | 2.6V | 18:12:15 | 01:40:10 | 00:00:00 | |
| DJ2DS-15 | 2026-08-30 23:59:38 | 54.36333 | 14.36995 | 51° | 20km/h | 20887m | 4.9m/s | -52.5°C | 1.0% | 51.0hPa | 2.6V | 00:00:00 | 00:00:00 | 00:00:00 | |
| SP3WXH-11 | 2026-08-30 23:59:36 | 54.36369 | 14.37081 | 61° | 27km/h | 20941m | 5.5m/s | -52.6°C | 1.1% | 50.6hPa | 2.6V | 00:00:00 | 00:00:00 | 00:00:00 | |
| AA1-15 | 2026-08-30 23:59:29 | 54.36347 | 14.37025 | 45° | 22km/h | 20911m | 4.3m/s | -52.5°C | 0.5% | 50.8hPa | 2.6V | 18:12:15 | 01:39:59 | 00:00:00 | |
| S3001 | 2026-08-30 23:59:25 | 54.36336 | 14.37002 | 54° | 16km/h | 20892m | 5.2m/s | -52.4°C | 1.0% | 51.0hPa | 2.7V | 00:00:00 | 00:00:00 | 00:00:00 | |
| AA1-15 | 2026-08-30 23:59:18 | 54.36309 | 14.36950 | 38° | 27km/h | 20858m | 5.3m/s | -52.4°C | 0.5% | 51.2hPa | 2.7V | 18:12:15 | 01:39:48 | 00:00:00 | |
| AA1-15 | 2026-08-30 23:59:07 | 54.36266 | 14.36908 | 7° | 18km/h | 20803m | 4.8m/s | -52.4°C | 0.5% | 51.7hPa | 2.6V | 18:12:15 | 01:39:37 | 00:00:00 | |
| SP3WXH-11 | 2026-08-30 23:59:05 | 54.36250 | 14.36906 | 3° | 22km/h | 20788m | 6.0m/s | -52.4°C | 1.0% | 51.8hPa | 2.7V | 00:00:00 | 00:00:00 | 00:00:00 | |
| AA1-15 | 2026-08-30 23:58:56 | 54.36209 | 14.36897 | 352° | 15km/h | 20747m | 4.1m/s | -52.3°C | 0.5% | 52.1hPa | 2.7V | 18:12:15 | 01:39:26 | 00:00:00 | |
| AA1-15 | 2026-08-30 23:58:45 | 54.36151 | 14.36922 | 334° | 20km/h | 20693m | 5.9m/s | -52.5°C | 0.5% | 52.5hPa | 2.7V | 18:12:15 | 01:39:15 | 00:00:00 | |
| AA1-15 | 2026-08-30 23:58:34 | 54.36106 | 14.36969 | 351° | 16km/h | 20638m | 5.2m/s | -52.5°C | 0.6% | 53hPa | 2.7V | 18:12:15 | 01:39:04 | 00:00:00 | |
| AA1-15 | 2026-08-30 23:58:23 | 54.36076 | 14.36976 | 347° | 5km/h | 20581m | 4.6m/s | -52.1°C | 0.5% | 53.5hPa | 2.7V | 18:12:15 | 01:38:53 | 00:00:00 | |
| AA1-15 | 2026-08-30 23:58:13 | 54.36059 | 14.36975 | 319° | 5km/h | 20531m | 5.4m/s | -52°C | 0.5% | 53.9hPa | 2.6V | 18:12:15 | 01:38:43 | 00:00:00 | |
| AA1-15 | 2026-08-30 23:58:02 | 54.36057 | 14.36983 | 87° | 2km/h | 20477m | 4.3m/s | -51.9°C | 0.4% | 54.4hPa | 2.7V | 18:12:15 | 01:38:32 | 00:00:00 | |
| AA1-15 | 2026-08-30 23:57:51 | 54.36066 | 14.36978 | 138° | 9km/h | 20426m | 4.6m/s | -51.9°C | 0.4% | 54.8hPa | 2.7V | 18:12:15 | 01:38:21 | 00:00:00 | |
| DJ2DS-15 | 2026-08-30 23:57:49 | 54.36069 | 14.36975 | 131° | 0km/h | 20416m | 5.4m/s | -52.0°C | -1.0% | -1.0hPa | 2.7V | 00:00:00 | 00:00:00 | 00:00:00 | |
| AA1-15 | 2026-08-30 23:57:40 | 54.36080 | 14.36950 | 136° | 15km/h | 20374m | 4.8m/s | -52°C | 0.4% | 55.2hPa | 2.7V | 18:12:15 | 01:38:10 | 00:00:00 | |
| AA1-15 | 2026-08-30 23:57:29 | 54.36090 | 14.36892 | 117° | 13km/h | 20317m | 4.3m/s | -52.4°C | 0.6% | 55.7hPa | 2.6V | 18:12:15 | 01:37:59 | 00:00:00 | |
| AA1-15 | 2026-08-30 23:57:18 | 54.36096 | 14.36817 | 87° | 9km/h | 20262m | 4.9m/s | -52.6°C | 0.6% | 56.2hPa | 2.6V | 18:12:15 | 01:37:48 | 00:00:00 | |
| AA1-15 | 2026-08-30 23:57:07 | 54.36096 | 14.36768 | 94° | 13km/h | 20207m | 4.9m/s | -52.7°C | 0.5% | 56.6hPa | 2.6V | 18:12:15 | 01:37:37 | 00:00:00 | |
| AA1-15 | 2026-08-30 23:56:56 | 54.36078 | 14.36709 | 68° | 15km/h | 20155m | 5.7m/s | -52.6°C | 0.5% | 57.1hPa | 2.6V | 18:12:15 | 01:37:26 | 00:00:00 | |
| AA1-15 | 2026-08-30 23:56:45 | 54.36067 | 14.36624 | 65° | 18km/h | 20100m | 5.2m/s | -52.5°C | 0.6% | 57.6hPa | 2.6V | 18:12:15 | 01:37:15 | 00:00:00 | |
| AA1-15 | 2026-08-30 23:56:34 | 54.36067 | 14.36550 | 86° | 18km/h | 20047m | 4.6m/s | -52.4°C | 0.6% | 58.1hPa | 2.6V | 18:12:15 | 01:37:04 | 00:00:00 | |
| AA1-15 | 2026-08-30 23:56:23 | 54.36058 | 14.36472 | 81° | 18km/h | 19997m | 5.3m/s | -52.1°C | 0.4% | 58.5hPa | 2.6V | 18:12:15 | 01:36:53 | 00:00:00 | |
| AA1-15 | 2026-08-30 23:56:13 | 54.36042 | 14.36415 | 90° | 18km/h | 19949m | 6m/s | -52°C | 0.4% | 59hPa | 2.7V | 18:12:15 | 01:36:43 | 00:00:00 | |
| AA1-15 | 2026-08-30 23:56:02 | 54.36031 | 14.36339 | 50° | 16km/h | 19894m | 4.4m/s | -52.1°C | 0.4% | 59.5hPa | 2.7V | 18:12:15 | 01:36:32 | 00:00:00 | |
| AA1-15 | 2026-08-30 23:55:51 | 54.36014 | 14.36279 | 50° | 16km/h | 19840m | 4.2m/s | -52.1°C | 0.5% | 60hPa | 2.7V | 18:12:15 | 01:36:21 | 00:00:00 | |
| S3001 | 2026-08-30 23:55:48 | 54.36008 | 14.36263 | 70° | 15km/h | 19825m | 5.0m/s | -52.1°C | 1.0% | 60.1hPa | 2.6V | 00:00:00 | 00:00:00 | 00:00:00 | |
| AA1-15 | 2026-08-30 23:55:40 | 54.36002 | 14.36192 | 63° | 18km/h | 19785m | 4.2m/s | -51.9°C | 0.5% | 60.5hPa | 2.6V | 18:12:15 | 01:36:10 | 00:00:00 | |
| AA1-15 | 2026-08-30 23:55:30 | 54.35982 | 14.36140 | 85° | 18km/h | 19736m | 4.2m/s | -52.1°C | 0.4% | 60.9hPa | 2.6V | 18:12:15 | 01:36:00 | 00:00:00 | |
| AA1-15 | 2026-08-30 23:55:19 | 54.35948 | 14.36094 | 24° | 15km/h | 19682m | 4.1m/s | -52.5°C | 0.5% | 61.5hPa | 2.6V | 18:12:15 | 01:35:49 | 00:00:00 | |
| AA1-15 | 2026-08-30 23:55:08 | 54.35916 | 14.36025 | 52° | 18km/h | 19627m | 4.6m/s | -52.4°C | 0.5% | 62hPa | 2.6V | 18:12:15 | 01:35:38 | 00:00:00 | |
| AA1-15 | 2026-08-30 23:54:58 | 54.35876 | 14.35942 | 49° | 27km/h | 19575m | 5.3m/s | -52.2°C | 0.5% | 62.5hPa | 2.7V | 18:12:15 | 01:35:28 | 00:00:00 | |
| AA1-15 | 2026-08-30 23:54:47 | 54.35829 | 14.35841 | 47° | 26km/h | 19522m | 5m/s | -52.5°C | 0.5% | 63hPa | 2.7V | 18:12:15 | 01:35:17 | 00:00:00 | |
| AA1-15 | 2026-08-30 23:54:36 | 54.35771 | 14.35745 | 48° | 31km/h | 19470m | 4.3m/s | -52.1°C | 0.4% | 63.5hPa | 2.6V | 18:12:15 | 01:35:06 | 00:00:00 | |
| AA1-15 | 2026-08-30 23:54:25 | 54.35723 | 14.35666 | 35° | 26km/h | 19419m | 4.4m/s | -52.5°C | 0.5% | 64hPa | 2.6V | 18:12:15 | 01:34:55 | 00:00:00 | |
| AA1-15 | 2026-08-30 23:54:14 | 54.35677 | 14.35604 | 38° | 22km/h | 19367m | 5.7m/s | -52.8°C | 0.5% | 64.5hPa | 2.6V | 18:12:15 | 01:34:44 | 00:00:00 | |
| AA1-15 | 2026-08-30 23:54:03 | 54.35644 | 14.35567 | 42° | 13km/h | 19314m | 5.1m/s | -52.5°C | 0.5% | 65hPa | 2.6V | 18:12:15 | 01:34:33 | 00:00:00 | |
| AA1-15 | 2026-08-30 23:53:52 | 54.35621 | 14.35537 | 7° | 7km/h | 19259m | 5.5m/s | -52.5°C | 0.5% | 65.6hPa | 2.7V | 18:12:15 | 01:34:22 | 00:00:00 | |
| AA1-15 | 2026-08-30 23:53:41 | 54.35617 | 14.35507 | 93° | 11km/h | 19205m | 4.3m/s | -52.6°C | 0.4% | 66.2hPa | 2.7V | 18:12:15 | 01:34:11 | 00:00:00 | |
| AA1-15 | 2026-08-30 23:53:30 | 54.35607 | 14.35459 | 108° | 20km/h | 19151m | 4.7m/s | -53.3°C | 0.5% | 66.7hPa | 2.6V | 18:12:15 | 01:34:00 | 00:00:00 | |
| AA1-15 | 2026-08-30 23:53:20 | 54.35610 | 14.35376 | 64° | 24km/h | 19104m | 4.3m/s | -53.4°C | 0.7% | 67.2hPa | 2.6V | 18:12:15 | 01:33:50 | 00:00:00 | |
| AA1-15 | 2026-08-30 23:53:09 | 54.35599 | 14.35268 | 75° | 20km/h | 19051m | 4.6m/s | -53.2°C | 0.6% | 67.7hPa | 2.7V | 18:12:15 | 01:33:39 | 00:00:00 | |
| AA1-15 | 2026-08-30 23:52:58 | 54.35581 | 14.35165 | 75° | 22km/h | 18997m | 4.8m/s | -53.1°C | 0.5% | 68.3hPa | 2.7V | 18:12:15 | 01:33:28 | 00:00:00 | |
| AA1-15 | 2026-08-30 23:52:48 | 54.35572 | 14.35076 | 84° | 27km/h | 18949m | 5.5m/s | -53°C | 0.5% | 68.8hPa | 2.6V | 18:12:15 | 01:33:18 | 00:00:00 | |
| AA1-15 | 2026-08-30 23:52:37 | 54.35566 | 14.34967 | 76° | 22km/h | 18895m | 5m/s | -52.9°C | 0.6% | 69.4hPa | 2.6V | 18:12:15 | 01:33:07 | 00:00:00 | |
| AA1-15 | 2026-08-30 23:52:26 | 54.35557 | 14.34845 | 74° | 24km/h | 18844m | 5.1m/s | -52.6°C | 0.5% | 70hPa | 2.7V | 18:12:15 | 01:32:56 | 00:00:00 | |
| AA1-15 | 2026-08-30 23:52:15 | 54.35538 | 14.34725 | 73° | 29km/h | 18793m | 3.8m/s | -52.3°C | 0.4% | 70.5hPa | 2.7V | 18:12:15 | 01:32:45 | 00:00:00 | |
| AA1-15 | 2026-08-30 23:52:04 | 54.35505 | 14.34626 | 53° | 24km/h | 18743m | 4.2m/s | -52.7°C | 0.5% | 71.1hPa | 2.7V | 18:12:15 | 01:32:34 | 00:00:00 | |
| AA1-15 | 2026-08-30 23:51:54 | 54.35462 | 14.34526 | 61° | 29km/h | 18697m | 4.5m/s | -53°C | 0.6% | 71.6hPa | 2.7V | 18:12:15 | 01:32:24 | 00:00:00 | |
| SP3WXH-11 | 2026-08-30 23:51:50 | 54.35444 | 14.34481 | 51° | 33km/h | 18679m | 4.3m/s | -52.9°C | 1.1% | 71.8hPa | 2.7V | 00:00:00 | 00:00:00 | 00:00:00 | |
| AA1-15 | 2026-08-30 23:51:43 | 54.35406 | 14.34406 | 51° | 31km/h | 18646m | 4m/s | -52.7°C | 0.5% | 72.1hPa | 2.7V | 18:12:15 | 01:32:13 | 00:00:00 | |
| AA1-15 | 2026-08-30 23:51:32 | 54.35352 | 14.34295 | 40° | 29km/h | 18597m | 4.3m/s | -52.4°C | 0.5% | 72.7hPa | 2.6V | 18:12:15 | 01:32:02 | 00:00:00 | |
| AA1-15 | 2026-08-30 23:51:22 | 54.35306 | 14.34220 | 44° | 22km/h | 18553m | 4m/s | -52°C | 0.5% | 73.2hPa | 2.7V | 18:12:15 | 01:31:52 | 00:00:00 | |
| AA1-15 | 2026-08-30 23:51:11 | 54.35260 | 14.34142 | 39° | 22km/h | 18502m | 3.8m/s | -51.9°C | 0.4% | 73.8hPa | 2.6V | 18:12:15 | 01:31:41 | 00:00:00 | |
| AA1-15 | 2026-08-30 23:51:00 | 54.35224 | 14.34069 | 54° | 22km/h | 18453m | 3.4m/s | -51.5°C | 0.5% | 74.3hPa | 2.6V | 18:12:15 | 01:31:30 | 00:00:00 | |
| AA1-15 | 2026-08-30 23:50:49 | 54.35192 | 14.33973 | 69° | 26km/h | 18407m | 4.8m/s | -51.4°C | 0.4% | 74.9hPa | 2.7V | 18:12:15 | 01:31:19 | 00:00:00 | |
| SP3WXH-11 | 2026-08-30 23:50:48 | 54.35189 | 14.33963 | 66° | 24km/h | 18403m | 3.8m/s | -51.4°C | 1.0% | 74.9hPa | 2.6V | 00:00:00 | 00:00:00 | 00:00:00 | |
| AA1-15 | 2026-08-30 23:50:38 | 54.35152 | 14.33863 | 57° | 31km/h | 18356m | 4m/s | -51.5°C | 0.4% | 75.4hPa | 2.6V | 18:12:15 | 01:31:08 | 00:00:00 | |
| AA1-15 | 2026-08-30 23:50:28 | 54.35113 | 14.33765 | 73° | 33km/h | 18312m | 4.4m/s | -51.3°C | 0.4% | 75.9hPa | 2.7V | 18:12:15 | 01:30:58 | 00:00:00 | |
| AA1-15 | 2026-08-30 23:50:17 | 54.35072 | 14.33622 | 48° | 29km/h | 18265m | 5m/s | -51°C | 0.3% | 76.6hPa | 2.6V | 18:12:15 | 01:30:47 | 00:00:00 | |
| AA1-15 | 2026-08-30 23:50:07 | 54.35023 | 14.33501 | 58° | 38km/h | 18219m | 5.6m/s | -50.8°C | 0.3% | 77.1hPa | 2.7V | 18:12:15 | 01:30:37 | 00:00:00 | |
| AA1-15 | 2026-08-30 23:49:56 | 54.34956 | 14.33375 | 50° | 33km/h | 18167m | 4.5m/s | -51°C | 0.4% | 77.7hPa | 2.6V | 18:12:15 | 01:30:26 | 00:00:00 | |
| AA1-15 | 2026-08-30 23:49:45 | 54.34878 | 14.33242 | 40° | 40km/h | 18117m | 4.4m/s | -51°C | 0.4% | 78.3hPa | 2.7V | 18:12:15 | 01:30:15 | 00:00:00 | |
| AA1-15 | 2026-08-30 23:49:34 | 54.34808 | 14.33096 | 56° | 47km/h | 18065m | 4.6m/s | -51.2°C | 0.4% | 78.9hPa | 2.6V | 18:12:15 | 01:30:04 | 00:00:00 | |
| AA1-15 | 2026-08-30 23:49:23 | 54.34742 | 14.32951 | 61° | 42km/h | 18016m | 4.4m/s | -51.6°C | 0.4% | 79.5hPa | 2.7V | 18:12:15 | 01:29:53 | 00:00:00 | |
| AA1-15 | 2026-08-30 23:49:12 | 54.34685 | 14.32789 | 54° | 37km/h | 17966m | 5.1m/s | -51.7°C | 0.5% | 80.1hPa | 2.6V | 18:12:15 | 01:29:42 | 00:00:00 | |
| AA1-15 | 2026-08-30 23:49:02 | 54.34626 | 14.32654 | 53° | 38km/h | 17919m | 4.3m/s | -51.8°C | 0.5% | 80.6hPa | 2.7V | 18:12:15 | 01:29:32 | 00:00:00 | |
| AA1-15 | 2026-08-30 23:48:51 | 54.34575 | 14.32505 | 52° | 37km/h | 17868m | 4.2m/s | -52.1°C | 0.5% | 81.3hPa | 2.6V | 18:12:15 | 01:29:21 | 00:00:00 | |
| AA1-15 | 2026-08-30 23:48:41 | 54.34530 | 14.32412 | 52° | 27km/h | 17819m | 4.8m/s | -52.2°C | 0.5% | 81.9hPa | 2.7V | 18:12:15 | 01:29:11 | 00:00:00 | |
| DG6HD-11 | 2026-08-30 23:48:41 | 54.34530 | 14.32412 | 53° | 31km/h | 17820m | 4.7m/s | -52.2°C | 3.7% | 81.9hPa | 2.7V | 00:00:00 | 00:00:00 | 00:00:00 | |
| S3001 | 2026-08-30 23:48:33 | 54.34495 | 14.32322 | 75° | 27km/h | 17777m | 5.2m/s | -52.1°C | 1.1% | 82.5hPa | 2.7V | 00:00:00 | 00:00:00 | 00:00:00 | |
| DL1XH-15 | 2026-08-30 23:48:32 | 54.34487 | 14.32257 | 72° | 31km/h | 17755m | 5.8m/s | -52.2°C | 3.7% | 82.8hPa | 2.7V | 08:30:00 | 01:28:57 | 00:00:00 | |
| AA1-15 | 2026-08-30 23:48:30 | 54.34492 | 14.32297 | 79° | 31km/h | 17768m | 4.5m/s | -52.1°C | 0.5% | 82.5hPa | 2.6V | 18:12:15 | 01:29:00 | 00:00:00 | |
| AA1-15 | 2026-08-30 23:48:19 | 54.34452 | 14.32166 | 58° | 33km/h | 17717m | 5.4m/s | -52.2°C | 0.6% | 83.2hPa | 2.6V | 18:12:15 | 01:28:49 | 00:00:00 | |
| AA1-15 | 2026-08-30 23:48:09 | 54.34419 | 14.32025 | 61° | 31km/h | 17670m | 4.5m/s | -51.8°C | 0.5% | 83.8hPa | 2.6V | 18:12:15 | 01:28:39 | 00:00:00 | |
| AA1-15 | 2026-08-30 23:47:58 | 54.34385 | 14.31871 | 78° | 33km/h | 17617m | 4.6m/s | -51.5°C | 0.4% | 84.5hPa | 2.6V | 18:12:15 | 01:28:28 | 00:00:00 | |
| AA1-15 | 2026-08-30 23:47:47 | 54.34356 | 14.31725 | 66° | 29km/h | 17569m | 3.7m/s | -52°C | 0.4% | 85.1hPa | 2.7V | 18:12:15 | 01:28:17 | 00:00:00 | |
| DL1XH-15 | 2026-08-30 23:47:40 | 54.34341 | 14.31626 | 82° | 44km/h | 17537m | 5.3m/s | -52.3°C | 3.7% | 85.5hPa | 2.7V | 08:30:00 | 01:28:10 | 00:00:00 | |
| AA1-15 | 2026-08-30 23:47:37 | 54.34336 | 14.31568 | 79° | 47km/h | 17524m | 4.6m/s | -52.3°C | 0.6% | 85.7hPa | 2.6V | 18:12:15 | 01:28:07 | 00:00:00 | |
| AA1-15 | 2026-08-30 23:47:26 | 54.34310 | 14.31374 | 78° | 46km/h | 17478m | 4.9m/s | -52°C | 0.6% | 86.3hPa | 2.7V | 18:12:15 | 01:27:56 | 00:00:00 | |
| DL1XH-15 | 2026-08-30 23:47:20 | 54.34291 | 14.31272 | 70° | 37km/h | 17453m | 4.6m/s | -51.9°C | 3.7% | 86.7hPa | 2.6V | 08:30:00 | 01:27:50 | 00:00:00 | |
| AA1-15 | 2026-08-30 23:47:15 | 54.34275 | 14.31195 | 72° | 44km/h | 17431m | 4.1m/s | -51.7°C | 0.5% | 87hPa | 2.6V | 18:12:15 | 01:27:45 | 00:00:00 | |
| DL1XH-15 | 2026-08-30 23:47:12 | 54.34256 | 14.31103 | 68° | 40km/h | 17409m | 3.5m/s | -51.6°C | 3.6% | 87.3hPa | 2.7V | 08:30:00 | 01:27:40 | 00:00:00 | |
| AA1-15 | 2026-08-30 23:47:04 | 54.34233 | 14.31023 | 66° | 33km/h | 17383m | 3.5m/s | -51.5°C | 0.5% | 87.6hPa | 2.7V | 18:12:15 | 01:27:34 | 00:00:00 | |
| AA1-15 | 2026-08-30 23:46:54 | 54.34188 | 14.30866 | 58° | 40km/h | 17341m | 4.4m/s | -51.3°C | 0.4% | 88.2hPa | 2.6V | 18:12:15 | 01:27:24 | 00:00:00 | |
| DL1XH-15 | 2026-08-30 23:46:52 | 54.34159 | 14.30781 | 63° | 38km/h | 17314m | 4.4m/s | -51.4°C | 3.5% | 88.6hPa | 2.6V | 08:30:00 | 01:27:18 | 00:00:00 | |
| AA1-15 | 2026-08-30 23:46:43 | 54.34133 | 14.30706 | 58° | 42km/h | 17294m | 3.9m/s | -51.4°C | 0.4% | 88.8hPa | 2.7V | 18:12:15 | 01:27:13 | 00:00:00 | |
| AA1-15 | 2026-08-30 23:46:32 | 54.34073 | 14.30528 | 55° | 46km/h | 17247m | 4.6m/s | -51.6°C | 0.5% | 89.5hPa | 2.6V | 18:12:15 | 01:27:02 | 00:00:00 | |
| S3001 | 2026-08-30 23:46:29 | 54.34054 | 14.30482 | 57° | 40km/h | 17235m | 3.8m/s | -51.8°C | 1.1% | 89.7hPa | 2.7V | 00:00:00 | 00:00:00 | 00:00:00 | |
| DL1XH-15 | 2026-08-30 23:46:26 | 54.34016 | 14.30389 | 56° | 49km/h | 17208m | 4.2m/s | -51.8°C | 3.7% | 90hPa | 2.7V | 08:30:00 | 01:26:53 | 00:00:00 | |
| AA1-15 | 2026-08-30 23:46:22 | 54.34009 | 14.30371 | 57° | 51km/h | 17204m | 3.5m/s | -51.8°C | 0.5% | 90.1hPa | 2.6V | 18:12:15 | 01:26:52 | 00:00:00 | |
| AA1-15 | 2026-08-30 23:46:11 | 54.33920 | 14.30194 | 45° | 46km/h | 17157m | 4.3m/s | -51.5°C | 0.5% | 90.8hPa | 2.6V | 18:12:15 | 01:26:41 | 00:00:00 | |
| AA1-15 | 2026-08-30 23:46:00 | 54.33824 | 14.30035 | 42° | 47km/h | 17108m | 4.2m/s | -51.6°C | 0.5% | 91.5hPa | 2.7V | 18:12:15 | 01:26:30 | 00:00:00 | |
| AA1-15 | 2026-08-30 23:45:49 | 54.33719 | 14.29907 | 40° | 51km/h | 17061m | 3.9m/s | -51.4°C | 0.4% | 92.1hPa | 2.6V | 18:12:15 | 01:26:19 | 00:00:00 | |
| AA1-15 | 2026-08-30 23:45:38 | 54.33596 | 14.29790 | 24° | 51km/h | 17009m | 4.2m/s | -51.7°C | 0.5% | 92.8hPa | 2.7V | 18:12:15 | 01:26:08 | 00:00:00 | |
| AA1-15 | 2026-08-30 23:45:28 | 54.33474 | 14.29705 | 24° | 46km/h | 16965m | 5.3m/s | -51.4°C | 0.5% | 93.5hPa | 2.6V | 18:12:15 | 01:25:58 | 00:00:00 | |
| AA1-15 | 2026-08-30 23:45:18 | 54.33362 | 14.29618 | 22° | 42km/h | 16913m | 4.3m/s | -51°C | 0.4% | 94.2hPa | 2.6V | 18:12:15 | 01:25:47 | 00:00:00 | |
| AA1-15 | 2026-08-30 23:45:07 | 54.33266 | 14.29546 | 23° | 42km/h | 16868m | 3.7m/s | -50.8°C | 0.4% | 94.9hPa | 2.7V | 18:12:15 | 01:25:37 | 00:00:00 | |
| AA1-15 | 2026-08-30 23:44:57 | 54.33179 | 14.29492 | 22° | 38km/h | 16826m | 4.3m/s | -50.5°C | 0.4% | 95.5hPa | 2.6V | 18:12:15 | 01:25:27 | 00:00:00 | |
| AA1-15 | 2026-08-30 23:44:46 | 54.33085 | 14.29397 | 31° | 38km/h | 16778m | 3.6m/s | -50.3°C | 0.3% | 96.2hPa | 2.6V | 18:12:15 | 01:25:16 | 00:00:00 | |
| DL1XH-15 | 2026-08-30 23:44:40 | 54.33037 | 14.29341 | 33° | 38km/h | 16752m | 3.9m/s | -50.2°C | 3.3% | 96.6hPa | 2.6V | 08:30:00 | 01:25:10 | 00:00:00 | |
| AA1-15 | 2026-08-30 23:44:35 | 54.33003 | 14.29299 | 36° | 33km/h | 16730m | 3.9m/s | -50.2°C | 0.3% | 96.9hPa | 2.6V | 18:12:15 | 01:25:05 | 00:00:00 | |
| DL1XH-15 | 2026-08-30 23:44:32 | 54.32962 | 14.29237 | 44° | 38km/h | 16705m | 3.8m/s | -50.4°C | 3.3% | 97.3hPa | 2.6V | 08:30:00 | 01:24:59 | 00:00:00 | |
| AA1-15 | 2026-08-30 23:44:24 | 54.32931 | 14.29173 | 55° | 38km/h | 16684m | 3.6m/s | -50.8°C | 0.4% | 97.6hPa | 2.6V | 18:12:15 | 01:24:54 | 00:00:00 | |
| DL1XH-15 | 2026-08-30 23:44:20 | 54.32906 | 14.29101 | 60° | 38km/h | 16662m | 3.8m/s | -50.9°C | 3.4% | 98hPa | 2.6V | 08:30:00 | 01:24:49 | 00:00:00 | |
| AA1-15 | 2026-08-30 23:44:14 | 54.32880 | 14.29019 | 57° | 37km/h | 16636m | 3.8m/s | -51.1°C | 0.5% | 98.3hPa | 2.6V | 18:12:15 | 01:24:43 | 00:00:00 | |
| DL1XH-15 | 2026-08-30 23:44:12 | 54.32859 | 14.28959 | 55° | 46km/h | 16620m | 4.4m/s | -51.2°C | 3.6% | 98.5hPa | 2.7V | 08:30:00 | 01:24:39 | 00:00:00 | |
| AA1-15 | 2026-08-30 23:44:03 | 54.32813 | 14.28843 | 59° | 44km/h | 16591m | 4.6m/s | -51.2°C | 0.5% | 99hPa | 2.7V | 18:12:15 | 01:24:32 | 00:00:00 | |
| S3001 | 2026-08-30 23:43:54 | 54.32763 | 14.28696 | 54° | 40km/h | 16555m | 3.6m/s | -51.3°C | 1.2% | 99.6hPa | 2.6V | 00:00:00 | 00:00:00 | 00:00:00 | |
| DL1XH-15 | 2026-08-30 23:43:52 | 54.32731 | 14.28633 | 51° | 35km/h | 16534m | 4.1m/s | -51.3°C | 3.5% | 99.8hPa | 2.6V | 08:30:00 | 01:24:18 | 00:00:00 | |
| AA1-15 | 2026-08-30 23:43:51 | 54.32750 | 14.28669 | 49° | 40km/h | 16546m | 4.1m/s | -51.3°C | 0.5% | 99.7hPa | 2.7V | 18:12:15 | 01:24:21 | 00:00:00 | |
| DG6HD-11 | 2026-08-30 23:43:41 | 54.32697 | 14.28547 | 56° | 29km/h | 16506m | 5.0m/s | 0°C | 0% | 0hPa | 2.6V | 00:00:00 | 00:00:00 | 08:30:00 | |
| DL1XH-15 | 2026-08-30 23:43:40 | 54.32680 | 14.28510 | 49° | 35km/h | 16494m | 4.6m/s | -51.4°C | 3.6% | 100.5hPa | 2.7V | 08:30:00 | 01:24:08 | 00:00:00 | |
| AA1-15 | 2026-08-30 23:43:40 | 54.32691 | 14.28535 | 53° | 37km/h | 16501m | 3.9m/s | -51.4°C | 0.5% | 100.4hPa | 2.6V | 18:12:15 | 01:24:10 | 00:00:00 | |
| SP3WXH-11 | 2026-08-30 23:43:34 | 54.32651 | 14.28458 | 47° | 33km/h | 16473m | 4.4m/s | -51.3°C | 1.2% | 100.8hPa | 2.6V | 00:00:00 | 00:00:00 | 00:00:00 | |
| DL1XH-15 | 2026-08-30 23:43:32 | 54.32627 | 14.28405 | 51° | 29km/h | 16450m | 4.1m/s | -51.2°C | 3.6% | 101.1hPa | 2.6V | 08:30:00 | 01:23:58 | 00:00:00 | |
| AA1-15 | 2026-08-30 23:43:30 | 54.32637 | 14.28426 | 53° | 31km/h | 16460m | 5.3m/s | -51.2°C | 0.5% | 101hPa | 2.7V | 18:12:15 | 01:24:00 | 00:00:00 | |
| DJ2DS-15 | 2026-08-30 23:43:24 | 54.32605 | 14.28357 | 51° | 29km/h | 16429m | 3.8m/s | -51.0°C | 1.2% | 101.5hPa | 2.6V | 00:00:00 | 00:00:00 | 00:00:00 | |
| S3001 | 2026-08-30 23:43:23 | 54.32600 | 14.28346 | 55° | 29km/h | 16424m | 4.8m/s | -51.0°C | 1.1% | 101.5hPa | 2.6V | 00:00:00 | 00:00:00 | 00:00:00 | |
| DL1XH-15 | 2026-08-30 23:43:20 | 54.32585 | 14.28304 | 54° | 27km/h | 16407m | 3.6m/s | -51°C | 3.4% | 101.9hPa | 2.6V | 08:30:00 | 01:23:48 | 00:00:00 | |
| AA1-15 | 2026-08-30 23:43:19 | 54.32589 | 14.28314 | 56° | 29km/h | 16411m | 4.1m/s | -51°C | 0.4% | 101.7hPa | 2.7V | 18:12:15 | 01:23:49 | 00:00:00 | |
| AA1-15 | 2026-08-30 23:43:09 | 54.32552 | 14.28207 | 57° | 40km/h | 16368m | 4.7m/s | -51.6°C | 0.6% | 102.5hPa | 2.6V | 18:12:15 | 01:23:39 | 00:00:00 | |
| AA1-15 | 2026-08-30 23:42:58 | 54.32508 | 14.28053 | 66° | 40km/h | 16321m | 4.6m/s | -52°C | 0.7% | 103.2hPa | 2.6V | 18:12:15 | 01:23:28 | 00:00:00 | |
| AA1-15 | 2026-08-30 23:42:48 | 54.32461 | 14.27885 | 64° | 35km/h | 16277m | 5m/s | -52°C | 0.7% | 103.9hPa | 2.7V | 18:12:15 | 01:23:18 | 00:00:00 | |
| DJ2DS-15 | 2026-08-30 23:42:48 | 54.32454 | 14.27859 | 71° | 31km/h | 16268m | 5.2m/s | -52.0°C | 1.3% | 104.0hPa | 2.6V | 00:00:00 | 00:00:00 | 00:00:00 | |
| DL1XH-15 | 2026-08-30 23:42:46 | 54.32448 | 14.27819 | 71° | 31km/h | 16254m | 5.1m/s | -51.9°C | 3.8% | 104.2hPa | 2.6V | 08:30:00 | 01:23:13 | 00:00:00 | |
| AA1-15 | 2026-08-30 23:42:37 | 54.32430 | 14.27727 | 73° | 38km/h | 16227m | 3.9m/s | -51.8°C | 0.7% | 104.7hPa | 2.6V | 18:12:15 | 01:23:07 | 00:00:00 | |
| DL1XH-15 | 2026-08-30 23:42:32 | 54.32420 | 14.27655 | 78° | 31km/h | 16205m | 3.8m/s | -51.8°C | 3.8% | 105hPa | 2.6V | 08:30:00 | 01:23:02 | 00:00:00 | |
| SP3WXH-11 | 2026-08-30 23:42:32 | 54.32419 | 14.27641 | 81° | 31km/h | 16201m | 4.3m/s | -51.8°C | 1.3% | 105.1hPa | 2.6V | 00:00:00 | 00:00:00 | 00:00:00 | |
| DL1XH-15 | 2026-08-30 23:42:27 | 54.32407 | 14.27488 | 81° | 42km/h | 16163m | 4.5m/s | -51.4°C | 3.7% | 105.8hPa | 2.6V | 08:30:00 | 01:22:52 | 00:00:00 | |
| AA1-15 | 2026-08-30 23:42:26 | 54.32412 | 14.27562 | 82° | 42km/h | 16180m | 4m/s | -51.6°C | 0.6% | 105.5hPa | 2.6V | 18:12:15 | 01:22:56 | 00:00:00 | |
| AA1-15 | 2026-08-30 23:42:15 | 54.32391 | 14.27373 | 75° | 40km/h | 16131m | 5.5m/s | -51.2°C | 0.6% | 106.3hPa | 2.7V | 18:12:15 | 01:22:45 | 00:00:00 | |
| AA1-15 | 2026-08-30 23:42:04 | 54.32365 | 14.27182 | 78° | 35km/h | 16082m | 4.7m/s | -50.9°C | 0.6% | 107hPa | 2.7V | 18:12:15 | 01:22:34 | 00:00:00 | |
| SP3WXH-11 | 2026-08-30 23:42:01 | 54.32357 | 14.27114 | 74° | 44km/h | 16064m | 4.5m/s | -50.9°C | 1.2% | 107.4hPa | 2.7V | 00:00:00 | 00:00:00 | 00:00:00 | |
| DL1XH-15 | 2026-08-30 23:42:00 | 54.32354 | 14.27096 | 71° | 46km/h | 16059m | 5.2m/s | -50.9°C | 3.6% | 107.4hPa | 2.7V | 08:30:00 | 01:22:29 | 00:00:00 | |
| AA1-15 | 2026-08-30 23:41:53 | 54.32333 | 14.26983 | 77° | 44km/h | 16034m | 4.9m/s | -50.9°C | 0.5% | 107.9hPa | 2.7V | 18:12:15 | 01:22:23 | 00:00:00 | |
| DL1XH-15 | 2026-08-30 23:41:52 | 54.32319 | 14.26889 | 73° | 46km/h | 16011m | 5.2m/s | -50.9°C | 3.6% | 108.2hPa | 2.7V | 08:30:00 | 01:22:18 | 00:00:00 | |
| S3001 | 2026-08-30 23:41:50 | 54.32322 | 14.26908 | 74° | 46km/h | 16015m | 3.5m/s | -50.9°C | 1.2% | 108.1hPa | 2.6V | 00:00:00 | 00:00:00 | 00:00:00 | |
| AA1-15 | 2026-08-30 23:41:42 | 54.32298 | 14.26775 | 70° | 47km/h | 15983m | 4.3m/s | -50.8°C | 0.6% | 108.7hPa | 2.6V | 18:12:15 | 01:22:12 | 00:00:00 | |
| DG6HD-11 | 2026-08-30 23:41:41 | 54.32293 | 14.26756 | 71° | 53km/h | 15979m | 4.6m/s | -50.8°C | 3.6% | 108.7hPa | 2.6V | 00:00:00 | 00:00:00 | 00:00:00 | |
| DL1XH-15 | 2026-08-30 23:41:40 | 54.32281 | 14.26694 | 70° | 51km/h | 15965m | 5.3m/s | -50.8°C | 3.6% | 109hPa | 2.6V | 08:30:00 | 01:22:08 | 00:00:00 | |
| DL1XH-15 | 2026-08-30 23:41:32 | 54.32238 | 14.26476 | 71° | 53km/h | 15921m | 5m/s | -50.6°C | 3.6% | 109.8hPa | 2.7V | 08:30:00 | 01:21:58 | 00:00:00 | |
| AA1-15 | 2026-08-30 23:41:31 | 54.32251 | 14.26543 | 71° | 53km/h | 15934m | 4.9m/s | -50.6°C | 0.6% | 109.5hPa | 2.6V | 18:12:15 | 01:22:01 | 00:00:00 | |
| AA1-15 | 2026-08-30 23:41:21 | 54.32205 | 14.26324 | 68° | 55km/h | 15889m | 5.7m/s | -50.5°C | 0.6% | 110.3hPa | 2.7V | 18:12:15 | 01:21:51 | 00:00:00 | |
| AA1-15 | 2026-08-30 23:41:10 | 54.32145 | 14.26068 | 63° | 55km/h | 15835m | 3.7m/s | -50.2°C | 0.6% | 111.2hPa | 2.7V | 18:12:15 | 01:21:39 | 00:00:00 | |
| DL1XH-15 | 2026-08-30 23:41:06 | 54.32125 | 14.26009 | 56° | 49km/h | 15822m | 3.8m/s | -50.2°C | 3.5% | 111.4hPa | 2.6V | 08:30:00 | 01:21:36 | 00:00:00 | |
| DL1XH-15 | 2026-08-30 23:41:01 | 54.32067 | 14.25815 | 55° | 51km/h | 15778m | 4.8m/s | -50.1°C | 3.5% | 112.1hPa | 2.7V | 08:30:00 | 01:21:26 | 00:00:00 | |
| AA1-15 | 2026-08-30 23:40:58 | 54.32080 | 14.25854 | 64° | 51km/h | 15786m | 2.8m/s | -50.1°C | 0.5% | 112hPa | 2.7V | 18:12:15 | 01:21:28 | 00:00:00 | |
| AA1-15 | 2026-08-30 23:40:47 | 54.32002 | 14.25648 | 64° | 55km/h | 15739m | 3.9m/s | -50.2°C | 0.6% | 112.8hPa | 2.7V | 18:12:15 | 01:21:17 | 00:00:00 | |
| DL1XH-15 | 2026-08-30 23:40:42 | 54.31963 | 14.25523 | 60° | 57km/h | 15713m | 4.2m/s | -50.1°C | 3.5% | 113.3hPa | 2.6V | 08:30:00 | 01:21:11 | 00:00:00 | |
| AA1-15 | 2026-08-30 23:40:36 | 54.31928 | 14.25424 | 61° | 51km/h | 15693m | 3.4m/s | -50.4°C | 0.6% | 113.6hPa | 2.6V | 18:12:15 | 01:21:06 | 00:00:00 | |
| AA1-15 | 2026-08-30 23:40:25 | 54.31861 | 14.25211 | 56° | 57km/h | 15646m | 4.8m/s | -50.9°C | 0.7% | 114.5hPa | 2.6V | 18:12:15 | 01:20:55 | 00:00:00 | |
| AA1-15 | 2026-08-30 23:40:14 | 54.31787 | 14.24993 | 66° | 51km/h | 15599m | 4.9m/s | -51°C | 0.7% | 115.3hPa | 2.6V | 18:12:15 | 01:20:44 | 00:00:00 | |
| DG6HD-11 | 2026-08-30 23:40:11 | 54.31771 | 14.24932 | 68° | 57km/h | 15586m | 4.4m/s | -51.0°C | 3.7% | 115.5hPa | 2.7V | 00:00:00 | 00:00:00 | 00:00:00 | |
| DL1XH-15 | 2026-08-30 23:40:09 | 54.31734 | 14.24787 | 67° | 53km/h | 15557m | 4.5m/s | -51.3°C | 3.7% | 116hPa | 2.7V | 08:30:00 | 01:20:34 | 00:00:00 | |
| AA1-15 | 2026-08-30 23:40:04 | 54.31734 | 14.24787 | 68° | 53km/h | 15557m | 4.5m/s | -51.3°C | 0.8% | 116hPa | 2.7V | 18:12:15 | 01:20:34 | 00:00:00 | |
| AA1-15 | 2026-08-30 23:39:53 | 54.31672 | 14.24545 | 65° | 62km/h | 15510m | 4m/s | -51.7°C | 0.9% | 116.9hPa | 2.7V | 18:12:15 | 01:20:23 | 00:00:00 | |
| S3001 | 2026-08-30 23:39:46 | 54.31618 | 14.24363 | 60° | 57km/h | 15478m | 4.7m/s | -51.7°C | 1.5% | 117.4hPa | 2.6V | 00:00:00 | 00:00:00 | 00:00:00 | |
| DL1XH-15 | 2026-08-30 23:39:43 | 54.31605 | 14.24320 | 60° | 57km/h | 15470m | 4m/s | -51.7°C | 4% | 117.6hPa | 2.6V | 08:30:00 | 01:20:13 | 00:00:00 | |
| AA1-15 | 2026-08-30 23:39:42 | 54.31598 | 14.24298 | 59° | 57km/h | 15466m | 4.6m/s | -51.7°C | 1.1% | 117.7hPa | 2.6V | 18:12:15 | 01:20:12 | 00:00:00 | |
| DG6HD-11 | 2026-08-30 23:39:41 | 54.31590 | 14.24278 | 59° | 53km/h | 15462m | 3.3m/s | -51.6°C | 4.0% | 117.7hPa | 2.7V | 00:00:00 | 01:20:11 | 00:00:00 | |
| DL1XH-15 | 2026-08-30 23:39:38 | 54.31538 | 14.24110 | 64° | 55km/h | 15430m | 3.1m/s | -51.7°C | 4% | 118.4hPa | 2.7V | 08:30:00 | 01:20:03 | 00:00:00 | |
| AA1-15 | 2026-08-30 23:39:31 | 54.31526 | 14.24069 | 62° | 53km/h | 15422m | 4.1m/s | -51.7°C | 1.1% | 118.5hPa | 2.6V | 18:12:15 | 01:20:01 | 00:00:00 | |
| AA1-15 | 2026-08-30 23:39:21 | 54.31462 | 14.23849 | 67° | 49km/h | 15376m | 4.9m/s | -51.8°C | 1.2% | 119.4hPa | 2.6V | 18:12:15 | 01:19:50 | 00:00:00 | |
| AA1-15 | 2026-08-30 23:39:09 | 54.31415 | 14.23626 | 72° | 51km/h | 15331m | 3.8m/s | -52.1°C | 1.4% | 120.2hPa | 2.6V | 18:12:15 | 01:19:39 | 00:00:00 | |
| DL1XH-15 | 2026-08-30 23:39:06 | 54.31399 | 14.23538 | 72° | 55km/h | 15314m | 5.1m/s | -52.2°C | 4.3% | 120.5hPa | 2.7V | 08:30:00 | 01:19:35 | 00:00:00 | |
| DL1XH-15 | 2026-08-30 23:39:00 | 54.31367 | 14.23312 | 78° | 58km/h | 15274m | 3.3m/s | -52.3°C | 4.3% | 121.2hPa | 2.7V | 08:30:00 | 01:19:25 | 00:00:00 | |
| AA1-15 | 2026-08-30 23:38:59 | 54.31378 | 14.23404 | 76° | 51km/h | 15289m | 3.8m/s | -52.2°C | 1.4% | 121hPa | 2.7V | 18:12:15 | 01:19:29 | 00:00:00 | |
| AA1-15 | 2026-08-30 23:38:49 | 54.31337 | 14.23141 | 70° | 60km/h | 15245m | 5m/s | -52.3°C | 1.5% | 121.8hPa | 2.7V | 18:12:15 | 01:19:18 | 00:00:00 | |
| DL1XH-15 | 2026-08-30 23:38:46 | 54.31321 | 14.23069 | 70° | 60km/h | 15233m | 4.7m/s | -52.3°C | 4.3% | 122hPa | 2.6V | 08:30:00 | 01:19:15 | 00:00:00 | |
| S3001 | 2026-08-30 23:38:43 | 54.31311 | 14.23018 | 69° | 62km/h | 15225m | 4.8m/s | -52.3°C | 1.8% | 122.2hPa | 2.7V | 00:00:00 | 00:00:00 | 00:00:00 | |
| DG6HD-11 | 2026-08-30 23:38:41 | 54.31299 | 14.22966 | 68° | 66km/h | 15217m | 3.4m/s | -52.2°C | 4.3% | 122.3hPa | 2.7V | 00:00:00 | 00:00:00 | 00:00:00 | |
| DL1XH-15 | 2026-08-30 23:38:40 | 54.31260 | 14.22807 | 65° | 64km/h | 15193m | 4.3m/s | -52.2°C | 4.4% | 122.8hPa | 2.7V | 08:30:00 | 01:19:05 | 00:00:00 | |
| AA1-15 | 2026-08-30 23:38:39 | 54.31280 | 14.22884 | 68° | 68km/h | 15205m | 3.7m/s | -52.2°C | 1.5% | 122.5hPa | 2.6V | 18:12:15 | 01:19:08 | 00:00:00 | |
| AA1-15 | 2026-08-30 23:38:27 | 54.31207 | 14.22615 | 63° | 66km/h | 15162m | 3.3m/s | -52.2°C | 1.5% | 123.3hPa | 2.6V | 18:12:15 | 01:18:57 | 00:00:00 | |
| DL1XH-15 | 2026-08-30 23:38:27 | 54.31168 | 14.22489 | 63° | 62km/h | 15142m | 3.9m/s | -52.1°C | 4.3% | 123.7hPa | 2.6V | 08:30:00 | 01:18:52 | 00:00:00 | |
| AA1-15 | 2026-08-30 23:38:17 | 54.31123 | 14.22338 | 64° | 71km/h | 15117m | 2.9m/s | -52.1°C | 1.5% | 124.2hPa | 2.6V | 18:12:15 | 01:18:46 | 00:00:00 | |
| DL1XH-15 | 2026-08-30 23:38:16 | 54.31078 | 14.22207 | 55° | 68km/h | 15097m | 4.1m/s | -52°C | 4.4% | 124.6hPa | 2.6V | 08:30:00 | 01:18:41 | 00:00:00 | |
| AA1-15 | 2026-08-30 23:38:05 | 54.31023 | 14.22070 | 57° | 62km/h | 15072m | 4.4m/s | -52.1°C | 1.6% | 125hPa | 2.6V | 18:12:15 | 01:18:35 | 00:00:00 | |
| DL1XH-15 | 2026-08-30 23:38:02 | 54.30986 | 14.21977 | 54° | 68km/h | 15055m | 3.7m/s | -52.1°C | 4.4% | 125.4hPa | 2.7V | 08:30:00 | 01:18:31 | 00:00:00 | |
| DJ2DS-15 | 2026-08-30 23:37:59 | 54.30965 | 14.21931 | 50° | 66km/h | 15047m | 5.1m/s | 0°C | -1.0% | -1.0hPa | 2.7V | 00:00:00 | 00:00:00 | 00:00:00 | |
| DL1XH-15 | 2026-08-30 23:37:56 | 54.30889 | 14.21767 | 54° | 62km/h | 15014m | 4.1m/s | -52°C | 4.4% | 126.2hPa | 2.7V | 08:30:00 | 01:18:21 | 00:00:00 | |
| AA1-15 | 2026-08-30 23:37:54 | 54.30917 | 14.21827 | 50° | 58km/h | 15025m | 4.7m/s | -52.1°C | 1.6% | 126hPa | 2.6V | 18:12:15 | 01:18:24 | 00:00:00 | |
| AA1-15 | 2026-08-30 23:37:43 | 54.30809 | 14.21594 | 49° | 64km/h | 14979m | 4.2m/s | -51.9°C | 1.5% | 126.8hPa | 2.6V | 18:12:15 | 01:18:13 | 00:00:00 | |
| DL1XH-15 | 2026-08-30 23:37:42 | 54.30789 | 14.21551 | 52° | 64km/h | 14970m | 4.6m/s | -52°C | 4.4% | 127hPa | 2.6V | 08:30:00 | 01:18:11 | 00:00:00 | |
| AA1-15 | 2026-08-30 23:37:33 | 54.30708 | 14.21367 | 54° | 69km/h | 14936m | 4.1m/s | -52.2°C | 1.7% | 127.7hPa | 2.7V | 18:12:15 | 01:18:03 | 00:00:00 | |
| AA1-15 | 2026-08-30 23:37:23 | 54.30613 | 14.21128 | 55° | 73km/h | 14894m | 3.7m/s | -52.2°C | 1.5% | 128.6hPa | 2.7V | 18:12:15 | 01:17:53 | 00:00:00 | |
| DL1XH-15 | 2026-08-30 23:37:22 | 54.30549 | 14.20968 | 55° | 73km/h | 14868m | 5m/s | -52.1°C | 4.4% | 129.1hPa | 2.7V | 08:30:00 | 01:17:47 | 00:00:00 | |
| AA1-15 | 2026-08-30 23:37:12 | 54.30499 | 14.20846 | 54° | 68km/h | 14844m | 4.9m/s | -51.9°C | 1.5% | 129.5hPa | 2.7V | 18:12:15 | 01:17:42 | 00:00:00 | |
| DL1XH-15 | 2026-08-30 23:37:10 | 54.30446 | 14.20731 | 50° | 69km/h | 14824m | 4.5m/s | -51.8°C | 4.3% | 130hPa | 2.7V | 08:30:00 | 01:17:37 | 00:00:00 | |
| DG6HD-11 | 2026-08-30 23:37:10 | 54.30479 | 14.20799 | 53° | 69km/h | 14836m | 3.5m/s | -51.8°C | 4.3% | 129.7hPa | 2.6V | 00:00:00 | 00:00:00 | 00:00:00 | |
| DL1XH-15 | 2026-08-30 23:37:02 | 54.30334 | 14.20490 | 51° | 69km/h | 14780m | 5m/s | -51.5°C | 4.2% | 130.9hPa | 2.6V | 08:30:00 | 01:17:27 | 00:00:00 | |
| AA1-15 | 2026-08-30 23:37:01 | 54.30379 | 14.20588 | 53° | 73km/h | 14797m | 3m/s | -51.6°C | 1.4% | 130.5hPa | 2.7V | 18:12:15 | 01:17:31 | 00:00:00 | |
| AA1-15 | 2026-08-30 23:36:50 | 54.30255 | 14.20330 | 52° | 69km/h | 14752m | 4.4m/s | -51.3°C | 1.2% | 131.4hPa | 2.7V | 18:12:15 | 01:17:20 | 00:00:00 | |
| DL1XH-15 | 2026-08-30 23:36:50 | 54.30224 | 14.20257 | 55° | 71km/h | 14739m | 3.9m/s | -51.2°C | 4.1% | 131.7hPa | 2.6V | 08:30:00 | 01:17:17 | 00:00:00 | |
| AA1-15 | 2026-08-30 23:36:39 | 54.30139 | 14.20062 | 51° | 69km/h | 14707m | 4.7m/s | -51.2°C | 1.1% | 132.3hPa | 2.7V | 18:12:15 | 01:17:09 | 00:00:00 | |
| DG6HD-11 | 2026-08-30 23:36:39 | 54.30139 | 14.20062 | 51° | 68km/h | 14707m | 4.7m/s | -51.1°C | 4.0% | 132.3hPa | 2.6V | 00:00:00 | 00:00:00 | 00:00:00 | |
| DL1XH-15 | 2026-08-30 23:36:36 | 54.30064 | 14.19903 | 56° | 68km/h | 14678m | 3.2m/s | -51°C | 3.8% | 132.9hPa | 2.6V | 08:30:00 | 01:17:02 | 00:00:00 | |
| AA1-15 | 2026-08-30 23:36:29 | 54.30035 | 14.19827 | 56° | 71km/h | 14666m | 3.4m/s | -51°C | 1% | 133.2hPa | 2.7V | 18:12:15 | 01:16:59 | 00:00:00 | |
| DL1XH-15 | 2026-08-30 23:36:22 | 54.29948 | 14.19642 | 48° | 68km/h | 14632m | 4.1m/s | -51°C | 3.9% | 133.9hPa | 2.6V | 08:30:00 | 01:16:51 | 00:00:00 | |
| AA1-15 | 2026-08-30 23:36:19 | 54.29925 | 14.19598 | 47° | 69km/h | 14623m | 5.2m/s | -51°C | 1% | 134.1hPa | 2.6V | 18:12:15 | 01:16:49 | 00:00:00 | |
| DL1XH-15 | 2026-08-30 23:36:16 | 54.29830 | 14.19435 | 48° | 66km/h | 14588m | 4m/s | -51.4°C | 4% | 134.7hPa | 2.7V | 08:30:00 | 01:16:41 | 00:00:00 | |
| AA1-15 | 2026-08-30 23:36:08 | 54.29763 | 14.19288 | 55° | 73km/h | 14563m | 3.2m/s | -51.2°C | 0.9% | 135.3hPa | 2.7V | 18:12:15 | 01:16:35 | 00:00:00 | |
| S3001 | 2026-08-30 23:36:08 | 54.29796 | 14.19366 | 51° | 73km/h | 14576m | 3.6m/s | -51.3°C | 1.5% | 135.0hPa | 2.7V | 00:00:00 | 00:00:00 | 00:00:00 | |
| SP3BTT-10 | 2026-08-30 23:36:06 | 54.29773 | 14.19314 | 55° | 68km/h | 14567m | 4.2m/s | -51.2°C | 3.9% | 135.1hPa | 2.7V | 00:00:00 | 00:00:00 | 00:00:00 | |
| DL1XH-15 | 2026-08-30 23:36:02 | 54.29719 | 14.19188 | 53° | 68km/h | 14547m | 4.8m/s | -51°C | 3.9% | 135.6hPa | 2.7V | 08:30:00 | 01:16:31 | 00:00:00 | |
| AA1-15 | 2026-08-30 23:35:58 | 54.29691 | 14.19120 | 54° | 64km/h | 14535m | 4.4m/s | -51°C | 1% | 135.9hPa | 2.6V | 18:12:15 | 01:16:28 | 00:00:00 | |
| DL1XH-15 | 2026-08-30 23:35:56 | 54.29626 | 14.18958 | 56° | 68km/h | 14505m | 4.2m/s | -50.8°C | 3.8% | 136.5hPa | 2.7V | 08:30:00 | 01:16:21 | 00:00:00 | |
| AA1-15 | 2026-08-30 23:35:47 | 54.29590 | 14.18866 | 56° | 62km/h | 14488m | 5.2m/s | -50.7°C | 0.9% | 136.9hPa | 2.6V | 18:12:15 | 01:16:17 | 00:00:00 | |
| AA1-15 | 2026-08-30 23:35:37 | 54.29511 | 14.18646 | 61° | 62km/h | 14444m | 4.9m/s | -50.5°C | 0.9% | 137.8hPa | 2.6V | 18:12:15 | 01:16:07 | 00:00:00 | |
| S3001 | 2026-08-30 23:35:37 | 54.29511 | 14.18646 | 61° | 60km/h | 14444m | 4.9m/s | -50.5°C | 1.5% | 137.8hPa | 2.7V | 00:00:00 | 00:00:00 | 00:00:00 | |
| DL1XH-15 | 2026-08-30 23:35:30 | 54.29446 | 14.18459 | 61° | 51km/h | 14405m | 3.5m/s | -50.5°C | 3.7% | 138.6hPa | 2.7V | 08:30:00 | 01:15:58 | 00:00:00 | |
| AA1-15 | 2026-08-30 23:35:26 | 54.29433 | 14.18417 | 61° | 58km/h | 14398m | 3.6m/s | -50.4°C | 0.9% | 138.7hPa | 2.6V | 18:12:15 | 01:15:56 | 00:00:00 | |
| DL1XH-15 | 2026-08-30 23:35:22 | 54.29380 | 14.18234 | 64° | 57km/h | 14364m | 3.4m/s | -50.5°C | 3.8% | 139.5hPa | 2.7V | 08:30:00 | 01:15:48 | 00:00:00 | |
| AA1-15 | 2026-08-30 23:35:16 | 54.29368 | 14.18191 | 63° | 57km/h | 14356m | 4.1m/s | -50.5°C | 0.9% | 139.6hPa | 2.6V | 18:12:15 | 01:15:46 | 00:00:00 | |
| DL1XH-15 | 2026-08-30 23:35:10 | 54.29319 | 14.18026 | 62° | 53km/h | 14323m | 3.5m/s | -50.6°C | 3.8% | 140.4hPa | 2.7V | 08:30:00 | 01:15:38 | 00:00:00 | |
| AA1-15 | 2026-08-30 23:35:05 | 54.29299 | 14.17966 | 58° | 53km/h | 14310m | 4.2m/s | -50.7°C | 0.9% | 140.7hPa | 2.6V | 18:12:15 | 01:15:35 | 00:00:00 | |
| AA1-15 | 2026-08-30 23:34:54 | 54.29220 | 14.17733 | 60° | 64km/h | 14265m | 4.9m/s | -50.8°C | 0.9% | 141.6hPa | 2.6V | 18:12:15 | 01:15:24 | 00:00:00 | |
| DL1XH-15 | 2026-08-30 23:34:50 | 54.29173 | 14.17598 | 59° | 57km/h | 14239m | 3.1m/s | -50.8°C | 3.9% | 142.2hPa | 2.6V | 08:30:00 | 01:15:18 | 00:00:00 | |
| SP3WXH-11 | 2026-08-30 23:34:46 | 54.29157 | 14.17555 | 56° | 58km/h | 14231m | 4.2m/s | -50.8°C | 1.5% | 142.4hPa | 2.6V | 00:00:00 | 00:00:00 | 00:00:00 | |
| AA1-15 | 2026-08-30 23:34:43 | 54.29132 | 14.17490 | 56° | 62km/h | 14218m | 3.6m/s | -50.9°C | 1% | 142.7hPa | 2.6V | 18:12:15 | 01:15:13 | 00:00:00 | |
| DL1XH-15 | 2026-08-30 23:34:42 | 54.29087 | 14.17374 | 58° | 64km/h | 14197m | 3.5m/s | -50.8°C | 3.8% | 143.1hPa | 2.7V | 08:30:00 | 01:15:08 | 00:00:00 | |
| AA1-15 | 2026-08-30 23:34:32 | 54.29037 | 14.17236 | 59° | 58km/h | 14173m | 4m/s | -50.9°C | 1% | 143.6hPa | 2.7V | 18:12:15 | 01:15:02 | 00:00:00 | |
| DL1XH-15 | 2026-08-30 23:34:31 | 54.29004 | 14.17152 | 56° | 57km/h | 14157m | 4.8m/s | -50.9°C | 3.9% | 144hPa | 2.6V | 08:30:00 | 01:14:58 | 00:00:00 | |
| AA1-15 | 2026-08-30 23:34:21 | 54.28953 | 14.17008 | 59° | 57km/h | 14127m | 4.3m/s | -50.8°C | 1% | 144.7hPa | 2.6V | 18:12:15 | 01:14:51 | 00:00:00 | |
| DL1XH-15 | 2026-08-30 23:34:20 | 54.28930 | 14.16944 | 58° | 58km/h | 14113m | 4.9m/s | -50.8°C | 3.9% | 144.9hPa | 2.7V | 08:30:00 | 01:14:48 | 00:00:00 | |
| MECKS9 | 2026-08-30 23:34:20 | 54.28945 | 14.16986 | 59° | 57km/h | 14123m | 5.2m/s | -50.8°C | 1.6% | 144.7hPa | 2.6V | 00:00:00 | 00:00:00 | 00:00:00 | |
| SP3WXH-11 | 2026-08-30 23:34:15 | 54.28910 | 14.16877 | 64° | 60km/h | 14102m | 5.0m/s | -50.8°C | 1.6% | 145.2hPa | 2.6V | 00:00:00 | 00:00:00 | 00:00:00 | |
| DL1XH-15 | 2026-08-30 23:34:10 | 54.28865 | 14.16703 | 65° | 64km/h | 14070m | 4.9m/s | -50.7°C | 3.9% | 145.9hPa | 2.6V | 08:30:00 | 01:14:38 | 00:00:00 | |
| AA1-15 | 2026-08-30 23:34:10 | 54.28878 | 14.16755 | 66° | 64km/h | 14080m | 4.9m/s | -50.8°C | 1% | 145.7hPa | 2.6V | 18:12:15 | 01:14:40 | 00:00:00 | |
| DG6HD-11 | 2026-08-30 23:34:07 | 54.28858 | 14.16678 | 64° | 69km/h | 14067m | 3.2m/s | -50.7°C | 3.9% | 145.9hPa | 2.6V | 00:00:00 | 00:00:00 | 00:00:00 | |
| S3001 | 2026-08-30 23:34:04 | 54.28825 | 14.16580 | 58° | 64km/h | 14050m | 4.7m/s | -50.8°C | 1.6% | 146.3hPa | 2.6V | 00:00:00 | 00:00:00 | 00:00:00 | |
| DL1XH-15 | 2026-08-30 23:34:00 | 54.28784 | 14.16461 | 61° | 68km/h | 14029m | 4.2m/s | -50.8°C | 3.8% | 146.8hPa | 2.6V | 08:30:00 | 01:14:28 | 00:00:00 | |
| AA1-15 | 2026-08-30 23:34:00 | 54.28793 | 14.16486 | 60° | 66km/h | 14033m | 4.3m/s | -50.8°C | 1% | 146.7hPa | 2.7V | 18:12:15 | 01:14:29 | 00:00:00 | |
| DL1XH-15 | 2026-08-30 23:33:50 | 54.28698 | 14.16191 | 58° | 73km/h | 13984m | 4m/s | -51°C | 3.9% | 147.8hPa | 2.7V | 08:30:00 | 01:14:18 | 00:00:00 | |
| AA1-15 | 2026-08-30 23:33:49 | 54.28707 | 14.16218 | 59° | 73km/h | 13989m | 4.8m/s | -51°C | 1.2% | 147.8hPa | 2.7V | 18:12:15 | 01:14:19 | 00:00:00 | |
| AA1-15 | 2026-08-30 23:33:38 | 54.28605 | 14.15930 | 61° | 77km/h | 13942m | 4.4m/s | -51.6°C | 1.4% | 148.8hPa | 2.6V | 18:12:15 | 01:14:08 | 00:00:00 | |
| DL1XH-15 | 2026-08-30 23:33:35 | 54.28569 | 14.15813 | 64° | 77km/h | 13925m | 4.3m/s | -51.6°C | 4.1% | 149.2hPa | 2.7V | 08:30:00 | 01:14:04 | 00:00:00 | |
| S3001 | 2026-08-30 23:33:33 | 54.28552 | 14.15752 | 63° | 78km/h | 13916m | 4.2m/s | -51.8°C | 1.8% | 149.4hPa | 2.8V | 00:00:00 | 00:00:00 | 00:00:00 | |
| DL1XH-15 | 2026-08-30 23:33:29 | 54.28471 | 14.15527 | 57° | 71km/h | 13882m | 3.5m/s | -51.8°C | 4.3% | 150.2hPa | 2.8V | 08:30:00 | 01:13:54 | 00:00:00 | |
| AA1-15 | 2026-08-30 23:33:28 | 54.28513 | 14.15635 | 57° | 78km/h | 13898m | 4.6m/s | -51.9°C | 1.4% | 149.8hPa | 2.7V | 18:12:15 | 01:13:58 | 00:00:00 | |
| AA1-15 | 2026-08-30 23:33:17 | 54.28407 | 14.15335 | 60° | 73km/h | 13852m | 5.9m/s | -51.6°C | 1.3% | 150.9hPa | 2.7V | 18:12:15 | 01:13:47 | 00:00:00 | |
| DL1XH-15 | 2026-08-30 23:33:15 | 54.28379 | 14.15257 | 57° | 68km/h | 13840m | 5.3m/s | -51.5°C | 4.2% | 151.2hPa | 2.6V | 08:30:00 | 01:13:44 | 00:00:00 | |
| SP3WXH-11 | 2026-08-30 23:33:13 | 54.28370 | 14.15233 | 56° | 62km/h | 13835m | 4.5m/s | -51.5°C | 1.8% | 151.3hPa | 2.7V | 00:00:00 | 00:00:00 | 00:00:00 | |
| DL1XH-15 | 2026-08-30 23:33:09 | 54.28290 | 14.15017 | 58° | 68km/h | 13795m | 4.3m/s | -51.5°C | 4.2% | 152.2hPa | 2.7V | 08:30:00 | 01:13:34 | 00:00:00 | |
| AA1-15 | 2026-08-30 23:33:06 | 54.28308 | 14.15067 | 56° | 68km/h | 13805m | 4.2m/s | -51.4°C | 1.4% | 152hPa | 2.7V | 18:12:15 | 01:13:36 | 00:00:00 | |
| AA1-15 | 2026-08-30 23:32:55 | 54.28216 | 14.14810 | 54° | 60km/h | 13754m | 4.9m/s | -51.5°C | 1.4% | 153.2hPa | 2.7V | 18:12:15 | 01:13:25 | 00:00:00 | |
| DL1XH-15 | 2026-08-30 23:32:50 | 54.28148 | 14.14630 | 64° | 62km/h | 13718m | 5.1m/s | -51.5°C | 4.2% | 154.1hPa | 2.8V | 08:30:00 | 01:13:17 | 00:00:00 | |
| AA1-15 | 2026-08-30 23:32:44 | 54.28128 | 14.14554 | 66° | 66km/h | 13704m | 4.4m/s | -51.4°C | 1.4% | 154.3hPa | 2.6V | 18:12:15 | 01:13:14 | 00:00:00 | |
| AA1-15 | 2026-08-30 23:32:33 | 54.28042 | 14.14272 | 65° | 73km/h | 13659m | 4.5m/s | -51.4°C | 1.5% | 155.5hPa | 2.7V | 18:12:15 | 01:13:03 | 00:00:00 | |
| AA1-15 | 2026-08-30 23:32:22 | 54.27958 | 14.13972 | 64° | 69km/h | 13611m | 4.5m/s | -51°C | 1.5% | 156.6hPa | 2.7V | 18:12:15 | 01:12:52 | 00:00:00 | |
| AA1-15 | 2026-08-30 23:32:11 | 54.27868 | 14.13666 | 63° | 66km/h | 13562m | 4m/s | -50.8°C | 1.7% | 157.7hPa | 2.8V | 18:12:15 | 01:12:41 | 00:00:00 | |
| AA1-15 | 2026-08-30 23:32:00 | 54.27773 | 14.13354 | 63° | 75km/h | 13513m | 3.8m/s | -51°C | 1.7% | 159hPa | 2.8V | 18:12:15 | 01:12:30 | 00:00:00 | |
| AA1-15 | 2026-08-30 23:31:50 | 54.27699 | 14.13078 | 70° | 71km/h | 13472m | 4.4m/s | -51.3°C | 1.9% | 159.9hPa | 2.8V | 18:12:15 | 01:12:20 | 00:00:00 | |
| AA1-15 | 2026-08-30 23:31:39 | 54.27620 | 14.12736 | 67° | 80km/h | 13425m | 4.1m/s | -51.2°C | 2% | 161.2hPa | 2.7V | 18:12:15 | 01:12:09 | 00:00:00 | |
| AA1-15 | 2026-08-30 23:31:28 | 54.27527 | 14.12393 | 64° | 80km/h | 13377m | 3.6m/s | -51.3°C | 2.1% | 162.4hPa | 2.7V | 18:12:15 | 01:11:58 | 00:00:00 | |
| AA1-15 | 2026-08-30 23:31:17 | 54.27417 | 14.12064 | 59° | 77km/h | 13329m | 4.7m/s | -51.4°C | 2.1% | 163.6hPa | 2.8V | 18:12:15 | 01:11:47 | 00:00:00 | |
| AA1-15 | 2026-08-30 23:31:06 | 54.27289 | 14.11759 | 52° | 77km/h | 13284m | 3.8m/s | -51.2°C | 2.1% | 164.7hPa | 2.8V | 18:12:15 | 01:11:36 | 00:00:00 | |
| AA1-15 | 2026-08-30 23:30:56 | 54.27187 | 14.11494 | 56° | 75km/h | 13241m | 4.9m/s | -51.3°C | 2.1% | 165.8hPa | 2.8V | 18:12:15 | 01:11:26 | 00:00:00 | |
| AA1-15 | 2026-08-30 23:30:45 | 54.27082 | 14.11191 | 65° | 73km/h | 13195m | 4.6m/s | -51.5°C | 2.2% | 167hPa | 2.8V | 18:12:15 | 01:11:15 | 00:00:00 | |
| AA1-15 | 2026-08-30 23:30:34 | 54.26989 | 14.10884 | 64° | 68km/h | 13149m | 3.4m/s | -51.5°C | 2.3% | 168.2hPa | 2.8V | 18:12:15 | 01:11:04 | 00:00:00 | |
| AA1-15 | 2026-08-30 23:30:24 | 54.26900 | 14.10618 | 59° | 68km/h | 13109m | 4.2m/s | -51.2°C | 2.2% | 169.2hPa | 2.8V | 18:12:15 | 01:10:54 | 00:00:00 | |
| AA1-15 | 2026-08-30 23:30:13 | 54.26811 | 14.10332 | 64° | 69km/h | 13066m | 3.8m/s | -51°C | 2.3% | 170.3hPa | 2.8V | 18:12:15 | 01:10:43 | 00:00:00 | |
| AA1-15 | 2026-08-30 23:30:02 | 54.26728 | 14.10038 | 64° | 73km/h | 13020m | 3.9m/s | -51.2°C | 2.4% | 171.5hPa | 2.8V | 18:12:15 | 01:10:32 | 00:00:00 | |
| AA1-15 | 2026-08-30 23:29:51 | 54.26648 | 14.09750 | 64° | 69km/h | 12974m | 3.4m/s | -51.2°C | 2.6% | 172.7hPa | 2.7V | 18:12:15 | 01:10:21 | 00:00:00 | |
| AA1-15 | 2026-08-30 23:29:40 | 54.26572 | 14.09440 | 67° | 66km/h | 12930m | 4.3m/s | -51.3°C | 2.6% | 173.9hPa | 2.7V | 18:12:15 | 01:10:10 | 00:00:00 | |
| AA1-15 | 2026-08-30 23:29:29 | 54.26487 | 14.09130 | 65° | 69km/h | 12886m | 3.3m/s | -51.5°C | 2.8% | 175.1hPa | 2.7V | 18:12:15 | 01:09:59 | 00:00:00 | |
| AA1-15 | 2026-08-30 23:29:18 | 54.26407 | 14.08829 | 67° | 75km/h | 12842m | 4.9m/s | -51.9°C | 3.1% | 176.3hPa | 2.7V | 18:12:15 | 01:09:48 | 00:00:00 | |
| DL1XH-15 | 2026-08-30 23:29:09 | 54.26334 | 14.08543 | 65° | 73km/h | 12801m | 4.5m/s | -52°C | 5.5% | 177.4hPa | 2.7V | 08:30:00 | 01:09:38 | 00:00:00 | |
| AA1-15 | 2026-08-30 23:29:08 | 54.26334 | 14.08543 | 66° | 73km/h | 12801m | 4.5m/s | -52°C | 3.3% | 177.4hPa | 2.7V | 18:12:15 | 01:09:38 | 00:00:00 | |
| AA1-15 | 2026-08-30 23:28:58 | 54.26252 | 14.08203 | 64° | 78km/h | 12756m | 2.8m/s | -52.1°C | 3.3% | 178.7hPa | 2.8V | 18:12:15 | 01:09:27 | 00:00:00 | |
| AA1-15 | 2026-08-30 23:28:47 | 54.26171 | 14.07890 | 65° | 80km/h | 12715m | 3.6m/s | -52°C | 3.3% | 179.7hPa | 2.7V | 18:12:15 | 01:09:17 | 00:00:00 | |
| DL1XH-15 | 2026-08-30 23:28:44 | 54.26134 | 14.07757 | 65° | 89km/h | 12699m | 3.9m/s | -52.1°C | 5.5% | 180.2hPa | 2.7V | 08:30:00 | 01:09:13 | 00:00:00 | |
| AM1SDL-15 | 2026-08-30 23:28:43 | 54.26134 | 14.07757 | 66° | 88km/h | 12699m | 3.9m/s | -52.0°C | 5.5% | 180.1hPa | 2.8V | 00:00:00 | 01:09:13 | 00:00:00 | |
| DL1XH-15 | 2026-08-30 23:28:38 | 54.26047 | 14.07422 | 68° | 82km/h | 12656m | 3.4m/s | -52°C | 5.6% | 181.4hPa | 2.8V | 08:30:00 | 01:09:03 | 00:00:00 | |
| AA1-15 | 2026-08-30 23:28:36 | 54.26070 | 14.07521 | 67° | 80km/h | 12668m | 3.6m/s | -52°C | 3.3% | 181.1hPa | 2.7V | 18:12:15 | 01:09:06 | 00:00:00 | |
| AA1-15 | 2026-08-30 23:28:25 | 54.25974 | 14.07156 | 63° | 88km/h | 12624m | 4.6m/s | -51.9°C | 3.3% | 182.3hPa | 2.8V | 18:12:15 | 01:08:55 | 00:00:00 | |
| DL1XH-15 | 2026-08-30 23:28:24 | 54.25954 | 14.07087 | 64° | 89km/h | 12616m | 2.9m/s | -51.8°C | 5.5% | 182.5hPa | 2.7V | 08:30:00 | 01:08:53 | 00:00:00 | |
| MECKS9 | 2026-08-30 23:28:23 | 54.25964 | 14.07122 | 65° | 89km/h | 12620m | 4.3m/s | -51.8°C | 3.1% | 182.5hPa | 2.8V | 00:00:00 | 00:00:00 | 00:00:00 | |
| S3001 | 2026-08-30 23:28:22 | 54.25945 | 14.07053 | 64° | 88km/h | 12613m | 4.5m/s | -51.8°C | 3.1% | 182.6hPa | 2.8V | 00:00:00 | 00:00:00 | 00:00:00 | |
| DL1XH-15 | 2026-08-30 23:28:14 | 54.25861 | 14.06754 | 65° | 82km/h | 12576m | 4.1m/s | -51.8°C | 5.7% | 183.7hPa | 2.8V | 08:30:00 | 01:08:43 | 00:00:00 | |
| AA1-15 | 2026-08-30 23:28:14 | 54.25869 | 14.06787 | 65° | 82km/h | 12580m | 4.8m/s | -51.8°C | 3.5% | 183.5hPa | 2.8V | 18:12:15 | 01:08:44 | 00:00:00 | |
| AA1-15 | 2026-08-30 23:28:03 | 54.25773 | 14.06433 | 66° | 82km/h | 12535m | 4.2m/s | -51.9°C | 3.7% | 184.8hPa | 2.8V | 18:12:15 | 01:08:33 | 00:00:00 | |
| DL1XH-15 | 2026-08-30 23:27:56 | 54.25672 | 14.06067 | 65° | 69km/h | 12484m | 3.8m/s | -51.9°C | 5.8% | 186.2hPa | 2.7V | 08:30:00 | 01:08:21 | 00:00:00 | |
| AA1-15 | 2026-08-30 23:27:52 | 54.25679 | 14.06094 | 65° | 71km/h | 12489m | 5.1m/s | -51.9°C | 3.8% | 186.2hPa | 2.8V | 18:12:15 | 01:08:22 | 00:00:00 | |
| S3001 | 2026-08-30 23:27:51 | 54.25672 | 14.06067 | 65° | 68km/h | 12484m | 3.8m/s | -51.9°C | 3.3% | 186.2hPa | 2.8V | 00:00:00 | 00:00:00 | 00:00:00 | |
| DJ2DS-15 | 2026-08-30 23:27:46 | 54.25637 | 14.05933 | 65° | 69km/h | 12462m | 3.3m/s | -51.9°C | 3.4% | 186.9hPa | 2.8V | 00:00:00 | 00:00:00 | 00:00:00 | |
| DL1XH-15 | 2026-08-30 23:27:44 | 54.25594 | 14.05762 | 66° | 71km/h | 12438m | 4.8m/s | -51.8°C | 6.1% | 187.6hPa | 2.8V | 08:30:00 | 01:08:10 | 00:00:00 | |
| AA1-15 | 2026-08-30 23:27:41 | 54.25601 | 14.05791 | 66° | 71km/h | 12442m | 3m/s | -51.9°C | 4.1% | 187.5hPa | 2.7V | 18:12:15 | 01:08:11 | 00:00:00 | |
| DL1XH-15 | 2026-08-30 23:27:34 | 54.25531 | 14.05478 | 73° | 71km/h | 12395m | 4.1m/s | -52°C | 6.2% | 188.8hPa | 2.7V | 08:30:00 | 01:08:00 | 00:00:00 | |
| AA1-15 | 2026-08-30 23:27:30 | 54.25531 | 14.05479 | 74° | 71km/h | 12395m | 4.1m/s | -52°C | 4.4% | 188.8hPa | 2.7V | 18:12:15 | 01:08:00 | 00:00:00 | |
| DG6HD-11 | 2026-08-30 23:27:25 | 54.25503 | 14.05337 | 71° | 78km/h | 12378m | 4.2m/s | -52.1°C | 6.4% | 189.3hPa | 2.7V | 00:00:00 | 00:00:00 | 00:00:00 | |
| MECKS9 | 2026-08-30 23:27:24 | 54.25497 | 14.05308 | 73° | 71km/h | 12373m | 4.2m/s | -52.2°C | 3.9% | 189.4hPa | 2.7V | 00:00:00 | 00:00:00 | 00:00:00 | |
| DL1XH-15 | 2026-08-30 23:27:20 | 54.25468 | 14.05152 | 71° | 77km/h | 12353m | 4.7m/s | -52.2°C | 6.7% | 190.1hPa | 2.7V | 08:30:00 | 01:07:49 | 00:00:00 | |
| AA1-15 | 2026-08-30 23:27:19 | 54.25468 | 14.05152 | 72° | 77km/h | 12353m | 4.7m/s | -52.2°C | 5% | 190.1hPa | 2.7V | 18:12:15 | 01:07:49 | 00:00:00 | |
| AA1-15 | 2026-08-30 23:27:08 | 54.25403 | 14.04807 | 77° | 80km/h | 12307m | 3m/s | -52.6°C | 6% | 191.4hPa | 2.8V | 18:12:15 | 01:07:38 | 00:00:00 | |
| AA1-15 | 2026-08-30 23:26:58 | 54.25340 | 14.04468 | 68° | 84km/h | 12261m | 5.5m/s | -52.8°C | 6.3% | 192.8hPa | 2.8V | 18:12:15 | 01:07:28 | 00:00:00 | |
| AA1-15 | 2026-08-30 23:26:47 | 54.25243 | 14.04093 | 64° | 88km/h | 12215m | 4.3m/s | -52.9°C | 6.8% | 194.1hPa | 2.7V | 18:12:15 | 01:07:17 | 00:00:00 | |
| DL1XH-15 | 2026-08-30 23:26:44 | 54.25179 | 14.03893 | 61° | 89km/h | 12190m | 3.4m/s | -52.9°C | 8.4% | 194.9hPa | 2.7V | 08:30:00 | 01:07:11 | 00:00:00 | |
| AA1-15 | 2026-08-30 23:26:36 | 54.25128 | 14.03724 | 64° | 88km/h | 12169m | 4.3m/s | -52.9°C | 7.2% | 195.6hPa | 2.7V | 18:12:15 | 01:07:06 | 00:00:00 | |
| DJ2DS-15 | 2026-08-30 23:26:34 | 54.25110 | 14.03657 | 64° | 84km/h | 12160m | 3.7m/s | -52.9°C | 5.6% | 195.9hPa | 2.7V | 00:00:00 | 00:00:00 | 00:00:00 | |
| DL1XH-15 | 2026-08-30 23:26:32 | 54.25082 | 14.03554 | 65° | 88km/h | 12148m | 3.5m/s | -53°C | 8.8% | 196.2hPa | 2.7V | 08:30:00 | 01:07:01 | 00:00:00 | |
| SP3BTT-10 | 2026-08-30 23:26:29 | 54.25064 | 14.03487 | 65° | 77km/h | 12140m | 3.7m/s | -52.9°C | 8.9% | 196.4hPa | 2.7V | 00:00:00 | 00:00:00 | 00:00:00 | |
| DL1XH-15 | 2026-08-30 23:26:27 | 54.24983 | 14.03230 | 62° | 86km/h | 12108m | 2.9m/s | -53°C | 9.4% | 197.4hPa | 2.8V | 08:30:00 | 01:06:51 | 00:00:00 | |
| AA1-15 | 2026-08-30 23:26:25 | 54.25024 | 14.03358 | 61° | 84km/h | 12125m | 4m/s | -53°C | 8% | 197hPa | 2.7V | 18:12:15 | 01:06:55 | 00:00:00 | |
| AA1-15 | 2026-08-30 23:26:14 | 54.24911 | 14.03015 | 58° | 82km/h | 12080m | 4.9m/s | -52.8°C | 9.2% | 198.3hPa | 2.8V | 18:12:15 | 01:06:44 | 00:00:00 | |
| MECKS9 | 2026-08-30 23:26:13 | 54.24911 | 14.03015 | 59° | 82km/h | 12080m | 4.9m/s | -52.8°C | 6.7% | 198.3hPa | 2.7V | 00:00:00 | 00:00:00 | 00:00:00 | |
| DL1XH-15 | 2026-08-30 23:26:03 | 54.24762 | 14.02558 | 60° | 91km/h | 12022m | 3.3m/s | -53.1°C | 11.8% | 200.1hPa | 2.7V | 08:30:00 | 01:06:30 | 00:00:00 | |
| AA1-15 | 2026-08-30 23:26:03 | 54.24794 | 14.02659 | 62° | 88km/h | 12034m | 3.8m/s | -53.1°C | 11.1% | 199.7hPa | 2.8V | 18:12:15 | 01:06:33 | 00:00:00 | |
| AA1-15 | 2026-08-30 23:25:52 | 54.24681 | 14.02282 | 66° | 89km/h | 11991m | 4.4m/s | -53.3°C | 13.7% | 201.1hPa | 2.8V | 18:12:15 | 01:06:22 | 00:00:00 | |
| DL1XH-15 | 2026-08-30 23:25:50 | 54.24662 | 14.02211 | 65° | 91km/h | 11982m | 3.9m/s | -53.3°C | 14% | 201.4hPa | 2.8V | 08:30:00 | 01:06:20 | 00:00:00 | |
| S3001 | 2026-08-30 23:25:47 | 54.24634 | 14.02105 | 65° | 89km/h | 11969m | 3.4m/s | -53.4°C | 11.2% | 201.7hPa | 2.7V | 00:00:00 | 00:00:00 | 00:00:00 | |
| DL1XH-15 | 2026-08-30 23:25:45 | 54.24564 | 14.01850 | 65° | 95km/h | 11941m | 3.4m/s | -53.6°C | 16.6% | 202.7hPa | 2.7V | 08:30:00 | 01:06:10 | 00:00:00 | |
| AA1-15 | 2026-08-30 23:25:41 | 54.24574 | 14.01887 | 66° | 95km/h | 11945m | 5m/s | -53.6°C | 17.1% | 202.5hPa | 2.7V | 18:12:15 | 01:06:11 | 00:00:00 | |
| DL1XH-15 | 2026-08-30 23:25:33 | 54.24458 | 14.01442 | 64° | 97km/h | 11896m | 4.1m/s | -53.8°C | 19.6% | 204hPa | 2.8V | 08:30:00 | 01:05:59 | 00:00:00 | |
| MECKS9 | 2026-08-30 23:25:32 | 54.24499 | 14.01594 | 68° | 93km/h | 11912m | 3.5m/s | -53.7°C | 14.5% | 203.6hPa | 2.8V | 00:00:00 | 00:00:00 | 00:00:00 | |
| AA1-15 | 2026-08-30 23:25:30 | 54.24469 | 14.01480 | 65° | 99km/h | 11900m | 3.2m/s | -53.8°C | 21.2% | 203.9hPa | 2.8V | 18:12:15 | 01:06:00 | 00:00:00 | |
| AA1-15 | 2026-08-30 23:25:19 | 54.24359 | 14.01073 | 64° | 95km/h | 11854m | 4.5m/s | -54.7°C | 27.9% | 205.4hPa | 2.8V | 18:12:15 | 01:05:49 | 00:00:00 | |
| AA1-15 | 2026-08-30 23:25:08 | 54.24249 | 14.00658 | 70° | 93km/h | 11810m | 4.6m/s | -55.4°C | 33.2% | 206.8hPa | 2.7V | 18:12:15 | 01:05:38 | 00:00:00 | |
| DL1XH-15 | 2026-08-30 23:25:07 | 54.24231 | 14.00583 | 67° | 95km/h | 11802m | 3.5m/s | -55.6°C | 31.9% | 207.1hPa | 2.8V | 08:30:00 | 01:05:36 | 00:00:00 | |
| DL1XH-15 | 2026-08-30 23:25:00 | 54.24134 | 14.00202 | 63° | 95km/h | 11763m | 4.6m/s | -56°C | 36.6% | 208.4hPa | 2.7V | 08:30:00 | 01:05:26 | 00:00:00 | |
| AA1-15 | 2026-08-30 23:24:57 | 54.24144 | 14.00239 | 64° | 95km/h | 11767m | 4.1m/s | -56°C | 37.2% | 208.2hPa | 2.8V | 18:12:15 | 01:05:27 | 00:00:00 | |
| AA1-15 | 2026-08-30 23:24:47 | 54.24034 | 13.99868 | 62° | 97km/h | 11728m | 4.6m/s | -56.5°C | 40.3% | 209.4hPa | 2.8V | 18:12:15 | 01:05:17 | 00:00:00 | |
| DL1XH-15 | 2026-08-30 23:24:47 | 54.24010 | 13.99794 | 60° | 97km/h | 11720m | 4.7m/s | -56.7°C | 39.7% | 209.8hPa | 2.7V | 08:30:00 | 01:05:15 | 00:00:00 | |
| S3001 | 2026-08-30 23:24:45 | 54.23998 | 13.99758 | 59° | 95km/h | 11715m | 3.8m/s | -56.7°C | 33.7% | 209.8hPa | 2.7V | 00:00:00 | 00:00:00 | 00:00:00 | |
| MECKS9 | 2026-08-30 23:24:42 | 54.23973 | 13.99687 | 59° | 93km/h | 11707m | 3.9m/s | -56.7°C | 34.2% | 210.2hPa | 2.7V | 00:00:00 | 00:00:00 | 00:00:00 | |
| DL1XH-15 | 2026-08-30 23:24:39 | 54.23889 | 13.99421 | 63° | 88km/h | 11676m | 4.5m/s | -56.6°C | 41.3% | 211.2hPa | 2.7V | 08:30:00 | 01:05:04 | 00:00:00 | |
| AA1-15 | 2026-08-30 23:24:36 | 54.23908 | 13.99488 | 64° | 86km/h | 11684m | 4.5m/s | -56.7°C | 41.5% | 211hPa | 2.8V | 18:12:15 | 01:05:06 | 00:00:00 | |
| AA1-15 | 2026-08-30 23:24:25 | 54.23790 | 13.99112 | 63° | 86km/h | 11642m | 3.7m/s | -56.7°C | 43.5% | 212.3hPa | 2.8V | 18:12:15 | 01:04:55 | 00:00:00 | |
| DL1XH-15 | 2026-08-30 23:24:14 | 54.23634 | 13.98566 | 65° | 95km/h | 11581m | 4.7m/s | -57.2°C | 47.7% | 214.4hPa | 2.7V | 08:30:00 | 01:04:39 | 00:00:00 | |
| DG6HD-11 | 2026-08-30 23:24:14 | 54.23683 | 13.98742 | 64° | 97km/h | 11600m | 4.7m/s | -57.0°C | 44.4% | 213.7hPa | 2.7V | 00:00:00 | 00:00:00 | 08:30:00 | |
| MECKS9 | 2026-08-30 23:24:06 | 54.23614 | 13.98490 | 67° | 97km/h | 11574m | 3.6m/s | -57.3°C | 41.4% | 214.7hPa | 2.7V | 00:00:00 | 00:00:00 | 00:00:00 | |
| AA1-15 | 2026-08-30 23:24:04 | 54.23575 | 13.98341 | 64° | 93km/h | 11559m | 3.8m/s | -57.3°C | 47.3% | 215.2hPa | 2.7V | 18:12:15 | 01:04:33 | 00:00:00 | |
| DL1XH-15 | 2026-08-30 23:24:02 | 54.23533 | 13.98196 | 64° | 95km/h | 11543m | 3.5m/s | -57.3°C | 47.4% | 215.7hPa | 2.7V | 08:30:00 | 01:04:29 | 00:00:00 | |
| AA1-15 | 2026-08-30 23:23:52 | 54.23461 | 13.97919 | 65° | 104km/h | 11516m | 3.7m/s | -57.2°C | 47.9% | 216.6hPa | 2.7V | 18:12:15 | 01:04:22 | 00:00:00 | |
| DL1XH-15 | 2026-08-30 23:23:50 | 54.23429 | 13.97800 | 66° | 99km/h | 11505m | 3.2m/s | -57.2°C | 49.4% | 217hPa | 2.8V | 08:30:00 | 01:04:19 | 00:00:00 | |
| DL1XH-15 | 2026-08-30 23:23:44 | 54.23330 | 13.97395 | 68° | 102km/h | 11467m | 3.8m/s | -57.1°C | 51.3% | 218.3hPa | 2.7V | 08:30:00 | 01:04:09 | 00:00:00 | |
| AA1-15 | 2026-08-30 23:23:41 | 54.23350 | 13.97478 | 67° | 104km/h | 11474m | 3.2m/s | -57.2°C | 49% | 218.1hPa | 2.8V | 18:12:15 | 01:04:11 | 00:00:00 | |
| AA1-15 | 2026-08-30 23:23:31 | 54.23237 | 13.97024 | 67° | 106km/h | 11430m | 3.9m/s | -56.9°C | 49.5% | 219.6hPa | 2.8V | 18:12:15 | 01:04:00 | 00:00:00 | |
| MECKS9 | 2026-08-30 23:23:25 | 54.23197 | 13.96857 | 69° | 106km/h | 11415m | 4.8m/s | -56.8°C | 44.0% | 220.1hPa | 2.8V | 00:00:00 | 00:00:00 | 00:00:00 | |
| DL1XH-15 | 2026-08-30 23:23:22 | 54.23124 | 13.96556 | 66° | 108km/h | 11385m | 3.2m/s | -56.8°C | 51.9% | 221.1hPa | 2.8V | 08:30:00 | 01:03:49 | 00:00:00 | |
| AA1-15 | 2026-08-30 23:23:19 | 54.23124 | 13.96556 | 67° | 108km/h | 11385m | 3.2m/s | -56.8°C | 50.6% | 221.1hPa | 2.8V | 18:12:15 | 01:03:49 | 00:00:00 | |
| DG6HD-11 | 2026-08-30 23:23:14 | 54.23070 | 13.96341 | 68° | 110km/h | 11365m | 2.8m/s | -56.8°C | 53.2% | 221.8hPa | 2.8V | 00:00:00 | 00:00:00 | 00:00:00 | |
| S3001 | 2026-08-30 23:23:12 | 54.23049 | 13.96254 | 68° | 110km/h | 11358m | 4.3m/s | -56.8°C | 46.0% | 222.1hPa | 2.8V | 00:00:00 | 00:00:00 | 00:00:00 | |
| DL1XH-15 | 2026-08-30 23:23:11 | 54.23018 | 13.96120 | 68° | 111km/h | 11346m | 4m/s | -56.7°C | 52.8% | 222.4hPa | 2.8V | 08:30:00 | 01:03:39 | 00:00:00 | |
| AA1-15 | 2026-08-30 23:23:08 | 54.23007 | 13.96075 | 68° | 111km/h | 11343m | 3.6m/s | -56.7°C | 51.4% | 222.6hPa | 2.8V | 18:12:15 | 01:03:38 | 00:00:00 | |
| DL1XH-15 | 2026-08-30 23:23:04 | 54.22904 | 13.95681 | 66° | 111km/h | 11306m | 3.8m/s | -56.5°C | 53.2% | 223.8hPa | 2.7V | 08:30:00 | 01:03:29 | 00:00:00 | |
| AA1-15 | 2026-08-30 23:22:57 | 54.22882 | 13.95593 | 68° | 110km/h | 11298m | 4m/s | -56.5°C | 52.3% | 224.1hPa | 2.8V | 18:12:15 | 01:03:27 | 00:00:00 | |
| AA1-15 | 2026-08-30 23:22:46 | 54.22762 | 13.95126 | 65° | 104km/h | 11255m | 3.3m/s | -56.4°C | 53% | 225.7hPa | 2.7V | 18:12:15 | 01:03:16 | 00:00:00 | |
| AA1-15 | 2026-08-30 23:22:35 | 54.22640 | 13.94666 | 67° | 108km/h | 11214m | 3.7m/s | -56.4°C | 54.4% | 227.1hPa | 2.7V | 18:12:15 | 01:03:05 | 00:00:00 | |
| AA1-15 | 2026-08-30 23:22:25 | 54.22525 | 13.94228 | 68° | 113km/h | 11175m | 3.4m/s | -56.2°C | 54.5% | 228.6hPa | 2.7V | 18:12:15 | 01:02:55 | 00:00:00 | |
| AA1-15 | 2026-08-30 23:22:14 | 54.22395 | 13.93755 | 64° | 110km/h | 11132m | 4.2m/s | -56.2°C | 53.9% | 230.1hPa | 2.8V | 18:12:15 | 01:02:44 | 00:00:00 | |
| AA1-15 | 2026-08-30 23:22:03 | 54.22260 | 13.93271 | 63° | 111km/h | 11088m | 3.7m/s | -55.8°C | 52.5% | 231.7hPa | 2.7V | 18:12:15 | 01:02:33 | 00:00:00 | |
| AA1-15 | 2026-08-30 23:21:53 | 54.22128 | 13.92795 | 65° | 115km/h | 11044m | 3.1m/s | -55.5°C | 51.9% | 233.3hPa | 2.8V | 18:12:15 | 01:02:22 | 00:00:00 | |
| AA1-15 | 2026-08-30 23:21:41 | 54.21998 | 13.92311 | 63° | 115km/h | 11001m | 3.7m/s | -55.1°C | 51.2% | 234.9hPa | 2.8V | 18:12:15 | 01:02:11 | 00:00:00 | |
| AA1-15 | 2026-08-30 23:21:30 | 54.21852 | 13.91802 | 65° | 124km/h | 10953m | 3.8m/s | -54.6°C | 50% | 236.6hPa | 2.8V | 18:12:15 | 01:02:00 | 00:00:00 | |
| AA1-15 | 2026-08-30 23:21:19 | 54.21714 | 13.91288 | 65° | 120km/h | 10907m | 4.9m/s | -54.2°C | 49.5% | 238.4hPa | 2.8V | 18:12:15 | 01:01:49 | 00:00:00 | |
| AA1-15 | 2026-08-30 23:21:08 | 54.21575 | 13.90777 | 66° | 115km/h | 10858m | 5.9m/s | -54°C | 50.3% | 240.2hPa | 2.8V | 18:12:15 | 01:01:38 | 00:00:00 | |
| AA1-15 | 2026-08-30 23:20:58 | 54.21433 | 13.90275 | 63° | 115km/h | 10804m | 5.7m/s | -53.5°C | 49% | 242.2hPa | 2.8V | 18:12:15 | 01:01:27 | 00:00:00 | |
| AA1-15 | 2026-08-30 23:20:47 | 54.21310 | 13.89833 | 66° | 110km/h | 10759m | 4m/s | -53.2°C | 49.3% | 243.9hPa | 2.8V | 18:12:15 | 01:01:17 | 00:00:00 | |
| AA1-15 | 2026-08-30 23:20:36 | 54.21181 | 13.89342 | 67° | 111km/h | 10709m | 4.7m/s | -52.9°C | 51.2% | 245.8hPa | 2.8V | 18:12:15 | 01:01:06 | 00:00:00 | |
| AA1-15 | 2026-08-30 23:20:25 | 54.21058 | 13.88866 | 71° | 102km/h | 10662m | 4.2m/s | -52.7°C | 53.8% | 247.6hPa | 2.7V | 18:12:15 | 01:00:55 | 00:00:00 | |
| AA1-15 | 2026-08-30 23:20:14 | 54.20952 | 13.88389 | 69° | 108km/h | 10617m | 4.8m/s | -52.6°C | 52.7% | 249.3hPa | 2.7V | 18:12:15 | 01:00:44 | 00:00:00 | |
| AA1-15 | 2026-08-30 23:20:04 | 54.20857 | 13.87894 | 73° | 111km/h | 10573m | 2.6m/s | -52.2°C | 54.3% | 251.1hPa | 2.8V | 18:12:15 | 01:00:33 | 00:00:00 | |
| DL1XH-15 | 2026-08-30 23:20:00 | 54.20789 | 13.87515 | 72° | 115km/h | 10542m | 4.5m/s | -52°C | 56.3% | 252.2hPa | 2.7V | 08:30:00 | 01:00:25 | 00:00:00 | |
| DB0DAN | 2026-08-30 23:19:55 | 54.20789 | 13.87515 | 73° | 110km/h | 10542m | 4.5m/s | -52.1°C | 50.3% | 252.2hPa | 2.7V | 00:00:00 | 00:00:00 | 00:00:00 | |
| AA1-15 | 2026-08-30 23:19:53 | 54.20762 | 13.87377 | 70° | 111km/h | 10530m | 4.9m/s | -52°C | 55.4% | 252.7hPa | 2.8V | 18:12:15 | 01:00:22 | 00:00:00 | |
| AA1-15 | 2026-08-30 23:19:41 | 54.20666 | 13.86873 | 72° | 110km/h | 10486m | 4.2m/s | -51.7°C | 59.4% | 254.4hPa | 2.7V | 18:12:15 | 01:00:11 | 00:00:00 | |
| AA1-15 | 2026-08-30 23:19:30 | 54.20572 | 13.86359 | 73° | 110km/h | 10444m | 3.4m/s | -51.4°C | 60.7% | 256.1hPa | 2.7V | 18:12:15 | 01:00:00 | 00:00:00 | |
| AA1-15 | 2026-08-30 23:19:19 | 54.20478 | 13.85861 | 71° | 110km/h | 10402m | 3.3m/s | -51°C | 62.1% | 257.8hPa | 2.7V | 18:12:15 | 00:59:49 | 00:00:00 | |
| AA1-15 | 2026-08-30 23:19:09 | 54.20397 | 13.85413 | 71° | 115km/h | 10364m | 3.7m/s | -50.8°C | 62.6% | 259.3hPa | 2.8V | 18:12:15 | 00:59:39 | 00:00:00 | |
| AA1-15 | 2026-08-30 23:18:58 | 54.20302 | 13.84943 | 73° | 106km/h | 10315m | 6.8m/s | -50.4°C | 63.7% | 261.4hPa | 2.7V | 18:12:15 | 00:59:28 | 00:00:00 | |
| AA1-15 | 2026-08-30 23:18:48 | 54.20236 | 13.84473 | 75° | 97km/h | 10255m | 6.1m/s | -49.9°C | 63.7% | 263.5hPa | 2.8V | 18:12:15 | 00:59:18 | 00:00:00 | |
| AA1-15 | 2026-08-30 23:18:37 | 54.20130 | 13.84027 | 64° | 95km/h | 10182m | 7.3m/s | -49.3°C | 66.9% | 266.4hPa | 2.8V | 18:12:15 | 00:59:07 | 00:00:00 | |
| AA1-15 | 2026-08-30 23:18:26 | 54.20042 | 13.83612 | 60° | 89km/h | 10118m | 4.7m/s | -48.7°C | 66.3% | 269hPa | 2.8V | 18:12:15 | 00:58:56 | 00:00:00 | |
| AA1-15 | 2026-08-30 23:18:16 | 54.19956 | 13.83266 | 68° | 78km/h | 10061m | 6.1m/s | -48.1°C | 67.2% | 271.4hPa | 2.8V | 18:12:15 | 00:58:46 | 00:00:00 | |
| DL1XH-15 | 2026-08-30 23:18:06 | 54.19833 | 13.82730 | 67° | 89km/h | 9977m | 4.2m/s | -47.4°C | 72.5% | 274.9hPa | 2.7V | 08:30:00 | 00:58:31 | 00:00:00 | |
| AA1-15 | 2026-08-30 23:18:06 | 54.19870 | 13.82866 | 66° | 88km/h | 9995m | 5.5m/s | -47.5°C | 66.9% | 274.1hPa | 2.8V | 18:12:15 | 00:58:35 | 00:00:00 | |
| AA1-15 | 2026-08-30 23:17:54 | 54.19780 | 13.82471 | 72° | 86km/h | 9945m | 6.9m/s | -47.1°C | 67.4% | 276.2hPa | 2.8V | 18:12:15 | 00:58:24 | 00:00:00 | |
| AA1-15 | 2026-08-30 23:17:44 | 54.19696 | 13.82121 | 69° | 89km/h | 9893m | 4.7m/s | -46.6°C | 65.9% | 278.4hPa | 2.8V | 18:12:15 | 00:58:14 | 00:00:00 | |
| AA1-15 | 2026-08-30 23:17:33 | 54.19599 | 13.81731 | 64° | 80km/h | 9845m | 3.9m/s | -46.1°C | 65.9% | 280.5hPa | 2.8V | 18:12:15 | 00:58:03 | 00:00:00 | |
| DL1XH-15 | 2026-08-30 23:17:30 | 54.19532 | 13.81462 | 71° | 93km/h | 9807m | 6.7m/s | -45.8°C | 68.8% | 282hPa | 2.8V | 08:30:00 | 00:57:55 | 00:00:00 | |
| S3001 | 2026-08-30 23:17:30 | 54.19571 | 13.81636 | 63° | 84km/h | 9831m | 4.2m/s | -46.0°C | 65.2% | 281.1hPa | 2.8V | 00:00:00 | 00:00:00 | 00:00:00 | |
| DB0DAN | 2026-08-30 23:17:25 | 54.19532 | 13.81462 | 71° | 88km/h | 9807m | 6.7m/s | -45.8°C | 63.4% | 282hPa | 2.8V | 00:00:00 | 00:00:00 | 00:00:00 | |
| AA1-15 | 2026-08-30 23:17:22 | 54.19508 | 13.81349 | 70° | 89km/h | 9792m | 5.9m/s | -45.6°C | 65% | 282.7hPa | 2.8V | 18:12:15 | 00:57:52 | 00:00:00 | |
| AA1-15 | 2026-08-30 23:17:12 | 54.19413 | 13.80980 | 71° | 86km/h | 9735m | 4.2m/s | -45.1°C | 64.7% | 285.1hPa | 2.8V | 18:12:15 | 00:57:41 | 00:00:00 | |
| DL1XH-15 | 2026-08-30 23:17:11 | 54.19389 | 13.80877 | 64° | 84km/h | 9717m | 6m/s | -44.9°C | 68.9% | 285.9hPa | 2.8V | 08:30:00 | 00:57:38 | 00:00:00 | |
| DB0DAN | 2026-08-30 23:17:10 | 54.19406 | 13.80945 | 70° | 82km/h | 9729m | 7.5m/s | -45°C | 64.6% | 285.36hPa | 2.7V | 00:00:00 | 00:00:00 | 00:00:00 | |
| AA1-15 | 2026-08-30 23:17:00 | 54.19313 | 13.80616 | 65° | 93km/h | 9671m | 5.1m/s | -44.5°C | 63.1% | 287.9hPa | 2.8V | 18:12:15 | 00:57:30 | 00:00:00 | |
| S3001 | 2026-08-30 23:16:59 | 54.19303 | 13.80580 | 64° | 93km/h | 9666m | 4.4m/s | -44.4°C | 61.5% | 288.2hPa | 2.8V | 00:00:00 | 00:00:00 | 00:00:00 | |
| DB0DAN | 2026-08-30 23:16:55 | 54.19265 | 13.80438 | 66° | 82km/h | 9644m | 1.8m/s | -44.2°C | 62.7% | 289.2hPa | 2.8V | 00:00:00 | 00:00:00 | 00:00:00 | |
| AA1-15 | 2026-08-30 23:16:50 | 54.19208 | 13.80249 | 60° | 84km/h | 9610m | 6.5m/s | -43.9°C | 62.8% | 290.6hPa | 2.8V | 18:12:15 | 00:57:19 | 00:00:00 | |
| AA1-15 | 2026-08-30 23:16:38 | 54.19101 | 13.79871 | 62° | 82km/h | 9555m | 9.3m/s | -43.4°C | 65.1% | 293hPa | 2.9V | 18:12:15 | 00:57:08 | 00:00:00 | |
| AA1-15 | 2026-08-30 23:16:28 | 54.19005 | 13.79533 | 66° | 93km/h | 9496m | 3.2m/s | -42.9°C | 66.3% | 295.5hPa | 2.8V | 18:12:15 | 00:56:58 | 00:00:00 | |
| DL1XH-15 | 2026-08-30 23:16:26 | 54.18986 | 13.79461 | 64° | 89km/h | 9486m | 5.1m/s | -42.8°C | 72.8% | 296.1hPa | 2.9V | 08:30:00 | 00:56:56 | 00:00:00 | |
| DG6HD-11 | 2026-08-30 23:16:23 | 54.18957 | 13.79363 | 62° | 84km/h | 9473m | 3.1m/s | -42.6°C | 72.4% | 296.6hPa | 2.8V | 00:00:00 | 00:00:00 | 00:00:00 | |
| DL1XH-15 | 2026-08-30 23:16:21 | 54.18888 | 13.79139 | 64° | 88km/h | 9429m | 6.8m/s | -42.2°C | 71.5% | 298.5hPa | 2.8V | 08:30:00 | 00:56:46 | 00:00:00 | |
| AA1-15 | 2026-08-30 23:16:17 | 54.18898 | 13.79173 | 64° | 86km/h | 9436m | 8.5m/s | -42.3°C | 66.9% | 298.1hPa | 2.8V | 18:12:15 | 00:56:47 | 00:00:00 | |
| AM1SDL-15 | 2026-08-30 23:16:17 | 54.18898 | 13.79173 | 65° | 86km/h | 9436m | 8.4m/s | -42.2°C | 71.0% | 298.1hPa | 2.9V | 00:00:00 | 00:56:47 | 00:00:00 | |
| DL1XH-15 | 2026-08-30 23:16:11 | 54.18794 | 13.78809 | 62° | 84km/h | 9368m | 5.3m/s | -41.8°C | 72.8% | 301.1hPa | 2.9V | 08:30:00 | 00:56:36 | 00:00:00 | |
| AA1-15 | 2026-08-30 23:16:06 | 54.18794 | 13.78809 | 62° | 84km/h | 9368m | 5.3m/s | -41.8°C | 66.8% | 301.1hPa | 2.9V | 18:12:15 | 00:56:36 | 00:00:00 | |
| AM1SDL-15 | 2026-08-30 23:16:05 | 54.18784 | 13.78778 | 63° | 80km/h | 9364m | 2.9m/s | -41.7°C | 73.2% | 301.2hPa | 2.8V | 00:00:00 | 00:56:35 | 00:00:00 | |
| DL1XH-15 | 2026-08-30 23:16:01 | 54.18706 | 13.78495 | 71° | 82km/h | 9316m | 6.4m/s | -41.3°C | 72.2% | 303.4hPa | 2.8V | 08:30:00 | 00:56:26 | 00:00:00 | |
| AA1-15 | 2026-08-30 23:15:55 | 54.18699 | 13.78462 | 69° | 80km/h | 9310m | 6.5m/s | -41.3°C | 67% | 303.7hPa | 2.9V | 18:12:15 | 00:56:25 | 00:00:00 | |
| DG6HD-11 | 2026-08-30 23:15:53 | 54.18682 | 13.78397 | 65° | 78km/h | 9300m | 4.5m/s | -41.2°C | 72.9% | 304.1hPa | 2.9V | 00:00:00 | 00:00:00 | 00:00:00 | |
| DL1XH-15 | 2026-08-30 23:15:51 | 54.18622 | 13.78173 | 68° | 78km/h | 9263m | 7.2m/s | -40.9°C | 70.9% | 305.7hPa | 2.9V | 08:30:00 | 00:56:16 | 00:00:00 | |
| AA1-15 | 2026-08-30 23:15:45 | 54.18614 | 13.78142 | 64° | 78km/h | 9256m | 5.7m/s | -40.8°C | 66.8% | 306.1hPa | 2.8V | 18:12:15 | 00:56:15 | 00:00:00 | |
| AA1-15 | 2026-08-30 23:15:34 | 54.18514 | 13.77812 | 62° | 78km/h | 9201m | 5.4m/s | -40.4°C | 65.7% | 308.6hPa | 2.9V | 18:12:15 | 00:56:04 | 00:00:00 | |
| DL1XH-15 | 2026-08-30 23:15:31 | 54.18443 | 13.77577 | 63° | 78km/h | 9161m | 6.5m/s | -40°C | 69% | 310.4hPa | 2.9V | 08:30:00 | 00:55:56 | 00:00:00 | |
| AA1-15 | 2026-08-30 23:15:23 | 54.18417 | 13.77485 | 65° | 77km/h | 9146m | 4.8m/s | -39.9°C | 64.9% | 311.1hPa | 2.9V | 18:12:15 | 00:55:53 | 00:00:00 | |
| AA1-15 | 2026-08-30 23:15:13 | 54.18325 | 13.77156 | 69° | 78km/h | 9102m | 3.6m/s | -39.6°C | 64% | 313.1hPa | 2.8V | 18:12:15 | 00:55:42 | 00:00:00 | |
| DL1XH-15 | 2026-08-30 23:15:11 | 54.18280 | 13.76971 | 67° | 78km/h | 9077m | 5.6m/s | -39.4°C | 67.6% | 314.2hPa | 2.9V | 08:30:00 | 00:55:36 | 00:00:00 | |
| AA1-15 | 2026-08-30 23:15:02 | 54.18244 | 13.76815 | 67° | 78km/h | 9054m | 5.3m/s | -39.2°C | 63.2% | 315.3hPa | 2.9V | 18:12:15 | 00:55:31 | 00:00:00 | |
| DL1XH-15 | 2026-08-30 23:15:01 | 54.18209 | 13.76654 | 71° | 75km/h | 9031m | 3.8m/s | -39°C | 66.6% | 316.3hPa | 2.9V | 08:30:00 | 00:55:26 | 00:00:00 | |
| DG6HD-11 | 2026-08-30 23:14:53 | 54.18190 | 13.76565 | 69° | 73km/h | 9020m | 3.3m/s | -38.9°C | 67.2% | 316.9hPa | 2.9V | 00:00:00 | 00:00:00 | 00:00:00 | |
| DL1XH-15 | 2026-08-30 23:14:51 | 54.18142 | 13.76358 | 68° | 78km/h | 8989m | 3.6m/s | -38.7°C | 64.9% | 318.2hPa | 2.9V | 08:30:00 | 00:55:16 | 00:00:00 | |
| AA1-15 | 2026-08-30 23:14:50 | 54.18169 | 13.76478 | 67° | 71km/h | 9007m | 5.7m/s | -38.8°C | 61.6% | 317.4hPa | 2.9V | 18:12:15 | 00:55:20 | 00:00:00 | |
| DL1XH-15 | 2026-08-30 23:14:41 | 54.18075 | 13.76059 | 66° | 68km/h | 8944m | 3.4m/s | -38.2°C | 61.3% | 320.3hPa | 2.9V | 08:30:00 | 00:55:06 | 00:00:00 | |
| AA1-15 | 2026-08-30 23:14:40 | 54.18098 | 13.76172 | 72° | 75km/h | 8961m | 4.1m/s | -38.4°C | 58.8% | 319.5hPa | 2.9V | 18:12:15 | 00:55:10 | 00:00:00 | |
| AA1-15 | 2026-08-30 23:14:29 | 54.18023 | 13.75850 | 70° | 77km/h | 8915m | 3.7m/s | -37.9°C | 57.2% | 321.7hPa | 2.9V | 18:12:15 | 00:54:59 | 00:00:00 | |
| AM1SDL-15 | 2026-08-30 23:14:29 | 54.18023 | 13.75850 | 70° | 71km/h | 8915m | 3.7m/s | -37.9°C | 60.5% | 321.7hPa | 2.8V | 00:00:00 | 00:54:59 | 00:00:00 | |
| DL1XH-15 | 2026-08-30 23:14:26 | 54.17990 | 13.75708 | 64° | 66km/h | 8897m | 4.7m/s | -37.8°C | 58.7% | 322.6hPa | 2.8V | 08:30:00 | 00:54:54 | 00:00:00 | |
| AA1-15 | 2026-08-30 23:14:19 | 54.17954 | 13.75568 | 67° | 75km/h | 8876m | 5.7m/s | -37.6°C | 56.2% | 323.6hPa | 2.9V | 18:12:15 | 00:54:49 | 00:00:00 | |
| AM1SDL-15 | 2026-08-30 23:14:17 | 54.17940 | 13.75507 | 69° | 73km/h | 8867m | 4.8m/s | -37.4°C | 58.2% | 323.9hPa | 2.9V | 00:00:00 | 00:54:47 | 00:00:00 | |
| DL1XH-15 | 2026-08-30 23:14:16 | 54.17918 | 13.75413 | 69° | 73km/h | 8856m | 3.9m/s | -37.4°C | 57.8% | 324.4hPa | 2.9V | 08:30:00 | 00:54:44 | 00:00:00 | |
| AA1-15 | 2026-08-30 23:14:08 | 54.17883 | 13.75246 | 70° | 71km/h | 8834m | 2.7m/s | -37.2°C | 56.5% | 325.5hPa | 2.9V | 18:12:15 | 00:54:38 | 00:00:00 | |
| DL1XH-15 | 2026-08-30 23:14:06 | 54.17851 | 13.75098 | 68° | 73km/h | 8817m | 3.5m/s | -37°C | 63.8% | 326.3hPa | 2.8V | 08:30:00 | 00:54:33 | 00:00:00 | |
| AA1-15 | 2026-08-30 23:13:57 | 54.17811 | 13.74913 | 66° | 75km/h | 8791m | 3.1m/s | -36.9°C | 67.2% | 327.6hPa | 2.9V | 18:12:15 | 00:54:27 | 00:00:00 | |
| DL1XH-15 | 2026-08-30 23:13:56 | 54.17784 | 13.74804 | 67° | 64km/h | 8774m | 4.5m/s | -36.8°C | 69.6% | 328.4hPa | 2.9V | 08:30:00 | 00:54:23 | 00:00:00 | |
| AA1-15 | 2026-08-30 23:13:46 | 54.17725 | 13.74611 | 63° | 80km/h | 8739m | 5.9m/s | -36.5°C | 64.4% | 329.9hPa | 2.9V | 18:12:15 | 00:54:16 | 00:00:00 | |
| DL1XH-15 | 2026-08-30 23:13:46 | 54.17698 | 13.74522 | 61° | 73km/h | 8723m | 5.5m/s | -36.3°C | 65.7% | 330.7hPa | 2.9V | 08:30:00 | 00:54:13 | 00:00:00 | |
| AA1-15 | 2026-08-30 23:13:36 | 54.17642 | 13.74335 | 66° | 78km/h | 8689m | 4.4m/s | -36°C | 65.1% | 332.4hPa | 2.9V | 18:12:15 | 00:54:06 | 00:00:00 | |
| DL1XH-west | 2026-08-30 23:13:34 | 54.17626 | 13.74274 | 65° | 77km/h | 8681m | 3.4m/s | 0°C | 0% | 0hPa | 2.8V | 18:12:15 | 00:54:04 | 00:00:00 | |
| AA1-15 | 2026-08-30 23:13:26 | 54.17566 | 13.74051 | 71° | 68km/h | 8643m | 3.9m/s | -35.6°C | 67.6% | 334.6hPa | 2.8V | 18:12:15 | 00:53:56 | 00:00:00 | |
| DL1XH-15 | 2026-08-30 23:13:25 | 54.17554 | 13.73996 | 68° | 66km/h | 8632m | 5.7m/s | -35.5°C | 72.5% | 335.1hPa | 2.9V | 08:30:00 | 00:53:54 | 00:00:00 | |
| DL1XH-west | 2026-08-30 23:13:22 | 54.17533 | 13.73918 | 63° | 66km/h | 8620m | 2.9m/s | 0°C | 0% | 0hPa | 2.9V | 18:12:15 | 00:53:51 | 00:00:00 | |
| AA1-15 | 2026-08-30 23:13:15 | 54.17488 | 13.73765 | 64° | 71km/h | 8586m | 6.8m/s | -35.1°C | 69.2% | 337.3hPa | 2.9V | 18:12:15 | 00:53:45 | 00:00:00 | |
| DL1XH-15 | 2026-08-30 23:13:15 | 54.17480 | 13.73736 | 65° | 75km/h | 8580m | 6.2m/s | -35.1°C | 74% | 337.6hPa | 2.9V | 08:30:00 | 00:53:44 | 00:00:00 | |
| DL1XH-west | 2026-08-30 23:13:12 | 54.17463 | 13.73676 | 64° | 78km/h | 8570m | 5m/s | 0°C | 0% | 0hPa | 2.8V | 18:12:15 | 00:53:42 | 00:00:00 | |
| DB0DAN | 2026-08-30 23:13:10 | 54.17446 | 13.73617 | 62° | 71km/h | 8561m | 7m/s | -34.9°C | 70.3% | 338.61hPa | 2.9V | 00:00:00 | 00:00:00 | 00:00:00 | |
| DL1XH-15 | 2026-08-30 23:13:05 | 54.17398 | 13.73449 | 63° | 78km/h | 8528m | 5m/s | -34.6°C | 75.5% | 340.1hPa | 2.8V | 08:30:00 | 00:53:34 | 00:00:00 | |
| AA1-15 | 2026-08-30 23:13:04 | 54.17399 | 13.73449 | 64° | 78km/h | 8528m | 5m/s | -34.6°C | 71.8% | 340.1hPa | 2.8V | 18:12:15 | 00:53:34 | 00:00:00 | |
| AM1SDL-15 | 2026-08-30 23:13:03 | 54.17390 | 13.73418 | 64° | 75km/h | 8525m | 2.2m/s | -34.5°C | 75.9% | 340.3hPa | 2.9V | 00:00:00 | 00:53:33 | 00:00:00 | |
| DL1XH-15 | 2026-08-30 23:13:00 | 54.17332 | 13.73151 | 65° | 69km/h | 8478m | 6.8m/s | -34.2°C | 74.1% | 342.6hPa | 2.9V | 08:30:00 | 00:53:24 | 00:00:00 | |
| AA1-15 | 2026-08-30 23:12:53 | 54.17325 | 13.73123 | 64° | 69km/h | 8471m | 6.3m/s | -34.2°C | 71.2% | 342.9hPa | 2.9V | 18:12:15 | 00:53:23 | 00:00:00 | |
| S3001 | 2026-08-30 23:12:51 | 54.17298 | 13.73014 | 72° | 69km/h | 8449m | 7.8m/s | -34.0°C | 72.3% | 344.0hPa | 2.9V | 00:00:00 | 00:00:00 | 00:00:00 | |
| DL1XH-15 | 2026-08-30 23:12:49 | 54.17270 | 13.72864 | 69° | 71km/h | 8423m | 6m/s | -33.9°C | 78.4% | 345.2hPa | 2.9V | 08:30:00 | 00:53:14 | 00:00:00 | |
| AA1-15 | 2026-08-30 23:12:42 | 54.17258 | 13.72808 | 68° | 68km/h | 8414m | 3.9m/s | -33.8°C | 74.1% | 345.8hPa | 2.8V | 18:12:15 | 00:53:12 | 00:00:00 | |
| DB0DAN | 2026-08-30 23:12:40 | 54.17244 | 13.72754 | 65° | 66km/h | 8403m | 6.9m/s | -33.7°C | 76.7% | 346.29hPa | 2.9V | 00:00:00 | 00:00:00 | 00:00:00 | |
| AA1-15 | 2026-08-30 23:12:31 | 54.17187 | 13.72488 | 67° | 73km/h | 8355m | 6.6m/s | -33.4°C | 77.2% | 348.6hPa | 2.9V | 18:12:15 | 00:53:01 | 00:00:00 | |
| AA1-15 | 2026-08-30 23:12:20 | 54.17101 | 13.72190 | 69° | 68km/h | 8296m | 3.7m/s | -33°C | 78.8% | 351.5hPa | 2.9V | 18:12:15 | 00:52:50 | 00:00:00 | |
| DL1XH-15 | 2026-08-30 23:12:19 | 54.17095 | 13.72162 | 70° | 69km/h | 8292m | 3.7m/s | -33°C | 82.2% | 351.7hPa | 2.9V | 08:30:00 | 00:52:49 | 00:00:00 | |
| AM1SDL-15 | 2026-08-30 23:12:15 | 54.17065 | 13.72046 | 60° | 73km/h | 8273m | 4.4m/s | -32.8°C | 83.2% | 352.7hPa | 2.9V | 00:00:00 | 00:52:45 | 08:30:00 | |
| DL1XH-15 | 2026-08-30 23:12:14 | 54.17007 | 13.71867 | 66° | 71km/h | 8240m | 7.2m/s | -32.7°C | 86.6% | 354.4hPa | 2.8V | 08:30:00 | 00:52:39 | 00:00:00 | |
| AA1-15 | 2026-08-30 23:12:10 | 54.17015 | 13.71896 | 64° | 77km/h | 8246m | 5.7m/s | -32.7°C | 80.4% | 354.1hPa | 2.8V | 18:12:15 | 00:52:40 | 00:00:00 | |
| MECKS9 | 2026-08-30 23:12:06 | 54.16993 | 13.71813 | 67° | 64km/h | 8229m | 4.5m/s | -32.7°C | 84.8% | 354.9hPa | 2.9V | 00:00:00 | 00:00:00 | 00:00:00 | |
| DL1XH-15 | 2026-08-30 23:12:04 | 54.16940 | 13.71605 | 66° | 75km/h | 8188m | 5m/s | -32.7°C | 94.5% | 356.9hPa | 2.9V | 08:30:00 | 00:52:29 | 00:00:00 | |
| AA1-15 | 2026-08-30 23:11:59 | 54.16939 | 13.71605 | 66° | 75km/h | 8188m | 5m/s | -32.7°C | 88.6% | 356.9hPa | 2.9V | 18:12:15 | 00:52:29 | 00:00:00 | |
| SONDE2-11 | 2026-08-30 23:11:58 | 54.16931 | 13.71575 | 63° | 77km/h | 8184m | 3.3m/s | -32.7°C | 90.6% | 357.2hPa | 2.9V | 00:00:00 | 00:00:00 | 00:00:00 | |
| MECKS9 | 2026-08-30 23:11:55 | 54.16913 | 13.71513 | 64° | 82km/h | 8174m | 6.4m/s | -32.7°C | 89.7% | 357.7hPa | 2.9V | 00:00:00 | 00:00:00 | 00:00:00 | |
| DL1XH-15 | 2026-08-30 23:11:54 | 54.16837 | 13.71335 | 53° | 69km/h | 8135m | 4.8m/s | -32.3°C | 94% | 359.7hPa | 2.9V | 08:30:00 | 00:52:19 | 00:00:00 | |
| AA1-15 | 2026-08-30 23:11:48 | 54.16827 | 13.71310 | 58° | 69km/h | 8132m | 2m/s | -32.3°C | 85.4% | 359.9hPa | 2.9V | 18:12:15 | 00:52:18 | 00:00:00 | |
| DL1XH-15 | 2026-08-30 23:11:44 | 54.16734 | 13.71064 | 57° | 82km/h | 8084m | 5.3m/s | -31.9°C | 89.8% | 362.2hPa | 2.9V | 08:30:00 | 00:52:09 | 00:00:00 | |
| AA1-15 | 2026-08-30 23:11:37 | 54.16712 | 13.71004 | 56° | 82km/h | 8075m | 8.2m/s | -31.8°C | 83.4% | 362.7hPa | 2.9V | 18:12:15 | 00:52:07 | 00:00:00 | |
| AA1-15 | 2026-08-30 23:11:27 | 54.16595 | 13.70714 | 59° | 77km/h | 8011m | 4.8m/s | -31.3°C | 83.6% | 366.1hPa | 2.9V | 18:12:15 | 00:51:56 | 00:00:00 | |
| AA1-15 | 2026-08-30 23:11:16 | 54.16510 | 13.70463 | 54° | 66km/h | 7960m | 4.2m/s | -30.9°C | 82.1% | 368.8hPa | 2.8V | 18:12:15 | 00:51:46 | 00:00:00 | |
| AM1SDL-15 | 2026-08-30 23:11:15 | 54.16499 | 13.70441 | 51° | 71km/h | 7956m | 4.4m/s | -30.8°C | 88.6% | 369.1hPa | 2.9V | 00:00:00 | 00:51:45 | 00:00:00 | |
| DL1XH-15 | 2026-08-30 23:11:14 | 54.16455 | 13.70350 | 49° | 73km/h | 7932m | 8.2m/s | -30.7°C | 88% | 370.2hPa | 2.9V | 08:30:00 | 00:51:41 | 00:00:00 | |
| AA1-15 | 2026-08-30 23:11:06 | 54.16396 | 13.70227 | 51° | 71km/h | 7903m | 7m/s | -30.5°C | 82.2% | 371.7hPa | 2.9V | 18:12:15 | 00:51:36 | 00:00:00 | |
| AM1SDL-15 | 2026-08-30 23:11:01 | 54.16338 | 13.70119 | 47° | 68km/h | 7875m | 8.5m/s | -30.2°C | 85.8% | 373.2hPa | 2.9V | 00:00:00 | 00:51:31 | 00:00:00 | |
| DL1XH-15 | 2026-08-30 23:10:59 | 54.16265 | 13.69950 | 50° | 66km/h | 7835m | 3.5m/s | -29.9°C | 85.6% | 375.2hPa | 2.8V | 08:30:00 | 00:51:24 | 00:00:00 | |
| AA1-15 | 2026-08-30 23:10:55 | 54.16275 | 13.69973 | 55° | 68km/h | 7839m | 5.5m/s | -29.9°C | 79.9% | 375.1hPa | 2.9V | 18:12:15 | 00:51:25 | 00:00:00 | |
| DG6HD-11 | 2026-08-30 23:10:53 | 54.16254 | 13.69928 | 50° | 66km/h | 7831m | 5.5m/s | -29.8°C | 85.1% | 375.5hPa | 2.8V | 00:00:00 | 00:00:00 | 00:00:00 | |
| SP3BTT-10 | 2026-08-30 23:10:51 | 54.16232 | 13.69888 | 44° | 66km/h | 7818m | 6.6m/s | -29.7°C | 84.0% | 376.1hPa | 2.8V | 00:00:00 | 00:00:00 | 00:00:00 | |
| DL1XH-15 | 2026-08-30 23:10:49 | 54.16154 | 13.69738 | 51° | 68km/h | 7783m | 1.9m/s | -29.5°C | 84.6% | 378.1hPa | 2.8V | 08:30:00 | 00:51:14 | 00:00:00 | |
| AA1-15 | 2026-08-30 23:10:45 | 54.16154 | 13.69738 | 52° | 68km/h | 7784m | 1.9m/s | -29.5°C | 79% | 378.1hPa | 2.8V | 18:12:15 | 00:51:14 | 00:00:00 | |
| AA1-15 | 2026-08-30 23:10:34 | 54.16039 | 13.69513 | 50° | 62km/h | 7727m | 5m/s | -29.2°C | 79.3% | 381hPa | 2.9V | 18:12:15 | 00:51:04 | 00:00:00 | |
| AA1-15 | 2026-08-30 23:10:23 | 54.15931 | 13.69271 | 51° | 60km/h | 7668m | 7.3m/s | -28.8°C | 79.5% | 384.2hPa | 2.9V | 18:12:15 | 00:50:53 | 00:00:00 | |
| AA1-15 | 2026-08-30 23:10:12 | 54.15817 | 13.69036 | 56° | 62km/h | 7604m | 6.1m/s | -28.4°C | 78.4% | 387.5hPa | 2.9V | 18:12:15 | 00:50:42 | 00:00:00 | |
| DB0DAN | 2026-08-30 23:10:10 | 54.15798 | 13.68993 | 51° | 60km/h | 7593m | 5.2m/s | -28.3°C | 78.7% | 388.02hPa | 2.9V | 00:00:00 | 00:00:00 | 00:00:00 | |
| AA1-15 | 2026-08-30 23:10:01 | 54.15702 | 13.68799 | 50° | 66km/h | 7541m | 7.6m/s | -28°C | 80% | 390.9hPa | 2.9V | 18:12:15 | 00:50:31 | 00:00:00 | |
| DL1XH-15 | 2026-08-30 23:09:57 | 54.15645 | 13.68689 | 48° | 68km/h | 7511m | 6m/s | -28.2°C | 85.1% | 392.6hPa | 2.9V | 08:30:00 | 00:50:26 | 00:00:00 | |
| AA1-15 | 2026-08-30 23:09:51 | 54.15595 | 13.68588 | 50° | 60km/h | 7483m | 6.9m/s | -28.3°C | 86.9% | 394.2hPa | 2.9V | 18:12:15 | 00:50:21 | 00:00:00 | |
| AM1SDL-15 | 2026-08-30 23:09:49 | 54.15576 | 13.68551 | 50° | 57km/h | 7472m | 4.6m/s | -28.3°C | 93.0% | 394.7hPa | 2.9V | 00:00:00 | 00:50:19 | 00:00:00 | |
| DL1XH-15 | 2026-08-30 23:09:47 | 54.15547 | 13.68488 | 53° | 64km/h | 7459m | 4.7m/s | -28.4°C | 93.1% | 395.5hPa | 2.9V | 08:30:00 | 00:50:16 | 00:00:00 | |
| AA1-15 | 2026-08-30 23:09:40 | 54.15496 | 13.68360 | 58° | 55km/h | 7432m | 3.6m/s | -28.3°C | 84.2% | 397hPa | 2.9V | 18:12:15 | 00:50:10 | 00:00:00 | |
| DL1XH-15 | 2026-08-30 23:09:37 | 54.15462 | 13.68286 | 48° | 53km/h | 7415m | 5.6m/s | -28.1°C | 87.1% | 397.9hPa | 2.9V | 08:30:00 | 00:50:06 | 00:00:00 | |
| AA1-15 | 2026-08-30 23:09:30 | 54.15426 | 13.68178 | 64° | 51km/h | 7383m | 5.1m/s | -28°C | 75.8% | 399.6hPa | 2.9V | 18:12:15 | 00:50:00 | 00:00:00 | |
| DL1XH-15 | 2026-08-30 23:09:27 | 54.15396 | 13.68094 | 60° | 62km/h | 7362m | 6.2m/s | -27.8°C | 79.6% | 400.8hPa | 2.9V | 08:30:00 | 00:49:56 | 00:00:00 | |
| DB0DAN | 2026-08-30 23:09:25 | 54.15389 | 13.68070 | 61° | 60km/h | 7355m | 6.4m/s | -27.8°C | 76.3% | 401.06hPa | 2.9V | 00:00:00 | 00:00:00 | 00:00:00 | |
| AA1-15 | 2026-08-30 23:09:19 | 54.15345 | 13.67929 | 68° | 51km/h | 7316m | 3.6m/s | -27.5°C | 74% | 403.3hPa | 2.9V | 18:12:15 | 00:49:48 | 00:00:00 | |
| DL1XH-15 | 2026-08-30 23:09:17 | 54.15328 | 13.67860 | 64° | 64km/h | 7300m | 7m/s | -27.3°C | 78.6% | 404.1hPa | 2.9V | 08:30:00 | 00:49:45 | 00:00:00 | |
| AA1-15 | 2026-08-30 23:09:08 | 54.15280 | 13.67693 | 69° | 53km/h | 7263m | 5.4m/s | -27°C | 74% | 406.2hPa | 2.9V | 18:12:15 | 00:49:38 | 00:00:00 | |
| DL1XH-15 | 2026-08-30 23:09:07 | 54.15265 | 13.67635 | 62° | 47km/h | 7245m | 8.3m/s | -26.9°C | 78.1% | 407.2hPa | 2.9V | 08:30:00 | 00:49:35 | 00:00:00 | |
| AA1-15 | 2026-08-30 23:08:57 | 54.15215 | 13.67475 | 71° | 58km/h | 7198m | 4.3m/s | -26.5°C | 78.3% | 409.9hPa | 2.9V | 18:12:15 | 00:49:27 | 00:00:00 | |
| DL1XH-15 | 2026-08-30 23:08:57 | 54.15206 | 13.67429 | 70° | 53km/h | 7189m | 6.8m/s | -26.4°C | 82.1% | 410.4hPa | 2.9V | 08:30:00 | 00:49:25 | 00:00:00 | |
| SONDE2-11 | 2026-08-30 23:08:52 | 54.15190 | 13.67367 | 60° | 53km/h | 7173m | 5.0m/s | -26.2°C | 79.0% | 411.5hPa | 2.9V | 00:00:00 | 00:00:00 | 00:00:00 | |
| DL1XH-15 | 2026-08-30 23:08:47 | 54.15136 | 13.67223 | 56° | 55km/h | 7133m | 7.7m/s | -25.9°C | 79.4% | 413.6hPa | 2.9V | 08:30:00 | 00:49:15 | 00:00:00 | |
| AA1-15 | 2026-08-30 23:08:46 | 54.15144 | 13.67243 | 59° | 55km/h | 7139m | 4.7m/s | -25.9°C | 75.4% | 413.3hPa | 2.8V | 18:12:15 | 00:49:16 | 00:00:00 | |
| AM1SDL-15 | 2026-08-30 23:08:44 | 54.15129 | 13.67203 | 56° | 60km/h | 7126m | 6.7m/s | -25.8°C | 79.8% | 413.9hPa | 2.8V | 00:00:00 | 00:49:14 | 00:00:00 | |
| DL1XH-15 | 2026-08-30 23:08:42 | 54.15066 | 13.67001 | 56° | 64km/h | 7073m | 3.9m/s | -25.5°C | 80.3% | 416.9hPa | 2.8V | 08:30:00 | 00:49:05 | 00:00:00 | |
| AA1-15 | 2026-08-30 23:08:35 | 54.15066 | 13.67001 | 56° | 64km/h | 7073m | 3.9m/s | -25.5°C | 74.3% | 416.9hPa | 2.8V | 18:12:15 | 00:49:05 | 00:00:00 | |
| AM1SDL-15 | 2026-08-30 23:08:32 | 54.15041 | 13.66932 | 62° | 60km/h | 7057m | 5.5m/s | -25.3°C | 79.9% | 417.8hPa | 2.8V | 00:00:00 | 00:49:02 | 00:00:00 | |
| DL1XH-15 | 2026-08-30 23:08:30 | 54.14994 | 13.66783 | 51° | 64km/h | 7020m | 6.4m/s | -25.1°C | 77.8% | 420hPa | 2.8V | 08:30:00 | 00:48:55 | 00:00:00 | |
| DB0DAN | 2026-08-30 23:08:25 | 54.14994 | 13.66783 | 52° | 60km/h | 7020m | 6.4m/s | -25.1°C | 75% | 419.99hPa | 2.8V | 00:00:00 | 00:00:00 | 00:00:00 | |
| AA1-15 | 2026-08-30 23:08:24 | 54.14983 | 13.66761 | 52° | 66km/h | 7014m | 6.3m/s | -25°C | 73.8% | 420.4hPa | 2.8V | 18:12:15 | 00:48:54 | 00:00:00 | |
| DG6HD-11 | 2026-08-30 23:08:23 | 54.14973 | 13.66738 | 54° | 64km/h | 7008m | 5.5m/s | -24.9°C | 77.4% | 420.7hPa | 2.9V | 00:00:00 | 00:00:00 | 00:00:00 | |
| SONDE2-11 | 2026-08-30 23:08:21 | 54.14954 | 13.66690 | 55° | 66km/h | 6999m | 4.9m/s | -24.9°C | 74.2% | 421.3hPa | 2.9V | 00:00:00 | 00:00:00 | 00:00:00 | |
| DL1XH-15 | 2026-08-30 23:08:20 | 54.14901 | 13.66561 | 58° | 62km/h | 6970m | 2.9m/s | -24.7°C | 73.6% | 423.3hPa | 2.9V | 08:30:00 | 00:48:45 | 00:00:00 | |
| AA1-15 | 2026-08-30 23:08:13 | 54.14884 | 13.66515 | 56° | 64km/h | 6960m | 5.6m/s | -24.6°C | 67.2% | 423.9hPa | 2.8V | 18:12:15 | 00:48:43 | 00:00:00 | |
| DL1XH-15 | 2026-08-30 23:08:10 | 54.14797 | 13.66303 | 50° | 66km/h | 6918m | 4.2m/s | -24.4°C | 65.2% | 426.2hPa | 2.9V | 08:30:00 | 00:48:34 | 00:00:00 | |
| AA1-15 | 2026-08-30 23:08:02 | 54.14775 | 13.66263 | 44° | 62km/h | 6909m | 6.7m/s | -24.3°C | 61.2% | 426.9hPa | 2.9V | 18:12:15 | 00:48:32 | 00:00:00 | |
| DL1XH-15 | 2026-08-30 23:07:59 | 54.14701 | 13.66096 | 56° | 71km/h | 6863m | 5m/s | -23.8°C | 59.6% | 429.4hPa | 2.9V | 08:30:00 | 00:48:24 | 00:00:00 | |
| AA1-15 | 2026-08-30 23:07:52 | 54.14681 | 13.66046 | 55° | 68km/h | 6853m | 5.3m/s | -23.8°C | 55% | 430hPa | 2.9V | 18:12:15 | 00:48:22 | 00:00:00 | |
| SONDE2-11 | 2026-08-30 23:07:50 | 54.14662 | 13.66003 | 48° | 60km/h | 6843m | 4.5m/s | -23.7°C | 53.9% | 430.7hPa | 2.9V | 00:00:00 | 00:00:00 | 00:00:00 | |
| DL1XH-15 | 2026-08-30 23:07:49 | 54.14598 | 13.65886 | 53° | 68km/h | 6809m | 3.6m/s | -23.3°C | 54.1% | 432.7hPa | 2.9V | 08:30:00 | 00:48:14 | 00:00:00 | |
| AA1-15 | 2026-08-30 23:07:42 | 54.14578 | 13.65837 | 56° | 71km/h | 6799m | 6.1m/s | -23.2°C | 51.7% | 433.4hPa | 2.8V | 18:12:15 | 00:48:12 | 00:00:00 | |
| DB0DAN | 2026-08-30 23:07:40 | 54.14558 | 13.65786 | 56° | 68km/h | 6784m | 7.5m/s | -23.1°C | 49.6% | 434.2hPa | 2.9V | 00:00:00 | 00:00:00 | 00:00:00 | |
| DL1XH-15 | 2026-08-30 23:07:39 | 54.14503 | 13.65662 | 49° | 57km/h | 6749m | 6.3m/s | -22.8°C | 50% | 436.1hPa | 2.9V | 08:30:00 | 00:48:04 | 00:00:00 | |
| AA1-15 | 2026-08-30 23:07:31 | 54.14475 | 13.65599 | 54° | 68km/h | 6734m | 5m/s | -22.6°C | 48.6% | 437.1hPa | 2.9V | 18:12:15 | 00:48:01 | 00:00:00 | |
| AM1SDL-15 | 2026-08-30 23:07:31 | 54.14475 | 13.65599 | 54° | 66km/h | 6734m | 4.9m/s | -22.6°C | 50.1% | 437.0hPa | 2.8V | 00:00:00 | 00:48:01 | 00:00:00 | |
| DB0DAN | 2026-08-30 23:07:25 | 54.14408 | 13.65454 | 55° | 64km/h | 6702m | 4.6m/s | -22.4°C | 39.6% | 439.01hPa | 2.8V | 00:00:00 | 00:00:00 | 00:00:00 | |
| AA1-15 | 2026-08-30 23:07:20 | 54.14363 | 13.65350 | 53° | 60km/h | 6670m | 5.7m/s | -22.1°C | 39.5% | 440.7hPa | 2.9V | 18:12:15 | 00:47:50 | 00:00:00 | |
| DL1XH-15 | 2026-08-30 23:07:19 | 54.14301 | 13.65200 | 55° | 71km/h | 6637m | 5.1m/s | -21.8°C | 43.4% | 442.7hPa | 2.9V | 08:30:00 | 00:47:44 | 00:00:00 | |
| AA1-15 | 2026-08-30 23:07:10 | 54.14256 | 13.65085 | 60° | 64km/h | 6609m | 5.1m/s | -21.6°C | 47% | 444.6hPa | 2.9V | 18:12:15 | 00:47:39 | 00:00:00 | |
| DL1XH-15 | 2026-08-30 23:07:09 | 54.14214 | 13.64968 | 57° | 69km/h | 6579m | 5.5m/s | -21.3°C | 50% | 446.3hPa | 2.9V | 08:30:00 | 00:47:34 | 00:00:00 | |
| SP3BTT-10 | 2026-08-30 23:07:09 | 54.14256 | 13.65085 | 60° | 69km/h | 6609m | 5.0m/s | 0°C | 0% | 0hPa | 2.9V | 00:00:00 | 00:00:00 | 00:00:00 | |
| AM1SDL-15 | 2026-08-30 23:07:07 | 54.14240 | 13.65038 | 61° | 69km/h | 6598m | 6.5m/s | -21.5°C | 49.0% | 445.0hPa | 2.9V | 00:00:00 | 00:47:37 | 00:00:00 | |
| DL1XH-15 | 2026-08-30 23:06:58 | 54.14118 | 13.64704 | 50° | 69km/h | 6528m | 4.7m/s | -20.9°C | 54.1% | 449.2hPa | 2.9V | 08:30:00 | 00:47:24 | 00:00:00 | |
| AA1-15 | 2026-08-30 23:06:58 | 54.14158 | 13.64806 | 62° | 73km/h | 6548m | 5.4m/s | -21.1°C | 51.4% | 448.1hPa | 2.9V | 18:12:15 | 00:47:28 | 00:00:00 | |
| MECKS9 | 2026-08-30 23:06:57 | 54.14158 | 13.64806 | 63° | 73km/h | 6549m | 5.4m/s | -21.1°C | 50.9% | 448.1hPa | 2.9V | 00:00:00 | 00:00:00 | 00:00:00 | |
| DB0DAN | 2026-08-30 23:06:55 | 54.14129 | 13.64728 | 51° | 68km/h | 6532m | 3.3m/s | -21°C | 52.6% | 449.1hPa | 2.9V | 00:00:00 | 00:00:00 | 00:00:00 | |
| AA1-15 | 2026-08-30 23:06:47 | 54.14048 | 13.64533 | 58° | 68km/h | 6497m | 4.6m/s | -20.7°C | 39.2% | 451.2hPa | 2.9V | 18:12:15 | 00:47:17 | 00:00:00 | |
| DL1XH-15 | 2026-08-30 23:06:47 | 54.14019 | 13.64453 | 59° | 75km/h | 6484m | 4.6m/s | -20.5°C | 34.4% | 452.1hPa | 2.9V | 08:30:00 | 00:47:14 | 00:00:00 | |
| MECKS9 | 2026-08-30 23:06:46 | 54.14047 | 13.64533 | 59° | 68km/h | 6497m | 4.6m/s | -20.7°C | 37.5% | 451.2hPa | 2.9V | 00:00:00 | 00:00:00 | 00:00:00 | |
| AM1SDL-15 | 2026-08-30 23:06:43 | 54.14010 | 13.64426 | 60° | 71km/h | 6479m | 5.4m/s | -20.4°C | 34.6% | 452.3hPa | 2.9V | 00:00:00 | 00:47:13 | 00:00:00 | |
| DB0DAN | 2026-08-30 23:06:40 | 54.13982 | 13.64346 | 60° | 69km/h | 6465m | 5.4m/s | -20.4°C | 32.4% | 453.24hPa | 2.9V | 00:00:00 | 00:00:00 | 00:00:00 | |
| AA1-15 | 2026-08-30 23:06:36 | 54.13947 | 13.64242 | 61° | 69km/h | 6446m | 5.4m/s | -20.2°C | 32.8% | 454.4hPa | 2.9V | 18:12:15 | 00:47:06 | 00:00:00 | |
| DL1XH-15 | 2026-08-30 23:06:36 | 54.13931 | 13.64188 | 62° | 69km/h | 6438m | 4.5m/s | -20.1°C | 31.7% | 454.8hPa | 2.8V | 08:30:00 | 00:47:04 | 00:00:00 | |
| AA1-15 | 2026-08-30 23:06:26 | 54.13855 | 13.63980 | 53° | 73km/h | 6407m | 3.9m/s | -19.8°C | 30.7% | 456.9hPa | 2.8V | 18:12:15 | 00:46:56 | 00:00:00 | |
| DB0DAN | 2026-08-30 23:06:25 | 54.13844 | 13.63954 | 55° | 69km/h | 6403m | 4.3m/s | -19.8°C | 29.2% | 457.11hPa | 2.9V | 00:00:00 | 00:00:00 | 00:00:00 | |
| DL1XH-15 | 2026-08-30 23:06:25 | 54.13834 | 13.63928 | 57° | 71km/h | 6399m | 3.3m/s | -19.7°C | 30.3% | 457.3hPa | 2.9V | 08:30:00 | 00:46:54 | 00:00:00 | |
| DG6HD-11 | 2026-08-30 23:06:21 | 54.13806 | 13.63849 | 61° | 71km/h | 6386m | 3.6m/s | -19.5°C | 28.6% | 457.9hPa | 2.9V | 00:00:00 | 00:00:00 | 00:00:00 | |
| DL1XH-15 | 2026-08-30 23:06:20 | 54.13744 | 13.63667 | 56° | 69km/h | 6355m | 2.1m/s | -19.3°C | 26% | 459.9hPa | 2.9V | 08:30:00 | 00:46:44 | 00:00:00 | |
| AA1-15 | 2026-08-30 23:06:16 | 54.13763 | 13.63717 | 60° | 68km/h | 6364m | 4.8m/s | -19.4°C | 27.9% | 459.4hPa | 2.9V | 18:12:15 | 00:46:46 | 00:00:00 | |
| DL1XH-15 | 2026-08-30 23:06:09 | 54.13642 | 13.63375 | 60° | 73km/h | 6306m | 5m/s | -18.8°C | 24.1% | 463.1hPa | 2.8V | 08:30:00 | 00:46:33 | 00:00:00 | |
| AA1-15 | 2026-08-30 23:06:05 | 54.13659 | 13.63433 | 65° | 77km/h | 6317m | 3.7m/s | -18.9°C | 25% | 462.5hPa | 2.9V | 18:12:15 | 00:46:35 | 00:00:00 | |
| DL1XH-15 | 2026-08-30 23:05:58 | 54.13554 | 13.63119 | 63° | 75km/h | 6251m | 5m/s | -18.3°C | 22.1% | 466.5hPa | 2.9V | 08:30:00 | 00:46:23 | 00:00:00 | |
| DB0DAN | 2026-08-30 23:05:55 | 54.13570 | 13.63177 | 64° | 69km/h | 6261m | 6.1m/s | -18.4°C | 21.4% | 465.95hPa | 2.8V | 00:00:00 | 00:00:00 | 00:00:00 | |
| AA1-15 | 2026-08-30 23:05:54 | 54.13562 | 13.63148 | 65° | 75km/h | 6256m | 4.9m/s | -18.3°C | 23.7% | 466.2hPa | 2.9V | 18:12:15 | 00:46:24 | 00:00:00 | |
| DG6HD-11 | 2026-08-30 23:05:51 | 54.13535 | 13.63064 | 57° | 68km/h | 6242m | 4.8m/s | -18.1°C | 21.9% | 467.0hPa | 2.9V | 00:00:00 | 00:00:00 | 00:00:00 | |
| DL1XH-15 | 2026-08-30 23:05:48 | 54.13458 | 13.62876 | 57° | 64km/h | 6201m | 5.7m/s | -17.8°C | 23% | 469.8hPa | 2.9V | 08:30:00 | 00:46:13 | 00:00:00 | |
| AA1-15 | 2026-08-30 23:05:44 | 54.13458 | 13.62876 | 57° | 64km/h | 6201m | 5.7m/s | -17.8°C | 24.3% | 469.8hPa | 2.9V | 18:12:15 | 00:46:13 | 00:00:00 | |
| AM1SDL-15 | 2026-08-30 23:05:43 | 54.13458 | 13.62876 | 58° | 66km/h | 6202m | 5.6m/s | 0°C | 0% | 0hPa | 2.9V | 00:00:00 | 00:46:13 | 00:00:00 | |
| SP3BTT-10 | 2026-08-30 23:05:39 | 54.13421 | 13.62780 | 57° | 62km/h | 6184m | 5.1m/s | 0°C | 0% | 0hPa | 2.9V | 00:00:00 | 00:00:00 | 00:00:00 | |
| DL1XH-15 | 2026-08-30 23:05:38 | 54.13368 | 13.62644 | 58° | 66km/h | 6159m | 3.9m/s | -17.4°C | 25.9% | 472.7hPa | 2.9V | 08:30:00 | 00:46:03 | 00:00:00 | |
| AA1-15 | 2026-08-30 23:05:33 | 54.13359 | 13.62619 | 61° | 69km/h | 6156m | 3.4m/s | -17.4°C | 26.8% | 472.8hPa | 2.9V | 18:12:15 | 00:46:02 | 00:00:00 | |
| AM1SDL-15 | 2026-08-30 23:05:32 | 54.13350 | 13.62592 | 62° | 69km/h | 6152m | 4.6m/s | 0°C | 0% | 0hPa | 2.9V | 00:00:00 | 00:46:01 | 00:00:00 | |
| DL1XH-15 | 2026-08-30 23:05:23 | 54.13288 | 13.62376 | 63° | 68km/h | 6108m | 7.3m/s | -17°C | 41.2% | 475.8hPa | 2.9V | 08:30:00 | 00:45:53 | 00:00:00 | |
| AA1-15 | 2026-08-30 23:05:21 | 54.13272 | 13.62326 | 60° | 66km/h | 6094m | 7.7m/s | -16.9°C | 42% | 476.5hPa | 2.8V | 18:12:15 | 00:45:51 | 00:00:00 | |
| DG6HD-11 | 2026-08-30 23:05:21 | 54.13272 | 13.62326 | 61° | 62km/h | 6094m | 7.6m/s | -16.9°C | 41.4% | 476.5hPa | 2.7V | 00:00:00 | 00:00:00 | 08:30:00 | |
| AM1SDL-15 | 2026-08-30 23:05:19 | 54.13256 | 13.62277 | 61° | 62km/h | 6080m | 5.8m/s | 0°C | 0% | 0hPa | 2.9V | 00:00:00 | 00:45:49 | 00:00:00 | |
| DL1XH-15 | 2026-08-30 23:05:18 | 54.13211 | 13.62131 | 65° | 57km/h | 6052m | 4.6m/s | -16.5°C | 28.5% | 479.2hPa | 2.9V | 08:30:00 | 00:45:43 | 00:00:00 | |
| AA1-15 | 2026-08-30 23:05:11 | 54.13199 | 13.62087 | 66° | 57km/h | 6042m | 7.7m/s | -16.4°C | 28% | 479.7hPa | 2.9V | 18:12:15 | 00:45:41 | 00:00:00 | |
| SP3BTT-10 | 2026-08-30 23:05:09 | 54.13187 | 13.62040 | 67° | 62km/h | 6028m | 5.9m/s | 0°C | 0% | 0hPa | 2.8V | 00:00:00 | 00:00:00 | 00:00:00 | |
| DL1XH-15 | 2026-08-30 23:05:08 | 54.13148 | 13.61893 | 68° | 66km/h | 5995m | 5.4m/s | -15.9°C | 19.4% | 482.8hPa | 2.8V | 08:30:00 | 00:45:33 | 00:00:00 | |
| AA1-15 | 2026-08-30 23:05:01 | 54.13137 | 13.61839 | 70° | 66km/h | 5982m | 6.6m/s | -15.8°C | 19.8% | 483.7hPa | 2.9V | 18:12:15 | 00:45:31 | 00:00:00 | |
| DL1XH-15 | 2026-08-30 23:04:58 | 54.13076 | 13.61660 | 53° | 60km/h | 5939m | 6.6m/s | -15.5°C | 19% | 486.1hPa | 2.8V | 08:30:00 | 00:45:23 | 00:00:00 | |
| DB0DAN | 2026-08-30 23:04:55 | 54.13095 | 13.61703 | 54° | 58km/h | 5952m | 7.2m/s | -15.6°C | 18.6% | 485.43hPa | 2.9V | 00:00:00 | 00:00:00 | 00:00:00 | |
| AA1-15 | 2026-08-30 23:04:50 | 54.13053 | 13.61598 | 63° | 55km/h | 5922m | 4.5m/s | -15.3°C | 20.3% | 487.3hPa | 2.9V | 18:12:15 | 00:45:20 | 00:00:00 | |
| MECKS9 | 2026-08-30 23:04:45 | 54.13029 | 13.61511 | 65° | 58km/h | 5901m | 6.3m/s | -15.1°C | 18.0% | 488.8hPa | 2.9V | 00:00:00 | 00:00:00 | 00:00:00 | |
| SONDE2-11 | 2026-08-30 23:04:44 | 54.13009 | 13.61442 | 64° | 58km/h | 5887m | 5.2m/s | -15.0°C | -1.0% | -1.0hPa | 2.9V | 00:00:00 | 00:00:00 | 00:00:00 | |
| AM1SDL-15 | 2026-08-30 23:04:43 | 54.13008 | 13.61442 | 65° | 62km/h | 5887m | 5.1m/s | 0°C | 0% | 0hPa | 2.9V | 00:00:00 | 00:45:13 | 08:30:00 | |
| DB0DAN | 2026-08-30 23:04:40 | 54.12989 | 13.61375 | 62° | 55km/h | 5871m | 5.6m/s | -14.8°C | 17.6% | 490.84hPa | 2.9V | 00:00:00 | 00:00:00 | 00:00:00 | |
| AA1-15 | 2026-08-30 23:04:39 | 54.12982 | 13.61352 | 60° | 62km/h | 5865m | 6.8m/s | -14.8°C | 19.4% | 491hPa | 2.9V | 18:12:15 | 00:45:09 | 00:00:00 | |
| DL1XH-15 | 2026-08-30 23:04:34 | 54.12929 | 13.61206 | 55° | 60km/h | 5836m | 5.3m/s | -14.5°C | 18.4% | 493hPa | 2.9V | 08:30:00 | 00:45:03 | 00:00:00 | |
| AM1SDL-15 | 2026-08-30 23:04:31 | 54.12912 | 13.61164 | 59° | 62km/h | 5825m | 6.3m/s | 0°C | 0% | 0hPa | 2.9V | 00:00:00 | 00:45:01 | 00:00:00 | |
| DL1XH-15 | 2026-08-30 23:04:28 | 54.12849 | 13.60975 | 66° | 64km/h | 5779m | 4.9m/s | -13.9°C | 18.6% | 496.7hPa | 2.9V | 08:30:00 | 00:44:53 | 00:00:00 | |
| AA1-15 | 2026-08-30 23:04:28 | 54.12889 | 13.61101 | 57° | 62km/h | 5805m | 6.9m/s | -14.2°C | 19.9% | 494.9hPa | 2.9V | 18:12:15 | 00:44:58 | 00:00:00 | |
| DB0DAN | 2026-08-30 23:04:25 | 54.12863 | 13.61027 | 62° | 66km/h | 5788m | 4.6m/s | -14°C | 17.8% | 496.12hPa | 2.9V | 00:00:00 | 00:00:00 | 00:00:00 | |
| AA1-15 | 2026-08-30 23:04:17 | 54.12801 | 13.60817 | 59° | 69km/h | 5745m | 3.7m/s | -13.6°C | 18.3% | 498.9hPa | 2.9V | 18:12:15 | 00:44:47 | 00:00:00 | |
| DL1XH-15 | 2026-08-30 23:04:17 | 54.12770 | 13.60726 | 58° | 55km/h | 5723m | 6m/s | -13.4°C | 17.4% | 500.2hPa | 2.9V | 08:30:00 | 00:44:43 | 00:00:00 | |
| MECKS9 | 2026-08-30 23:04:16 | 54.12801 | 13.60817 | 60° | 69km/h | 5745m | 3.7m/s | -13.6°C | 16.5% | 498.9hPa | 2.9V | 00:00:00 | 00:00:00 | 00:00:00 | |
| AM1SDL-15 | 2026-08-30 23:04:07 | 54.12717 | 13.60593 | 62° | 66km/h | 5692m | 6.9m/s | 0°C | 0% | 0hPa | 2.9V | 00:00:00 | 00:44:37 | 00:00:00 | |
| DL1XH-15 | 2026-08-30 23:04:06 | 54.12693 | 13.60488 | 70° | 64km/h | 5671m | 2.7m/s | -13°C | 22.9% | 503.8hPa | 2.9V | 08:30:00 | 00:44:33 | 00:00:00 | |
| AA1-15 | 2026-08-30 23:04:06 | 54.12710 | 13.60567 | 66° | 66km/h | 5685m | 5m/s | -13.1°C | 21.3% | 502.7hPa | 2.9V | 18:12:15 | 00:44:36 | 00:00:00 | |
| AA1-15 | 2026-08-30 23:03:55 | 54.12639 | 13.60302 | 52° | 64km/h | 5619m | 4.7m/s | -12.7°C | 48.2% | 507hPa | 2.9V | 18:12:15 | 00:44:25 | 00:00:00 | |
| DL1XH-15 | 2026-08-30 23:03:54 | 54.12619 | 13.60255 | 56° | 68km/h | 5611m | 4.7m/s | -12.6°C | 45.2% | 507.6hPa | 2.8V | 08:30:00 | 00:44:23 | 00:00:00 | |
| MECKS9 | 2026-08-30 23:03:53 | 54.12629 | 13.60279 | 55° | 66km/h | 5615m | 3.1m/s | -12.7°C | 45.8% | 507.4hPa | 2.9V | 00:00:00 | 00:00:00 | 00:00:00 | |
| DG6HD-11 | 2026-08-30 23:03:51 | 54.12602 | 13.60203 | 64° | 62km/h | 5601m | 4.4m/s | -12.5°C | 40.5% | 508.0hPa | 2.9V | 00:00:00 | 00:00:00 | 00:00:00 | |
| AM1SDL-15 | 2026-08-30 23:03:49 | 54.12587 | 13.60148 | 65° | 60km/h | 5594m | 3.2m/s | 0°C | 0% | 0hPa | 2.9V | 00:00:00 | 00:44:19 | 00:00:00 | |
| DL1XH-15 | 2026-08-30 23:03:48 | 54.12546 | 13.60023 | 58° | 55km/h | 5564m | 3.9m/s | -12.2°C | 47.2% | 510.9hPa | 2.9V | 08:30:00 | 00:44:13 | 00:00:00 | |
| AA1-15 | 2026-08-30 23:03:44 | 54.12553 | 13.60042 | 57° | 51km/h | 5569m | 6.7m/s | -12.3°C | 47.5% | 510.5hPa | 2.9V | 18:12:15 | 00:44:14 | 00:00:00 | |
| MECKS9 | 2026-08-30 23:03:43 | 54.12553 | 13.60042 | 58° | 51km/h | 5569m | 6.7m/s | -12.3°C | 45.8% | 510.5hPa | 2.9V | 00:00:00 | 00:00:00 | 00:00:00 | |
| DB0DAN | 2026-08-30 23:03:40 | 54.12523 | 13.59954 | 62° | 62km/h | 5553m | 5.8m/s | -12.1°C | 43.3% | 511.77hPa | 2.9V | 00:00:00 | 00:00:00 | 00:00:00 | |
| SP3BTT-10 | 2026-08-30 23:03:39 | 54.12515 | 13.59929 | 61° | 64km/h | 5548m | 6.4m/s | 0°C | 0% | 0hPa | 2.9V | 00:00:00 | 00:00:00 | 00:00:00 | |
| AM1SDL-15 | 2026-08-30 23:03:37 | 54.12498 | 13.59881 | 59° | 66km/h | 5535m | 5.6m/s | 0°C | 0% | 0hPa | 2.9V | 00:00:00 | 00:44:07 | 00:00:00 | |
| DL1XH-15 | 2026-08-30 23:03:36 | 54.12466 | 13.59783 | 65° | 68km/h | 5517m | 6.8m/s | -11.8°C | 37.1% | 514.3hPa | 2.9V | 08:30:00 | 00:44:03 | 00:00:00 | |
| AA1-15 | 2026-08-30 23:03:33 | 54.12467 | 13.59783 | 65° | 68km/h | 5517m | 6.8m/s | -11.8°C | 38.3% | 514.3hPa | 2.9V | 18:12:15 | 00:44:03 | 00:00:00 | |
| MECKS9 | 2026-08-30 23:03:31 | 54.12459 | 13.59756 | 65° | 66km/h | 5511m | 5.7m/s | -11.7°C | 36.7% | 514.5hPa | 2.9V | 00:00:00 | 00:00:00 | 00:00:00 | |
| DB0DAN | 2026-08-30 23:03:25 | 54.12400 | 13.59593 | 59° | 64km/h | 5477m | 5.5m/s | -11.4°C | 42.5% | 516.99hPa | 2.9V | 00:00:00 | 00:00:00 | 00:00:00 | |
| DL1XH-15 | 2026-08-30 23:03:24 | 54.12385 | 13.59544 | 65° | 60km/h | 5466m | 5m/s | -11.3°C | 43.4% | 517.6hPa | 2.9V | 08:30:00 | 00:43:53 | 00:00:00 | |
| AA1-15 | 2026-08-30 23:03:22 | 54.12379 | 13.59522 | 64° | 57km/h | 5460m | 6.5m/s | -11.3°C | 44.5% | 518hPa | 2.9V | 18:12:15 | 00:43:52 | 00:00:00 | |
| DG6HD-11 | 2026-08-30 23:03:21 | 54.12373 | 13.59499 | 67° | 62km/h | 5454m | 7.1m/s | -11.2°C | 42.7% | 518.2hPa | 2.9V | 00:00:00 | 00:00:00 | 00:00:00 | |
| MECKS9 | 2026-08-30 23:03:20 | 54.12373 | 13.59499 | 68° | 57km/h | 5454m | 7.1m/s | -11.2°C | 41.7% | 518.3hPa | 2.9V | 00:00:00 | 00:00:00 | 00:00:00 | |
| DL1XH-15 | 2026-08-30 23:03:19 | 54.12324 | 13.59314 | 65° | 60km/h | 5406m | 6.8m/s | -10.8°C | 41% | 521.6hPa | 2.9V | 08:30:00 | 00:43:43 | 00:00:00 | |
| AA1-15 | 2026-08-30 23:03:11 | 54.12312 | 13.59266 | 68° | 60km/h | 5393m | 5.4m/s | -10.7°C | 39.9% | 522.5hPa | 2.9V | 18:12:15 | 00:43:41 | 00:00:00 | |
| DL1XH-15 | 2026-08-30 23:03:06 | 54.12264 | 13.59076 | 66° | 66km/h | 5351m | 7.3m/s | -10.3°C | 31% | 525.3hPa | 2.9V | 08:30:00 | 00:43:33 | 00:00:00 | |
| AA1-15 | 2026-08-30 23:03:00 | 54.12241 | 13.58998 | 64° | 68km/h | 5336m | 4.5m/s | -10.1°C | 28.2% | 526.2hPa | 2.9V | 18:12:15 | 00:43:30 | 00:00:00 | |
| DB0DAN | 2026-08-30 23:02:55 | 54.12207 | 13.58862 | 68° | 62km/h | 5314m | 4.5m/s | -10°C | 25.3% | 527.93hPa | 2.8V | 00:00:00 | 00:00:00 | 00:00:00 | |
| DL1XH-15 | 2026-08-30 23:02:54 | 54.12196 | 13.58812 | 72° | 58km/h | 5304m | 5.3m/s | -9.9°C | 24.5% | 528.7hPa | 2.9V | 08:30:00 | 00:43:23 | 00:00:00 | |
| AA1-15 | 2026-08-30 23:02:50 | 54.12183 | 13.58742 | 69° | 55km/h | 5282m | 6.8m/s | -9.8°C | 16.7% | 530hPa | 2.9V | 18:12:15 | 00:43:20 | 00:00:00 | |
| AA1-15 | 2026-08-30 23:02:39 | 54.12127 | 13.58481 | 72° | 57km/h | 5235m | 4.6m/s | -9.4°C | 11.9% | 533.3hPa | 2.9V | 18:12:15 | 00:43:09 | 00:00:00 | |
| DL1XH-15 | 2026-08-30 23:02:38 | 54.12106 | 13.58343 | 78° | 58km/h | 5194m | 6.4m/s | -9.1°C | 8.1% | 535.9hPa | 2.9V | 08:30:00 | 00:43:03 | 00:00:00 | |
| DL1XH-15 | 2026-08-30 23:02:28 | 54.12054 | 13.58099 | 64° | 55km/h | 5140m | 5.8m/s | -8.8°C | 8.5% | 539.7hPa | 2.9V | 08:30:00 | 00:42:53 | 00:00:00 | |
| AA1-15 | 2026-08-30 23:02:28 | 54.12083 | 13.58212 | 69° | 62km/h | 5170m | 6m/s | -8.9°C | 7.8% | 537.7hPa | 2.8V | 18:12:15 | 00:42:58 | 00:00:00 | |
| DG6HD-11 | 2026-08-30 23:02:21 | 54.12041 | 13.58058 | 61° | 60km/h | 5131m | 4.3m/s | -8.7°C | 8.6% | 540.3hPa | 2.9V | 00:00:00 | 00:00:00 | 00:00:00 | |
| DL1XH-15 | 2026-08-30 23:02:17 | 54.11993 | 13.57887 | 66° | 62km/h | 5085m | 6.3m/s | -8.6°C | 8.6% | 543.3hPa | 2.9V | 08:30:00 | 00:42:43 | 00:00:00 | |
| AA1-15 | 2026-08-30 23:02:17 | 54.12014 | 13.57976 | 67° | 55km/h | 5112m | 6.2m/s | -8.7°C | 8.5% | 541.7hPa | 2.9V | 18:12:15 | 00:42:47 | 00:00:00 | |
| AA1-15 | 2026-08-30 23:02:07 | 54.11936 | 13.57702 | 70° | 58km/h | 5044m | 4.7m/s | -8.6°C | 8.3% | 546.5hPa | 2.9V | 18:12:15 | 00:42:35 | 00:00:00 | |
| DL1XH-15 | 2026-08-30 23:02:06 | 54.11927 | 13.57654 | 73° | 60km/h | 5035m | 6m/s | -8.6°C | 9.5% | 547.2hPa | 2.9V | 08:30:00 | 00:42:33 | 00:00:00 | |
| AM1SDL-15 | 2026-08-30 23:02:01 | 54.11919 | 13.57602 | 73° | 60km/h | 5022m | 6.7m/s | 0°C | 0% | 0hPa | 2.9V | 00:00:00 | 00:42:31 | 08:30:00 | |
| MECKS9 | 2026-08-30 23:02:00 | 54.11919 | 13.57602 | 74° | 64km/h | 5022m | 6.7m/s | -8.5°C | 10.6% | 547.8hPa | 2.9V | 00:00:00 | 00:00:00 | 00:00:00 | |
| DL1XH-15 | 2026-08-30 23:01:58 | 54.11860 | 13.57372 | 62° | 58km/h | 4976m | 5.7m/s | -8.4°C | 19.8% | 551.3hPa | 2.9V | 08:30:00 | 00:42:22 | 00:00:00 | |
| AA1-15 | 2026-08-30 23:01:56 | 54.11888 | 13.57471 | 67° | 68km/h | 4997m | 5.2m/s | -8.4°C | 16.7% | 549.9hPa | 2.9V | 18:12:15 | 00:42:26 | 00:00:00 | |
| DB0DAN | 2026-08-30 23:01:55 | 54.11881 | 13.57445 | 65° | 62km/h | 4993m | 2.6m/s | -8.4°C | 15.4% | 550.25hPa | 2.9V | 00:00:00 | 00:00:00 | 00:00:00 | |
| DL1XH-15 | 2026-08-30 23:01:53 | 54.11829 | 13.57263 | 72° | 60km/h | 4951m | 5m/s | -8.3°C | 25.6% | 553.2hPa | 2.9V | 08:30:00 | 00:42:17 | 00:00:00 | |
| DG6HD-11 | 2026-08-30 23:01:51 | 54.11853 | 13.57350 | 62° | 53km/h | 4970m | 5.2m/s | -8.4°C | 22.3% | 551.7hPa | 2.9V | 00:00:00 | 00:00:00 | 00:00:00 | |
| AM1SDL-15 | 2026-08-30 23:01:47 | 54.11829 | 13.57263 | 73° | 49km/h | 4951m | 4.9m/s | 0°C | 0% | 0hPa | 2.9V | 00:00:00 | 00:42:17 | 00:00:00 | |
| DL1XH-15 | 2026-08-30 23:01:46 | 54.11814 | 13.57146 | 78° | 46km/h | 4924m | 4.1m/s | -8.3°C | 24.4% | 555hPa | 2.9V | 08:30:00 | 00:42:12 | 00:00:00 | |
| AA1-15 | 2026-08-30 23:01:45 | 54.11821 | 13.57213 | 80° | 60km/h | 4941m | 7.4m/s | -8.3°C | 27.7% | 554hPa | 2.9V | 18:12:15 | 00:42:15 | 00:00:00 | |
| DL1XH-15 | 2026-08-30 23:01:41 | 54.11795 | 13.57040 | 69° | 42km/h | 4894m | 8.4m/s | -8.3°C | 22.6% | 557.1hPa | 2.9V | 08:30:00 | 00:42:06 | 00:00:00 | |
| DB0DAN | 2026-08-30 23:01:40 | 54.11809 | 13.57109 | 75° | 40km/h | 4915m | 4.7m/s | -8.4°C | 22.5% | 555.52hPa | 2.9V | 00:00:00 | 00:00:00 | 00:00:00 | |
| DL1XH-15 | 2026-08-30 23:01:36 | 54.11780 | 13.56943 | 72° | 57km/h | 4861m | 4.3m/s | -8.1°C | 18.9% | 559.1hPa | 2.9V | 08:30:00 | 00:42:01 | 00:00:00 | |
| AA1-15 | 2026-08-30 23:01:34 | 54.11789 | 13.57005 | 74° | 42km/h | 4880m | 7.5m/s | -8.2°C | 22.5% | 557.9hPa | 2.9V | 18:12:15 | 00:42:04 | 00:00:00 | |
| DL1XH-15 | 2026-08-30 23:01:31 | 54.11752 | 13.56823 | 65° | 60km/h | 4837m | 4.2m/s | -7.9°C | 17.8% | 561.2hPa | 2.9V | 08:30:00 | 00:41:56 | 00:00:00 | |
| DL1XH-15 | 2026-08-30 23:01:26 | 54.11724 | 13.56702 | 73° | 53km/h | 4816m | 5.6m/s | -7.7°C | 18.4% | 563hPa | 2.9V | 08:30:00 | 00:41:51 | 00:00:00 | |
| DB0DAN | 2026-08-30 23:01:25 | 54.11745 | 13.56799 | 65° | 58km/h | 4832m | 5.1m/s | -7.9°C | 17.3% | 561.53hPa | 2.9V | 00:00:00 | 00:00:00 | 00:00:00 | |
| AA1-15 | 2026-08-30 23:01:24 | 54.11739 | 13.56775 | 67° | 64km/h | 4827m | 4.5m/s | -7.8°C | 19.3% | 562.1hPa | 2.9V | 18:12:15 | 00:41:54 | 00:00:00 | |
| AM1SDL-15 | 2026-08-30 23:01:23 | 54.11733 | 13.56749 | 70° | 51km/h | 4823m | 4.2m/s | 0°C | 0% | 0hPa | 2.9V | 00:00:00 | 00:41:53 | 00:00:00 | |
| DG6HD-11 | 2026-08-30 23:01:21 | 54.11724 | 13.56702 | 74° | 51km/h | 4816m | 5.6m/s | -7.7°C | 18.4% | 563.0hPa | 2.9V | 00:00:00 | 00:00:00 | 00:00:00 | |
| MECKS9 | 2026-08-30 23:01:20 | 54.11724 | 13.56702 | 75° | 53km/h | 4816m | 5.6m/s | -7.7°C | 17.9% | 563.1hPa | 2.9V | 00:00:00 | 00:00:00 | 00:00:00 | |
| DL1XH-15 | 2026-08-30 23:01:16 | 54.11704 | 13.56608 | 70° | 46km/h | 4788m | 6.8m/s | -7.5°C | 19.3% | 565.3hPa | 2.9V | 08:30:00 | 00:41:46 | 00:00:00 | |
| DL1XH-15 | 2026-08-30 23:01:16 | 54.11686 | 13.56506 | 68° | 51km/h | 4755m | 5.6m/s | -7.3°C | 19.7% | 567.3hPa | 2.8V | 08:30:00 | 00:41:41 | 00:00:00 | |
| AA1-15 | 2026-08-30 23:01:13 | 54.11694 | 13.56549 | 75° | 51km/h | 4768m | 7.3m/s | -7.4°C | 22.1% | 566.5hPa | 2.9V | 18:12:15 | 00:41:43 | 00:00:00 | |
| AM1SDL-15 | 2026-08-30 23:01:11 | 54.11686 | 13.56506 | 69° | 55km/h | 4755m | 5.5m/s | 0°C | 0% | 0hPa | 2.9V | 00:00:00 | 00:41:41 | 00:00:00 | |
| DL1XH-15 | 2026-08-30 23:01:06 | 54.11640 | 13.56293 | 69° | 57km/h | 4711m | 4.8m/s | -6.9°C | 20.2% | 570.6hPa | 2.9V | 08:30:00 | 00:41:31 | 00:00:00 | |
| AA1-15 | 2026-08-30 23:01:02 | 54.11646 | 13.56315 | 66° | 57km/h | 4715m | 3.5m/s | -7°C | 21.9% | 570.2hPa | 2.9V | 18:12:15 | 00:41:32 | 00:00:00 | |
| DL1XH-15 | 2026-08-30 23:01:01 | 54.11611 | 13.56188 | 57° | 49km/h | 4690m | 4m/s | -6.7°C | 19.7% | 572hPa | 2.9V | 08:30:00 | 00:41:26 | 00:00:00 | |
| DL1XH-15 | 2026-08-30 23:00:56 | 54.11585 | 13.56095 | 73° | 51km/h | 4669m | 5.8m/s | -6.6°C | 18.6% | 573.5hPa | 2.9V | 08:30:00 | 00:41:21 | 00:00:00 | |
| AA1-15 | 2026-08-30 23:00:51 | 54.11585 | 13.56095 | 73° | 51km/h | 4669m | 5.8m/s | -6.6°C | 20.3% | 573.5hPa | 2.9V | 18:12:15 | 00:41:21 | 00:00:00 | |
| DG6HD-11 | 2026-08-30 23:00:51 | 54.11585 | 13.56095 | 74° | 60km/h | 4669m | 5.8m/s | -6.6°C | 18.6% | 573.5hPa | 2.9V | 00:00:00 | 00:00:00 | 08:30:00 | |
| MECKS9 | 2026-08-30 23:00:50 | 54.11585 | 13.56095 | 74° | 51km/h | 4669m | 5.8m/s | -6.6°C | 18.2% | 573.5hPa | 2.9V | 00:00:00 | 00:00:00 | 00:00:00 | |
| DL1XH-15 | 2026-08-30 23:00:46 | 54.11563 | 13.55969 | 77° | 62km/h | 4638m | 5.8m/s | -6.5°C | 17.9% | 575.8hPa | 2.9V | 08:30:00 | 00:41:16 | 00:00:00 | |
| DL1XH-15 | 2026-08-30 23:00:46 | 54.11549 | 13.55836 | 76° | 64km/h | 4610m | 6.1m/s | -6.3°C | 17.2% | 578hPa | 2.9V | 08:30:00 | 00:41:11 | 00:00:00 | |
| DL1XH-15 | 2026-08-30 23:00:41 | 54.11522 | 13.55698 | 73° | 60km/h | 4573m | 6.8m/s | -6.1°C | 16.7% | 580.6hPa | 2.9V | 08:30:00 | 00:41:05 | 00:00:00 | |
| DB0DAN | 2026-08-30 23:00:40 | 54.11545 | 13.55811 | 75° | 57km/h | 4605m | 4.7m/s | -6.3°C | 17% | 578.49hPa | 2.9V | 00:00:00 | 00:00:00 | 00:00:00 | |
| AA1-15 | 2026-08-30 23:00:40 | 54.11545 | 13.55811 | 75° | 58km/h | 4605m | 4.7m/s | -6.3°C | 18.7% | 578.5hPa | 2.9V | 18:12:15 | 00:41:10 | 00:00:00 | |
| MECKS9 | 2026-08-30 23:00:39 | 54.11545 | 13.55811 | 76° | 58km/h | 4605m | 4.7m/s | -6.3°C | 17.0% | 578.5hPa | 2.9V | 00:00:00 | 00:00:00 | 00:00:00 | |
| DL1XH-15 | 2026-08-30 23:00:36 | 54.11508 | 13.55571 | 80° | 57km/h | 4546m | 5.1m/s | -5.9°C | 17.6% | 582.6hPa | 2.9V | 08:30:00 | 00:41:00 | 00:00:00 | |
| DL1XH-15 | 2026-08-30 23:00:30 | 54.11491 | 13.55446 | 72° | 66km/h | 4520m | 6.4m/s | -5.7°C | 18% | 584.8hPa | 2.9V | 08:30:00 | 00:40:55 | 00:00:00 | |
| AA1-15 | 2026-08-30 23:00:29 | 54.11506 | 13.55547 | 79° | 57km/h | 4542m | 3.2m/s | -5.9°C | 19.4% | 583hPa | 2.9V | 18:12:15 | 00:40:59 | 00:00:00 | |
| DB0DAN | 2026-08-30 23:00:25 | 54.11491 | 13.55446 | 72° | 62km/h | 4520m | 6.4m/s | -5.7°C | 17.6% | 584.78hPa | 2.9V | 00:00:00 | 00:00:00 | 00:00:00 | |
| DL1XH-15 | 2026-08-30 23:00:25 | 54.11463 | 13.55298 | 80° | 55km/h | 4491m | 5.3m/s | -5.5°C | 16.9% | 587.2hPa | 2.9V | 08:30:00 | 00:40:49 | 00:00:00 | |
| DG6HD-11 | 2026-08-30 23:00:21 | 54.11470 | 13.55345 | 73° | 51km/h | 4500m | 4.1m/s | -5.5°C | 17.2% | 586.3hPa | 2.9V | 00:00:00 | 00:00:00 | 00:00:00 | |
| DL1XH-15 | 2026-08-30 23:00:20 | 54.11451 | 13.55193 | 67° | 49km/h | 4466m | 5.6m/s | -5.3°C | 17.2% | 588.9hPa | 2.9V | 08:30:00 | 00:40:44 | 00:00:00 | |
| AA1-15 | 2026-08-30 23:00:18 | 54.11461 | 13.55275 | 83° | 53km/h | 4486m | 5.2m/s | -5.4°C | 18.6% | 587.5hPa | 2.9V | 18:12:15 | 00:40:48 | 00:00:00 | |
| DL1XH-15 | 2026-08-30 23:00:14 | 54.11431 | 13.55092 | 76° | 51km/h | 4433m | 4.8m/s | -5.2°C | 17.1% | 591.2hPa | 2.9V | 08:30:00 | 00:40:39 | 00:00:00 | |
| DL1XH-15 | 2026-08-30 23:00:09 | 54.11421 | 13.54998 | 75° | 42km/h | 4408m | 2.7m/s | -5°C | 16.5% | 593.2hPa | 2.9V | 08:30:00 | 00:40:34 | 00:00:00 | |
| AA1-15 | 2026-08-30 23:00:07 | 54.11426 | 13.55052 | 80° | 44km/h | 4422m | 5.7m/s | -5.1°C | 18.3% | 592.1hPa | 2.9V | 18:12:15 | 00:40:37 | 00:00:00 | |
| DL1XH-15 | 2026-08-30 23:00:04 | 54.11401 | 13.54900 | 67° | 58km/h | 4383m | 6.9m/s | -4.9°C | 17.2% | 595.1hPa | 2.9V | 08:30:00 | 00:40:29 | 00:00:00 | |
| DL1XH-15 | 2026-08-30 22:59:59 | 54.11369 | 13.54780 | 67° | 58km/h | 4357m | 4.1m/s | -4.8°C | 17.3% | 597.1hPa | 2.9V | 08:30:00 | 00:40:24 | 00:00:00 | |
| AA1-15 | 2026-08-30 22:59:56 | 54.11381 | 13.54827 | 65° | 62km/h | 4366m | 5.3m/s | -4.8°C | 19.5% | 596.5hPa | 2.9V | 18:12:15 | 00:40:26 | 00:00:00 | |
| DG6HD-11 | 2026-08-30 22:59:50 | 54.11352 | 13.54693 | 77° | 55km/h | 4338m | 5.6m/s | -4.6°C | 17.7% | 598.4hPa | 2.9V | 00:00:00 | 00:00:00 | 00:00:00 | |
| DL1XH-15 | 2026-08-30 22:59:49 | 54.11326 | 13.54543 | 72° | 66km/h | 4308m | 4.5m/s | -4.5°C | 0% | 600.9hPa | 2.9V | 08:30:00 | 00:40:14 | 00:00:00 | |
| AA1-15 | 2026-08-30 22:59:46 | 54.11335 | 13.54597 | 73° | 62km/h | 4317m | 5.4m/s | -4.6°C | 17.6% | 600.2hPa | 2.9V | 18:12:15 | 00:40:16 | 00:00:00 | |
| DL1XH-15 | 2026-08-30 22:59:44 | 54.11303 | 13.54416 | 79° | 51km/h | 4289m | 5m/s | -4.3°C | 0% | 602.5hPa | 2.9V | 08:30:00 | 00:40:09 | 00:00:00 | |
| DL1XH-15 | 2026-08-30 22:59:39 | 54.11287 | 13.54322 | 64° | 44km/h | 4265m | 5.2m/s | -4.1°C | 0% | 604.4hPa | 2.9V | 08:30:00 | 00:40:04 | 00:00:00 | |
| AA1-15 | 2026-08-30 22:59:34 | 54.11287 | 13.54322 | 64° | 44km/h | 4265m | 5.2m/s | -4.1°C | 16% | 604.4hPa | 2.9V | 18:12:15 | 00:40:04 | 00:00:00 | |
| DL1XH-15 | 2026-08-30 22:59:31 | 54.11272 | 13.54237 | 82° | 46km/h | 4238m | 6.2m/s | -3.9°C | 0% | 606.5hPa | 2.9V | 08:30:00 | 00:39:59 | 00:00:00 | |
| AA1-15 | 2026-08-30 22:59:23 | 54.11252 | 13.54093 | 72° | 57km/h | 4206m | 7.2m/s | -3.6°C | 13.6% | 609.2hPa | 2.9V | 18:12:15 | 00:39:53 | 00:00:00 | |
| DG6HD-11 | 2026-08-30 22:59:20 | 54.11243 | 13.54031 | 80° | 47km/h | 4188m | 4.8m/s | -3.5°C | 13.0% | 610.5hPa | 2.9V | 00:00:00 | 00:00:00 | 00:00:00 | |
| DL1XH-15 | 2026-08-30 22:59:18 | 54.11223 | 13.53897 | 65° | 49km/h | 4149m | 6.2m/s | -3.5°C | 0% | 613.4hPa | 2.9V | 08:30:00 | 00:39:43 | 00:00:00 | |
| AA1-15 | 2026-08-30 22:59:13 | 54.11223 | 13.53897 | 65° | 49km/h | 4149m | 6.2m/s | -3.5°C | 17.7% | 613.4hPa | 2.9V | 18:12:15 | 00:39:43 | 00:00:00 | |
| DL1XH-15 | 2026-08-30 22:59:12 | 54.11205 | 13.53779 | 83° | 46km/h | 4114m | 6.9m/s | -3.3°C | 0% | 616hPa | 2.9V | 08:30:00 | 00:39:37 | 00:00:00 | |
| AA1-15 | 2026-08-30 22:59:02 | 54.11194 | 13.53688 | 77° | 44km/h | 4084m | 5.5m/s | -3.1°C | 18.4% | 618.3hPa | 2.9V | 18:12:15 | 00:39:32 | 00:00:00 | |
| DL1XH-15 | 2026-08-30 22:58:57 | 54.11179 | 13.53463 | 77° | 53km/h | 4027m | 5.8m/s | -2.8°C | 0% | 622.5hPa | 2.9V | 08:30:00 | 00:39:22 | 00:00:00 | |
| DB0DAN | 2026-08-30 22:58:55 | 54.11187 | 13.53532 | 79° | 55km/h | 4044m | 5.6m/s | -2.9°C | 16.1% | 621.18hPa | 2.9V | 00:00:00 | 00:00:00 | 00:00:00 | |
| DL1XH-15 | 2026-08-30 22:58:52 | 54.11163 | 13.53349 | 79° | 51km/h | 4007m | 4.9m/s | -2.7°C | 0% | 624.3hPa | 2.9V | 08:30:00 | 00:39:17 | 00:00:00 | |
| AA1-15 | 2026-08-30 22:58:51 | 54.11176 | 13.53441 | 77° | 53km/h | 4022m | 4m/s | -2.8°C | 19.7% | 623hPa | 2.9V | 18:12:15 | 00:39:21 | 00:00:00 | |
| DG6HD-11 | 2026-08-30 22:58:50 | 54.11172 | 13.53418 | 75° | 51km/h | 4018m | 4.5m/s | -2.7°C | 17.7% | 623.2hPa | 2.9V | 00:00:00 | 00:00:00 | 00:00:00 | |
| DL1XH-15 | 2026-08-30 22:58:47 | 54.11165 | 13.53222 | 92° | 46km/h | 3985m | 3.7m/s | -2.6°C | 0% | 626hPa | 2.9V | 08:30:00 | 00:39:11 | 00:00:00 | |
| MECKS9 | 2026-08-30 22:58:47 | 54.11166 | 13.53371 | 76° | 53km/h | 4011m | 2.5m/s | -2.7°C | 17.9% | 624.0hPa | 2.8V | 00:00:00 | 00:00:00 | 00:00:00 | |
| DL1XH-15 | 2026-08-30 22:58:41 | 54.11158 | 13.53131 | 73° | 46km/h | 3956m | 5m/s | -2.5°C | 0% | 628.2hPa | 2.8V | 08:30:00 | 00:39:06 | 00:00:00 | |
| DB0DAN | 2026-08-30 22:58:40 | 54.11165 | 13.53202 | 88° | 44km/h | 3981m | 4.4m/s | -2.6°C | 17.5% | 626.3hPa | 2.9V | 00:00:00 | 00:00:00 | 00:00:00 | |
| AA1-15 | 2026-08-30 22:58:40 | 54.11165 | 13.53202 | 89° | 46km/h | 3982m | 4.4m/s | -2.6°C | 19.5% | 626.3hPa | 2.9V | 18:12:15 | 00:39:10 | 00:00:00 | |
| DL1XH-15 | 2026-08-30 22:58:36 | 54.11146 | 13.53019 | 83° | 57km/h | 3929m | 7.8m/s | -2.5°C | 0% | 630.4hPa | 2.9V | 08:30:00 | 00:39:01 | 00:00:00 | |
| DL1XH-15 | 2026-08-30 22:58:31 | 54.11140 | 13.52908 | 92° | 51km/h | 3897m | 7m/s | -2.3°C | 0% | 632.8hPa | 2.9V | 08:30:00 | 00:38:56 | 00:00:00 | |
| AA1-15 | 2026-08-30 22:58:29 | 54.11143 | 13.52973 | 82° | 51km/h | 3915m | 6m/s | -2.4°C | 26.1% | 631.6hPa | 2.9V | 18:12:15 | 00:38:59 | 00:00:00 | |
| DL1XH-15 | 2026-08-30 22:58:26 | 54.11138 | 13.52793 | 82° | 55km/h | 3869m | 4.7m/s | -2.1°C | 0% | 0hPa | 2.9V | 08:30:00 | 00:38:51 | 00:00:00 | |
| DB0DAN | 2026-08-30 22:58:25 | 54.11140 | 13.52885 | 92° | 51km/h | 3891m | 6.2m/s | -2.3°C | 22.7% | 633.38hPa | 2.9V | 00:00:00 | 00:00:00 | 00:00:00 | |
| DL1XH-15 | 2026-08-30 22:58:21 | 54.11127 | 13.52677 | 79° | 53km/h | 3846m | 4m/s | -1.9°C | 0% | 0hPa | 2.9V | 08:30:00 | 00:38:46 | 00:00:00 | |
| AA1-15 | 2026-08-30 22:58:18 | 54.11132 | 13.52723 | 82° | 55km/h | 3855m | 5.4m/s | -2°C | 25.8% | 636.2hPa | 2.9V | 18:12:15 | 00:38:48 | 00:00:00 | |
| DL1XH-15 | 2026-08-30 22:58:07 | 54.11098 | 13.52354 | 78° | 53km/h | 3791m | 2.9m/s | -1.5°C | 0% | 0hPa | 2.9V | 08:30:00 | 00:38:32 | 00:00:00 | |
| AA1-15 | 2026-08-30 22:58:07 | 54.11112 | 13.52462 | 84° | 55km/h | 3810m | 3.2m/s | -1.6°C | 25.6% | 639.8hPa | 2.9V | 18:12:15 | 00:38:37 | 00:00:00 | |
| MECKS9 | 2026-08-30 22:58:06 | 54.11111 | 13.52462 | 85° | 55km/h | 3810m | 3.2m/s | -1.6°C | 23.1% | 639.8hPa | 2.9V | 00:00:00 | 00:00:00 | 00:00:00 | |
| DL1XH-15 | 2026-08-30 22:58:02 | 54.11090 | 13.52240 | 84° | 51km/h | 3771m | 3.7m/s | -1.3°C | 0% | 0hPa | 2.9V | 08:30:00 | 00:38:27 | 00:00:00 | |
| DL1XH-15 | 2026-08-30 22:57:57 | 54.11079 | 13.52099 | 81° | 57km/h | 3750m | 2.9m/s | 0°C | 0% | 0hPa | 2.9V | 08:30:00 | 00:38:21 | 00:00:00 | |
| AA1-15 | 2026-08-30 22:57:56 | 54.11088 | 13.52218 | 84° | 53km/h | 3767m | 3.6m/s | -1.3°C | 25.7% | 643.3hPa | 2.9V | 18:12:15 | 00:38:26 | 00:00:00 | |
| MECKS9 | 2026-08-30 22:57:55 | 54.11088 | 13.52218 | 85° | 53km/h | 3767m | 3.6m/s | -1.3°C | 23.5% | 643.3hPa | 2.9V | 00:00:00 | 00:00:00 | 00:00:00 | |
| DL1XH-15 | 2026-08-30 22:57:51 | 54.11063 | 13.51979 | 77° | 55km/h | 3728m | 4.4m/s | 0°C | 0% | 0hPa | 2.9V | 08:30:00 | 00:38:16 | 00:00:00 | |
| DG6HD-11 | 2026-08-30 22:57:50 | 54.11076 | 13.52075 | 80° | 57km/h | 3746m | 4.3m/s | -1.0°C | 23.8% | 645.0hPa | 2.9V | 00:00:00 | 00:00:00 | 00:00:00 | |
| DL1XH-15 | 2026-08-30 22:57:46 | 54.11058 | 13.51862 | 93° | 53km/h | 3703m | 4.4m/s | 0°C | 0% | 0hPa | 2.9V | 00:00:00 | 00:38:11 | 00:00:00 | |
| AA1-15 | 2026-08-30 22:57:45 | 54.11060 | 13.51956 | 82° | 53km/h | 3724m | 4.4m/s | -0.9°C | 25.4% | 646.8hPa | 2.9V | 18:12:15 | 00:38:15 | 00:00:00 | |
| DL1XH-15 | 2026-08-30 22:57:41 | 54.11062 | 13.51748 | 91° | 58km/h | 3680m | 4.8m/s | 0°C | 0% | 0hPa | 2.9V | 00:00:00 | 00:38:06 | 00:00:00 | |
| DB0DAN | 2026-08-30 22:57:40 | 54.11059 | 13.51840 | 91° | 47km/h | 3699m | 3.2m/s | -0.7°C | 20.4% | 648.64hPa | 2.9V | 00:00:00 | 00:00:00 | 00:00:00 | |
| AA1-15 | 2026-08-30 22:57:34 | 54.11061 | 13.51697 | 86° | 58km/h | 3670m | 4.4m/s | -0.5°C | 25.7% | 650.8hPa | 2.9V | 18:12:15 | 00:38:04 | 00:00:00 | |
| DL1XH-15 | 2026-08-30 22:57:32 | 54.11056 | 13.51574 | 90° | 60km/h | 3640m | 6.2m/s | 0°C | 0% | 0hPa | 2.9V | 00:00:00 | 00:37:59 | 00:00:00 | |
| AM1SDL-15 | 2026-08-30 22:57:28 | 54.11056 | 13.51548 | 91° | 55km/h | 3634m | 5.3m/s | 0°C | 0% | 0hPa | 2.9V | 00:00:00 | 00:37:58 | 00:00:00 | |
| DB0DAN | 2026-08-30 22:57:25 | 54.11055 | 13.51471 | 89° | 53km/h | 3620m | 4.3m/s | -0.1°C | 17.1% | 654.69hPa | 2.9V | 00:00:00 | 00:00:00 | 00:00:00 | |
| AA1-15 | 2026-08-30 22:57:23 | 54.11055 | 13.51426 | 92° | 51km/h | 3611m | 5m/s | -0.1°C | 18.9% | 655.5hPa | 2.9V | 18:12:15 | 00:37:53 | 00:00:00 | |
| AA1-15 | 2026-08-30 22:57:13 | 54.11023 | 13.51201 | 76° | 53km/h | 3567m | 4.8m/s | 0.3°C | 19.5% | 659.3hPa | 2.9V | 18:12:15 | 00:37:43 | 00:00:00 | |
| DB0DAN | 2026-08-30 22:57:10 | 54.11018 | 13.51137 | 90° | 46km/h | 3550m | 4.1m/s | 0.4°C | 18.6% | 660.8hPa | 2.9V | 00:00:00 | 00:00:00 | 00:00:00 | |
| AA1-15 | 2026-08-30 22:57:02 | 54.10998 | 13.50977 | 72° | 60km/h | 3514m | 4.3m/s | 0.7°C | 19.8% | 663.8hPa | 2.9V | 18:12:15 | 00:37:32 | 00:00:00 | |
| AA1-15 | 2026-08-30 22:56:51 | 54.10987 | 13.50730 | 78° | 46km/h | 3459m | 6.5m/s | 1.1°C | 16.8% | 668.6hPa | 2.9V | 18:12:15 | 00:37:21 | 00:00:00 | |
| DG6HD-11 | 2026-08-30 22:56:50 | 54.10984 | 13.50712 | 73° | 44km/h | 3453m | 5.5m/s | 1.1°C | 15.0% | 668.9hPa | 2.9V | 00:00:00 | 00:00:00 | 00:00:00 | |
| MECKS9 | 2026-08-30 22:56:48 | 54.10981 | 13.50695 | 69° | 42km/h | 3449m | 4.1m/s | 1.2°C | 14.7% | 669.5hPa | 2.9V | 00:00:00 | 00:00:00 | 00:00:00 | |
| DB0DAN | 2026-08-30 22:56:40 | 54.10959 | 13.50524 | 81° | 46km/h | 3405m | 3.7m/s | 1.4°C | 15.2% | 672.95hPa | 2.9V | 00:00:00 | 00:00:00 | 00:00:00 | |
| AA1-15 | 2026-08-30 22:56:40 | 54.10959 | 13.50524 | 81° | 47km/h | 3405m | 3.7m/s | 1.4°C | 16.7% | 673hPa | 2.9V | 18:12:15 | 00:37:10 | 00:00:00 | |
| AA1-15 | 2026-08-30 22:56:29 | 54.10936 | 13.50317 | 75° | 37km/h | 3365m | 3.3m/s | 1.4°C | 17.9% | 676.5hPa | 2.9V | 18:12:15 | 00:36:59 | 00:00:00 | |
| DB0DAN | 2026-08-30 22:56:25 | 54.10931 | 13.50255 | 90° | 37km/h | 3351m | 3m/s | 1.5°C | 17.5% | 677.47hPa | 2.9V | 00:00:00 | 00:00:00 | 00:00:00 | |
| AA1-15 | 2026-08-30 22:56:18 | 54.10931 | 13.50131 | 92° | 46km/h | 3318m | 6.5m/s | 1.8°C | 20.7% | 680.5hPa | 2.9V | 18:12:15 | 00:36:48 | 00:00:00 | |
| AA1-15 | 2026-08-30 22:56:11 | 54.10917 | 13.49933 | 73° | 42km/h | 3269m | 4.9m/s | 2°C | 21.1% | 684.7hPa | 2.9V | 18:12:15 | 00:36:37 | 00:00:00 | |
| AA1-15 | 2026-08-30 22:55:56 | 54.10884 | 13.49743 | 76° | 37km/h | 3227m | 4.5m/s | 2.2°C | 21.2% | 688.3hPa | 2.9V | 18:12:15 | 00:36:26 | 00:00:00 | |
| DB0DAN | 2026-08-30 22:55:55 | 54.10881 | 13.49729 | 74° | 33km/h | 3223m | 2.9m/s | 2.2°C | 20.5% | 688.56hPa | 2.9V | 00:00:00 | 00:00:00 | 00:00:00 | |
| AA1-15 | 2026-08-30 22:55:45 | 54.10848 | 13.49539 | 76° | 49km/h | 3178m | 4m/s | 2.5°C | 24.6% | 692.3hPa | 2.9V | 18:12:15 | 00:36:15 | 00:00:00 | |
| DB0DAN | 2026-08-30 22:55:40 | 54.10831 | 13.49438 | 65° | 44km/h | 3148m | 5.8m/s | 2.7°C | 22% | 694.83hPa | 2.9V | 00:00:00 | 00:00:00 | 00:00:00 | |
| AA1-15 | 2026-08-30 22:55:34 | 54.10810 | 13.49339 | 79° | 42km/h | 3116m | 6.2m/s | 2.8°C | 26.6% | 697.5hPa | 2.9V | 18:12:15 | 00:36:04 | 00:00:00 | |
| AA1-15 | 2026-08-30 22:55:23 | 54.10776 | 13.49141 | 69° | 46km/h | 3068m | 3.6m/s | 2.9°C | 27.6% | 701.9hPa | 2.9V | 18:12:15 | 00:35:53 | 00:00:00 | |
| AA1-15 | 2026-08-30 22:55:12 | 54.10742 | 13.48965 | 69° | 40km/h | 3023m | 4m/s | 2.9°C | 32.2% | 705.7hPa | 2.9V | 18:12:15 | 00:35:42 | 00:00:00 | |
| AA1-15 | 2026-08-30 22:55:04 | 54.10697 | 13.48807 | 54° | 44km/h | 2992m | 2.9m/s | 3.1°C | 35.9% | 708.6hPa | 2.9V | 18:12:15 | 00:35:32 | 00:00:00 | |
| AA1-15 | 2026-08-30 22:54:51 | 54.10629 | 13.48654 | 55° | 42km/h | 2945m | 5m/s | 3.4°C | 44.6% | 712.7hPa | 2.9V | 18:12:15 | 00:35:21 | 00:00:00 | |
| AA1-15 | 2026-08-30 22:54:40 | 54.10581 | 13.48457 | 69° | 42km/h | 2890m | 3.9m/s | 3.4°C | 57.3% | 717.3hPa | 2.9V | 18:12:15 | 00:35:10 | 00:00:00 | |
| AA1-15 | 2026-08-30 22:54:30 | 54.10531 | 13.48250 | 72° | 49km/h | 2838m | 6.8m/s | 2.9°C | 76.1% | 721.8hPa | 2.9V | 18:12:15 | 00:34:59 | 00:00:00 | |
| AA1-15 | 2026-08-30 22:54:18 | 54.10493 | 13.48084 | 71° | 42km/h | 2795m | 5.3m/s | 3.1°C | 80.1% | 725.9hPa | 2.9V | 18:12:15 | 00:34:48 | 00:00:00 | |
| DB0DAN | 2026-08-30 22:54:10 | 54.10456 | 13.47927 | 65° | 49km/h | 2751m | 6.4m/s | 3.5°C | 68.8% | 729.88hPa | 2.9V | 00:00:00 | 00:00:00 | 00:00:00 | |
| AA1-15 | 2026-08-30 22:54:07 | 54.10440 | 13.47874 | 62° | 40km/h | 2736m | 4.7m/s | 3.6°C | 68.2% | 731.2hPa | 2.9V | 18:12:15 | 00:34:37 | 00:00:00 | |
| AA1-15 | 2026-08-30 22:53:56 | 54.10376 | 13.47698 | 70° | 47km/h | 2690m | 6.2m/s | 4°C | 59.9% | 735hPa | 2.9V | 18:12:15 | 00:34:26 | 00:00:00 | |
| AA1-15 | 2026-08-30 22:53:45 | 54.10325 | 13.47512 | 60° | 40km/h | 2642m | 3.4m/s | 4°C | 71.6% | 739.6hPa | 2.9V | 18:12:15 | 00:34:15 | 00:00:00 | |
| AA1-15 | 2026-08-30 22:53:34 | 54.10310 | 13.47366 | 79° | 38km/h | 2579m | 6.1m/s | 4.5°C | 76.9% | 745.3hPa | 2.9V | 18:12:15 | 00:34:04 | 00:00:00 | |
| AA1-15 | 2026-08-30 22:53:23 | 54.10280 | 13.47174 | 85° | 47km/h | 2534m | 3.3m/s | 4.9°C | 73.8% | 749.6hPa | 2.9V | 18:12:15 | 00:33:53 | 00:00:00 | |
| AA1-15 | 2026-08-30 22:53:12 | 54.10252 | 13.47013 | 67° | 44km/h | 2485m | 5m/s | 5°C | 81.1% | 754.1hPa | 2.9V | 18:12:15 | 00:33:42 | 00:00:00 | |
| DB0DAN | 2026-08-30 22:53:10 | 54.10244 | 13.46982 | 67° | 33km/h | 2474m | 5m/s | 5°C | 82.7% | 755.07hPa | 2.9V | 00:00:00 | 00:00:00 | 00:00:00 | |
| AA1-15 | 2026-08-30 22:53:01 | 54.10217 | 13.46869 | 77° | 38km/h | 2425m | 5.8m/s | 5.4°C | 83.5% | 759.7hPa | 2.9V | 18:12:15 | 00:33:31 | 00:00:00 | |
| DB0DAN | 2026-08-30 22:52:55 | 54.10205 | 13.46764 | 82° | 46km/h | 2398m | 3.3m/s | 5.6°C | 80.4% | 762.29hPa | 2.9V | 00:00:00 | 00:00:00 | 00:00:00 | |
| AA1-15 | 2026-08-30 22:52:51 | 54.10200 | 13.46696 | 84° | 31km/h | 2384m | 4.6m/s | 5.7°C | 81.5% | 763.5hPa | 2.9V | 18:12:15 | 00:33:21 | 00:00:00 | |
| DG6HD-11 | 2026-08-30 22:52:50 | 54.10199 | 13.46683 | 87° | 38km/h | 2378m | 6.4m/s | 0°C | 0% | 0hPa | 2.9V | 00:00:00 | 00:00:00 | 00:00:00 | |
| MECKS9 | 2026-08-30 22:52:44 | 54.10200 | 13.46608 | 83° | 42km/h | 2353m | 5.5m/s | 6.0°C | 78.6% | 766.3hPa | 2.9V | 00:00:00 | 00:00:00 | 00:00:00 | |
| DB0DAN | 2026-08-30 22:52:40 | 54.10183 | 13.46513 | 71° | 44km/h | 2331m | 3.3m/s | 6.1°C | 79.5% | 768.5hPa | 2.9V | 00:00:00 | 00:00:00 | 00:00:00 | |
| AA1-15 | 2026-08-30 22:52:40 | 54.10183 | 13.46513 | 71° | 47km/h | 2331m | 3.3m/s | 6.1°C | 78.7% | 768.5hPa | 2.9V | 18:12:15 | 00:33:10 | 00:00:00 | |
| AA1-15 | 2026-08-30 22:52:29 | 54.10167 | 13.46357 | 71° | 40km/h | 2278m | 5.9m/s | 6.6°C | 85.1% | 773.6hPa | 2.9V | 18:12:15 | 00:32:59 | 00:00:00 | |
| DB0DAN | 2026-08-30 22:52:25 | 54.10156 | 13.46284 | 78° | 42km/h | 2256m | 6m/s | 6.7°C | 82.9% | 775.58hPa | 2.9V | 00:00:00 | 00:00:00 | 00:00:00 | |
| AA1-15 | 2026-08-30 22:52:18 | 54.10139 | 13.46190 | 96° | 31km/h | 2225m | 4.2m/s | 6.8°C | 88.2% | 778.3hPa | 2.9V | 18:12:15 | 00:32:48 | 00:00:00 | |
| AA1-15 | 2026-08-30 22:52:07 | 54.10119 | 13.46016 | 78° | 40km/h | 2166m | 6m/s | 5.6°C | 96.6% | 783.9hPa | 2.9V | 18:12:15 | 00:32:37 | 00:00:00 | |
| AA1-15 | 2026-08-30 22:51:56 | 54.10095 | 13.45810 | 77° | 38km/h | 2121m | 5.1m/s | 6°C | 94% | 788.3hPa | 2.9V | 18:12:15 | 00:32:26 | 00:00:00 | |
| AA1-15 | 2026-08-30 22:51:48 | 54.10081 | 13.45633 | 72° | 49km/h | 2065m | 5.8m/s | 6.5°C | 91.5% | 793.6hPa | 2.9V | 18:12:15 | 00:32:15 | 00:00:00 | |
| DB0DAN | 2026-08-30 22:51:40 | 54.10064 | 13.45539 | 73° | 33km/h | 2037m | 6m/s | 6.8°C | 91.8% | 796.31hPa | 2.9V | 00:00:00 | 00:00:00 | 00:00:00 | |
| AA1-15 | 2026-08-30 22:51:34 | 54.10062 | 13.45452 | 86° | 40km/h | 1999m | 4.9m/s | 7.1°C | 86.7% | 800.1hPa | 2.9V | 18:12:15 | 00:32:04 | 00:00:00 | |
| AA1-15 | 2026-08-30 22:51:33 | 54.10058 | 13.45419 | 74° | 38km/h | 1989m | 5.3m/s | 7.2°C | 87.7% | 800.8hPa | 2.9V | 18:12:15 | 00:32:02 | 00:00:00 | |
| AA1-15 | 2026-08-30 22:51:32 | 54.10055 | 13.45404 | 66° | 35km/h | 1984m | 4.4m/s | 7.3°C | 88% | 801.3hPa | 2.9V | 18:12:15 | 00:32:01 | 00:00:00 | |
| AA1-15 | 2026-08-30 22:51:30 | 54.10051 | 13.45390 | 69° | 33km/h | 1979m | 5.6m/s | 7.3°C | 88.2% | 802hPa | 2.9V | 18:12:15 | 00:32:00 | 00:00:00 | |
| AA1-15 | 2026-08-30 22:51:29 | 54.10049 | 13.45377 | 74° | 29km/h | 1973m | 5.7m/s | 7.4°C | 87.5% | 802.5hPa | 2.9V | 18:12:15 | 00:31:59 | 00:00:00 | |
| AA1-15 | 2026-08-30 22:51:27 | 54.10049 | 13.45353 | 98° | 29km/h | 1963m | 5.2m/s | 7.5°C | 87.6% | 803.3hPa | 2.9V | 18:12:15 | 00:31:57 | 00:00:00 | |
| AA1-15 | 2026-08-30 22:51:26 | 54.10050 | 13.45340 | 101° | 33km/h | 1958m | 5.3m/s | 7.5°C | 87.3% | 803.8hPa | 2.9V | 18:12:15 | 00:31:56 | 00:00:00 | |
| DB0DAN | 2026-08-30 22:51:25 | 54.10052 | 13.45325 | 105° | 35km/h | 1952m | 5.7m/s | 7.6°C | 86.8% | 804.49hPa | 2.9V | 00:00:00 | 00:00:00 | 00:00:00 | |
| AA1-15 | 2026-08-30 22:51:25 | 54.10052 | 13.45325 | 105° | 37km/h | 1952m | 5.7m/s | 7.6°C | 86.5% | 804.5hPa | 2.9V | 18:12:15 | 00:31:55 | 00:00:00 | |
| AA1-15 | 2026-08-30 22:51:23 | 54.10056 | 13.45293 | 98° | 42km/h | 1942m | 4.5m/s | 7.7°C | 84.2% | 805.5hPa | 2.9V | 18:12:15 | 00:31:53 | 00:00:00 | |
| AA1-15 | 2026-08-30 22:51:22 | 54.10057 | 13.45274 | 91° | 44km/h | 1938m | 3.6m/s | 7.7°C | 84.6% | 806hPa | 2.9V | 18:12:15 | 00:31:52 | 00:00:00 | |
| AA1-15 | 2026-08-30 22:51:20 | 54.10055 | 13.45236 | 77° | 46km/h | 1928m | 6.2m/s | 7.8°C | 84.5% | 806.9hPa | 2.9V | 18:12:15 | 00:31:50 | 00:00:00 | |
| AA1-15 | 2026-08-30 22:51:19 | 54.10052 | 13.45218 | 77° | 42km/h | 1921m | 6.9m/s | 7.9°C | 83.7% | 807.6hPa | 2.9V | 18:12:15 | 00:31:49 | 00:00:00 | |
| AA1-15 | 2026-08-30 22:51:18 | 54.10050 | 13.45201 | 80° | 38km/h | 1914m | 6.6m/s | 7.9°C | 82.8% | 808.2hPa | 2.9V | 18:12:15 | 00:31:48 | 00:00:00 | |
| AA1-15 | 2026-08-30 22:51:16 | 54.10048 | 13.45170 | 86° | 35km/h | 1904m | 5.4m/s | 8°C | 82.5% | 809.2hPa | 2.9V | 18:12:15 | 00:31:46 | 00:00:00 | |
| AA1-15 | 2026-08-30 22:51:15 | 54.10048 | 13.45153 | 90° | 40km/h | 1898m | 6.9m/s | 8.1°C | 82.6% | 809.8hPa | 2.9V | 18:12:15 | 00:31:45 | 00:00:00 | |
| AA1-15 | 2026-08-30 22:51:14 | 54.10041 | 13.45087 | 78° | 38km/h | 1874m | 5.5m/s | 8.3°C | 81.7% | 812.2hPa | 2.9V | 18:12:15 | 00:31:41 | 00:00:00 | |
| AA1-15 | 2026-08-30 22:51:13 | 54.10040 | 13.45071 | 86° | 37km/h | 1868m | 6.7m/s | 8.4°C | 81.4% | 812.8hPa | 2.9V | 18:12:15 | 00:31:40 | 00:00:00 | |
| DB0DAN | 2026-08-30 22:51:10 | 54.10040 | 13.45071 | 86° | 35km/h | 1868m | 6.7m/s | 8.4°C | 81.9% | 812.75hPa | 2.9V | 00:00:00 | 00:00:00 | 00:00:00 | |
| AA1-15 | 2026-08-30 22:51:08 | 54.10042 | 13.45037 | 99° | 44km/h | 1855m | 5.6m/s | 8.4°C | 81.7% | 813.9hPa | 2.9V | 18:12:15 | 00:31:38 | 00:00:00 | |
| AA1-15 | 2026-08-30 22:51:07 | 54.10043 | 13.45018 | 96° | 49km/h | 1850m | 5m/s | 8.5°C | 81.9% | 814.4hPa | 2.9V | 18:12:15 | 00:31:37 | 00:00:00 | |
| AA1-15 | 2026-08-30 22:51:05 | 54.10045 | 13.44971 | 92° | 57km/h | 1838m | 6.6m/s | 8.6°C | 82% | 815.8hPa | 2.9V | 18:12:15 | 00:31:35 | 00:00:00 | |
| AA1-15 | 2026-08-30 22:51:04 | 54.10045 | 13.44947 | 84° | 55km/h | 1832m | 5.8m/s | 8.7°C | 81.5% | 816.4hPa | 2.9V | 18:12:15 | 00:31:34 | 00:00:00 | |
| AA1-15 | 2026-08-30 22:51:03 | 54.10043 | 13.44924 | 81° | 51km/h | 1827m | 3.8m/s | 8.7°C | 81.4% | 817hPa | 2.9V | 18:12:15 | 00:31:33 | 00:00:00 | |
| AA1-15 | 2026-08-30 22:51:01 | 54.10037 | 13.44884 | 74° | 44km/h | 1818m | 5.8m/s | 8.8°C | 82% | 817.8hPa | 2.9V | 18:12:15 | 00:31:31 | 00:00:00 | |
| AA1-15 | 2026-08-30 22:51:00 | 54.10034 | 13.44867 | 72° | 40km/h | 1812m | 6.9m/s | 8.9°C | 81.3% | 818.4hPa | 2.9V | 18:12:15 | 00:31:30 | 00:00:00 | |
| AA1-15 | 2026-08-30 22:50:59 | 54.10031 | 13.44851 | 76° | 37km/h | 1806m | 5.3m/s | 8.9°C | 79.6% | 818.9hPa | 2.9V | 18:12:15 | 00:31:29 | 00:00:00 | |
| AA1-15 | 2026-08-30 22:50:57 | 54.10029 | 13.44820 | 91° | 37km/h | 1796m | 5.4m/s | 9°C | 78% | 820hPa | 2.9V | 18:12:15 | 00:31:27 | 00:00:00 | |
| AA1-15 | 2026-08-30 22:50:56 | 54.10030 | 13.44804 | 97° | 40km/h | 1791m | 4.7m/s | 9°C | 77.2% | 820.3hPa | 2.9V | 18:12:15 | 00:31:26 | 00:00:00 | |
| DB0DAN | 2026-08-30 22:50:55 | 54.10031 | 13.44786 | 99° | 40km/h | 1786m | 4.5m/s | 9.1°C | 76.8% | 820.86hPa | 2.9V | 00:00:00 | 00:00:00 | 00:00:00 | |
| AA1-15 | 2026-08-30 22:50:55 | 54.10031 | 13.44786 | 99° | 42km/h | 1786m | 4.5m/s | 9.1°C | 76.9% | 820.9hPa | 2.9V | 18:12:15 | 00:31:25 | 00:00:00 | |
| AA1-15 | 2026-08-30 22:50:53 | 54.10035 | 13.44748 | 99° | 46km/h | 1778m | 4.2m/s | 9.2°C | 76.9% | 821.7hPa | 2.9V | 18:12:15 | 00:31:23 | 00:00:00 | |
| AA1-15 | 2026-08-30 22:50:52 | 54.10036 | 13.44730 | 96° | 42km/h | 1773m | 5.2m/s | 9.2°C | 77.4% | 822.2hPa | 2.9V | 18:12:15 | 00:31:22 | 00:00:00 | |
| AA1-15 | 2026-08-30 22:50:50 | 54.10038 | 13.44696 | 98° | 37km/h | 1761m | 4.5m/s | 9.2°C | 76.4% | 823.2hPa | 2.9V | 18:12:15 | 00:31:20 | 00:00:00 | |
| AA1-15 | 2026-08-30 22:50:49 | 54.10040 | 13.44681 | 104° | 37km/h | 1755m | 7.6m/s | 9.2°C | 76% | 823.9hPa | 2.9V | 18:12:15 | 00:31:19 | 00:00:00 | |
| AA1-15 | 2026-08-30 22:50:48 | 54.10042 | 13.44665 | 102° | 38km/h | 1748m | 5.9m/s | 9.2°C | 74.9% | 824.6hPa | 2.9V | 18:12:15 | 00:31:18 | 00:00:00 | |
| AA1-15 | 2026-08-30 22:50:46 | 54.10045 | 13.44628 | 93° | 46km/h | 1739m | 6.1m/s | 9.4°C | 74.8% | 825.6hPa | 2.9V | 18:12:15 | 00:31:16 | 00:00:00 | |
| AA1-15 | 2026-08-30 22:50:45 | 54.10045 | 13.44609 | 87° | 44km/h | 1733m | 6m/s | 9.4°C | 74.3% | 826.1hPa | 2.9V | 18:12:15 | 00:31:15 | 00:00:00 | |
| AA1-15 | 2026-08-30 22:50:44 | 54.10044 | 13.44590 | 86° | 40km/h | 1728m | 4.5m/s | 9.4°C | 74.3% | 826.7hPa | 2.9V | 18:12:15 | 00:31:14 | 00:00:00 | |
| AA1-15 | 2026-08-30 22:50:42 | 54.10042 | 13.44559 | 84° | 33km/h | 1717m | 5.7m/s | 9.6°C | 74.9% | 827.7hPa | 2.9V | 18:12:15 | 00:31:12 | 00:00:00 | |
| AA1-15 | 2026-08-30 22:50:41 | 54.10042 | 13.44545 | 97° | 31km/h | 1712m | 4.4m/s | 9.6°C | 75.1% | 828.4hPa | 2.9V | 18:12:15 | 00:31:11 | 00:00:00 | |
| DB0DAN | 2026-08-30 22:50:40 | 54.10044 | 13.44532 | 103° | 27km/h | 1706m | 7.1m/s | 9.7°C | 0% | 0hPa | 2.9V | 00:00:00 | 00:00:00 | 00:00:00 | |
| AA1-15 | 2026-08-30 22:50:39 | 54.10047 | 13.44506 | 109° | 38km/h | 1694m | 5.6m/s | 9.8°C | 74.1% | 830.1hPa | 2.9V | 18:12:15 | 00:31:08 | 00:00:00 | |
| AA1-15 | 2026-08-30 22:50:38 | 54.10050 | 13.44488 | 106° | 46km/h | 1689m | 4.4m/s | 9.8°C | 74.7% | 830.5hPa | 2.9V | 18:12:15 | 00:31:07 | 00:00:00 | |
| AA1-15 | 2026-08-30 22:50:35 | 54.10055 | 13.44447 | 99° | 51km/h | 1679m | 4.1m/s | 9.6°C | 76.9% | 831.4hPa | 2.9V | 18:12:15 | 00:31:05 | 00:00:00 | |
| AA1-15 | 2026-08-30 22:50:34 | 54.10056 | 13.44425 | 94° | 53km/h | 1676m | 3.8m/s | 9.6°C | 77.2% | 831.8hPa | 2.9V | 18:12:15 | 00:31:04 | 00:00:00 | |
| AA1-15 | 2026-08-30 22:50:34 | 54.10057 | 13.44402 | 94° | 55km/h | 1672m | 4.9m/s | 9.6°C | 77.2% | 832.4hPa | 2.9V | 18:12:15 | 00:31:03 | 00:00:00 | |
| AA1-15 | 2026-08-30 22:50:31 | 54.10058 | 13.44356 | 92° | 51km/h | 1663m | 3.6m/s | 9.7°C | 77.1% | 833.1hPa | 2.9V | 18:12:15 | 00:31:01 | 00:00:00 | |
| AA1-15 | 2026-08-30 22:50:30 | 54.10058 | 13.44334 | 92° | 51km/h | 1659m | 4.7m/s | 9.7°C | 77.5% | 833.9hPa | 2.9V | 18:12:15 | 00:31:00 | 00:00:00 | |
| AA1-15 | 2026-08-30 22:50:29 | 54.10059 | 13.44312 | 94° | 51km/h | 1654m | 6m/s | 9.8°C | 77.7% | 834hPa | 2.9V | 18:12:15 | 00:30:59 | 00:00:00 | |
| AA1-15 | 2026-08-30 22:50:27 | 54.10061 | 13.44269 | 94° | 49km/h | 1641m | 6.7m/s | 9.8°C | 76.8% | 835.4hPa | 2.9V | 18:12:15 | 00:30:57 | 00:00:00 | |
| AA1-15 | 2026-08-30 22:50:26 | 54.10061 | 13.44249 | 91° | 46km/h | 1636m | 4.2m/s | 9.8°C | 76.4% | 836.1hPa | 2.9V | 18:12:15 | 00:30:56 | 00:00:00 | |
| DB0DAN | 2026-08-30 22:50:25 | 54.10061 | 13.44229 | 86° | 46km/h | 1631m | 5m/s | 9.8°C | 0% | 0hPa | 2.9V | 00:00:00 | 00:00:00 | 00:00:00 | |
| AA1-15 | 2026-08-30 22:50:25 | 54.10061 | 13.44229 | 86° | 47km/h | 1631m | 5m/s | 9.8°C | 76.3% | 836.4hPa | 2.9V | 18:12:15 | 00:30:55 | 00:00:00 | |
| AA1-15 | 2026-08-30 22:50:23 | 54.10057 | 13.44190 | 79° | 46km/h | 1623m | 4.6m/s | 9.9°C | 76.5% | 837.3hPa | 2.9V | 18:12:15 | 00:30:53 | 00:00:00 | |
| AA1-15 | 2026-08-30 22:50:22 | 54.10055 | 13.44172 | 79° | 44km/h | 1618m | 5.5m/s | 9.9°C | 77.1% | 837.8hPa | 2.9V | 18:12:15 | 00:30:52 | 00:00:00 | |
| AA1-15 | 2026-08-30 22:50:20 | 54.10053 | 13.44136 | 92° | 40km/h | 1605m | 6.3m/s | 9.9°C | 77.4% | 839.1hPa | 2.9V | 18:12:15 | 00:30:50 | 00:00:00 | |
| AA1-15 | 2026-08-30 22:50:19 | 54.10054 | 13.44119 | 98° | 38km/h | 1600m | 3.7m/s | 9.9°C | 77.5% | 839.6hPa | 2.9V | 18:12:15 | 00:30:49 | 00:00:00 | |
| AA1-15 | 2026-08-30 22:50:18 | 54.10055 | 13.44103 | 102° | 38km/h | 1596m | 4.3m/s | 10°C | 77.9% | 839.9hPa | 2.9V | 18:12:15 | 00:30:48 | 00:00:00 | |
| AA1-15 | 2026-08-30 22:50:16 | 54.10059 | 13.44069 | 100° | 42km/h | 1587m | 4.6m/s | 10°C | 76.8% | 841hPa | 2.9V | 18:12:15 | 00:30:46 | 00:00:00 | |
| AA1-15 | 2026-08-30 22:50:15 | 54.10061 | 13.44050 | 93° | 46km/h | 1583m | 4.3m/s | 10.1°C | 77% | 841.2hPa | 2.9V | 18:12:15 | 00:30:45 | 00:00:00 | |
| AA1-15 | 2026-08-30 22:50:14 | 54.10060 | 13.44031 | 87° | 44km/h | 1578m | 4.4m/s | 10.1°C | 76.8% | 841.7hPa | 2.9V | 18:12:15 | 00:30:44 | 00:00:00 | |
| AA1-15 | 2026-08-30 22:50:12 | 54.10057 | 13.43992 | 78° | 46km/h | 1569m | 5.4m/s | 10°C | 77.9% | 842.7hPa | 2.9V | 18:12:15 | 00:30:42 | 00:00:00 | |
| AA1-15 | 2026-08-30 22:50:11 | 54.10054 | 13.43975 | 74° | 40km/h | 1564m | 4.8m/s | 10.1°C | 77.6% | 843.5hPa | 2.9V | 18:12:15 | 00:30:41 | 00:00:00 | |
| DB0DAN | 2026-08-30 22:50:10 | 54.10052 | 13.43959 | 73° | 35km/h | 1559m | 5m/s | 0°C | 0% | 0hPa | 2.9V | 00:00:00 | 00:00:00 | 00:00:00 | |
| AA1-15 | 2026-08-30 22:50:10 | 54.10052 | 13.43959 | 73° | 37km/h | 1559m | 5m/s | 10.1°C | 77.8% | 843.8hPa | 2.9V | 18:12:15 | 00:30:40 | 00:00:00 | |
| AA1-15 | 2026-08-30 22:50:09 | 54.10050 | 13.43944 | 83° | 33km/h | 1553m | 5.8m/s | 10.2°C | 78.1% | 844.2hPa | 2.9V | 18:12:15 | 00:30:39 | 00:00:00 | |
| AA1-15 | 2026-08-30 22:50:08 | 54.10047 | 13.43888 | 68° | 26km/h | 1526m | 3.7m/s | 10.3°C | 76.8% | 847.2hPa | 2.9V | 18:12:15 | 00:30:34 | 00:00:00 | |
| AA1-15 | 2026-08-30 22:50:07 | 54.10044 | 13.43877 | 61° | 29km/h | 1522m | 4.3m/s | 10.4°C | 76.8% | 847.4hPa | 2.9V | 18:12:15 | 00:30:33 | 00:00:00 | |
| AA1-15 | 2026-08-30 22:50:04 | 54.10040 | 13.43865 | 61° | 35km/h | 1518m | 5.1m/s | 10.4°C | 76.9% | 847.9hPa | 2.9V | 18:12:15 | 00:30:32 | 00:00:00 | |
| AA1-15 | 2026-08-30 22:50:00 | 54.10033 | 13.43833 | 76° | 42km/h | 1508m | 6.3m/s | 10.5°C | 77.6% | 849hPa | 2.9V | 18:12:15 | 00:30:30 | 00:00:00 | |
| AA1-15 | 2026-08-30 22:49:59 | 54.10031 | 13.43815 | 82° | 40km/h | 1501m | 6.8m/s | 10.5°C | 77.5% | 849.6hPa | 2.9V | 18:12:15 | 00:30:29 | 00:00:00 | |
| AA1-15 | 2026-08-30 22:49:58 | 54.10031 | 13.43783 | 96° | 33km/h | 1489m | 3.9m/s | 10.5°C | 77% | 850.9hPa | 2.9V | 18:12:15 | 00:30:27 | 00:00:00 | |
| AA1-15 | 2026-08-30 22:49:57 | 54.10032 | 13.43770 | 97° | 27km/h | 1485m | 5.5m/s | 10.6°C | 77.2% | 851.3hPa | 2.9V | 18:12:15 | 00:30:26 | 00:00:00 | |
| AA1-15 | 2026-08-30 22:49:55 | 54.10032 | 13.43759 | 87° | 26km/h | 1479m | 4.2m/s | 10.5°C | 78.2% | 851.8hPa | 2.9V | 18:12:15 | 00:30:25 | 00:00:00 | |
| AA1-15 | 2026-08-30 22:49:53 | 54.10030 | 13.43734 | 77° | 33km/h | 1470m | 4.2m/s | 10.6°C | 79.6% | 853.1hPa | 2.9V | 18:12:15 | 00:30:23 | 00:00:00 | |
| AA1-15 | 2026-08-30 22:49:52 | 54.10028 | 13.43720 | 77° | 37km/h | 1465m | 5.5m/s | 10.6°C | 80% | 853.5hPa | 2.9V | 18:12:15 | 00:30:22 | 00:00:00 | |
| AA1-15 | 2026-08-30 22:49:50 | 54.10024 | 13.43686 | 84° | 42km/h | 1455m | 6.1m/s | 10.7°C | 79.2% | 854.5hPa | 2.9V | 18:12:15 | 00:30:20 | 00:00:00 | |
| AA1-15 | 2026-08-30 22:49:49 | 54.10023 | 13.43669 | 89° | 40km/h | 1449m | 5.2m/s | 10.8°C | 78.2% | 855.4hPa | 2.9V | 18:12:15 | 00:30:19 | 00:00:00 | |
| AA1-15 | 2026-08-30 22:49:48 | 54.10023 | 13.43652 | 91° | 38km/h | 1445m | 3.6m/s | 10.8°C | 77.7% | 855.5hPa | 2.9V | 18:12:15 | 00:30:18 | 00:00:00 | |
| AA1-15 | 2026-08-30 22:49:46 | 54.10023 | 13.43621 | 85° | 33km/h | 1437m | 4.4m/s | 10.9°C | 77.5% | 856.4hPa | 2.9V | 18:12:15 | 00:30:16 | 00:00:00 | |
| AA1-15 | 2026-08-30 22:49:45 | 54.10022 | 13.43607 | 77° | 31km/h | 1433m | 4m/s | 10.9°C | 77.5% | 856.7hPa | 2.9V | 18:12:15 | 00:30:15 | 00:00:00 | |
| AA1-15 | 2026-08-30 22:49:44 | 54.10019 | 13.43594 | 66° | 31km/h | 1429m | 4.3m/s | 10.9°C | 78.2% | 857.2hPa | 2.9V | 18:12:15 | 00:30:14 | 00:00:00 | |
| AA1-15 | 2026-08-30 22:49:42 | 54.10014 | 13.43570 | 71° | 29km/h | 1419m | 6m/s | 11°C | 78.6% | 858.3hPa | 2.9V | 18:12:15 | 00:30:12 | 00:00:00 | |
| AA1-15 | 2026-08-30 22:49:41 | 54.10012 | 13.43557 | 85° | 33km/h | 1413m | 6.2m/s | 11°C | 78.6% | 858.9hPa | 2.9V | 18:12:15 | 00:30:11 | 00:00:00 | |
| AA1-15 | 2026-08-30 22:49:40 | 54.10012 | 13.43543 | 91° | 33km/h | 1408m | 3.9m/s | 11.1°C | 79.1% | 859.4hPa | 2.9V | 18:12:15 | 00:30:10 | 00:00:00 | |
| AA1-15 | 2026-08-30 22:49:39 | 54.10013 | 13.43529 | 96° | 35km/h | 1404m | 4.8m/s | 11.1°C | 79.4% | 859.5hPa | 2.9V | 18:12:15 | 00:30:09 | 00:00:00 | |
| AA1-15 | 2026-08-30 22:49:38 | 54.10010 | 13.43470 | 63° | 29km/h | 1379m | 5.3m/s | 11.2°C | 79.4% | 862.2hPa | 2.9V | 18:12:15 | 00:30:04 | 00:00:00 | |
| AA1-15 | 2026-08-30 22:49:37 | 54.10007 | 13.43458 | 61° | 37km/h | 1374m | 4.9m/s | 11.2°C | 79.8% | 862.8hPa | 2.9V | 18:12:15 | 00:30:03 | 00:00:00 | |
| AA1-15 | 2026-08-30 22:49:36 | 54.10002 | 13.43443 | 67° | 40km/h | 1369m | 5.4m/s | 11.2°C | 79.8% | 863.4hPa | 2.9V | 18:12:15 | 00:30:02 | 00:00:00 | |
| AA1-15 | 2026-08-30 22:49:35 | 54.09999 | 13.43426 | 72° | 42km/h | 1364m | 6.5m/s | 11.2°C | 80% | 863.8hPa | 2.9V | 18:12:15 | 00:30:01 | 00:00:00 | |
| AA1-15 | 2026-08-30 22:49:30 | 54.09997 | 13.43409 | 80° | 40km/h | 1358m | 5.3m/s | 11.2°C | 79.9% | 864.5hPa | 2.9V | 18:12:15 | 00:30:00 | 00:00:00 | |
| AA1-15 | 2026-08-30 22:49:28 | 54.09997 | 13.43365 | 93° | 27km/h | 1342m | 5.3m/s | 11°C | 82.9% | 866.2hPa | 2.9V | 18:12:15 | 00:29:57 | 00:00:00 | |
| AA1-15 | 2026-08-30 22:49:27 | 54.09998 | 13.43354 | 98° | 26km/h | 1337m | 5m/s | 11°C | 82.9% | 866.5hPa | 2.9V | 18:12:15 | 00:29:56 | 00:00:00 | |
| AA1-15 | 2026-08-30 22:49:26 | 54.09999 | 13.43344 | 97° | 24km/h | 1331m | 5.5m/s | 11.1°C | 82.2% | 867.3hPa | 2.9V | 18:12:15 | 00:29:55 | 00:00:00 | |
| AA1-15 | 2026-08-30 22:49:23 | 54.10002 | 13.43322 | 98° | 29km/h | 1320m | 4.5m/s | 11.1°C | 81.1% | 868.2hPa | 2.9V | 18:12:15 | 00:29:53 | 00:00:00 | |
| AA1-15 | 2026-08-30 22:49:22 | 54.10002 | 13.43308 | 95° | 33km/h | 1317m | 3.4m/s | 11.1°C | 81.1% | 868.6hPa | 2.9V | 18:12:15 | 00:29:52 | 00:00:00 | |
| AA1-15 | 2026-08-30 22:49:20 | 54.10003 | 13.43275 | 89° | 44km/h | 1308m | 5.1m/s | 11.2°C | 82% | 869.5hPa | 2.9V | 18:12:15 | 00:29:50 | 00:00:00 | |
| AA1-15 | 2026-08-30 22:49:19 | 54.10002 | 13.43256 | 79° | 46km/h | 1303m | 4m/s | 11.1°C | 83.1% | 870hPa | 2.9V | 18:12:15 | 00:29:49 | 00:00:00 | |
| AA1-15 | 2026-08-30 22:49:18 | 54.09999 | 13.43237 | 75° | 44km/h | 1300m | 3.8m/s | 11°C | 84.1% | 870.4hPa | 2.9V | 18:12:15 | 00:29:48 | 00:00:00 | |
| AA1-15 | 2026-08-30 22:49:16 | 54.09992 | 13.43202 | 64° | 42km/h | 1292m | 3.9m/s | 10.9°C | 86.3% | 871.2hPa | 2.9V | 18:12:15 | 00:29:46 | 00:00:00 | |
| AA1-15 | 2026-08-30 22:49:15 | 54.09987 | 13.43186 | 64° | 40km/h | 1288m | 3.9m/s | 10.9°C | 87% | 871.6hPa | 2.9V | 18:12:15 | 00:29:45 | 00:00:00 | |
| AA1-15 | 2026-08-30 22:49:14 | 54.09983 | 13.43170 | 66° | 40km/h | 1284m | 4.6m/s | 11°C | 87.3% | 872.1hPa | 2.9V | 18:12:15 | 00:29:44 | 00:00:00 | |
| AA1-15 | 2026-08-30 22:49:12 | 54.09974 | 13.43138 | 70° | 40km/h | 1274m | 5.3m/s | 11°C | 85.8% | 873hPa | 2.9V | 18:12:15 | 00:29:42 | 00:00:00 | |
| AA1-15 | 2026-08-30 22:49:11 | 54.09971 | 13.43122 | 72° | 38km/h | 1269m | 4.7m/s | 11.1°C | 84.9% | 873.5hPa | 2.9V | 18:12:15 | 00:29:41 | 00:00:00 | |
| AA1-15 | 2026-08-30 22:49:10 | 54.09968 | 13.43106 | 78° | 37km/h | 1265m | 5.5m/s | 11.1°C | 84.7% | 874.2hPa | 2.9V | 18:12:15 | 00:29:40 | 00:00:00 | |
| AA1-15 | 2026-08-30 22:49:08 | 54.09966 | 13.43077 | 86° | 33km/h | 1253m | 5.4m/s | 11.2°C | 82.9% | 875.3hPa | 2.9V | 18:12:15 | 00:29:38 | 00:00:00 | |
| AA1-15 | 2026-08-30 22:49:07 | 54.09966 | 13.43063 | 87° | 31km/h | 1248m | 4.7m/s | 11.2°C | 81% | 875.8hPa | 2.9V | 18:12:15 | 00:29:37 | 00:00:00 | |
| AA1-15 | 2026-08-30 22:49:06 | 54.09965 | 13.43051 | 83° | 29km/h | 1243m | 4.7m/s | 11.3°C | 80.5% | 876.4hPa | 2.9V | 18:12:15 | 00:29:36 | 00:00:00 | |
| AA1-15 | 2026-08-30 22:49:05 | 54.09961 | 13.43026 | 66° | 29km/h | 1234m | 2.9m/s | 11.3°C | 80.1% | 877.2hPa | 2.9V | 18:12:15 | 00:29:34 | 00:00:00 | |
| AA1-15 | 2026-08-30 22:49:04 | 54.09958 | 13.43014 | 63° | 29km/h | 1231m | 3.7m/s | 11.4°C | 79.1% | 877.7hPa | 2.9V | 18:12:15 | 00:29:33 | 00:00:00 | |
| AA1-15 | 2026-08-30 22:49:01 | 54.09951 | 13.42994 | 66° | 26km/h | 1225m | 3.3m/s | 11.5°C | 79.2% | 878hPa | 2.9V | 18:12:15 | 00:29:31 | 00:00:00 | |
| AA1-15 | 2026-08-30 22:49:00 | 54.09949 | 13.42985 | 69° | 22km/h | 1221m | 2.7m/s | 11.5°C | 79.2% | 878.6hPa | 2.9V | 18:12:15 | 00:29:30 | 00:00:00 | |
| AA1-15 | 2026-08-30 22:48:59 | 54.09948 | 13.42976 | 79° | 20km/h | 1219m | 3.6m/s | 11.5°C | 79.7% | 878.9hPa | 2.9V | 18:12:15 | 00:29:29 | 00:00:00 | |
| AA1-15 | 2026-08-30 22:48:57 | 54.09945 | 13.42959 | 76° | 22km/h | 1210m | 5.3m/s | 11.6°C | 80.5% | 0hPa | 2.9V | 18:12:15 | 00:29:27 | 00:00:00 | |
| AA1-15 | 2026-08-30 22:48:57 | 54.09943 | 13.42949 | 68° | 24km/h | 1205m | 5.9m/s | 11.6°C | 80.2% | 0hPa | 2.9V | 18:12:15 | 00:29:26 | 00:00:00 | |
| AA1-15 | 2026-08-30 22:48:55 | 54.09940 | 13.42939 | 66° | 29km/h | 1198m | 6.4m/s | 11.7°C | 79.7% | 0hPa | 2.9V | 18:12:15 | 00:29:25 | 00:00:00 | |
| AA1-15 | 2026-08-30 22:48:53 | 54.09935 | 13.42910 | 74° | 40km/h | 1188m | 3.9m/s | 11.7°C | 78.8% | 0hPa | 2.9V | 18:12:15 | 00:29:23 | 00:00:00 | |
| AA1-15 | 2026-08-30 22:48:53 | 54.09932 | 13.42893 | 82° | 42km/h | 1184m | 4.9m/s | 11.8°C | 79% | 0hPa | 2.9V | 18:12:15 | 00:29:22 | 00:00:00 | |
| AA1-15 | 2026-08-30 22:48:50 | 54.09930 | 13.42858 | 82° | 38km/h | 1174m | 5.8m/s | 11.9°C | 78.9% | 0hPa | 2.9V | 18:12:15 | 00:29:20 | 00:00:00 | |
| AA1-15 | 2026-08-30 22:48:49 | 54.09929 | 13.42843 | 85° | 35km/h | 1168m | 5.1m/s | 11.9°C | 79.6% | 0hPa | 2.9V | 18:12:15 | 00:29:19 | 00:00:00 | |
| AA1-15 | 2026-08-30 22:48:48 | 54.09928 | 13.42829 | 80° | 29km/h | 1164m | 4.7m/s | 11.9°C | 80.3% | 0hPa | 2.9V | 18:12:15 | 00:29:18 | 00:00:00 | |
| AA1-15 | 2026-08-30 22:48:46 | 54.09924 | 13.42806 | 69° | 29km/h | 1153m | 7.1m/s | 12°C | 80.6% | 0hPa | 2.9V | 18:12:15 | 00:29:16 | 00:00:00 | |
| AA1-15 | 2026-08-30 22:48:45 | 54.09921 | 13.42793 | 70° | 33km/h | 1147m | 5.6m/s | 12°C | 79.7% | 0hPa | 2.9V | 18:12:15 | 00:29:15 | 00:00:00 | |
| AA1-15 | 2026-08-30 22:48:44 | 54.09918 | 13.42779 | 79° | 37km/h | 1142m | 4.3m/s | 12°C | 79.5% | 0hPa | 2.9V | 18:12:15 | 00:29:14 | 00:00:00 | |
| AA1-15 | 2026-08-30 22:48:42 | 54.09918 | 13.42746 | 98° | 38km/h | 1133m | 3.4m/s | 12.1°C | 79.5% | 0hPa | 2.9V | 18:12:15 | 00:29:12 | 00:00:00 | |
| AA1-15 | 2026-08-30 22:48:41 | 54.09921 | 13.42729 | 106° | 42km/h | 1129m | 5.7m/s | 12.1°C | 79.7% | 0hPa | 2.9V | 18:12:15 | 00:29:11 | 00:00:00 | |
| AA1-15 | 2026-08-30 22:48:39 | 54.09927 | 13.42696 | 109° | 38km/h | 1116m | 5.7m/s | 12.2°C | 77.3% | 0hPa | 2.9V | 18:12:15 | 00:29:09 | 00:00:00 | |
| AA1-15 | 2026-08-30 22:48:38 | 54.09930 | 13.42682 | 102° | 35km/h | 1111m | 4.9m/s | 12.3°C | 76.7% | 0hPa | 2.9V | 18:12:15 | 00:29:08 | 00:00:00 | |
| AA1-15 | 2026-08-30 22:48:37 | 54.09931 | 13.42667 | 97° | 33km/h | 1106m | 5.7m/s | 12.3°C | 76.3% | 0hPa | 2.9V | 18:12:15 | 00:29:07 | 00:00:00 | |
| AA1-15 | 2026-08-30 22:48:35 | 54.09931 | 13.42639 | 85° | 31km/h | 1096m | 5.8m/s | 12.4°C | 77.5% | 0hPa | 2.9V | 18:12:15 | 00:29:05 | 00:00:00 | |
| AA1-15 | 2026-08-30 22:48:34 | 54.09930 | 13.42626 | 86° | 33km/h | 1089m | 7.4m/s | 12.5°C | 77.2% | 0hPa | 2.9V | 18:12:15 | 00:29:04 | 00:00:00 | |
| AA1-15 | 2026-08-30 22:48:33 | 54.09930 | 13.42611 | 92° | 35km/h | 1082m | 6.7m/s | 12.5°C | 76.9% | 0hPa | 2.9V | 18:12:15 | 00:29:03 | 00:00:00 | |
| AA1-15 | 2026-08-30 22:48:31 | 54.09937 | 13.42561 | 108° | 40km/h | 1067m | 5m/s | 0°C | 0% | 0hPa | 2.9V | 18:12:15 | 00:29:00 | 00:00:00 | |
| AA1-15 | 2026-08-30 22:48:30 | 54.09940 | 13.42544 | 107° | 40km/h | 1062m | 4.3m/s | 0°C | 0% | 0hPa | 2.9V | 18:12:15 | 00:28:59 | 00:00:00 | |
| AA1-15 | 2026-08-30 22:48:27 | 54.09944 | 13.42514 | 103° | 31km/h | 1055m | 4.4m/s | 0°C | 0% | 0hPa | 2.9V | 18:12:15 | 00:28:57 | 00:00:00 | |
| AA1-15 | 2026-08-30 22:48:22 | 54.09940 | 13.42470 | 59° | 22km/h | 1025m | 5.3m/s | 0°C | 0% | 0hPa | 2.9V | 18:12:15 | 00:28:52 | 00:00:00 | |
| AA1-15 | 2026-08-30 22:48:20 | 54.09934 | 13.42452 | 62° | 27km/h | 1014m | 5.6m/s | 0°C | 0% | 0hPa | 2.9V | 18:12:15 | 00:28:50 | 00:00:00 | |
| AA1-15 | 2026-08-30 22:48:19 | 54.09930 | 13.42440 | 67° | 33km/h | 1009m | 4.6m/s | 0°C | 0% | 0hPa | 2.9V | 18:12:15 | 00:28:49 | 00:00:00 | |
| AA1-15 | 2026-08-30 22:48:18 | 54.09927 | 13.42426 | 69° | 37km/h | 1004m | 5.1m/s | 0°C | 0% | 0hPa | 2.9V | 18:12:15 | 00:28:48 | 00:00:00 | |
| AA1-15 | 2026-08-30 22:48:16 | 54.09922 | 13.42394 | 80° | 40km/h | 996m | 4.5m/s | 0°C | 0% | 0hPa | 2.9V | 18:12:15 | 00:28:46 | 00:00:00 | |
| AA1-15 | 2026-08-30 22:48:15 | 54.09920 | 13.42377 | 82° | 38km/h | 992m | 3.3m/s | 0°C | 0% | 0hPa | 2.9V | 18:12:15 | 00:28:45 | 00:00:00 | |
| AA1-15 | 2026-08-30 22:48:14 | 54.09919 | 13.42360 | 87° | 40km/h | 988m | 4.4m/s | 0°C | 0% | 0hPa | 2.9V | 18:12:15 | 00:28:44 | 00:00:00 | |
| AA1-15 | 2026-08-30 22:48:12 | 54.09917 | 13.42327 | 84° | 35km/h | 980m | 3.9m/s | 0°C | 0% | 0hPa | 2.9V | 18:12:15 | 00:28:42 | 00:00:00 | |
| AA1-15 | 2026-08-30 22:48:11 | 54.09916 | 13.42313 | 78° | 31km/h | 976m | 4.3m/s | 0°C | 0% | 0hPa | 2.9V | 18:12:15 | 00:28:41 | 00:00:00 |